<?xml version="1.0" encoding="UTF-8" standalone="no" ?>
<gpx xmlns="http://www.topografix.com/GPX/1/1" xmlns:xsi="http://www.w3.org/2001/XMLSchema-instance" xsi:schemaLocation="http://www.topografix.com/GPX/1/1 http://www.topografix.com/GPX/1/1/gpx.xsd" version="1.1" creator="VisuGPX - https://www.visugpx.com">
  <metadata>
    <name>2018-04-20am Bike ride VTT-Amberieux Les Cheres O</name>
    <desc><![CDATA[2018-04-20am Bike ride VTT-Amberieux Les Cheres O]]></desc>
  </metadata>
  <wpt lat="45.92459" lon="4.73711">
    <ele>174</ele>
    <name><![CDATA[2018-04-20 09:31 (Start)]]></name>
  </wpt>
  <wpt lat="45.92461" lon="4.73709">
    <ele>174</ele>
    <name><![CDATA[2018-04-20 09:31 (End)]]></name>
  </wpt>
  <trk>
    <name><![CDATA[2018-04-20 09:31]]></name>
    <trkseg>
      <trkpt lat="45.92459" lon="4.73711">
        <ele>174</ele>
        <time>2018-04-20T07:31:54.484Z</time>
      </trkpt>
      <trkpt lat="45.92453" lon="4.73707">
        <ele>174</ele>
        <time>2018-04-20T07:32:02Z</time>
      </trkpt>
      <trkpt lat="45.92448" lon="4.73714">
        <ele>174</ele>
        <time>2018-04-20T07:32:03Z</time>
      </trkpt>
      <trkpt lat="45.92456" lon="4.73708">
        <ele>174</ele>
        <time>2018-04-20T07:33:01Z</time>
      </trkpt>
      <trkpt lat="45.92456" lon="4.73708">
        <ele>174</ele>
        <time>2018-04-20T07:33:02Z</time>
      </trkpt>
      <trkpt lat="45.9246" lon="4.73707">
        <ele>174</ele>
        <time>2018-04-20T07:33:57Z</time>
      </trkpt>
      <trkpt lat="45.9246" lon="4.73707">
        <ele>174</ele>
        <time>2018-04-20T07:33:58Z</time>
      </trkpt>
      <trkpt lat="45.92461" lon="4.73708">
        <ele>174</ele>
        <time>2018-04-20T07:35:50Z</time>
      </trkpt>
      <trkpt lat="45.92461" lon="4.73708">
        <ele>174</ele>
        <time>2018-04-20T07:35:51Z</time>
      </trkpt>
      <trkpt lat="45.92465" lon="4.73719">
        <ele>174</ele>
        <time>2018-04-20T07:36:08Z</time>
      </trkpt>
      <trkpt lat="45.92465" lon="4.73722">
        <ele>174</ele>
        <time>2018-04-20T07:36:09Z</time>
      </trkpt>
      <trkpt lat="45.92464" lon="4.73734">
        <ele>174</ele>
        <time>2018-04-20T07:36:13Z</time>
      </trkpt>
      <trkpt lat="45.92463" lon="4.73738">
        <ele>174</ele>
        <time>2018-04-20T07:36:14Z</time>
      </trkpt>
      <trkpt lat="45.92462" lon="4.73749">
        <ele>174</ele>
        <time>2018-04-20T07:36:17Z</time>
      </trkpt>
      <trkpt lat="45.92462" lon="4.73752">
        <ele>173</ele>
        <time>2018-04-20T07:36:18Z</time>
      </trkpt>
      <trkpt lat="45.92461" lon="4.73759">
        <ele>173</ele>
        <time>2018-04-20T07:36:20Z</time>
      </trkpt>
      <trkpt lat="45.9246" lon="4.73772">
        <ele>173</ele>
        <time>2018-04-20T07:36:21Z</time>
      </trkpt>
      <trkpt lat="45.92461" lon="4.73778">
        <ele>173</ele>
        <time>2018-04-20T07:36:23Z</time>
      </trkpt>
      <trkpt lat="45.92461" lon="4.73788">
        <ele>172</ele>
        <time>2018-04-20T07:36:24Z</time>
      </trkpt>
      <trkpt lat="45.92461" lon="4.738">
        <ele>172</ele>
        <time>2018-04-20T07:36:28Z</time>
      </trkpt>
      <trkpt lat="45.9246" lon="4.73804">
        <ele>172</ele>
        <time>2018-04-20T07:36:29Z</time>
      </trkpt>
      <trkpt lat="45.9246" lon="4.73807">
        <ele>172</ele>
        <time>2018-04-20T07:36:30Z</time>
      </trkpt>
      <trkpt lat="45.9246" lon="4.7382">
        <ele>172</ele>
        <time>2018-04-20T07:36:31Z</time>
      </trkpt>
      <trkpt lat="45.92459" lon="4.73829">
        <ele>172</ele>
        <time>2018-04-20T07:36:34Z</time>
      </trkpt>
      <trkpt lat="45.92458" lon="4.73839">
        <ele>171</ele>
        <time>2018-04-20T07:36:35Z</time>
      </trkpt>
      <trkpt lat="45.92456" lon="4.73851">
        <ele>171</ele>
        <time>2018-04-20T07:36:38Z</time>
      </trkpt>
      <trkpt lat="45.92456" lon="4.73861">
        <ele>171</ele>
        <time>2018-04-20T07:36:39Z</time>
      </trkpt>
      <trkpt lat="45.92457" lon="4.73871">
        <ele>171</ele>
        <time>2018-04-20T07:36:41Z</time>
      </trkpt>
      <trkpt lat="45.92458" lon="4.73876">
        <ele>171</ele>
        <time>2018-04-20T07:36:42Z</time>
      </trkpt>
      <trkpt lat="45.9246" lon="4.73882">
        <ele>171</ele>
        <time>2018-04-20T07:36:43Z</time>
      </trkpt>
      <trkpt lat="45.9246" lon="4.73889">
        <ele>171</ele>
        <time>2018-04-20T07:36:44Z</time>
      </trkpt>
      <trkpt lat="45.92459" lon="4.73901">
        <ele>171</ele>
        <time>2018-04-20T07:36:46Z</time>
      </trkpt>
      <trkpt lat="45.92458" lon="4.73907">
        <ele>172</ele>
        <time>2018-04-20T07:36:47Z</time>
      </trkpt>
      <trkpt lat="45.92457" lon="4.73917">
        <ele>172</ele>
        <time>2018-04-20T07:36:50Z</time>
      </trkpt>
      <trkpt lat="45.92456" lon="4.73927">
        <ele>172</ele>
        <time>2018-04-20T07:36:51Z</time>
      </trkpt>
      <trkpt lat="45.92456" lon="4.73932">
        <ele>172</ele>
        <time>2018-04-20T07:36:53Z</time>
      </trkpt>
      <trkpt lat="45.92457" lon="4.73941">
        <ele>172</ele>
        <time>2018-04-20T07:36:54Z</time>
      </trkpt>
      <trkpt lat="45.9246" lon="4.73951">
        <ele>172</ele>
        <time>2018-04-20T07:36:57Z</time>
      </trkpt>
      <trkpt lat="45.92465" lon="4.73958">
        <ele>172</ele>
        <time>2018-04-20T07:36:58Z</time>
      </trkpt>
      <trkpt lat="45.92474" lon="4.73958">
        <ele>172</ele>
        <time>2018-04-20T07:36:59Z</time>
      </trkpt>
      <trkpt lat="45.92478" lon="4.73959">
        <ele>172</ele>
        <time>2018-04-20T07:37:00Z</time>
      </trkpt>
      <trkpt lat="45.92486" lon="4.73964">
        <ele>172</ele>
        <time>2018-04-20T07:37:04Z</time>
      </trkpt>
      <trkpt lat="45.92488" lon="4.73965">
        <ele>172</ele>
        <time>2018-04-20T07:37:05Z</time>
      </trkpt>
      <trkpt lat="45.92495" lon="4.73969">
        <ele>172</ele>
        <time>2018-04-20T07:37:08Z</time>
      </trkpt>
      <trkpt lat="45.92497" lon="4.73971">
        <ele>172</ele>
        <time>2018-04-20T07:37:09Z</time>
      </trkpt>
      <trkpt lat="45.92505" lon="4.73974">
        <ele>172</ele>
        <time>2018-04-20T07:37:12Z</time>
      </trkpt>
      <trkpt lat="45.92508" lon="4.73975">
        <ele>172</ele>
        <time>2018-04-20T07:37:13Z</time>
      </trkpt>
      <trkpt lat="45.92511" lon="4.73976">
        <ele>172</ele>
        <time>2018-04-20T07:37:14Z</time>
      </trkpt>
      <trkpt lat="45.92526" lon="4.73989">
        <ele>172</ele>
        <time>2018-04-20T07:37:15Z</time>
      </trkpt>
      <trkpt lat="45.92533" lon="4.73993">
        <ele>172</ele>
        <time>2018-04-20T07:37:18Z</time>
      </trkpt>
      <trkpt lat="45.92535" lon="4.73994">
        <ele>172</ele>
        <time>2018-04-20T07:37:19Z</time>
      </trkpt>
      <trkpt lat="45.92541" lon="4.73998">
        <ele>172</ele>
        <time>2018-04-20T07:37:22Z</time>
      </trkpt>
      <trkpt lat="45.92544" lon="4.74">
        <ele>172</ele>
        <time>2018-04-20T07:37:23Z</time>
      </trkpt>
      <trkpt lat="45.92549" lon="4.74008">
        <ele>172</ele>
        <time>2018-04-20T07:37:24Z</time>
      </trkpt>
      <trkpt lat="45.9255" lon="4.7401">
        <ele>172</ele>
        <time>2018-04-20T07:37:25Z</time>
      </trkpt>
      <trkpt lat="45.92558" lon="4.74011">
        <ele>172</ele>
        <time>2018-04-20T07:37:30Z</time>
      </trkpt>
      <trkpt lat="45.9256" lon="4.74009">
        <ele>172</ele>
        <time>2018-04-20T07:37:31Z</time>
      </trkpt>
      <trkpt lat="45.92565" lon="4.74002">
        <ele>172</ele>
        <time>2018-04-20T07:37:35Z</time>
      </trkpt>
      <trkpt lat="45.92567" lon="4.74001">
        <ele>172</ele>
        <time>2018-04-20T07:37:36Z</time>
      </trkpt>
      <trkpt lat="45.92574" lon="4.73997">
        <ele>172</ele>
        <time>2018-04-20T07:37:39Z</time>
      </trkpt>
      <trkpt lat="45.92576" lon="4.73995">
        <ele>172</ele>
        <time>2018-04-20T07:37:40Z</time>
      </trkpt>
      <trkpt lat="45.92583" lon="4.73989">
        <ele>172</ele>
        <time>2018-04-20T07:37:44Z</time>
      </trkpt>
      <trkpt lat="45.92585" lon="4.73988">
        <ele>172</ele>
        <time>2018-04-20T07:37:45Z</time>
      </trkpt>
      <trkpt lat="45.92593" lon="4.73981">
        <ele>172</ele>
        <time>2018-04-20T07:37:49Z</time>
      </trkpt>
      <trkpt lat="45.92595" lon="4.73979">
        <ele>172</ele>
        <time>2018-04-20T07:37:50Z</time>
      </trkpt>
      <trkpt lat="45.92603" lon="4.73973">
        <ele>172</ele>
        <time>2018-04-20T07:37:53Z</time>
      </trkpt>
      <trkpt lat="45.92606" lon="4.73971">
        <ele>172</ele>
        <time>2018-04-20T07:37:54Z</time>
      </trkpt>
      <trkpt lat="45.92615" lon="4.73965">
        <ele>172</ele>
        <time>2018-04-20T07:37:55Z</time>
      </trkpt>
      <trkpt lat="45.92621" lon="4.73961">
        <ele>172</ele>
        <time>2018-04-20T07:37:58Z</time>
      </trkpt>
      <trkpt lat="45.92624" lon="4.7396">
        <ele>172</ele>
        <time>2018-04-20T07:37:59Z</time>
      </trkpt>
      <trkpt lat="45.92631" lon="4.73957">
        <ele>172</ele>
        <time>2018-04-20T07:38:02Z</time>
      </trkpt>
      <trkpt lat="45.92634" lon="4.73956">
        <ele>172</ele>
        <time>2018-04-20T07:38:03Z</time>
      </trkpt>
      <trkpt lat="45.92643" lon="4.73952">
        <ele>172</ele>
        <time>2018-04-20T07:38:04Z</time>
      </trkpt>
      <trkpt lat="45.9265" lon="4.73949">
        <ele>172</ele>
        <time>2018-04-20T07:38:07Z</time>
      </trkpt>
      <trkpt lat="45.92652" lon="4.73948">
        <ele>172</ele>
        <time>2018-04-20T07:38:08Z</time>
      </trkpt>
      <trkpt lat="45.92659" lon="4.73943">
        <ele>172</ele>
        <time>2018-04-20T07:38:11Z</time>
      </trkpt>
      <trkpt lat="45.92661" lon="4.73941">
        <ele>171</ele>
        <time>2018-04-20T07:38:12Z</time>
      </trkpt>
      <trkpt lat="45.92663" lon="4.73939">
        <ele>171</ele>
        <time>2018-04-20T07:38:13Z</time>
      </trkpt>
      <trkpt lat="45.92671" lon="4.73933">
        <ele>172</ele>
        <time>2018-04-20T07:38:14Z</time>
      </trkpt>
      <trkpt lat="45.9268" lon="4.73935">
        <ele>172</ele>
        <time>2018-04-20T07:38:16Z</time>
      </trkpt>
      <trkpt lat="45.92684" lon="4.73933">
        <ele>172</ele>
        <time>2018-04-20T07:38:17Z</time>
      </trkpt>
      <trkpt lat="45.92691" lon="4.73932">
        <ele>172</ele>
        <time>2018-04-20T07:38:19Z</time>
      </trkpt>
      <trkpt lat="45.92694" lon="4.73931">
        <ele>172</ele>
        <time>2018-04-20T07:38:20Z</time>
      </trkpt>
      <trkpt lat="45.92699" lon="4.7393">
        <ele>172</ele>
        <time>2018-04-20T07:38:22Z</time>
      </trkpt>
      <trkpt lat="45.92705" lon="4.73928">
        <ele>172</ele>
        <time>2018-04-20T07:38:23Z</time>
      </trkpt>
      <trkpt lat="45.92711" lon="4.73926">
        <ele>172</ele>
        <time>2018-04-20T07:38:26Z</time>
      </trkpt>
      <trkpt lat="45.92714" lon="4.73925">
        <ele>172</ele>
        <time>2018-04-20T07:38:27Z</time>
      </trkpt>
      <trkpt lat="45.92721" lon="4.73922">
        <ele>172</ele>
        <time>2018-04-20T07:38:30Z</time>
      </trkpt>
      <trkpt lat="45.92724" lon="4.73921">
        <ele>172</ele>
        <time>2018-04-20T07:38:31Z</time>
      </trkpt>
      <trkpt lat="45.92731" lon="4.73915">
        <ele>172</ele>
        <time>2018-04-20T07:38:34Z</time>
      </trkpt>
      <trkpt lat="45.92733" lon="4.73912">
        <ele>172</ele>
        <time>2018-04-20T07:38:35Z</time>
      </trkpt>
      <trkpt lat="45.92737" lon="4.73905">
        <ele>172</ele>
        <time>2018-04-20T07:38:37Z</time>
      </trkpt>
      <trkpt lat="45.92742" lon="4.73894">
        <ele>172</ele>
        <time>2018-04-20T07:38:38Z</time>
      </trkpt>
      <trkpt lat="45.92745" lon="4.73887">
        <ele>172</ele>
        <time>2018-04-20T07:38:41Z</time>
      </trkpt>
      <trkpt lat="45.92747" lon="4.73883">
        <ele>172</ele>
        <time>2018-04-20T07:38:42Z</time>
      </trkpt>
      <trkpt lat="45.9275" lon="4.73872">
        <ele>172</ele>
        <time>2018-04-20T07:38:43Z</time>
      </trkpt>
      <trkpt lat="45.92751" lon="4.73867">
        <ele>172</ele>
        <time>2018-04-20T07:38:44Z</time>
      </trkpt>
      <trkpt lat="45.92753" lon="4.73861">
        <ele>172</ele>
        <time>2018-04-20T07:38:46Z</time>
      </trkpt>
      <trkpt lat="45.92755" lon="4.73853">
        <ele>172</ele>
        <time>2018-04-20T07:38:47Z</time>
      </trkpt>
      <trkpt lat="45.92759" lon="4.73842">
        <ele>172</ele>
        <time>2018-04-20T07:38:49Z</time>
      </trkpt>
      <trkpt lat="45.9276" lon="4.73837">
        <ele>172</ele>
        <time>2018-04-20T07:38:50Z</time>
      </trkpt>
      <trkpt lat="45.92764" lon="4.73827">
        <ele>172</ele>
        <time>2018-04-20T07:38:52Z</time>
      </trkpt>
      <trkpt lat="45.92765" lon="4.73821">
        <ele>172</ele>
        <time>2018-04-20T07:38:53Z</time>
      </trkpt>
      <trkpt lat="45.92766" lon="4.73809">
        <ele>173</ele>
        <time>2018-04-20T07:38:55Z</time>
      </trkpt>
      <trkpt lat="45.92768" lon="4.73803">
        <ele>173</ele>
        <time>2018-04-20T07:38:56Z</time>
      </trkpt>
      <trkpt lat="45.92771" lon="4.73792">
        <ele>173</ele>
        <time>2018-04-20T07:38:58Z</time>
      </trkpt>
      <trkpt lat="45.92772" lon="4.73786">
        <ele>173</ele>
        <time>2018-04-20T07:38:59Z</time>
      </trkpt>
      <trkpt lat="45.92776" lon="4.73777">
        <ele>173</ele>
        <time>2018-04-20T07:39:01Z</time>
      </trkpt>
      <trkpt lat="45.92776" lon="4.73774">
        <ele>173</ele>
        <time>2018-04-20T07:39:02Z</time>
      </trkpt>
      <trkpt lat="45.9278" lon="4.73765">
        <ele>173</ele>
        <time>2018-04-20T07:39:04Z</time>
      </trkpt>
      <trkpt lat="45.92781" lon="4.73762">
        <ele>173</ele>
        <time>2018-04-20T07:39:05Z</time>
      </trkpt>
      <trkpt lat="45.92784" lon="4.73757">
        <ele>173</ele>
        <time>2018-04-20T07:39:07Z</time>
      </trkpt>
      <trkpt lat="45.9279" lon="4.73752">
        <ele>173</ele>
        <time>2018-04-20T07:39:08Z</time>
      </trkpt>
      <trkpt lat="45.92795" lon="4.73753">
        <ele>173</ele>
        <time>2018-04-20T07:39:09Z</time>
      </trkpt>
      <trkpt lat="45.92799" lon="4.7376">
        <ele>173</ele>
        <time>2018-04-20T07:39:10Z</time>
      </trkpt>
      <trkpt lat="45.92807" lon="4.73763">
        <ele>173</ele>
        <time>2018-04-20T07:39:12Z</time>
      </trkpt>
      <trkpt lat="45.92812" lon="4.73766">
        <ele>173</ele>
        <time>2018-04-20T07:39:13Z</time>
      </trkpt>
      <trkpt lat="45.92818" lon="4.73772">
        <ele>173</ele>
        <time>2018-04-20T07:39:15Z</time>
      </trkpt>
      <trkpt lat="45.92822" lon="4.73774">
        <ele>173</ele>
        <time>2018-04-20T07:39:16Z</time>
      </trkpt>
      <trkpt lat="45.9283" lon="4.73781">
        <ele>173</ele>
        <time>2018-04-20T07:39:18Z</time>
      </trkpt>
      <trkpt lat="45.92834" lon="4.73785">
        <ele>173</ele>
        <time>2018-04-20T07:39:19Z</time>
      </trkpt>
      <trkpt lat="45.92842" lon="4.73789">
        <ele>173</ele>
        <time>2018-04-20T07:39:22Z</time>
      </trkpt>
      <trkpt lat="45.92846" lon="4.73793">
        <ele>173</ele>
        <time>2018-04-20T07:39:23Z</time>
      </trkpt>
      <trkpt lat="45.92851" lon="4.73799">
        <ele>173</ele>
        <time>2018-04-20T07:39:25Z</time>
      </trkpt>
      <trkpt lat="45.92853" lon="4.73807">
        <ele>173</ele>
        <time>2018-04-20T07:39:26Z</time>
      </trkpt>
      <trkpt lat="45.92855" lon="4.73817">
        <ele>173</ele>
        <time>2018-04-20T07:39:28Z</time>
      </trkpt>
      <trkpt lat="45.92858" lon="4.73823">
        <ele>173</ele>
        <time>2018-04-20T07:39:29Z</time>
      </trkpt>
      <trkpt lat="45.92861" lon="4.73832">
        <ele>173</ele>
        <time>2018-04-20T07:39:31Z</time>
      </trkpt>
      <trkpt lat="45.92862" lon="4.73837">
        <ele>173</ele>
        <time>2018-04-20T07:39:32Z</time>
      </trkpt>
      <trkpt lat="45.92864" lon="4.73844">
        <ele>173</ele>
        <time>2018-04-20T07:39:33Z</time>
      </trkpt>
      <trkpt lat="45.92871" lon="4.73863">
        <ele>173</ele>
        <time>2018-04-20T07:39:37Z</time>
      </trkpt>
      <trkpt lat="45.92873" lon="4.73871">
        <ele>173</ele>
        <time>2018-04-20T07:39:38Z</time>
      </trkpt>
      <trkpt lat="45.92875" lon="4.73876">
        <ele>173</ele>
        <time>2018-04-20T07:39:39Z</time>
      </trkpt>
      <trkpt lat="45.92877" lon="4.73884">
        <ele>173</ele>
        <time>2018-04-20T07:39:41Z</time>
      </trkpt>
      <trkpt lat="45.92878" lon="4.73894">
        <ele>173</ele>
        <time>2018-04-20T07:39:42Z</time>
      </trkpt>
      <trkpt lat="45.92879" lon="4.73905">
        <ele>173</ele>
        <time>2018-04-20T07:39:44Z</time>
      </trkpt>
      <trkpt lat="45.9288" lon="4.73912">
        <ele>173</ele>
        <time>2018-04-20T07:39:45Z</time>
      </trkpt>
      <trkpt lat="45.9288" lon="4.73924">
        <ele>172</ele>
        <time>2018-04-20T07:39:47Z</time>
      </trkpt>
      <trkpt lat="45.9288" lon="4.73931">
        <ele>172</ele>
        <time>2018-04-20T07:39:48Z</time>
      </trkpt>
      <trkpt lat="45.92881" lon="4.73943">
        <ele>172</ele>
        <time>2018-04-20T07:39:50Z</time>
      </trkpt>
      <trkpt lat="45.92881" lon="4.73949">
        <ele>172</ele>
        <time>2018-04-20T07:39:51Z</time>
      </trkpt>
      <trkpt lat="45.92882" lon="4.7396">
        <ele>172</ele>
        <time>2018-04-20T07:39:53Z</time>
      </trkpt>
      <trkpt lat="45.92882" lon="4.73963">
        <ele>172</ele>
        <time>2018-04-20T07:39:54Z</time>
      </trkpt>
      <trkpt lat="45.92882" lon="4.73974">
        <ele>172</ele>
        <time>2018-04-20T07:39:56Z</time>
      </trkpt>
      <trkpt lat="45.92881" lon="4.73982">
        <ele>172</ele>
        <time>2018-04-20T07:39:57Z</time>
      </trkpt>
      <trkpt lat="45.9288" lon="4.73992">
        <ele>172</ele>
        <time>2018-04-20T07:39:59Z</time>
      </trkpt>
      <trkpt lat="45.92879" lon="4.73998">
        <ele>172</ele>
        <time>2018-04-20T07:40:00Z</time>
      </trkpt>
      <trkpt lat="45.92877" lon="4.7401">
        <ele>172</ele>
        <time>2018-04-20T07:40:02Z</time>
      </trkpt>
      <trkpt lat="45.92877" lon="4.74017">
        <ele>172</ele>
        <time>2018-04-20T07:40:03Z</time>
      </trkpt>
      <trkpt lat="45.92877" lon="4.74023">
        <ele>172</ele>
        <time>2018-04-20T07:40:04Z</time>
      </trkpt>
      <trkpt lat="45.92879" lon="4.74029">
        <ele>172</ele>
        <time>2018-04-20T07:40:05Z</time>
      </trkpt>
      <trkpt lat="45.92883" lon="4.7404">
        <ele>172</ele>
        <time>2018-04-20T07:40:07Z</time>
      </trkpt>
      <trkpt lat="45.92886" lon="4.74043">
        <ele>172</ele>
        <time>2018-04-20T07:40:08Z</time>
      </trkpt>
      <trkpt lat="45.92894" lon="4.74046">
        <ele>172</ele>
        <time>2018-04-20T07:40:10Z</time>
      </trkpt>
      <trkpt lat="45.92896" lon="4.74046">
        <ele>172</ele>
        <time>2018-04-20T07:40:11Z</time>
      </trkpt>
      <trkpt lat="45.92904" lon="4.74048">
        <ele>172</ele>
        <time>2018-04-20T07:40:13Z</time>
      </trkpt>
      <trkpt lat="45.92906" lon="4.7405">
        <ele>172</ele>
        <time>2018-04-20T07:40:14Z</time>
      </trkpt>
      <trkpt lat="45.92911" lon="4.74058">
        <ele>172</ele>
        <time>2018-04-20T07:40:17Z</time>
      </trkpt>
      <trkpt lat="45.92913" lon="4.74061">
        <ele>173</ele>
        <time>2018-04-20T07:40:18Z</time>
      </trkpt>
      <trkpt lat="45.92915" lon="4.74071">
        <ele>173</ele>
        <time>2018-04-20T07:40:21Z</time>
      </trkpt>
      <trkpt lat="45.92915" lon="4.74074">
        <ele>173</ele>
        <time>2018-04-20T07:40:22Z</time>
      </trkpt>
      <trkpt lat="45.92912" lon="4.74084">
        <ele>173</ele>
        <time>2018-04-20T07:40:25Z</time>
      </trkpt>
      <trkpt lat="45.92911" lon="4.74087">
        <ele>173</ele>
        <time>2018-04-20T07:40:26Z</time>
      </trkpt>
      <trkpt lat="45.92906" lon="4.74096">
        <ele>172</ele>
        <time>2018-04-20T07:40:29Z</time>
      </trkpt>
      <trkpt lat="45.92904" lon="4.74098">
        <ele>172</ele>
        <time>2018-04-20T07:40:30Z</time>
      </trkpt>
      <trkpt lat="45.92899" lon="4.74106">
        <ele>172</ele>
        <time>2018-04-20T07:40:33Z</time>
      </trkpt>
      <trkpt lat="45.92897" lon="4.74108">
        <ele>172</ele>
        <time>2018-04-20T07:40:34Z</time>
      </trkpt>
      <trkpt lat="45.9289" lon="4.74115">
        <ele>172</ele>
        <time>2018-04-20T07:40:37Z</time>
      </trkpt>
      <trkpt lat="45.92888" lon="4.74118">
        <ele>172</ele>
        <time>2018-04-20T07:40:38Z</time>
      </trkpt>
      <trkpt lat="45.92884" lon="4.74127">
        <ele>172</ele>
        <time>2018-04-20T07:40:41Z</time>
      </trkpt>
      <trkpt lat="45.92883" lon="4.7413">
        <ele>172</ele>
        <time>2018-04-20T07:40:42Z</time>
      </trkpt>
      <trkpt lat="45.92882" lon="4.74142">
        <ele>172</ele>
        <time>2018-04-20T07:40:45Z</time>
      </trkpt>
      <trkpt lat="45.92883" lon="4.74146">
        <ele>172</ele>
        <time>2018-04-20T07:40:46Z</time>
      </trkpt>
      <trkpt lat="45.92887" lon="4.74157">
        <ele>172</ele>
        <time>2018-04-20T07:40:49Z</time>
      </trkpt>
      <trkpt lat="45.92889" lon="4.7416">
        <ele>172</ele>
        <time>2018-04-20T07:40:50Z</time>
      </trkpt>
      <trkpt lat="45.92894" lon="4.74165">
        <ele>172</ele>
        <time>2018-04-20T07:40:52Z</time>
      </trkpt>
      <trkpt lat="45.92903" lon="4.74172">
        <ele>172</ele>
        <time>2018-04-20T07:40:53Z</time>
      </trkpt>
      <trkpt lat="45.92907" lon="4.74174">
        <ele>172</ele>
        <time>2018-04-20T07:40:55Z</time>
      </trkpt>
      <trkpt lat="45.92912" lon="4.74179">
        <ele>172</ele>
        <time>2018-04-20T07:40:56Z</time>
      </trkpt>
      <trkpt lat="45.92919" lon="4.74184">
        <ele>171</ele>
        <time>2018-04-20T07:40:58Z</time>
      </trkpt>
      <trkpt lat="45.9292" lon="4.74185">
        <ele>171</ele>
        <time>2018-04-20T07:40:59Z</time>
      </trkpt>
      <trkpt lat="45.92926" lon="4.7419">
        <ele>171</ele>
        <time>2018-04-20T07:41:02Z</time>
      </trkpt>
      <trkpt lat="45.92929" lon="4.74192">
        <ele>170</ele>
        <time>2018-04-20T07:41:03Z</time>
      </trkpt>
      <trkpt lat="45.92934" lon="4.74196">
        <ele>170</ele>
        <time>2018-04-20T07:41:05Z</time>
      </trkpt>
      <trkpt lat="45.92937" lon="4.74198">
        <ele>170</ele>
        <time>2018-04-20T07:41:06Z</time>
      </trkpt>
      <trkpt lat="45.9294" lon="4.742">
        <ele>170</ele>
        <time>2018-04-20T07:41:07Z</time>
      </trkpt>
      <trkpt lat="45.92949" lon="4.74204">
        <ele>170</ele>
        <time>2018-04-20T07:41:08Z</time>
      </trkpt>
      <trkpt lat="45.92955" lon="4.74204">
        <ele>170</ele>
        <time>2018-04-20T07:41:11Z</time>
      </trkpt>
      <trkpt lat="45.92958" lon="4.74203">
        <ele>170</ele>
        <time>2018-04-20T07:41:12Z</time>
      </trkpt>
      <trkpt lat="45.92964" lon="4.742">
        <ele>170</ele>
        <time>2018-04-20T07:41:14Z</time>
      </trkpt>
      <trkpt lat="45.92966" lon="4.74198">
        <ele>170</ele>
        <time>2018-04-20T07:41:15Z</time>
      </trkpt>
      <trkpt lat="45.92969" lon="4.74195">
        <ele>170</ele>
        <time>2018-04-20T07:41:16Z</time>
      </trkpt>
      <trkpt lat="45.92976" lon="4.74185">
        <ele>170</ele>
        <time>2018-04-20T07:41:17Z</time>
      </trkpt>
      <trkpt lat="45.9298" lon="4.74175">
        <ele>170</ele>
        <time>2018-04-20T07:41:19Z</time>
      </trkpt>
      <trkpt lat="45.92982" lon="4.74169">
        <ele>169</ele>
        <time>2018-04-20T07:41:20Z</time>
      </trkpt>
      <trkpt lat="45.92986" lon="4.74159">
        <ele>170</ele>
        <time>2018-04-20T07:41:22Z</time>
      </trkpt>
      <trkpt lat="45.92988" lon="4.74153">
        <ele>170</ele>
        <time>2018-04-20T07:41:23Z</time>
      </trkpt>
      <trkpt lat="45.92992" lon="4.74143">
        <ele>170</ele>
        <time>2018-04-20T07:41:25Z</time>
      </trkpt>
      <trkpt lat="45.92994" lon="4.74137">
        <ele>171</ele>
        <time>2018-04-20T07:41:26Z</time>
      </trkpt>
      <trkpt lat="45.92998" lon="4.74127">
        <ele>171</ele>
        <time>2018-04-20T07:41:28Z</time>
      </trkpt>
      <trkpt lat="45.92999" lon="4.74121">
        <ele>171</ele>
        <time>2018-04-20T07:41:29Z</time>
      </trkpt>
      <trkpt lat="45.93002" lon="4.7411">
        <ele>170</ele>
        <time>2018-04-20T07:41:31Z</time>
      </trkpt>
      <trkpt lat="45.93003" lon="4.74104">
        <ele>170</ele>
        <time>2018-04-20T07:41:32Z</time>
      </trkpt>
      <trkpt lat="45.93003" lon="4.74092">
        <ele>171</ele>
        <time>2018-04-20T07:41:34Z</time>
      </trkpt>
      <trkpt lat="45.93004" lon="4.74086">
        <ele>171</ele>
        <time>2018-04-20T07:41:35Z</time>
      </trkpt>
      <trkpt lat="45.93005" lon="4.74079">
        <ele>171</ele>
        <time>2018-04-20T07:41:36Z</time>
      </trkpt>
      <trkpt lat="45.93004" lon="4.74071">
        <ele>170</ele>
        <time>2018-04-20T07:41:37Z</time>
      </trkpt>
      <trkpt lat="45.93004" lon="4.74058">
        <ele>170</ele>
        <time>2018-04-20T07:41:39Z</time>
      </trkpt>
      <trkpt lat="45.93004" lon="4.74051">
        <ele>170</ele>
        <time>2018-04-20T07:41:40Z</time>
      </trkpt>
      <trkpt lat="45.93004" lon="4.74039">
        <ele>170</ele>
        <time>2018-04-20T07:41:42Z</time>
      </trkpt>
      <trkpt lat="45.93004" lon="4.74034">
        <ele>170</ele>
        <time>2018-04-20T07:41:43Z</time>
      </trkpt>
      <trkpt lat="45.93007" lon="4.74022">
        <ele>170</ele>
        <time>2018-04-20T07:41:45Z</time>
      </trkpt>
      <trkpt lat="45.93008" lon="4.74017">
        <ele>170</ele>
        <time>2018-04-20T07:41:46Z</time>
      </trkpt>
      <trkpt lat="45.93012" lon="4.74007">
        <ele>170</ele>
        <time>2018-04-20T07:41:48Z</time>
      </trkpt>
      <trkpt lat="45.93014" lon="4.74002">
        <ele>170</ele>
        <time>2018-04-20T07:41:49Z</time>
      </trkpt>
      <trkpt lat="45.93017" lon="4.73999">
        <ele>169</ele>
        <time>2018-04-20T07:41:51Z</time>
      </trkpt>
      <trkpt lat="45.93022" lon="4.73993">
        <ele>169</ele>
        <time>2018-04-20T07:41:52Z</time>
      </trkpt>
      <trkpt lat="45.93026" lon="4.73991">
        <ele>169</ele>
        <time>2018-04-20T07:41:53Z</time>
      </trkpt>
      <trkpt lat="45.93031" lon="4.73992">
        <ele>169</ele>
        <time>2018-04-20T07:41:54Z</time>
      </trkpt>
      <trkpt lat="45.93038" lon="4.73995">
        <ele>169</ele>
        <time>2018-04-20T07:41:56Z</time>
      </trkpt>
      <trkpt lat="45.93043" lon="4.73997">
        <ele>169</ele>
        <time>2018-04-20T07:41:57Z</time>
      </trkpt>
      <trkpt lat="45.9305" lon="4.74001">
        <ele>169</ele>
        <time>2018-04-20T07:41:59Z</time>
      </trkpt>
      <trkpt lat="45.93054" lon="4.74003">
        <ele>169</ele>
        <time>2018-04-20T07:42:00Z</time>
      </trkpt>
      <trkpt lat="45.93062" lon="4.74005">
        <ele>169</ele>
        <time>2018-04-20T07:42:02Z</time>
      </trkpt>
      <trkpt lat="45.93066" lon="4.74008">
        <ele>169</ele>
        <time>2018-04-20T07:42:03Z</time>
      </trkpt>
      <trkpt lat="45.93069" lon="4.74009">
        <ele>169</ele>
        <time>2018-04-20T07:42:05Z</time>
      </trkpt>
      <trkpt lat="45.93076" lon="4.74011">
        <ele>169</ele>
        <time>2018-04-20T07:42:06Z</time>
      </trkpt>
      <trkpt lat="45.93085" lon="4.74012">
        <ele>168</ele>
        <time>2018-04-20T07:42:10Z</time>
      </trkpt>
      <trkpt lat="45.93088" lon="4.74012">
        <ele>168</ele>
        <time>2018-04-20T07:42:11Z</time>
      </trkpt>
      <trkpt lat="45.93093" lon="4.74013">
        <ele>168</ele>
        <time>2018-04-20T07:42:13Z</time>
      </trkpt>
      <trkpt lat="45.93097" lon="4.74013">
        <ele>168</ele>
        <time>2018-04-20T07:42:14Z</time>
      </trkpt>
      <trkpt lat="45.93103" lon="4.74014">
        <ele>168</ele>
        <time>2018-04-20T07:42:16Z</time>
      </trkpt>
      <trkpt lat="45.93106" lon="4.74014">
        <ele>168</ele>
        <time>2018-04-20T07:42:17Z</time>
      </trkpt>
      <trkpt lat="45.93113" lon="4.74016">
        <ele>168</ele>
        <time>2018-04-20T07:42:20Z</time>
      </trkpt>
      <trkpt lat="45.93116" lon="4.74017">
        <ele>168</ele>
        <time>2018-04-20T07:42:21Z</time>
      </trkpt>
      <trkpt lat="45.93124" lon="4.74021">
        <ele>168</ele>
        <time>2018-04-20T07:42:24Z</time>
      </trkpt>
      <trkpt lat="45.93126" lon="4.74022">
        <ele>168</ele>
        <time>2018-04-20T07:42:25Z</time>
      </trkpt>
      <trkpt lat="45.93133" lon="4.74026">
        <ele>168</ele>
        <time>2018-04-20T07:42:28Z</time>
      </trkpt>
      <trkpt lat="45.93136" lon="4.74028">
        <ele>168</ele>
        <time>2018-04-20T07:42:29Z</time>
      </trkpt>
      <trkpt lat="45.93142" lon="4.74033">
        <ele>168</ele>
        <time>2018-04-20T07:42:32Z</time>
      </trkpt>
      <trkpt lat="45.93146" lon="4.74037">
        <ele>168</ele>
        <time>2018-04-20T07:42:33Z</time>
      </trkpt>
      <trkpt lat="45.93149" lon="4.7404">
        <ele>168</ele>
        <time>2018-04-20T07:42:34Z</time>
      </trkpt>
      <trkpt lat="45.93157" lon="4.74049">
        <ele>168</ele>
        <time>2018-04-20T07:42:35Z</time>
      </trkpt>
      <trkpt lat="45.93162" lon="4.74055">
        <ele>168</ele>
        <time>2018-04-20T07:42:37Z</time>
      </trkpt>
      <trkpt lat="45.93164" lon="4.74059">
        <ele>168</ele>
        <time>2018-04-20T07:42:38Z</time>
      </trkpt>
      <trkpt lat="45.93169" lon="4.74069">
        <ele>168</ele>
        <time>2018-04-20T07:42:40Z</time>
      </trkpt>
      <trkpt lat="45.93173" lon="4.74071">
        <ele>168</ele>
        <time>2018-04-20T07:42:41Z</time>
      </trkpt>
      <trkpt lat="45.93177" lon="4.74075">
        <ele>168</ele>
        <time>2018-04-20T07:42:42Z</time>
      </trkpt>
      <trkpt lat="45.93181" lon="4.74079">
        <ele>168</ele>
        <time>2018-04-20T07:42:43Z</time>
      </trkpt>
      <trkpt lat="45.93184" lon="4.74082">
        <ele>168</ele>
        <time>2018-04-20T07:42:44Z</time>
      </trkpt>
      <trkpt lat="45.9319" lon="4.74084">
        <ele>168</ele>
        <time>2018-04-20T07:42:45Z</time>
      </trkpt>
      <trkpt lat="45.93195" lon="4.74086">
        <ele>167</ele>
        <time>2018-04-20T07:42:46Z</time>
      </trkpt>
      <trkpt lat="45.93202" lon="4.74086">
        <ele>167</ele>
        <time>2018-04-20T07:42:47Z</time>
      </trkpt>
      <trkpt lat="45.93209" lon="4.74094">
        <ele>167</ele>
        <time>2018-04-20T07:42:49Z</time>
      </trkpt>
      <trkpt lat="45.93211" lon="4.74099">
        <ele>167</ele>
        <time>2018-04-20T07:42:50Z</time>
      </trkpt>
      <trkpt lat="45.93218" lon="4.74103">
        <ele>167</ele>
        <time>2018-04-20T07:42:53Z</time>
      </trkpt>
      <trkpt lat="45.93221" lon="4.74104">
        <ele>167</ele>
        <time>2018-04-20T07:42:54Z</time>
      </trkpt>
      <trkpt lat="45.93229" lon="4.74106">
        <ele>167</ele>
        <time>2018-04-20T07:42:57Z</time>
      </trkpt>
      <trkpt lat="45.93231" lon="4.74106">
        <ele>167</ele>
        <time>2018-04-20T07:42:58Z</time>
      </trkpt>
      <trkpt lat="45.93239" lon="4.74104">
        <ele>167</ele>
        <time>2018-04-20T07:43:01Z</time>
      </trkpt>
      <trkpt lat="45.93242" lon="4.74102">
        <ele>167</ele>
        <time>2018-04-20T07:43:02Z</time>
      </trkpt>
      <trkpt lat="45.93244" lon="4.74099">
        <ele>167</ele>
        <time>2018-04-20T07:43:03Z</time>
      </trkpt>
      <trkpt lat="45.93251" lon="4.7409">
        <ele>167</ele>
        <time>2018-04-20T07:43:04Z</time>
      </trkpt>
      <trkpt lat="45.93255" lon="4.74081">
        <ele>167</ele>
        <time>2018-04-20T07:43:06Z</time>
      </trkpt>
      <trkpt lat="45.93256" lon="4.74079">
        <ele>167</ele>
        <time>2018-04-20T07:43:07Z</time>
      </trkpt>
      <trkpt lat="45.93257" lon="4.74076">
        <ele>167</ele>
        <time>2018-04-20T07:43:08Z</time>
      </trkpt>
      <trkpt lat="45.93261" lon="4.74068">
        <ele>167</ele>
        <time>2018-04-20T07:43:09Z</time>
      </trkpt>
      <trkpt lat="45.93265" lon="4.74057">
        <ele>168</ele>
        <time>2018-04-20T07:43:11Z</time>
      </trkpt>
      <trkpt lat="45.93267" lon="4.74052">
        <ele>168</ele>
        <time>2018-04-20T07:43:12Z</time>
      </trkpt>
      <trkpt lat="45.9327" lon="4.74044">
        <ele>168</ele>
        <time>2018-04-20T07:43:15Z</time>
      </trkpt>
      <trkpt lat="45.93274" lon="4.74036">
        <ele>168</ele>
        <time>2018-04-20T07:43:16Z</time>
      </trkpt>
      <trkpt lat="45.93279" lon="4.74028">
        <ele>168</ele>
        <time>2018-04-20T07:43:18Z</time>
      </trkpt>
      <trkpt lat="45.93281" lon="4.74024">
        <ele>168</ele>
        <time>2018-04-20T07:43:19Z</time>
      </trkpt>
      <trkpt lat="45.93286" lon="4.74015">
        <ele>168</ele>
        <time>2018-04-20T07:43:21Z</time>
      </trkpt>
      <trkpt lat="45.93288" lon="4.74011">
        <ele>168</ele>
        <time>2018-04-20T07:43:22Z</time>
      </trkpt>
      <trkpt lat="45.93291" lon="4.74006">
        <ele>168</ele>
        <time>2018-04-20T07:43:24Z</time>
      </trkpt>
      <trkpt lat="45.93295" lon="4.73999">
        <ele>168</ele>
        <time>2018-04-20T07:43:25Z</time>
      </trkpt>
      <trkpt lat="45.933" lon="4.73989">
        <ele>168</ele>
        <time>2018-04-20T07:43:28Z</time>
      </trkpt>
      <trkpt lat="45.93304" lon="4.73981">
        <ele>168</ele>
        <time>2018-04-20T07:43:29Z</time>
      </trkpt>
      <trkpt lat="45.93309" lon="4.73972">
        <ele>168</ele>
        <time>2018-04-20T07:43:31Z</time>
      </trkpt>
      <trkpt lat="45.93311" lon="4.73968">
        <ele>168</ele>
        <time>2018-04-20T07:43:32Z</time>
      </trkpt>
      <trkpt lat="45.93314" lon="4.73963">
        <ele>168</ele>
        <time>2018-04-20T07:43:34Z</time>
      </trkpt>
      <trkpt lat="45.93319" lon="4.73955">
        <ele>168</ele>
        <time>2018-04-20T07:43:35Z</time>
      </trkpt>
      <trkpt lat="45.93324" lon="4.73946">
        <ele>168</ele>
        <time>2018-04-20T07:43:38Z</time>
      </trkpt>
      <trkpt lat="45.93327" lon="4.7394">
        <ele>168</ele>
        <time>2018-04-20T07:43:39Z</time>
      </trkpt>
      <trkpt lat="45.93332" lon="4.73931">
        <ele>168</ele>
        <time>2018-04-20T07:43:42Z</time>
      </trkpt>
      <trkpt lat="45.93333" lon="4.73929">
        <ele>168</ele>
        <time>2018-04-20T07:43:43Z</time>
      </trkpt>
      <trkpt lat="45.93336" lon="4.73924">
        <ele>168</ele>
        <time>2018-04-20T07:43:45Z</time>
      </trkpt>
      <trkpt lat="45.93341" lon="4.73915">
        <ele>168</ele>
        <time>2018-04-20T07:43:46Z</time>
      </trkpt>
      <trkpt lat="45.93346" lon="4.73907">
        <ele>168</ele>
        <time>2018-04-20T07:43:48Z</time>
      </trkpt>
      <trkpt lat="45.93349" lon="4.73903">
        <ele>168</ele>
        <time>2018-04-20T07:43:49Z</time>
      </trkpt>
      <trkpt lat="45.93354" lon="4.73894">
        <ele>168</ele>
        <time>2018-04-20T07:43:52Z</time>
      </trkpt>
      <trkpt lat="45.93355" lon="4.73892">
        <ele>168</ele>
        <time>2018-04-20T07:43:53Z</time>
      </trkpt>
      <trkpt lat="45.9336" lon="4.73884">
        <ele>168</ele>
        <time>2018-04-20T07:43:54Z</time>
      </trkpt>
      <trkpt lat="45.93363" lon="4.7388">
        <ele>168</ele>
        <time>2018-04-20T07:43:55Z</time>
      </trkpt>
      <trkpt lat="45.9337" lon="4.73873">
        <ele>169</ele>
        <time>2018-04-20T07:43:58Z</time>
      </trkpt>
      <trkpt lat="45.93372" lon="4.73872">
        <ele>169</ele>
        <time>2018-04-20T07:43:59Z</time>
      </trkpt>
      <trkpt lat="45.93379" lon="4.73866">
        <ele>169</ele>
        <time>2018-04-20T07:44:02Z</time>
      </trkpt>
      <trkpt lat="45.93382" lon="4.73864">
        <ele>169</ele>
        <time>2018-04-20T07:44:03Z</time>
      </trkpt>
      <trkpt lat="45.9339" lon="4.73857">
        <ele>169</ele>
        <time>2018-04-20T07:44:04Z</time>
      </trkpt>
      <trkpt lat="45.93398" lon="4.73852">
        <ele>169</ele>
        <time>2018-04-20T07:44:07Z</time>
      </trkpt>
      <trkpt lat="45.934" lon="4.7385">
        <ele>169</ele>
        <time>2018-04-20T07:44:08Z</time>
      </trkpt>
      <trkpt lat="45.93408" lon="4.73846">
        <ele>169</ele>
        <time>2018-04-20T07:44:11Z</time>
      </trkpt>
      <trkpt lat="45.93411" lon="4.73844">
        <ele>169</ele>
        <time>2018-04-20T07:44:12Z</time>
      </trkpt>
      <trkpt lat="45.93417" lon="4.73841">
        <ele>169</ele>
        <time>2018-04-20T07:44:14Z</time>
      </trkpt>
      <trkpt lat="45.9342" lon="4.73839">
        <ele>169</ele>
        <time>2018-04-20T07:44:15Z</time>
      </trkpt>
      <trkpt lat="45.93426" lon="4.73837">
        <ele>169</ele>
        <time>2018-04-20T07:44:17Z</time>
      </trkpt>
      <trkpt lat="45.93429" lon="4.73835">
        <ele>169</ele>
        <time>2018-04-20T07:44:18Z</time>
      </trkpt>
      <trkpt lat="45.93433" lon="4.73834">
        <ele>169</ele>
        <time>2018-04-20T07:44:19Z</time>
      </trkpt>
      <trkpt lat="45.93442" lon="4.73829">
        <ele>169</ele>
        <time>2018-04-20T07:44:20Z</time>
      </trkpt>
      <trkpt lat="45.93449" lon="4.73826">
        <ele>169</ele>
        <time>2018-04-20T07:44:22Z</time>
      </trkpt>
      <trkpt lat="45.93452" lon="4.73825">
        <ele>169</ele>
        <time>2018-04-20T07:44:23Z</time>
      </trkpt>
      <trkpt lat="45.93456" lon="4.73823">
        <ele>169</ele>
        <time>2018-04-20T07:44:25Z</time>
      </trkpt>
      <trkpt lat="45.93463" lon="4.7382">
        <ele>169</ele>
        <time>2018-04-20T07:44:26Z</time>
      </trkpt>
      <trkpt lat="45.9347" lon="4.73817">
        <ele>169</ele>
        <time>2018-04-20T07:44:28Z</time>
      </trkpt>
      <trkpt lat="45.93474" lon="4.73815">
        <ele>169</ele>
        <time>2018-04-20T07:44:29Z</time>
      </trkpt>
      <trkpt lat="45.93481" lon="4.73811">
        <ele>169</ele>
        <time>2018-04-20T07:44:32Z</time>
      </trkpt>
      <trkpt lat="45.93487" lon="4.73808">
        <ele>169</ele>
        <time>2018-04-20T07:44:33Z</time>
      </trkpt>
      <trkpt lat="45.93491" lon="4.73806">
        <ele>169</ele>
        <time>2018-04-20T07:44:35Z</time>
      </trkpt>
      <trkpt lat="45.93496" lon="4.73801">
        <ele>169</ele>
        <time>2018-04-20T07:44:36Z</time>
      </trkpt>
      <trkpt lat="45.93503" lon="4.73795">
        <ele>169</ele>
        <time>2018-04-20T07:44:38Z</time>
      </trkpt>
      <trkpt lat="45.93504" lon="4.73793">
        <ele>169</ele>
        <time>2018-04-20T07:44:39Z</time>
      </trkpt>
      <trkpt lat="45.93506" lon="4.73792">
        <ele>169</ele>
        <time>2018-04-20T07:44:40Z</time>
      </trkpt>
      <trkpt lat="45.93513" lon="4.73787">
        <ele>169</ele>
        <time>2018-04-20T07:44:41Z</time>
      </trkpt>
      <trkpt lat="45.93516" lon="4.73781">
        <ele>169</ele>
        <time>2018-04-20T07:44:42Z</time>
      </trkpt>
      <trkpt lat="45.93519" lon="4.73777">
        <ele>169</ele>
        <time>2018-04-20T07:44:43Z</time>
      </trkpt>
      <trkpt lat="45.93526" lon="4.73771">
        <ele>169</ele>
        <time>2018-04-20T07:44:45Z</time>
      </trkpt>
      <trkpt lat="45.93529" lon="4.73767">
        <ele>169</ele>
        <time>2018-04-20T07:44:46Z</time>
      </trkpt>
      <trkpt lat="45.93536" lon="4.7376">
        <ele>169</ele>
        <time>2018-04-20T07:44:49Z</time>
      </trkpt>
      <trkpt lat="45.93539" lon="4.73758">
        <ele>169</ele>
        <time>2018-04-20T07:44:50Z</time>
      </trkpt>
      <trkpt lat="45.93545" lon="4.73753">
        <ele>169</ele>
        <time>2018-04-20T07:44:52Z</time>
      </trkpt>
      <trkpt lat="45.93551" lon="4.73746">
        <ele>169</ele>
        <time>2018-04-20T07:44:53Z</time>
      </trkpt>
      <trkpt lat="45.93557" lon="4.7374">
        <ele>169</ele>
        <time>2018-04-20T07:44:56Z</time>
      </trkpt>
      <trkpt lat="45.93563" lon="4.73735">
        <ele>169</ele>
        <time>2018-04-20T07:44:57Z</time>
      </trkpt>
      <trkpt lat="45.9357" lon="4.73728">
        <ele>169</ele>
        <time>2018-04-20T07:44:59Z</time>
      </trkpt>
      <trkpt lat="45.93571" lon="4.73726">
        <ele>169</ele>
        <time>2018-04-20T07:45:00Z</time>
      </trkpt>
      <trkpt lat="45.93576" lon="4.73721">
        <ele>169</ele>
        <time>2018-04-20T07:45:01Z</time>
      </trkpt>
      <trkpt lat="45.93579" lon="4.73718">
        <ele>169</ele>
        <time>2018-04-20T07:45:02Z</time>
      </trkpt>
      <trkpt lat="45.93585" lon="4.73711">
        <ele>169</ele>
        <time>2018-04-20T07:45:05Z</time>
      </trkpt>
      <trkpt lat="45.93591" lon="4.73707">
        <ele>169</ele>
        <time>2018-04-20T07:45:06Z</time>
      </trkpt>
      <trkpt lat="45.93599" lon="4.7371">
        <ele>169</ele>
        <time>2018-04-20T07:45:09Z</time>
      </trkpt>
      <trkpt lat="45.936" lon="4.73713">
        <ele>169</ele>
        <time>2018-04-20T07:45:10Z</time>
      </trkpt>
      <trkpt lat="45.93602" lon="4.73717">
        <ele>169</ele>
        <time>2018-04-20T07:45:11Z</time>
      </trkpt>
      <trkpt lat="45.93605" lon="4.73727">
        <ele>169</ele>
        <time>2018-04-20T07:45:12Z</time>
      </trkpt>
      <trkpt lat="45.93608" lon="4.73738">
        <ele>169</ele>
        <time>2018-04-20T07:45:14Z</time>
      </trkpt>
      <trkpt lat="45.9361" lon="4.73743">
        <ele>169</ele>
        <time>2018-04-20T07:45:15Z</time>
      </trkpt>
      <trkpt lat="45.93612" lon="4.73748">
        <ele>169</ele>
        <time>2018-04-20T07:45:17Z</time>
      </trkpt>
      <trkpt lat="45.93616" lon="4.73756">
        <ele>169</ele>
        <time>2018-04-20T07:45:18Z</time>
      </trkpt>
      <trkpt lat="45.93619" lon="4.73761">
        <ele>169</ele>
        <time>2018-04-20T07:45:20Z</time>
      </trkpt>
      <trkpt lat="45.93625" lon="4.73767">
        <ele>169</ele>
        <time>2018-04-20T07:45:21Z</time>
      </trkpt>
      <trkpt lat="45.93632" lon="4.73774">
        <ele>170</ele>
        <time>2018-04-20T07:45:23Z</time>
      </trkpt>
      <trkpt lat="45.93635" lon="4.73777">
        <ele>170</ele>
        <time>2018-04-20T07:45:24Z</time>
      </trkpt>
      <trkpt lat="45.9364" lon="4.73784">
        <ele>170</ele>
        <time>2018-04-20T07:45:26Z</time>
      </trkpt>
      <trkpt lat="45.93644" lon="4.73787">
        <ele>170</ele>
        <time>2018-04-20T07:45:27Z</time>
      </trkpt>
      <trkpt lat="45.9365" lon="4.73794">
        <ele>170</ele>
        <time>2018-04-20T07:45:29Z</time>
      </trkpt>
      <trkpt lat="45.93653" lon="4.73797">
        <ele>170</ele>
        <time>2018-04-20T07:45:30Z</time>
      </trkpt>
      <trkpt lat="45.93659" lon="4.73803">
        <ele>170</ele>
        <time>2018-04-20T07:45:32Z</time>
      </trkpt>
      <trkpt lat="45.93661" lon="4.73809">
        <ele>170</ele>
        <time>2018-04-20T07:45:33Z</time>
      </trkpt>
      <trkpt lat="45.93668" lon="4.73815">
        <ele>169</ele>
        <time>2018-04-20T07:45:36Z</time>
      </trkpt>
      <trkpt lat="45.9367" lon="4.73818">
        <ele>169</ele>
        <time>2018-04-20T07:45:37Z</time>
      </trkpt>
      <trkpt lat="45.93675" lon="4.73827">
        <ele>169</ele>
        <time>2018-04-20T07:45:40Z</time>
      </trkpt>
      <trkpt lat="45.93677" lon="4.7383">
        <ele>169</ele>
        <time>2018-04-20T07:45:41Z</time>
      </trkpt>
      <trkpt lat="45.93683" lon="4.7384">
        <ele>169</ele>
        <time>2018-04-20T07:45:42Z</time>
      </trkpt>
      <trkpt lat="45.93683" lon="4.73851">
        <ele>169</ele>
        <time>2018-04-20T07:45:46Z</time>
      </trkpt>
      <trkpt lat="45.93683" lon="4.73855">
        <ele>169</ele>
        <time>2018-04-20T07:45:47Z</time>
      </trkpt>
      <trkpt lat="45.9368" lon="4.73866">
        <ele>168</ele>
        <time>2018-04-20T07:45:50Z</time>
      </trkpt>
      <trkpt lat="45.93679" lon="4.7387">
        <ele>168</ele>
        <time>2018-04-20T07:45:51Z</time>
      </trkpt>
      <trkpt lat="45.93678" lon="4.73882">
        <ele>168</ele>
        <time>2018-04-20T07:45:55Z</time>
      </trkpt>
      <trkpt lat="45.93679" lon="4.73884">
        <ele>168</ele>
        <time>2018-04-20T07:45:56Z</time>
      </trkpt>
      <trkpt lat="45.93684" lon="4.73892">
        <ele>168</ele>
        <time>2018-04-20T07:46:00Z</time>
      </trkpt>
      <trkpt lat="45.93686" lon="4.73894">
        <ele>168</ele>
        <time>2018-04-20T07:46:01Z</time>
      </trkpt>
      <trkpt lat="45.93694" lon="4.73897">
        <ele>168</ele>
        <time>2018-04-20T07:46:06Z</time>
      </trkpt>
      <trkpt lat="45.93695" lon="4.73898">
        <ele>168</ele>
        <time>2018-04-20T07:46:07Z</time>
      </trkpt>
      <trkpt lat="45.93702" lon="4.73896">
        <ele>168</ele>
        <time>2018-04-20T07:49:00Z</time>
      </trkpt>
      <trkpt lat="45.93702" lon="4.73896">
        <ele>168</ele>
        <time>2018-04-20T07:49:01Z</time>
      </trkpt>
      <trkpt lat="45.93706" lon="4.73898">
        <ele>168</ele>
        <time>2018-04-20T07:49:13Z</time>
      </trkpt>
      <trkpt lat="45.93706" lon="4.73898">
        <ele>168</ele>
        <time>2018-04-20T07:49:14Z</time>
      </trkpt>
      <trkpt lat="45.93699" lon="4.73895">
        <ele>168</ele>
        <time>2018-04-20T07:49:20Z</time>
      </trkpt>
      <trkpt lat="45.93697" lon="4.73893">
        <ele>168</ele>
        <time>2018-04-20T07:49:21Z</time>
      </trkpt>
      <trkpt lat="45.93689" lon="4.73887">
        <ele>168</ele>
        <time>2018-04-20T07:49:26Z</time>
      </trkpt>
      <trkpt lat="45.93688" lon="4.73886">
        <ele>168</ele>
        <time>2018-04-20T07:49:27Z</time>
      </trkpt>
      <trkpt lat="45.93683" lon="4.73876">
        <ele>168</ele>
        <time>2018-04-20T07:49:32Z</time>
      </trkpt>
      <trkpt lat="45.93682" lon="4.73873">
        <ele>168</ele>
        <time>2018-04-20T07:49:33Z</time>
      </trkpt>
      <trkpt lat="45.93682" lon="4.73863">
        <ele>168</ele>
        <time>2018-04-20T07:49:36Z</time>
      </trkpt>
      <trkpt lat="45.93682" lon="4.7386">
        <ele>168</ele>
        <time>2018-04-20T07:49:37Z</time>
      </trkpt>
      <trkpt lat="45.93681" lon="4.73851">
        <ele>169</ele>
        <time>2018-04-20T07:49:39Z</time>
      </trkpt>
      <trkpt lat="45.9368" lon="4.73846">
        <ele>169</ele>
        <time>2018-04-20T07:49:40Z</time>
      </trkpt>
      <trkpt lat="45.93676" lon="4.73836">
        <ele>169</ele>
        <time>2018-04-20T07:49:43Z</time>
      </trkpt>
      <trkpt lat="45.93675" lon="4.73833">
        <ele>169</ele>
        <time>2018-04-20T07:49:44Z</time>
      </trkpt>
      <trkpt lat="45.93668" lon="4.73824">
        <ele>169</ele>
        <time>2018-04-20T07:49:47Z</time>
      </trkpt>
      <trkpt lat="45.93666" lon="4.73821">
        <ele>170</ele>
        <time>2018-04-20T07:49:48Z</time>
      </trkpt>
      <trkpt lat="45.9366" lon="4.73812">
        <ele>170</ele>
        <time>2018-04-20T07:49:51Z</time>
      </trkpt>
      <trkpt lat="45.93659" lon="4.73809">
        <ele>170</ele>
        <time>2018-04-20T07:49:52Z</time>
      </trkpt>
      <trkpt lat="45.93653" lon="4.738">
        <ele>170</ele>
        <time>2018-04-20T07:49:55Z</time>
      </trkpt>
      <trkpt lat="45.93651" lon="4.73797">
        <ele>170</ele>
        <time>2018-04-20T07:49:56Z</time>
      </trkpt>
      <trkpt lat="45.93646" lon="4.73791">
        <ele>170</ele>
        <time>2018-04-20T07:49:58Z</time>
      </trkpt>
      <trkpt lat="45.93643" lon="4.73788">
        <ele>170</ele>
        <time>2018-04-20T07:49:59Z</time>
      </trkpt>
      <trkpt lat="45.93641" lon="4.73785">
        <ele>170</ele>
        <time>2018-04-20T07:50:00Z</time>
      </trkpt>
      <trkpt lat="45.93633" lon="4.73776">
        <ele>170</ele>
        <time>2018-04-20T07:50:01Z</time>
      </trkpt>
      <trkpt lat="45.9363" lon="4.73773">
        <ele>170</ele>
        <time>2018-04-20T07:50:03Z</time>
      </trkpt>
      <trkpt lat="45.93625" lon="4.73767">
        <ele>169</ele>
        <time>2018-04-20T07:50:04Z</time>
      </trkpt>
      <trkpt lat="45.93619" lon="4.7376">
        <ele>169</ele>
        <time>2018-04-20T07:50:07Z</time>
      </trkpt>
      <trkpt lat="45.93617" lon="4.73757">
        <ele>169</ele>
        <time>2018-04-20T07:50:08Z</time>
      </trkpt>
      <trkpt lat="45.93615" lon="4.73755">
        <ele>169</ele>
        <time>2018-04-20T07:50:09Z</time>
      </trkpt>
      <trkpt lat="45.93609" lon="4.73747">
        <ele>169</ele>
        <time>2018-04-20T07:50:10Z</time>
      </trkpt>
      <trkpt lat="45.93603" lon="4.73739">
        <ele>169</ele>
        <time>2018-04-20T07:50:13Z</time>
      </trkpt>
      <trkpt lat="45.93602" lon="4.73736">
        <ele>169</ele>
        <time>2018-04-20T07:50:14Z</time>
      </trkpt>
      <trkpt lat="45.93598" lon="4.73727">
        <ele>169</ele>
        <time>2018-04-20T07:50:17Z</time>
      </trkpt>
      <trkpt lat="45.93597" lon="4.73724">
        <ele>169</ele>
        <time>2018-04-20T07:50:18Z</time>
      </trkpt>
      <trkpt lat="45.93594" lon="4.73714">
        <ele>169</ele>
        <time>2018-04-20T07:50:21Z</time>
      </trkpt>
      <trkpt lat="45.93593" lon="4.73711">
        <ele>169</ele>
        <time>2018-04-20T07:50:22Z</time>
      </trkpt>
      <trkpt lat="45.93592" lon="4.73706">
        <ele>169</ele>
        <time>2018-04-20T07:50:23Z</time>
      </trkpt>
      <trkpt lat="45.93591" lon="4.73693">
        <ele>169</ele>
        <time>2018-04-20T07:50:24Z</time>
      </trkpt>
      <trkpt lat="45.9359" lon="4.73683">
        <ele>169</ele>
        <time>2018-04-20T07:50:27Z</time>
      </trkpt>
      <trkpt lat="45.9359" lon="4.73679">
        <ele>169</ele>
        <time>2018-04-20T07:50:28Z</time>
      </trkpt>
      <trkpt lat="45.93589" lon="4.73667">
        <ele>168</ele>
        <time>2018-04-20T07:50:29Z</time>
      </trkpt>
      <trkpt lat="45.93589" lon="4.73664">
        <ele>168</ele>
        <time>2018-04-20T07:50:30Z</time>
      </trkpt>
      <trkpt lat="45.93588" lon="4.73657">
        <ele>168</ele>
        <time>2018-04-20T07:50:32Z</time>
      </trkpt>
      <trkpt lat="45.93587" lon="4.73646">
        <ele>168</ele>
        <time>2018-04-20T07:50:33Z</time>
      </trkpt>
      <trkpt lat="45.93586" lon="4.73636">
        <ele>168</ele>
        <time>2018-04-20T07:50:35Z</time>
      </trkpt>
      <trkpt lat="45.93586" lon="4.73633">
        <ele>168</ele>
        <time>2018-04-20T07:50:36Z</time>
      </trkpt>
      <trkpt lat="45.93585" lon="4.73623">
        <ele>168</ele>
        <time>2018-04-20T07:50:39Z</time>
      </trkpt>
      <trkpt lat="45.93584" lon="4.73618">
        <ele>168</ele>
        <time>2018-04-20T07:50:40Z</time>
      </trkpt>
      <trkpt lat="45.93584" lon="4.73606">
        <ele>168</ele>
        <time>2018-04-20T07:50:41Z</time>
      </trkpt>
      <trkpt lat="45.93583" lon="4.73601">
        <ele>168</ele>
        <time>2018-04-20T07:50:42Z</time>
      </trkpt>
      <trkpt lat="45.93583" lon="4.73595">
        <ele>168</ele>
        <time>2018-04-20T07:50:44Z</time>
      </trkpt>
      <trkpt lat="45.93582" lon="4.73585">
        <ele>168</ele>
        <time>2018-04-20T07:50:45Z</time>
      </trkpt>
      <trkpt lat="45.93581" lon="4.73573">
        <ele>168</ele>
        <time>2018-04-20T07:50:47Z</time>
      </trkpt>
      <trkpt lat="45.93581" lon="4.73571">
        <ele>168</ele>
        <time>2018-04-20T07:50:48Z</time>
      </trkpt>
      <trkpt lat="45.93579" lon="4.73558">
        <ele>168</ele>
        <time>2018-04-20T07:50:50Z</time>
      </trkpt>
      <trkpt lat="45.93579" lon="4.73552">
        <ele>168</ele>
        <time>2018-04-20T07:50:51Z</time>
      </trkpt>
      <trkpt lat="45.93576" lon="4.73541">
        <ele>168</ele>
        <time>2018-04-20T07:50:53Z</time>
      </trkpt>
      <trkpt lat="45.93575" lon="4.73535">
        <ele>168</ele>
        <time>2018-04-20T07:50:54Z</time>
      </trkpt>
      <trkpt lat="45.93572" lon="4.73523">
        <ele>168</ele>
        <time>2018-04-20T07:50:56Z</time>
      </trkpt>
      <trkpt lat="45.9357" lon="4.73517">
        <ele>168</ele>
        <time>2018-04-20T07:50:57Z</time>
      </trkpt>
      <trkpt lat="45.93567" lon="4.73507">
        <ele>168</ele>
        <time>2018-04-20T07:50:59Z</time>
      </trkpt>
      <trkpt lat="45.93566" lon="4.73504">
        <ele>168</ele>
        <time>2018-04-20T07:51:00Z</time>
      </trkpt>
      <trkpt lat="45.93563" lon="4.73494">
        <ele>169</ele>
        <time>2018-04-20T07:51:02Z</time>
      </trkpt>
      <trkpt lat="45.93563" lon="4.73491">
        <ele>169</ele>
        <time>2018-04-20T07:51:03Z</time>
      </trkpt>
      <trkpt lat="45.93562" lon="4.73487">
        <ele>169</ele>
        <time>2018-04-20T07:51:04Z</time>
      </trkpt>
      <trkpt lat="45.9356" lon="4.73477">
        <ele>169</ele>
        <time>2018-04-20T07:51:05Z</time>
      </trkpt>
      <trkpt lat="45.93558" lon="4.73466">
        <ele>169</ele>
        <time>2018-04-20T07:51:08Z</time>
      </trkpt>
      <trkpt lat="45.93557" lon="4.73463">
        <ele>169</ele>
        <time>2018-04-20T07:51:09Z</time>
      </trkpt>
      <trkpt lat="45.93554" lon="4.73454">
        <ele>169</ele>
        <time>2018-04-20T07:51:12Z</time>
      </trkpt>
      <trkpt lat="45.93552" lon="4.7345">
        <ele>169</ele>
        <time>2018-04-20T07:51:13Z</time>
      </trkpt>
      <trkpt lat="45.93549" lon="4.7344">
        <ele>169</ele>
        <time>2018-04-20T07:51:16Z</time>
      </trkpt>
      <trkpt lat="45.93549" lon="4.73436">
        <ele>169</ele>
        <time>2018-04-20T07:51:17Z</time>
      </trkpt>
      <trkpt lat="45.93546" lon="4.73423">
        <ele>169</ele>
        <time>2018-04-20T07:51:20Z</time>
      </trkpt>
      <trkpt lat="45.93546" lon="4.73419">
        <ele>169</ele>
        <time>2018-04-20T07:51:21Z</time>
      </trkpt>
      <trkpt lat="45.93543" lon="4.73407">
        <ele>169</ele>
        <time>2018-04-20T07:51:24Z</time>
      </trkpt>
      <trkpt lat="45.93542" lon="4.73404">
        <ele>169</ele>
        <time>2018-04-20T07:51:25Z</time>
      </trkpt>
      <trkpt lat="45.9354" lon="4.73392">
        <ele>169</ele>
        <time>2018-04-20T07:51:28Z</time>
      </trkpt>
      <trkpt lat="45.93539" lon="4.73388">
        <ele>169</ele>
        <time>2018-04-20T07:51:29Z</time>
      </trkpt>
      <trkpt lat="45.93537" lon="4.7338">
        <ele>169</ele>
        <time>2018-04-20T07:51:31Z</time>
      </trkpt>
      <trkpt lat="45.93536" lon="4.73375">
        <ele>169</ele>
        <time>2018-04-20T07:51:32Z</time>
      </trkpt>
      <trkpt lat="45.93534" lon="4.73366">
        <ele>169</ele>
        <time>2018-04-20T07:51:34Z</time>
      </trkpt>
      <trkpt lat="45.93534" lon="4.73362">
        <ele>169</ele>
        <time>2018-04-20T07:51:35Z</time>
      </trkpt>
      <trkpt lat="45.9353" lon="4.73348">
        <ele>169</ele>
        <time>2018-04-20T07:51:36Z</time>
      </trkpt>
      <trkpt lat="45.93529" lon="4.73337">
        <ele>169</ele>
        <time>2018-04-20T07:51:38Z</time>
      </trkpt>
      <trkpt lat="45.93528" lon="4.73331">
        <ele>169</ele>
        <time>2018-04-20T07:51:39Z</time>
      </trkpt>
      <trkpt lat="45.93527" lon="4.73319">
        <ele>169</ele>
        <time>2018-04-20T07:51:43Z</time>
      </trkpt>
      <trkpt lat="45.93526" lon="4.73309">
        <ele>169</ele>
        <time>2018-04-20T07:51:44Z</time>
      </trkpt>
      <trkpt lat="45.93525" lon="4.733">
        <ele>169</ele>
        <time>2018-04-20T07:51:47Z</time>
      </trkpt>
      <trkpt lat="45.93524" lon="4.73296">
        <ele>169</ele>
        <time>2018-04-20T07:51:48Z</time>
      </trkpt>
      <trkpt lat="45.93523" lon="4.73284">
        <ele>169</ele>
        <time>2018-04-20T07:51:51Z</time>
      </trkpt>
      <trkpt lat="45.93522" lon="4.73281">
        <ele>169</ele>
        <time>2018-04-20T07:51:52Z</time>
      </trkpt>
      <trkpt lat="45.93521" lon="4.73268">
        <ele>169</ele>
        <time>2018-04-20T07:51:55Z</time>
      </trkpt>
      <trkpt lat="45.9352" lon="4.73264">
        <ele>169</ele>
        <time>2018-04-20T07:51:56Z</time>
      </trkpt>
      <trkpt lat="45.93519" lon="4.73259">
        <ele>169</ele>
        <time>2018-04-20T07:51:57Z</time>
      </trkpt>
      <trkpt lat="45.93517" lon="4.73245">
        <ele>169</ele>
        <time>2018-04-20T07:51:58Z</time>
      </trkpt>
      <trkpt lat="45.93515" lon="4.73233">
        <ele>169</ele>
        <time>2018-04-20T07:52:01Z</time>
      </trkpt>
      <trkpt lat="45.93513" lon="4.73224">
        <ele>169</ele>
        <time>2018-04-20T07:52:02Z</time>
      </trkpt>
      <trkpt lat="45.93511" lon="4.73213">
        <ele>169</ele>
        <time>2018-04-20T07:52:04Z</time>
      </trkpt>
      <trkpt lat="45.93511" lon="4.73211">
        <ele>169</ele>
        <time>2018-04-20T07:52:05Z</time>
      </trkpt>
      <trkpt lat="45.93508" lon="4.73199">
        <ele>169</ele>
        <time>2018-04-20T07:52:07Z</time>
      </trkpt>
      <trkpt lat="45.93507" lon="4.73194">
        <ele>169</ele>
        <time>2018-04-20T07:52:08Z</time>
      </trkpt>
      <trkpt lat="45.93504" lon="4.73183">
        <ele>169</ele>
        <time>2018-04-20T07:52:10Z</time>
      </trkpt>
      <trkpt lat="45.93502" lon="4.73177">
        <ele>169</ele>
        <time>2018-04-20T07:52:11Z</time>
      </trkpt>
      <trkpt lat="45.935" lon="4.73172">
        <ele>170</ele>
        <time>2018-04-20T07:52:13Z</time>
      </trkpt>
      <trkpt lat="45.93496" lon="4.73163">
        <ele>170</ele>
        <time>2018-04-20T07:52:14Z</time>
      </trkpt>
      <trkpt lat="45.93492" lon="4.73154">
        <ele>170</ele>
        <time>2018-04-20T07:52:16Z</time>
      </trkpt>
      <trkpt lat="45.9349" lon="4.73149">
        <ele>170</ele>
        <time>2018-04-20T07:52:17Z</time>
      </trkpt>
      <trkpt lat="45.93486" lon="4.73138">
        <ele>170</ele>
        <time>2018-04-20T07:52:20Z</time>
      </trkpt>
      <trkpt lat="45.93485" lon="4.73135">
        <ele>170</ele>
        <time>2018-04-20T07:52:21Z</time>
      </trkpt>
      <trkpt lat="45.93484" lon="4.73123">
        <ele>170</ele>
        <time>2018-04-20T07:52:24Z</time>
      </trkpt>
      <trkpt lat="45.93484" lon="4.7311">
        <ele>170</ele>
        <time>2018-04-20T07:52:25Z</time>
      </trkpt>
      <trkpt lat="45.93483" lon="4.73104">
        <ele>170</ele>
        <time>2018-04-20T07:52:27Z</time>
      </trkpt>
      <trkpt lat="45.93482" lon="4.73094">
        <ele>170</ele>
        <time>2018-04-20T07:52:28Z</time>
      </trkpt>
      <trkpt lat="45.93482" lon="4.73083">
        <ele>170</ele>
        <time>2018-04-20T07:52:30Z</time>
      </trkpt>
      <trkpt lat="45.93482" lon="4.73077">
        <ele>170</ele>
        <time>2018-04-20T07:52:31Z</time>
      </trkpt>
      <trkpt lat="45.93482" lon="4.73067">
        <ele>170</ele>
        <time>2018-04-20T07:52:34Z</time>
      </trkpt>
      <trkpt lat="45.93483" lon="4.73057">
        <ele>170</ele>
        <time>2018-04-20T07:52:35Z</time>
      </trkpt>
      <trkpt lat="45.93484" lon="4.73046">
        <ele>170</ele>
        <time>2018-04-20T07:52:37Z</time>
      </trkpt>
      <trkpt lat="45.93484" lon="4.73043">
        <ele>170</ele>
        <time>2018-04-20T07:52:38Z</time>
      </trkpt>
      <trkpt lat="45.93485" lon="4.73032">
        <ele>170</ele>
        <time>2018-04-20T07:52:40Z</time>
      </trkpt>
      <trkpt lat="45.93485" lon="4.73026">
        <ele>170</ele>
        <time>2018-04-20T07:52:41Z</time>
      </trkpt>
      <trkpt lat="45.93485" lon="4.7302">
        <ele>170</ele>
        <time>2018-04-20T07:52:43Z</time>
      </trkpt>
      <trkpt lat="45.93485" lon="4.73011">
        <ele>170</ele>
        <time>2018-04-20T07:52:44Z</time>
      </trkpt>
      <trkpt lat="45.93486" lon="4.73002">
        <ele>170</ele>
        <time>2018-04-20T07:52:47Z</time>
      </trkpt>
      <trkpt lat="45.93487" lon="4.72998">
        <ele>170</ele>
        <time>2018-04-20T07:52:48Z</time>
      </trkpt>
      <trkpt lat="45.93488" lon="4.72994">
        <ele>170</ele>
        <time>2018-04-20T07:52:49Z</time>
      </trkpt>
      <trkpt lat="45.93489" lon="4.72981">
        <ele>170</ele>
        <time>2018-04-20T07:52:50Z</time>
      </trkpt>
      <trkpt lat="45.93491" lon="4.7297">
        <ele>171</ele>
        <time>2018-04-20T07:52:52Z</time>
      </trkpt>
      <trkpt lat="45.93491" lon="4.72968">
        <ele>171</ele>
        <time>2018-04-20T07:52:53Z</time>
      </trkpt>
      <trkpt lat="45.93493" lon="4.72957">
        <ele>171</ele>
        <time>2018-04-20T07:52:56Z</time>
      </trkpt>
      <trkpt lat="45.93493" lon="4.72953">
        <ele>171</ele>
        <time>2018-04-20T07:52:57Z</time>
      </trkpt>
      <trkpt lat="45.93494" lon="4.72941">
        <ele>172</ele>
        <time>2018-04-20T07:53:00Z</time>
      </trkpt>
      <trkpt lat="45.93495" lon="4.72936">
        <ele>172</ele>
        <time>2018-04-20T07:53:01Z</time>
      </trkpt>
      <trkpt lat="45.93499" lon="4.72923">
        <ele>172</ele>
        <time>2018-04-20T07:53:02Z</time>
      </trkpt>
      <trkpt lat="45.93505" lon="4.72915">
        <ele>172</ele>
        <time>2018-04-20T07:53:04Z</time>
      </trkpt>
      <trkpt lat="45.93506" lon="4.72913">
        <ele>172</ele>
        <time>2018-04-20T07:53:05Z</time>
      </trkpt>
      <trkpt lat="45.93512" lon="4.72907">
        <ele>172</ele>
        <time>2018-04-20T07:53:08Z</time>
      </trkpt>
      <trkpt lat="45.93514" lon="4.72905">
        <ele>172</ele>
        <time>2018-04-20T07:53:09Z</time>
      </trkpt>
      <trkpt lat="45.93517" lon="4.72902">
        <ele>172</ele>
        <time>2018-04-20T07:53:10Z</time>
      </trkpt>
      <trkpt lat="45.93525" lon="4.72893">
        <ele>172</ele>
        <time>2018-04-20T07:53:11Z</time>
      </trkpt>
      <trkpt lat="45.93532" lon="4.72885">
        <ele>172</ele>
        <time>2018-04-20T07:53:13Z</time>
      </trkpt>
      <trkpt lat="45.93536" lon="4.72882">
        <ele>172</ele>
        <time>2018-04-20T07:53:14Z</time>
      </trkpt>
      <trkpt lat="45.93543" lon="4.72875">
        <ele>172</ele>
        <time>2018-04-20T07:53:16Z</time>
      </trkpt>
      <trkpt lat="45.93546" lon="4.72872">
        <ele>172</ele>
        <time>2018-04-20T07:53:17Z</time>
      </trkpt>
      <trkpt lat="45.93553" lon="4.72865">
        <ele>172</ele>
        <time>2018-04-20T07:53:19Z</time>
      </trkpt>
      <trkpt lat="45.93556" lon="4.72862">
        <ele>172</ele>
        <time>2018-04-20T07:53:20Z</time>
      </trkpt>
      <trkpt lat="45.93559" lon="4.72858">
        <ele>172</ele>
        <time>2018-04-20T07:53:21Z</time>
      </trkpt>
      <trkpt lat="45.93563" lon="4.72854">
        <ele>172</ele>
        <time>2018-04-20T07:53:22Z</time>
      </trkpt>
      <trkpt lat="45.93567" lon="4.72851">
        <ele>172</ele>
        <time>2018-04-20T07:53:24Z</time>
      </trkpt>
      <trkpt lat="45.93572" lon="4.72846">
        <ele>172</ele>
        <time>2018-04-20T07:53:25Z</time>
      </trkpt>
      <trkpt lat="45.93578" lon="4.72841">
        <ele>172</ele>
        <time>2018-04-20T07:53:27Z</time>
      </trkpt>
      <trkpt lat="45.9358" lon="4.72839">
        <ele>172</ele>
        <time>2018-04-20T07:53:28Z</time>
      </trkpt>
      <trkpt lat="45.93585" lon="4.72835">
        <ele>172</ele>
        <time>2018-04-20T07:53:29Z</time>
      </trkpt>
      <trkpt lat="45.93588" lon="4.72832">
        <ele>172</ele>
        <time>2018-04-20T07:53:30Z</time>
      </trkpt>
      <trkpt lat="45.93595" lon="4.72826">
        <ele>173</ele>
        <time>2018-04-20T07:53:32Z</time>
      </trkpt>
      <trkpt lat="45.93599" lon="4.72823">
        <ele>173</ele>
        <time>2018-04-20T07:53:33Z</time>
      </trkpt>
      <trkpt lat="45.93603" lon="4.7282">
        <ele>173</ele>
        <time>2018-04-20T07:53:34Z</time>
      </trkpt>
      <trkpt lat="45.93607" lon="4.72817">
        <ele>173</ele>
        <time>2018-04-20T07:53:35Z</time>
      </trkpt>
      <trkpt lat="45.93615" lon="4.72813">
        <ele>173</ele>
        <time>2018-04-20T07:53:38Z</time>
      </trkpt>
      <trkpt lat="45.93621" lon="4.72808">
        <ele>173</ele>
        <time>2018-04-20T07:53:39Z</time>
      </trkpt>
      <trkpt lat="45.93628" lon="4.72803">
        <ele>173</ele>
        <time>2018-04-20T07:53:41Z</time>
      </trkpt>
      <trkpt lat="45.93632" lon="4.728">
        <ele>173</ele>
        <time>2018-04-20T07:53:42Z</time>
      </trkpt>
      <trkpt lat="45.93639" lon="4.72795">
        <ele>173</ele>
        <time>2018-04-20T07:53:44Z</time>
      </trkpt>
      <trkpt lat="45.93643" lon="4.72792">
        <ele>173</ele>
        <time>2018-04-20T07:53:45Z</time>
      </trkpt>
      <trkpt lat="45.93649" lon="4.72787">
        <ele>173</ele>
        <time>2018-04-20T07:53:47Z</time>
      </trkpt>
      <trkpt lat="45.93653" lon="4.72784">
        <ele>173</ele>
        <time>2018-04-20T07:53:48Z</time>
      </trkpt>
      <trkpt lat="45.93659" lon="4.72778">
        <ele>174</ele>
        <time>2018-04-20T07:53:50Z</time>
      </trkpt>
      <trkpt lat="45.93663" lon="4.72775">
        <ele>174</ele>
        <time>2018-04-20T07:53:51Z</time>
      </trkpt>
      <trkpt lat="45.93669" lon="4.72771">
        <ele>173</ele>
        <time>2018-04-20T07:53:54Z</time>
      </trkpt>
      <trkpt lat="45.93671" lon="4.72769">
        <ele>173</ele>
        <time>2018-04-20T07:53:55Z</time>
      </trkpt>
      <trkpt lat="45.93678" lon="4.72763">
        <ele>173</ele>
        <time>2018-04-20T07:53:56Z</time>
      </trkpt>
      <trkpt lat="45.93682" lon="4.7276">
        <ele>173</ele>
        <time>2018-04-20T07:53:57Z</time>
      </trkpt>
      <trkpt lat="45.93687" lon="4.7275">
        <ele>173</ele>
        <time>2018-04-20T07:53:59Z</time>
      </trkpt>
      <trkpt lat="45.93691" lon="4.72747">
        <ele>173</ele>
        <time>2018-04-20T07:54:00Z</time>
      </trkpt>
      <trkpt lat="45.93695" lon="4.72743">
        <ele>173</ele>
        <time>2018-04-20T07:54:01Z</time>
      </trkpt>
      <trkpt lat="45.937" lon="4.72739">
        <ele>173</ele>
        <time>2018-04-20T07:54:02Z</time>
      </trkpt>
      <trkpt lat="45.93704" lon="4.72735">
        <ele>173</ele>
        <time>2018-04-20T07:54:03Z</time>
      </trkpt>
      <trkpt lat="45.93708" lon="4.72729">
        <ele>173</ele>
        <time>2018-04-20T07:54:04Z</time>
      </trkpt>
      <trkpt lat="45.93712" lon="4.72726">
        <ele>173</ele>
        <time>2018-04-20T07:54:05Z</time>
      </trkpt>
      <trkpt lat="45.93716" lon="4.72722">
        <ele>173</ele>
        <time>2018-04-20T07:54:06Z</time>
      </trkpt>
      <trkpt lat="45.93724" lon="4.72717">
        <ele>173</ele>
        <time>2018-04-20T07:54:08Z</time>
      </trkpt>
      <trkpt lat="45.93727" lon="4.72715">
        <ele>173</ele>
        <time>2018-04-20T07:54:09Z</time>
      </trkpt>
      <trkpt lat="45.93733" lon="4.72708">
        <ele>173</ele>
        <time>2018-04-20T07:54:11Z</time>
      </trkpt>
      <trkpt lat="45.93736" lon="4.72705">
        <ele>173</ele>
        <time>2018-04-20T07:54:12Z</time>
      </trkpt>
      <trkpt lat="45.93742" lon="4.72699">
        <ele>173</ele>
        <time>2018-04-20T07:54:14Z</time>
      </trkpt>
      <trkpt lat="45.93746" lon="4.72695">
        <ele>173</ele>
        <time>2018-04-20T07:54:15Z</time>
      </trkpt>
      <trkpt lat="45.93753" lon="4.72687">
        <ele>173</ele>
        <time>2018-04-20T07:54:17Z</time>
      </trkpt>
      <trkpt lat="45.93756" lon="4.72684">
        <ele>173</ele>
        <time>2018-04-20T07:54:18Z</time>
      </trkpt>
      <trkpt lat="45.93763" lon="4.72677">
        <ele>173</ele>
        <time>2018-04-20T07:54:20Z</time>
      </trkpt>
      <trkpt lat="45.93766" lon="4.72673">
        <ele>173</ele>
        <time>2018-04-20T07:54:21Z</time>
      </trkpt>
      <trkpt lat="45.93773" lon="4.72666">
        <ele>173</ele>
        <time>2018-04-20T07:54:23Z</time>
      </trkpt>
      <trkpt lat="45.93776" lon="4.72663">
        <ele>173</ele>
        <time>2018-04-20T07:54:24Z</time>
      </trkpt>
      <trkpt lat="45.9378" lon="4.72657">
        <ele>173</ele>
        <time>2018-04-20T07:54:25Z</time>
      </trkpt>
      <trkpt lat="45.93783" lon="4.72654">
        <ele>173</ele>
        <time>2018-04-20T07:54:26Z</time>
      </trkpt>
      <trkpt lat="45.93789" lon="4.72646">
        <ele>173</ele>
        <time>2018-04-20T07:54:28Z</time>
      </trkpt>
      <trkpt lat="45.93792" lon="4.72642">
        <ele>173</ele>
        <time>2018-04-20T07:54:29Z</time>
      </trkpt>
      <trkpt lat="45.93795" lon="4.72638">
        <ele>173</ele>
        <time>2018-04-20T07:54:30Z</time>
      </trkpt>
      <trkpt lat="45.93799" lon="4.72633">
        <ele>173</ele>
        <time>2018-04-20T07:54:31Z</time>
      </trkpt>
      <trkpt lat="45.93805" lon="4.72625">
        <ele>173</ele>
        <time>2018-04-20T07:54:33Z</time>
      </trkpt>
      <trkpt lat="45.93808" lon="4.7262">
        <ele>173</ele>
        <time>2018-04-20T07:54:34Z</time>
      </trkpt>
      <trkpt lat="45.93814" lon="4.72612">
        <ele>173</ele>
        <time>2018-04-20T07:54:36Z</time>
      </trkpt>
      <trkpt lat="45.93817" lon="4.72609">
        <ele>173</ele>
        <time>2018-04-20T07:54:37Z</time>
      </trkpt>
      <trkpt lat="45.93819" lon="4.72599">
        <ele>173</ele>
        <time>2018-04-20T07:54:39Z</time>
      </trkpt>
      <trkpt lat="45.9382" lon="4.72593">
        <ele>174</ele>
        <time>2018-04-20T07:54:40Z</time>
      </trkpt>
      <trkpt lat="45.93816" lon="4.72583">
        <ele>174</ele>
        <time>2018-04-20T07:54:42Z</time>
      </trkpt>
      <trkpt lat="45.93815" lon="4.72581">
        <ele>174</ele>
        <time>2018-04-20T07:54:43Z</time>
      </trkpt>
      <trkpt lat="45.93811" lon="4.72578">
        <ele>174</ele>
        <time>2018-04-20T07:54:45Z</time>
      </trkpt>
      <trkpt lat="45.93804" lon="4.72571">
        <ele>174</ele>
        <time>2018-04-20T07:54:46Z</time>
      </trkpt>
      <trkpt lat="45.93801" lon="4.72569">
        <ele>174</ele>
        <time>2018-04-20T07:54:48Z</time>
      </trkpt>
      <trkpt lat="45.93787" lon="4.72571">
        <ele>174</ele>
        <time>2018-04-20T07:54:49Z</time>
      </trkpt>
      <trkpt lat="45.93783" lon="4.7257">
        <ele>174</ele>
        <time>2018-04-20T07:54:50Z</time>
      </trkpt>
      <trkpt lat="45.93776" lon="4.72571">
        <ele>174</ele>
        <time>2018-04-20T07:54:51Z</time>
      </trkpt>
      <trkpt lat="45.93769" lon="4.72564">
        <ele>174</ele>
        <time>2018-04-20T07:54:55Z</time>
      </trkpt>
      <trkpt lat="45.9377" lon="4.72559">
        <ele>174</ele>
        <time>2018-04-20T07:54:56Z</time>
      </trkpt>
      <trkpt lat="45.93766" lon="4.72549">
        <ele>173</ele>
        <time>2018-04-20T07:54:58Z</time>
      </trkpt>
      <trkpt lat="45.93763" lon="4.72544">
        <ele>173</ele>
        <time>2018-04-20T07:54:59Z</time>
      </trkpt>
      <trkpt lat="45.93756" lon="4.72534">
        <ele>173</ele>
        <time>2018-04-20T07:55:00Z</time>
      </trkpt>
      <trkpt lat="45.9375" lon="4.72527">
        <ele>172</ele>
        <time>2018-04-20T07:55:04Z</time>
      </trkpt>
      <trkpt lat="45.93748" lon="4.72525">
        <ele>172</ele>
        <time>2018-04-20T07:55:05Z</time>
      </trkpt>
      <trkpt lat="45.93741" lon="4.72519">
        <ele>171</ele>
        <time>2018-04-20T07:55:09Z</time>
      </trkpt>
      <trkpt lat="45.9374" lon="4.72518">
        <ele>171</ele>
        <time>2018-04-20T07:55:10Z</time>
      </trkpt>
      <trkpt lat="45.93734" lon="4.72514">
        <ele>171</ele>
        <time>2018-04-20T07:55:12Z</time>
      </trkpt>
      <trkpt lat="45.93732" lon="4.72511">
        <ele>171</ele>
        <time>2018-04-20T07:55:13Z</time>
      </trkpt>
      <trkpt lat="45.93727" lon="4.72507">
        <ele>171</ele>
        <time>2018-04-20T07:55:15Z</time>
      </trkpt>
      <trkpt lat="45.93724" lon="4.72504">
        <ele>171</ele>
        <time>2018-04-20T07:55:16Z</time>
      </trkpt>
      <trkpt lat="45.93717" lon="4.72498">
        <ele>171</ele>
        <time>2018-04-20T07:55:19Z</time>
      </trkpt>
      <trkpt lat="45.93715" lon="4.72496">
        <ele>171</ele>
        <time>2018-04-20T07:55:20Z</time>
      </trkpt>
      <trkpt lat="45.93708" lon="4.72488">
        <ele>171</ele>
        <time>2018-04-20T07:55:23Z</time>
      </trkpt>
      <trkpt lat="45.93706" lon="4.72485">
        <ele>171</ele>
        <time>2018-04-20T07:55:24Z</time>
      </trkpt>
      <trkpt lat="45.937" lon="4.72479">
        <ele>171</ele>
        <time>2018-04-20T07:55:26Z</time>
      </trkpt>
      <trkpt lat="45.93698" lon="4.72477">
        <ele>171</ele>
        <time>2018-04-20T07:55:27Z</time>
      </trkpt>
      <trkpt lat="45.93693" lon="4.72472">
        <ele>171</ele>
        <time>2018-04-20T07:55:29Z</time>
      </trkpt>
      <trkpt lat="45.9369" lon="4.72469">
        <ele>171</ele>
        <time>2018-04-20T07:55:30Z</time>
      </trkpt>
      <trkpt lat="45.93681" lon="4.72462">
        <ele>171</ele>
        <time>2018-04-20T07:55:31Z</time>
      </trkpt>
      <trkpt lat="45.93676" lon="4.72456">
        <ele>171</ele>
        <time>2018-04-20T07:55:34Z</time>
      </trkpt>
      <trkpt lat="45.93674" lon="4.72454">
        <ele>171</ele>
        <time>2018-04-20T07:55:35Z</time>
      </trkpt>
      <trkpt lat="45.9367" lon="4.72449">
        <ele>171</ele>
        <time>2018-04-20T07:55:37Z</time>
      </trkpt>
      <trkpt lat="45.93665" lon="4.7244">
        <ele>172</ele>
        <time>2018-04-20T07:55:38Z</time>
      </trkpt>
      <trkpt lat="45.93663" lon="4.72433">
        <ele>172</ele>
        <time>2018-04-20T07:55:40Z</time>
      </trkpt>
      <trkpt lat="45.93661" lon="4.72425">
        <ele>172</ele>
        <time>2018-04-20T07:55:41Z</time>
      </trkpt>
      <trkpt lat="45.93658" lon="4.7242">
        <ele>172</ele>
        <time>2018-04-20T07:55:42Z</time>
      </trkpt>
      <trkpt lat="45.93654" lon="4.72415">
        <ele>172</ele>
        <time>2018-04-20T07:55:43Z</time>
      </trkpt>
      <trkpt lat="45.93647" lon="4.72412">
        <ele>172</ele>
        <time>2018-04-20T07:55:46Z</time>
      </trkpt>
      <trkpt lat="45.93645" lon="4.7241">
        <ele>172</ele>
        <time>2018-04-20T07:55:47Z</time>
      </trkpt>
      <trkpt lat="45.93639" lon="4.72402">
        <ele>172</ele>
        <time>2018-04-20T07:55:50Z</time>
      </trkpt>
      <trkpt lat="45.93637" lon="4.724">
        <ele>172</ele>
        <time>2018-04-20T07:55:51Z</time>
      </trkpt>
      <trkpt lat="45.93632" lon="4.72392">
        <ele>172</ele>
        <time>2018-04-20T07:55:54Z</time>
      </trkpt>
      <trkpt lat="45.93629" lon="4.72389">
        <ele>172</ele>
        <time>2018-04-20T07:55:55Z</time>
      </trkpt>
      <trkpt lat="45.93625" lon="4.72382">
        <ele>172</ele>
        <time>2018-04-20T07:55:57Z</time>
      </trkpt>
      <trkpt lat="45.93623" lon="4.7238">
        <ele>172</ele>
        <time>2018-04-20T07:55:58Z</time>
      </trkpt>
      <trkpt lat="45.93618" lon="4.72374">
        <ele>172</ele>
        <time>2018-04-20T07:56:00Z</time>
      </trkpt>
      <trkpt lat="45.93615" lon="4.72371">
        <ele>172</ele>
        <time>2018-04-20T07:56:01Z</time>
      </trkpt>
      <trkpt lat="45.93609" lon="4.72364">
        <ele>172</ele>
        <time>2018-04-20T07:56:04Z</time>
      </trkpt>
      <trkpt lat="45.93607" lon="4.72362">
        <ele>172</ele>
        <time>2018-04-20T07:56:05Z</time>
      </trkpt>
      <trkpt lat="45.93599" lon="4.72355">
        <ele>172</ele>
        <time>2018-04-20T07:56:08Z</time>
      </trkpt>
      <trkpt lat="45.93597" lon="4.72352">
        <ele>172</ele>
        <time>2018-04-20T07:56:09Z</time>
      </trkpt>
      <trkpt lat="45.93591" lon="4.72347">
        <ele>173</ele>
        <time>2018-04-20T07:56:11Z</time>
      </trkpt>
      <trkpt lat="45.93589" lon="4.72344">
        <ele>173</ele>
        <time>2018-04-20T07:56:12Z</time>
      </trkpt>
      <trkpt lat="45.93584" lon="4.72339">
        <ele>173</ele>
        <time>2018-04-20T07:56:14Z</time>
      </trkpt>
      <trkpt lat="45.93581" lon="4.72336">
        <ele>173</ele>
        <time>2018-04-20T07:56:15Z</time>
      </trkpt>
      <trkpt lat="45.93576" lon="4.72332">
        <ele>173</ele>
        <time>2018-04-20T07:56:17Z</time>
      </trkpt>
      <trkpt lat="45.93573" lon="4.7233">
        <ele>173</ele>
        <time>2018-04-20T07:56:18Z</time>
      </trkpt>
      <trkpt lat="45.93567" lon="4.72326">
        <ele>173</ele>
        <time>2018-04-20T07:56:20Z</time>
      </trkpt>
      <trkpt lat="45.93563" lon="4.72324">
        <ele>173</ele>
        <time>2018-04-20T07:56:21Z</time>
      </trkpt>
      <trkpt lat="45.93557" lon="4.72322">
        <ele>173</ele>
        <time>2018-04-20T07:56:23Z</time>
      </trkpt>
      <trkpt lat="45.93554" lon="4.7232">
        <ele>173</ele>
        <time>2018-04-20T07:56:24Z</time>
      </trkpt>
      <trkpt lat="45.93547" lon="4.72318">
        <ele>173</ele>
        <time>2018-04-20T07:56:26Z</time>
      </trkpt>
      <trkpt lat="45.93544" lon="4.72317">
        <ele>173</ele>
        <time>2018-04-20T07:56:27Z</time>
      </trkpt>
      <trkpt lat="45.93538" lon="4.72316">
        <ele>173</ele>
        <time>2018-04-20T07:56:29Z</time>
      </trkpt>
      <trkpt lat="45.93535" lon="4.72317">
        <ele>173</ele>
        <time>2018-04-20T07:56:30Z</time>
      </trkpt>
      <trkpt lat="45.93527" lon="4.72318">
        <ele>173</ele>
        <time>2018-04-20T07:56:33Z</time>
      </trkpt>
      <trkpt lat="45.93525" lon="4.72319">
        <ele>173</ele>
        <time>2018-04-20T07:56:34Z</time>
      </trkpt>
      <trkpt lat="45.93516" lon="4.72322">
        <ele>173</ele>
        <time>2018-04-20T07:56:41Z</time>
      </trkpt>
      <trkpt lat="45.93516" lon="4.72321">
        <ele>173</ele>
        <time>2018-04-20T07:56:42Z</time>
      </trkpt>
      <trkpt lat="45.93517" lon="4.7231">
        <ele>173</ele>
        <time>2018-04-20T07:56:47Z</time>
      </trkpt>
      <trkpt lat="45.93519" lon="4.72307">
        <ele>173</ele>
        <time>2018-04-20T07:56:48Z</time>
      </trkpt>
      <trkpt lat="45.93522" lon="4.723">
        <ele>172</ele>
        <time>2018-04-20T07:56:50Z</time>
      </trkpt>
      <trkpt lat="45.93524" lon="4.72296">
        <ele>172</ele>
        <time>2018-04-20T07:56:51Z</time>
      </trkpt>
      <trkpt lat="45.9353" lon="4.72284">
        <ele>172</ele>
        <time>2018-04-20T07:56:52Z</time>
      </trkpt>
      <trkpt lat="45.93534" lon="4.72277">
        <ele>172</ele>
        <time>2018-04-20T07:56:55Z</time>
      </trkpt>
      <trkpt lat="45.93536" lon="4.72274">
        <ele>172</ele>
        <time>2018-04-20T07:56:56Z</time>
      </trkpt>
      <trkpt lat="45.93538" lon="4.72263">
        <ele>172</ele>
        <time>2018-04-20T07:57:04Z</time>
      </trkpt>
      <trkpt lat="45.93539" lon="4.72262">
        <ele>172</ele>
        <time>2018-04-20T07:57:05Z</time>
      </trkpt>
      <trkpt lat="45.93542" lon="4.72253">
        <ele>172</ele>
        <time>2018-04-20T07:57:09Z</time>
      </trkpt>
      <trkpt lat="45.93543" lon="4.7225">
        <ele>172</ele>
        <time>2018-04-20T07:57:10Z</time>
      </trkpt>
      <trkpt lat="45.93546" lon="4.72239">
        <ele>172</ele>
        <time>2018-04-20T07:57:14Z</time>
      </trkpt>
      <trkpt lat="45.93547" lon="4.72236">
        <ele>172</ele>
        <time>2018-04-20T07:57:15Z</time>
      </trkpt>
      <trkpt lat="45.93553" lon="4.72226">
        <ele>173</ele>
        <time>2018-04-20T07:57:23Z</time>
      </trkpt>
      <trkpt lat="45.93553" lon="4.72225">
        <ele>173</ele>
        <time>2018-04-20T07:57:24Z</time>
      </trkpt>
      <trkpt lat="45.9355" lon="4.72214">
        <ele>173</ele>
        <time>2018-04-20T07:57:29Z</time>
      </trkpt>
      <trkpt lat="45.93549" lon="4.72212">
        <ele>173</ele>
        <time>2018-04-20T07:57:30Z</time>
      </trkpt>
      <trkpt lat="45.93541" lon="4.72211">
        <ele>172</ele>
        <time>2018-04-20T07:57:33Z</time>
      </trkpt>
      <trkpt lat="45.93539" lon="4.72212">
        <ele>172</ele>
        <time>2018-04-20T07:57:34Z</time>
      </trkpt>
      <trkpt lat="45.93533" lon="4.72215">
        <ele>172</ele>
        <time>2018-04-20T07:57:36Z</time>
      </trkpt>
      <trkpt lat="45.9353" lon="4.72215">
        <ele>172</ele>
        <time>2018-04-20T07:57:37Z</time>
      </trkpt>
      <trkpt lat="45.93521" lon="4.72214">
        <ele>172</ele>
        <time>2018-04-20T07:57:40Z</time>
      </trkpt>
      <trkpt lat="45.93519" lon="4.72213">
        <ele>172</ele>
        <time>2018-04-20T07:57:41Z</time>
      </trkpt>
      <trkpt lat="45.93513" lon="4.7221">
        <ele>172</ele>
        <time>2018-04-20T07:57:43Z</time>
      </trkpt>
      <trkpt lat="45.9351" lon="4.72208">
        <ele>172</ele>
        <time>2018-04-20T07:57:44Z</time>
      </trkpt>
      <trkpt lat="45.93502" lon="4.72204">
        <ele>172</ele>
        <time>2018-04-20T07:57:47Z</time>
      </trkpt>
      <trkpt lat="45.9349" lon="4.72196">
        <ele>173</ele>
        <time>2018-04-20T07:57:48Z</time>
      </trkpt>
      <trkpt lat="45.93482" lon="4.72192">
        <ele>173</ele>
        <time>2018-04-20T07:57:50Z</time>
      </trkpt>
      <trkpt lat="45.93478" lon="4.72191">
        <ele>173</ele>
        <time>2018-04-20T07:57:51Z</time>
      </trkpt>
      <trkpt lat="45.93471" lon="4.72187">
        <ele>174</ele>
        <time>2018-04-20T07:57:53Z</time>
      </trkpt>
      <trkpt lat="45.93467" lon="4.72186">
        <ele>174</ele>
        <time>2018-04-20T07:57:54Z</time>
      </trkpt>
      <trkpt lat="45.93459" lon="4.72182">
        <ele>174</ele>
        <time>2018-04-20T07:57:58Z</time>
      </trkpt>
      <trkpt lat="45.93457" lon="4.72181">
        <ele>174</ele>
        <time>2018-04-20T07:57:59Z</time>
      </trkpt>
      <trkpt lat="45.93448" lon="4.72179">
        <ele>174</ele>
        <time>2018-04-20T07:58:00Z</time>
      </trkpt>
      <trkpt lat="45.93444" lon="4.72179">
        <ele>174</ele>
        <time>2018-04-20T07:58:01Z</time>
      </trkpt>
      <trkpt lat="45.93437" lon="4.72179">
        <ele>175</ele>
        <time>2018-04-20T07:58:04Z</time>
      </trkpt>
      <trkpt lat="45.9343" lon="4.72179">
        <ele>175</ele>
        <time>2018-04-20T07:58:05Z</time>
      </trkpt>
      <trkpt lat="45.93423" lon="4.72182">
        <ele>175</ele>
        <time>2018-04-20T07:58:08Z</time>
      </trkpt>
      <trkpt lat="45.93416" lon="4.72185">
        <ele>176</ele>
        <time>2018-04-20T07:58:09Z</time>
      </trkpt>
      <trkpt lat="45.93413" lon="4.72187">
        <ele>176</ele>
        <time>2018-04-20T07:58:11Z</time>
      </trkpt>
      <trkpt lat="45.93406" lon="4.72188">
        <ele>176</ele>
        <time>2018-04-20T07:58:12Z</time>
      </trkpt>
      <trkpt lat="45.93399" lon="4.72189">
        <ele>176</ele>
        <time>2018-04-20T07:58:14Z</time>
      </trkpt>
      <trkpt lat="45.93397" lon="4.7219">
        <ele>176</ele>
        <time>2018-04-20T07:58:15Z</time>
      </trkpt>
      <trkpt lat="45.93391" lon="4.72192">
        <ele>176</ele>
        <time>2018-04-20T07:58:18Z</time>
      </trkpt>
      <trkpt lat="45.93383" lon="4.72195">
        <ele>176</ele>
        <time>2018-04-20T07:58:19Z</time>
      </trkpt>
      <trkpt lat="45.93375" lon="4.72196">
        <ele>177</ele>
        <time>2018-04-20T07:58:24Z</time>
      </trkpt>
      <trkpt lat="45.93373" lon="4.72197">
        <ele>177</ele>
        <time>2018-04-20T07:58:25Z</time>
      </trkpt>
      <trkpt lat="45.93365" lon="4.722">
        <ele>177</ele>
        <time>2018-04-20T07:58:29Z</time>
      </trkpt>
      <trkpt lat="45.93358" lon="4.72202">
        <ele>177</ele>
        <time>2018-04-20T07:58:30Z</time>
      </trkpt>
      <trkpt lat="45.93351" lon="4.72203">
        <ele>177</ele>
        <time>2018-04-20T07:58:33Z</time>
      </trkpt>
      <trkpt lat="45.93342" lon="4.72205">
        <ele>177</ele>
        <time>2018-04-20T07:58:34Z</time>
      </trkpt>
      <trkpt lat="45.93333" lon="4.72204">
        <ele>176</ele>
        <time>2018-04-20T07:58:38Z</time>
      </trkpt>
      <trkpt lat="45.93332" lon="4.72204">
        <ele>176</ele>
        <time>2018-04-20T07:58:39Z</time>
      </trkpt>
      <trkpt lat="45.93315" lon="4.72206">
        <ele>176</ele>
        <time>2018-04-20T07:58:40Z</time>
      </trkpt>
      <trkpt lat="45.93311" lon="4.72206">
        <ele>175</ele>
        <time>2018-04-20T07:58:42Z</time>
      </trkpt>
      <trkpt lat="45.93304" lon="4.72205">
        <ele>175</ele>
        <time>2018-04-20T07:58:43Z</time>
      </trkpt>
      <trkpt lat="45.93297" lon="4.72205">
        <ele>175</ele>
        <time>2018-04-20T07:58:44Z</time>
      </trkpt>
      <trkpt lat="45.93292" lon="4.72206">
        <ele>175</ele>
        <time>2018-04-20T07:58:45Z</time>
      </trkpt>
      <trkpt lat="45.93289" lon="4.72209">
        <ele>175</ele>
        <time>2018-04-20T07:58:46Z</time>
      </trkpt>
      <trkpt lat="45.93283" lon="4.72211">
        <ele>174</ele>
        <time>2018-04-20T07:58:47Z</time>
      </trkpt>
      <trkpt lat="45.93275" lon="4.72211">
        <ele>174</ele>
        <time>2018-04-20T07:58:49Z</time>
      </trkpt>
      <trkpt lat="45.9327" lon="4.7221">
        <ele>174</ele>
        <time>2018-04-20T07:58:50Z</time>
      </trkpt>
      <trkpt lat="45.93262" lon="4.7221">
        <ele>174</ele>
        <time>2018-04-20T07:58:52Z</time>
      </trkpt>
      <trkpt lat="45.93257" lon="4.72209">
        <ele>174</ele>
        <time>2018-04-20T07:58:53Z</time>
      </trkpt>
      <trkpt lat="45.93251" lon="4.72209">
        <ele>174</ele>
        <time>2018-04-20T07:58:55Z</time>
      </trkpt>
      <trkpt lat="45.93245" lon="4.72208">
        <ele>171</ele>
        <time>2018-04-20T07:58:56Z</time>
      </trkpt>
      <trkpt lat="45.93238" lon="4.72207">
        <ele>171</ele>
        <time>2018-04-20T07:58:58Z</time>
      </trkpt>
      <trkpt lat="45.93234" lon="4.72207">
        <ele>171</ele>
        <time>2018-04-20T07:58:59Z</time>
      </trkpt>
      <trkpt lat="45.93228" lon="4.72212">
        <ele>171</ele>
        <time>2018-04-20T07:59:01Z</time>
      </trkpt>
      <trkpt lat="45.93224" lon="4.72214">
        <ele>171</ele>
        <time>2018-04-20T07:59:02Z</time>
      </trkpt>
      <trkpt lat="45.93218" lon="4.72216">
        <ele>171</ele>
        <time>2018-04-20T07:59:04Z</time>
      </trkpt>
      <trkpt lat="45.93213" lon="4.72216">
        <ele>171</ele>
        <time>2018-04-20T07:59:05Z</time>
      </trkpt>
      <trkpt lat="45.93206" lon="4.72218">
        <ele>171</ele>
        <time>2018-04-20T07:59:06Z</time>
      </trkpt>
      <trkpt lat="45.93201" lon="4.72219">
        <ele>171</ele>
        <time>2018-04-20T07:59:07Z</time>
      </trkpt>
      <trkpt lat="45.93193" lon="4.72222">
        <ele>171</ele>
        <time>2018-04-20T07:59:09Z</time>
      </trkpt>
      <trkpt lat="45.9319" lon="4.72225">
        <ele>171</ele>
        <time>2018-04-20T07:59:10Z</time>
      </trkpt>
      <trkpt lat="45.93182" lon="4.72225">
        <ele>170</ele>
        <time>2018-04-20T07:59:13Z</time>
      </trkpt>
      <trkpt lat="45.9318" lon="4.72225">
        <ele>170</ele>
        <time>2018-04-20T07:59:14Z</time>
      </trkpt>
      <trkpt lat="45.93174" lon="4.72223">
        <ele>170</ele>
        <time>2018-04-20T07:59:16Z</time>
      </trkpt>
      <trkpt lat="45.93167" lon="4.72216">
        <ele>170</ele>
        <time>2018-04-20T07:59:17Z</time>
      </trkpt>
      <trkpt lat="45.93165" lon="4.72205">
        <ele>170</ele>
        <time>2018-04-20T07:59:19Z</time>
      </trkpt>
      <trkpt lat="45.93164" lon="4.72199">
        <ele>170</ele>
        <time>2018-04-20T07:59:20Z</time>
      </trkpt>
      <trkpt lat="45.93164" lon="4.72189">
        <ele>170</ele>
        <time>2018-04-20T07:59:23Z</time>
      </trkpt>
      <trkpt lat="45.93165" lon="4.72185">
        <ele>170</ele>
        <time>2018-04-20T07:59:24Z</time>
      </trkpt>
      <trkpt lat="45.93166" lon="4.72182">
        <ele>169</ele>
        <time>2018-04-20T07:59:25Z</time>
      </trkpt>
      <trkpt lat="45.93168" lon="4.7217">
        <ele>169</ele>
        <time>2018-04-20T07:59:26Z</time>
      </trkpt>
      <trkpt lat="45.9317" lon="4.72158">
        <ele>169</ele>
        <time>2018-04-20T07:59:28Z</time>
      </trkpt>
      <trkpt lat="45.93171" lon="4.72152">
        <ele>169</ele>
        <time>2018-04-20T07:59:29Z</time>
      </trkpt>
      <trkpt lat="45.93173" lon="4.7214">
        <ele>170</ele>
        <time>2018-04-20T07:59:31Z</time>
      </trkpt>
      <trkpt lat="45.93174" lon="4.72137">
        <ele>170</ele>
        <time>2018-04-20T07:59:32Z</time>
      </trkpt>
      <trkpt lat="45.93175" lon="4.72127">
        <ele>170</ele>
        <time>2018-04-20T07:59:35Z</time>
      </trkpt>
      <trkpt lat="45.93176" lon="4.72122">
        <ele>170</ele>
        <time>2018-04-20T07:59:36Z</time>
      </trkpt>
      <trkpt lat="45.93179" lon="4.7211">
        <ele>170</ele>
        <time>2018-04-20T07:59:37Z</time>
      </trkpt>
      <trkpt lat="45.9318" lon="4.72098">
        <ele>170</ele>
        <time>2018-04-20T07:59:39Z</time>
      </trkpt>
      <trkpt lat="45.93181" lon="4.72093">
        <ele>169</ele>
        <time>2018-04-20T07:59:40Z</time>
      </trkpt>
      <trkpt lat="45.93182" lon="4.72083">
        <ele>169</ele>
        <time>2018-04-20T07:59:43Z</time>
      </trkpt>
      <trkpt lat="45.93182" lon="4.7208">
        <ele>169</ele>
        <time>2018-04-20T07:59:44Z</time>
      </trkpt>
      <trkpt lat="45.93184" lon="4.72068">
        <ele>170</ele>
        <time>2018-04-20T07:59:45Z</time>
      </trkpt>
      <trkpt lat="45.93186" lon="4.72063">
        <ele>170</ele>
        <time>2018-04-20T07:59:46Z</time>
      </trkpt>
      <trkpt lat="45.93187" lon="4.72052">
        <ele>170</ele>
        <time>2018-04-20T07:59:48Z</time>
      </trkpt>
      <trkpt lat="45.93187" lon="4.72046">
        <ele>170</ele>
        <time>2018-04-20T07:59:49Z</time>
      </trkpt>
      <trkpt lat="45.93184" lon="4.72036">
        <ele>170</ele>
        <time>2018-04-20T07:59:51Z</time>
      </trkpt>
      <trkpt lat="45.93175" lon="4.72033">
        <ele>170</ele>
        <time>2018-04-20T07:59:52Z</time>
      </trkpt>
      <trkpt lat="45.93167" lon="4.72029">
        <ele>170</ele>
        <time>2018-04-20T07:59:55Z</time>
      </trkpt>
      <trkpt lat="45.93163" lon="4.72027">
        <ele>169</ele>
        <time>2018-04-20T07:59:56Z</time>
      </trkpt>
      <trkpt lat="45.93155" lon="4.72026">
        <ele>169</ele>
        <time>2018-04-20T08:00:00Z</time>
      </trkpt>
      <trkpt lat="45.93153" lon="4.72026">
        <ele>169</ele>
        <time>2018-04-20T08:00:01Z</time>
      </trkpt>
      <trkpt lat="45.93145" lon="4.72024">
        <ele>169</ele>
        <time>2018-04-20T08:00:04Z</time>
      </trkpt>
      <trkpt lat="45.93142" lon="4.72023">
        <ele>169</ele>
        <time>2018-04-20T08:00:05Z</time>
      </trkpt>
      <trkpt lat="45.93136" lon="4.72021">
        <ele>169</ele>
        <time>2018-04-20T08:00:07Z</time>
      </trkpt>
      <trkpt lat="45.93133" lon="4.7202">
        <ele>169</ele>
        <time>2018-04-20T08:00:08Z</time>
      </trkpt>
      <trkpt lat="45.93127" lon="4.72018">
        <ele>169</ele>
        <time>2018-04-20T08:00:10Z</time>
      </trkpt>
      <trkpt lat="45.93123" lon="4.72017">
        <ele>169</ele>
        <time>2018-04-20T08:00:11Z</time>
      </trkpt>
      <trkpt lat="45.93117" lon="4.72015">
        <ele>169</ele>
        <time>2018-04-20T08:00:13Z</time>
      </trkpt>
      <trkpt lat="45.93114" lon="4.72015">
        <ele>169</ele>
        <time>2018-04-20T08:00:14Z</time>
      </trkpt>
      <trkpt lat="45.93107" lon="4.72013">
        <ele>169</ele>
        <time>2018-04-20T08:00:16Z</time>
      </trkpt>
      <trkpt lat="45.93096" lon="4.7201">
        <ele>169</ele>
        <time>2018-04-20T08:00:17Z</time>
      </trkpt>
      <trkpt lat="45.93089" lon="4.72005">
        <ele>169</ele>
        <time>2018-04-20T08:00:19Z</time>
      </trkpt>
      <trkpt lat="45.93087" lon="4.72004">
        <ele>169</ele>
        <time>2018-04-20T08:00:20Z</time>
      </trkpt>
      <trkpt lat="45.93079" lon="4.72001">
        <ele>169</ele>
        <time>2018-04-20T08:00:23Z</time>
      </trkpt>
      <trkpt lat="45.93076" lon="4.72">
        <ele>169</ele>
        <time>2018-04-20T08:00:24Z</time>
      </trkpt>
      <trkpt lat="45.9307" lon="4.71998">
        <ele>169</ele>
        <time>2018-04-20T08:00:26Z</time>
      </trkpt>
      <trkpt lat="45.93061" lon="4.71996">
        <ele>169</ele>
        <time>2018-04-20T08:00:27Z</time>
      </trkpt>
      <trkpt lat="45.93053" lon="4.71993">
        <ele>169</ele>
        <time>2018-04-20T08:00:29Z</time>
      </trkpt>
      <trkpt lat="45.93051" lon="4.71993">
        <ele>169</ele>
        <time>2018-04-20T08:00:30Z</time>
      </trkpt>
      <trkpt lat="45.93047" lon="4.71991">
        <ele>169</ele>
        <time>2018-04-20T08:00:32Z</time>
      </trkpt>
      <trkpt lat="45.93039" lon="4.71989">
        <ele>169</ele>
        <time>2018-04-20T08:00:33Z</time>
      </trkpt>
      <trkpt lat="45.93031" lon="4.71987">
        <ele>169</ele>
        <time>2018-04-20T08:00:35Z</time>
      </trkpt>
      <trkpt lat="45.93027" lon="4.71983">
        <ele>169</ele>
        <time>2018-04-20T08:00:36Z</time>
      </trkpt>
      <trkpt lat="45.9302" lon="4.71979">
        <ele>169</ele>
        <time>2018-04-20T08:00:38Z</time>
      </trkpt>
      <trkpt lat="45.93017" lon="4.71977">
        <ele>169</ele>
        <time>2018-04-20T08:00:39Z</time>
      </trkpt>
      <trkpt lat="45.9301" lon="4.71976">
        <ele>169</ele>
        <time>2018-04-20T08:00:41Z</time>
      </trkpt>
      <trkpt lat="45.93004" lon="4.71973">
        <ele>169</ele>
        <time>2018-04-20T08:00:42Z</time>
      </trkpt>
      <trkpt lat="45.92997" lon="4.71971">
        <ele>169</ele>
        <time>2018-04-20T08:00:45Z</time>
      </trkpt>
      <trkpt lat="45.92991" lon="4.71969">
        <ele>169</ele>
        <time>2018-04-20T08:00:46Z</time>
      </trkpt>
      <trkpt lat="45.92985" lon="4.71967">
        <ele>169</ele>
        <time>2018-04-20T08:00:48Z</time>
      </trkpt>
      <trkpt lat="45.9298" lon="4.71965">
        <ele>169</ele>
        <time>2018-04-20T08:00:49Z</time>
      </trkpt>
      <trkpt lat="45.92973" lon="4.71962">
        <ele>169</ele>
        <time>2018-04-20T08:00:51Z</time>
      </trkpt>
      <trkpt lat="45.92971" lon="4.71961">
        <ele>169</ele>
        <time>2018-04-20T08:00:52Z</time>
      </trkpt>
      <trkpt lat="45.92964" lon="4.71958">
        <ele>169</ele>
        <time>2018-04-20T08:00:55Z</time>
      </trkpt>
      <trkpt lat="45.92961" lon="4.71957">
        <ele>169</ele>
        <time>2018-04-20T08:00:56Z</time>
      </trkpt>
      <trkpt lat="45.92959" lon="4.71957">
        <ele>169</ele>
        <time>2018-04-20T08:00:57Z</time>
      </trkpt>
      <trkpt lat="45.9295" lon="4.71955">
        <ele>169</ele>
        <time>2018-04-20T08:00:58Z</time>
      </trkpt>
      <trkpt lat="45.92943" lon="4.71952">
        <ele>169</ele>
        <time>2018-04-20T08:01:00Z</time>
      </trkpt>
      <trkpt lat="45.9294" lon="4.7195">
        <ele>169</ele>
        <time>2018-04-20T08:01:01Z</time>
      </trkpt>
      <trkpt lat="45.92934" lon="4.71949">
        <ele>170</ele>
        <time>2018-04-20T08:01:03Z</time>
      </trkpt>
      <trkpt lat="45.92929" lon="4.71948">
        <ele>170</ele>
        <time>2018-04-20T08:01:04Z</time>
      </trkpt>
      <trkpt lat="45.92923" lon="4.71947">
        <ele>170</ele>
        <time>2018-04-20T08:01:06Z</time>
      </trkpt>
      <trkpt lat="45.92918" lon="4.71946">
        <ele>170</ele>
        <time>2018-04-20T08:01:07Z</time>
      </trkpt>
      <trkpt lat="45.92911" lon="4.71944">
        <ele>170</ele>
        <time>2018-04-20T08:01:09Z</time>
      </trkpt>
      <trkpt lat="45.92907" lon="4.71942">
        <ele>170</ele>
        <time>2018-04-20T08:01:10Z</time>
      </trkpt>
      <trkpt lat="45.929" lon="4.71937">
        <ele>170</ele>
        <time>2018-04-20T08:01:12Z</time>
      </trkpt>
      <trkpt lat="45.92896" lon="4.71935">
        <ele>170</ele>
        <time>2018-04-20T08:01:13Z</time>
      </trkpt>
      <trkpt lat="45.92891" lon="4.7193">
        <ele>170</ele>
        <time>2018-04-20T08:01:14Z</time>
      </trkpt>
      <trkpt lat="45.92887" lon="4.71927">
        <ele>170</ele>
        <time>2018-04-20T08:01:15Z</time>
      </trkpt>
      <trkpt lat="45.9288" lon="4.71923">
        <ele>170</ele>
        <time>2018-04-20T08:01:17Z</time>
      </trkpt>
      <trkpt lat="45.92878" lon="4.71921">
        <ele>170</ele>
        <time>2018-04-20T08:01:18Z</time>
      </trkpt>
      <trkpt lat="45.92873" lon="4.71918">
        <ele>170</ele>
        <time>2018-04-20T08:01:19Z</time>
      </trkpt>
      <trkpt lat="45.92867" lon="4.71917">
        <ele>170</ele>
        <time>2018-04-20T08:01:20Z</time>
      </trkpt>
      <trkpt lat="45.92859" lon="4.71911">
        <ele>171</ele>
        <time>2018-04-20T08:01:22Z</time>
      </trkpt>
      <trkpt lat="45.92856" lon="4.71908">
        <ele>171</ele>
        <time>2018-04-20T08:01:23Z</time>
      </trkpt>
      <trkpt lat="45.92849" lon="4.71904">
        <ele>171</ele>
        <time>2018-04-20T08:01:25Z</time>
      </trkpt>
      <trkpt lat="45.92846" lon="4.71901">
        <ele>171</ele>
        <time>2018-04-20T08:01:26Z</time>
      </trkpt>
      <trkpt lat="45.92839" lon="4.71896">
        <ele>171</ele>
        <time>2018-04-20T08:01:28Z</time>
      </trkpt>
      <trkpt lat="45.92835" lon="4.71894">
        <ele>171</ele>
        <time>2018-04-20T08:01:29Z</time>
      </trkpt>
      <trkpt lat="45.92828" lon="4.71889">
        <ele>171</ele>
        <time>2018-04-20T08:01:31Z</time>
      </trkpt>
      <trkpt lat="45.92825" lon="4.71887">
        <ele>171</ele>
        <time>2018-04-20T08:01:32Z</time>
      </trkpt>
      <trkpt lat="45.92817" lon="4.71882">
        <ele>171</ele>
        <time>2018-04-20T08:01:36Z</time>
      </trkpt>
      <trkpt lat="45.9281" lon="4.71878">
        <ele>171</ele>
        <time>2018-04-20T08:01:37Z</time>
      </trkpt>
      <trkpt lat="45.92807" lon="4.71875">
        <ele>171</ele>
        <time>2018-04-20T08:01:39Z</time>
      </trkpt>
      <trkpt lat="45.92801" lon="4.71871">
        <ele>172</ele>
        <time>2018-04-20T08:01:40Z</time>
      </trkpt>
      <trkpt lat="45.92797" lon="4.71868">
        <ele>172</ele>
        <time>2018-04-20T08:01:41Z</time>
      </trkpt>
      <trkpt lat="45.92793" lon="4.71865">
        <ele>172</ele>
        <time>2018-04-20T08:01:42Z</time>
      </trkpt>
      <trkpt lat="45.92789" lon="4.71862">
        <ele>172</ele>
        <time>2018-04-20T08:01:43Z</time>
      </trkpt>
      <trkpt lat="45.92785" lon="4.7186">
        <ele>172</ele>
        <time>2018-04-20T08:01:44Z</time>
      </trkpt>
      <trkpt lat="45.92777" lon="4.71857">
        <ele>172</ele>
        <time>2018-04-20T08:01:46Z</time>
      </trkpt>
      <trkpt lat="45.92773" lon="4.71856">
        <ele>172</ele>
        <time>2018-04-20T08:01:47Z</time>
      </trkpt>
      <trkpt lat="45.92766" lon="4.71852">
        <ele>172</ele>
        <time>2018-04-20T08:01:49Z</time>
      </trkpt>
      <trkpt lat="45.92762" lon="4.71849">
        <ele>172</ele>
        <time>2018-04-20T08:01:50Z</time>
      </trkpt>
      <trkpt lat="45.92756" lon="4.71844">
        <ele>172</ele>
        <time>2018-04-20T08:01:53Z</time>
      </trkpt>
      <trkpt lat="45.92753" lon="4.71843">
        <ele>173</ele>
        <time>2018-04-20T08:01:54Z</time>
      </trkpt>
      <trkpt lat="45.92751" lon="4.71841">
        <ele>173</ele>
        <time>2018-04-20T08:01:55Z</time>
      </trkpt>
      <trkpt lat="45.92743" lon="4.71836">
        <ele>172</ele>
        <time>2018-04-20T08:01:56Z</time>
      </trkpt>
      <trkpt lat="45.92738" lon="4.71833">
        <ele>173</ele>
        <time>2018-04-20T08:01:58Z</time>
      </trkpt>
      <trkpt lat="45.92733" lon="4.7183">
        <ele>173</ele>
        <time>2018-04-20T08:01:59Z</time>
      </trkpt>
      <trkpt lat="45.92726" lon="4.71826">
        <ele>174</ele>
        <time>2018-04-20T08:02:01Z</time>
      </trkpt>
      <trkpt lat="45.92721" lon="4.71825">
        <ele>174</ele>
        <time>2018-04-20T08:02:02Z</time>
      </trkpt>
      <trkpt lat="45.92714" lon="4.7182">
        <ele>173</ele>
        <time>2018-04-20T08:02:06Z</time>
      </trkpt>
      <trkpt lat="45.92712" lon="4.71818">
        <ele>173</ele>
        <time>2018-04-20T08:02:07Z</time>
      </trkpt>
      <trkpt lat="45.92708" lon="4.71808">
        <ele>174</ele>
        <time>2018-04-20T08:02:11Z</time>
      </trkpt>
      <trkpt lat="45.92707" lon="4.71804">
        <ele>174</ele>
        <time>2018-04-20T08:02:12Z</time>
      </trkpt>
      <trkpt lat="45.92707" lon="4.71795">
        <ele>174</ele>
        <time>2018-04-20T08:02:14Z</time>
      </trkpt>
      <trkpt lat="45.92707" lon="4.7179">
        <ele>174</ele>
        <time>2018-04-20T08:02:15Z</time>
      </trkpt>
      <trkpt lat="45.92707" lon="4.71781">
        <ele>174</ele>
        <time>2018-04-20T08:02:17Z</time>
      </trkpt>
      <trkpt lat="45.92707" lon="4.71776">
        <ele>174</ele>
        <time>2018-04-20T08:02:18Z</time>
      </trkpt>
      <trkpt lat="45.92706" lon="4.71761">
        <ele>175</ele>
        <time>2018-04-20T08:02:19Z</time>
      </trkpt>
      <trkpt lat="45.92706" lon="4.71749">
        <ele>175</ele>
        <time>2018-04-20T08:02:21Z</time>
      </trkpt>
      <trkpt lat="45.92707" lon="4.71743">
        <ele>175</ele>
        <time>2018-04-20T08:02:22Z</time>
      </trkpt>
      <trkpt lat="45.9271" lon="4.71732">
        <ele>175</ele>
        <time>2018-04-20T08:02:26Z</time>
      </trkpt>
      <trkpt lat="45.92711" lon="4.71729">
        <ele>175</ele>
        <time>2018-04-20T08:02:27Z</time>
      </trkpt>
      <trkpt lat="45.92714" lon="4.71722">
        <ele>174</ele>
        <time>2018-04-20T08:02:29Z</time>
      </trkpt>
      <trkpt lat="45.92718" lon="4.71706">
        <ele>174</ele>
        <time>2018-04-20T08:02:30Z</time>
      </trkpt>
      <trkpt lat="45.9272" lon="4.71702">
        <ele>174</ele>
        <time>2018-04-20T08:02:32Z</time>
      </trkpt>
      <trkpt lat="45.92723" lon="4.71691">
        <ele>174</ele>
        <time>2018-04-20T08:02:33Z</time>
      </trkpt>
      <trkpt lat="45.92726" lon="4.71683">
        <ele>173</ele>
        <time>2018-04-20T08:02:36Z</time>
      </trkpt>
      <trkpt lat="45.92728" lon="4.71679">
        <ele>173</ele>
        <time>2018-04-20T08:02:37Z</time>
      </trkpt>
      <trkpt lat="45.92733" lon="4.71669">
        <ele>173</ele>
        <time>2018-04-20T08:02:38Z</time>
      </trkpt>
      <trkpt lat="45.92736" lon="4.71665">
        <ele>172</ele>
        <time>2018-04-20T08:02:39Z</time>
      </trkpt>
      <trkpt lat="45.92742" lon="4.71657">
        <ele>172</ele>
        <time>2018-04-20T08:02:41Z</time>
      </trkpt>
      <trkpt lat="45.92744" lon="4.71652">
        <ele>172</ele>
        <time>2018-04-20T08:02:42Z</time>
      </trkpt>
      <trkpt lat="45.9275" lon="4.71644">
        <ele>171</ele>
        <time>2018-04-20T08:02:44Z</time>
      </trkpt>
      <trkpt lat="45.92752" lon="4.71642">
        <ele>171</ele>
        <time>2018-04-20T08:02:45Z</time>
      </trkpt>
      <trkpt lat="45.92755" lon="4.71635">
        <ele>171</ele>
        <time>2018-04-20T08:02:46Z</time>
      </trkpt>
      <trkpt lat="45.92758" lon="4.71631">
        <ele>171</ele>
        <time>2018-04-20T08:02:47Z</time>
      </trkpt>
      <trkpt lat="45.92761" lon="4.71624">
        <ele>171</ele>
        <time>2018-04-20T08:02:49Z</time>
      </trkpt>
      <trkpt lat="45.92765" lon="4.71617">
        <ele>171</ele>
        <time>2018-04-20T08:02:50Z</time>
      </trkpt>
      <trkpt lat="45.9277" lon="4.71609">
        <ele>171</ele>
        <time>2018-04-20T08:02:52Z</time>
      </trkpt>
      <trkpt lat="45.92773" lon="4.71605">
        <ele>171</ele>
        <time>2018-04-20T08:02:53Z</time>
      </trkpt>
      <trkpt lat="45.92779" lon="4.71597">
        <ele>171</ele>
        <time>2018-04-20T08:02:57Z</time>
      </trkpt>
      <trkpt lat="45.92786" lon="4.71589">
        <ele>171</ele>
        <time>2018-04-20T08:02:58Z</time>
      </trkpt>
      <trkpt lat="45.92791" lon="4.71578">
        <ele>172</ele>
        <time>2018-04-20T08:03:00Z</time>
      </trkpt>
      <trkpt lat="45.92793" lon="4.71573">
        <ele>172</ele>
        <time>2018-04-20T08:03:01Z</time>
      </trkpt>
      <trkpt lat="45.92796" lon="4.71561">
        <ele>172</ele>
        <time>2018-04-20T08:03:04Z</time>
      </trkpt>
      <trkpt lat="45.92797" lon="4.71558">
        <ele>172</ele>
        <time>2018-04-20T08:03:05Z</time>
      </trkpt>
      <trkpt lat="45.92801" lon="4.71548">
        <ele>173</ele>
        <time>2018-04-20T08:03:08Z</time>
      </trkpt>
      <trkpt lat="45.92803" lon="4.71545">
        <ele>173</ele>
        <time>2018-04-20T08:03:09Z</time>
      </trkpt>
      <trkpt lat="45.92808" lon="4.71534">
        <ele>173</ele>
        <time>2018-04-20T08:03:12Z</time>
      </trkpt>
      <trkpt lat="45.9281" lon="4.71529">
        <ele>173</ele>
        <time>2018-04-20T08:03:13Z</time>
      </trkpt>
      <trkpt lat="45.92813" lon="4.71519">
        <ele>174</ele>
        <time>2018-04-20T08:03:16Z</time>
      </trkpt>
      <trkpt lat="45.92814" lon="4.71516">
        <ele>174</ele>
        <time>2018-04-20T08:03:17Z</time>
      </trkpt>
      <trkpt lat="45.92817" lon="4.71505">
        <ele>175</ele>
        <time>2018-04-20T08:03:21Z</time>
      </trkpt>
      <trkpt lat="45.92818" lon="4.71502">
        <ele>175</ele>
        <time>2018-04-20T08:03:22Z</time>
      </trkpt>
      <trkpt lat="45.92821" lon="4.71492">
        <ele>178</ele>
        <time>2018-04-20T08:03:26Z</time>
      </trkpt>
      <trkpt lat="45.92821" lon="4.71489">
        <ele>178</ele>
        <time>2018-04-20T08:03:27Z</time>
      </trkpt>
      <trkpt lat="45.92823" lon="4.71478">
        <ele>179</ele>
        <time>2018-04-20T08:03:32Z</time>
      </trkpt>
      <trkpt lat="45.92823" lon="4.71476">
        <ele>179</ele>
        <time>2018-04-20T08:03:33Z</time>
      </trkpt>
      <trkpt lat="45.92827" lon="4.71465">
        <ele>180</ele>
        <time>2018-04-20T08:03:38Z</time>
      </trkpt>
      <trkpt lat="45.92827" lon="4.71463">
        <ele>180</ele>
        <time>2018-04-20T08:03:39Z</time>
      </trkpt>
      <trkpt lat="45.92831" lon="4.71453">
        <ele>181</ele>
        <time>2018-04-20T08:03:44Z</time>
      </trkpt>
      <trkpt lat="45.92832" lon="4.71451">
        <ele>181</ele>
        <time>2018-04-20T08:03:45Z</time>
      </trkpt>
      <trkpt lat="45.92835" lon="4.71439">
        <ele>183</ele>
        <time>2018-04-20T08:03:51Z</time>
      </trkpt>
      <trkpt lat="45.92835" lon="4.71437">
        <ele>183</ele>
        <time>2018-04-20T08:03:52Z</time>
      </trkpt>
      <trkpt lat="45.92837" lon="4.71426">
        <ele>184</ele>
        <time>2018-04-20T08:03:57Z</time>
      </trkpt>
      <trkpt lat="45.92838" lon="4.71424">
        <ele>185</ele>
        <time>2018-04-20T08:03:58Z</time>
      </trkpt>
      <trkpt lat="45.92842" lon="4.71414">
        <ele>187</ele>
        <time>2018-04-20T08:04:03Z</time>
      </trkpt>
      <trkpt lat="45.92843" lon="4.71412">
        <ele>187</ele>
        <time>2018-04-20T08:04:04Z</time>
      </trkpt>
      <trkpt lat="45.92848" lon="4.71402">
        <ele>187</ele>
        <time>2018-04-20T08:04:09Z</time>
      </trkpt>
      <trkpt lat="45.92849" lon="4.714">
        <ele>187</ele>
        <time>2018-04-20T08:04:10Z</time>
      </trkpt>
      <trkpt lat="45.92845" lon="4.7139">
        <ele>188</ele>
        <time>2018-04-20T08:04:17Z</time>
      </trkpt>
      <trkpt lat="45.92843" lon="4.71387">
        <ele>188</ele>
        <time>2018-04-20T08:04:18Z</time>
      </trkpt>
      <trkpt lat="45.92837" lon="4.71379">
        <ele>188</ele>
        <time>2018-04-20T08:04:22Z</time>
      </trkpt>
      <trkpt lat="45.92836" lon="4.71377">
        <ele>188</ele>
        <time>2018-04-20T08:04:23Z</time>
      </trkpt>
      <trkpt lat="45.9284" lon="4.71386">
        <ele>188</ele>
        <time>2018-04-20T08:05:53Z</time>
      </trkpt>
      <trkpt lat="45.92841" lon="4.71387">
        <ele>188</ele>
        <time>2018-04-20T08:05:54Z</time>
      </trkpt>
      <trkpt lat="45.92837" lon="4.71378">
        <ele>188</ele>
        <time>2018-04-20T08:08:34Z</time>
      </trkpt>
      <trkpt lat="45.92836" lon="4.71375">
        <ele>188</ele>
        <time>2018-04-20T08:08:35Z</time>
      </trkpt>
      <trkpt lat="45.92833" lon="4.71369">
        <ele>187</ele>
        <time>2018-04-20T08:08:37Z</time>
      </trkpt>
      <trkpt lat="45.92829" lon="4.71358">
        <ele>188</ele>
        <time>2018-04-20T08:08:38Z</time>
      </trkpt>
      <trkpt lat="45.92827" lon="4.71348">
        <ele>188</ele>
        <time>2018-04-20T08:08:43Z</time>
      </trkpt>
      <trkpt lat="45.92827" lon="4.71345">
        <ele>188</ele>
        <time>2018-04-20T08:08:44Z</time>
      </trkpt>
      <trkpt lat="45.92826" lon="4.71335">
        <ele>189</ele>
        <time>2018-04-20T08:08:47Z</time>
      </trkpt>
      <trkpt lat="45.92826" lon="4.71332">
        <ele>190</ele>
        <time>2018-04-20T08:08:48Z</time>
      </trkpt>
      <trkpt lat="45.92825" lon="4.7132">
        <ele>190</ele>
        <time>2018-04-20T08:08:51Z</time>
      </trkpt>
      <trkpt lat="45.92825" lon="4.71316">
        <ele>189</ele>
        <time>2018-04-20T08:08:52Z</time>
      </trkpt>
      <trkpt lat="45.92822" lon="4.71306">
        <ele>189</ele>
        <time>2018-04-20T08:08:55Z</time>
      </trkpt>
      <trkpt lat="45.9282" lon="4.71304">
        <ele>189</ele>
        <time>2018-04-20T08:08:56Z</time>
      </trkpt>
      <trkpt lat="45.92814" lon="4.713">
        <ele>189</ele>
        <time>2018-04-20T08:08:59Z</time>
      </trkpt>
      <trkpt lat="45.92812" lon="4.713">
        <ele>189</ele>
        <time>2018-04-20T08:09:00Z</time>
      </trkpt>
      <trkpt lat="45.92803" lon="4.71297">
        <ele>189</ele>
        <time>2018-04-20T08:09:04Z</time>
      </trkpt>
      <trkpt lat="45.92801" lon="4.71296">
        <ele>189</ele>
        <time>2018-04-20T08:09:05Z</time>
      </trkpt>
      <trkpt lat="45.92795" lon="4.71292">
        <ele>189</ele>
        <time>2018-04-20T08:09:08Z</time>
      </trkpt>
      <trkpt lat="45.92792" lon="4.71291">
        <ele>189</ele>
        <time>2018-04-20T08:09:09Z</time>
      </trkpt>
      <trkpt lat="45.92785" lon="4.7129">
        <ele>189</ele>
        <time>2018-04-20T08:09:12Z</time>
      </trkpt>
      <trkpt lat="45.92782" lon="4.71289">
        <ele>189</ele>
        <time>2018-04-20T08:09:13Z</time>
      </trkpt>
      <trkpt lat="45.92774" lon="4.71286">
        <ele>189</ele>
        <time>2018-04-20T08:09:16Z</time>
      </trkpt>
      <trkpt lat="45.92771" lon="4.71286">
        <ele>189</ele>
        <time>2018-04-20T08:09:17Z</time>
      </trkpt>
      <trkpt lat="45.92768" lon="4.71285">
        <ele>189</ele>
        <time>2018-04-20T08:09:18Z</time>
      </trkpt>
      <trkpt lat="45.92759" lon="4.71284">
        <ele>189</ele>
        <time>2018-04-20T08:09:19Z</time>
      </trkpt>
      <trkpt lat="45.92751" lon="4.71283">
        <ele>189</ele>
        <time>2018-04-20T08:09:21Z</time>
      </trkpt>
      <trkpt lat="45.92749" lon="4.71283">
        <ele>188</ele>
        <time>2018-04-20T08:09:22Z</time>
      </trkpt>
      <trkpt lat="45.92741" lon="4.71281">
        <ele>188</ele>
        <time>2018-04-20T08:09:25Z</time>
      </trkpt>
      <trkpt lat="45.92738" lon="4.7128">
        <ele>188</ele>
        <time>2018-04-20T08:09:26Z</time>
      </trkpt>
      <trkpt lat="45.92736" lon="4.71279">
        <ele>188</ele>
        <time>2018-04-20T08:09:27Z</time>
      </trkpt>
      <trkpt lat="45.92727" lon="4.71276">
        <ele>188</ele>
        <time>2018-04-20T08:09:28Z</time>
      </trkpt>
      <trkpt lat="45.92723" lon="4.71274">
        <ele>188</ele>
        <time>2018-04-20T08:09:30Z</time>
      </trkpt>
      <trkpt lat="45.92716" lon="4.71272">
        <ele>188</ele>
        <time>2018-04-20T08:09:31Z</time>
      </trkpt>
      <trkpt lat="45.92709" lon="4.71269">
        <ele>187</ele>
        <time>2018-04-20T08:09:33Z</time>
      </trkpt>
      <trkpt lat="45.92705" lon="4.71269">
        <ele>187</ele>
        <time>2018-04-20T08:09:34Z</time>
      </trkpt>
      <trkpt lat="45.92701" lon="4.71268">
        <ele>187</ele>
        <time>2018-04-20T08:09:36Z</time>
      </trkpt>
      <trkpt lat="45.92694" lon="4.71267">
        <ele>187</ele>
        <time>2018-04-20T08:09:37Z</time>
      </trkpt>
      <trkpt lat="45.92687" lon="4.71267">
        <ele>187</ele>
        <time>2018-04-20T08:09:40Z</time>
      </trkpt>
      <trkpt lat="45.92684" lon="4.71266">
        <ele>187</ele>
        <time>2018-04-20T08:09:41Z</time>
      </trkpt>
      <trkpt lat="45.92677" lon="4.71263">
        <ele>187</ele>
        <time>2018-04-20T08:09:44Z</time>
      </trkpt>
      <trkpt lat="45.92675" lon="4.71262">
        <ele>187</ele>
        <time>2018-04-20T08:09:45Z</time>
      </trkpt>
      <trkpt lat="45.92666" lon="4.71257">
        <ele>186</ele>
        <time>2018-04-20T08:09:48Z</time>
      </trkpt>
      <trkpt lat="45.92663" lon="4.71256">
        <ele>186</ele>
        <time>2018-04-20T08:09:49Z</time>
      </trkpt>
      <trkpt lat="45.9266" lon="4.71255">
        <ele>186</ele>
        <time>2018-04-20T08:09:50Z</time>
      </trkpt>
      <trkpt lat="45.9265" lon="4.7125">
        <ele>186</ele>
        <time>2018-04-20T08:09:51Z</time>
      </trkpt>
      <trkpt lat="45.92645" lon="4.71248">
        <ele>187</ele>
        <time>2018-04-20T08:09:53Z</time>
      </trkpt>
      <trkpt lat="45.9264" lon="4.71245">
        <ele>186</ele>
        <time>2018-04-20T08:09:54Z</time>
      </trkpt>
      <trkpt lat="45.92633" lon="4.71241">
        <ele>186</ele>
        <time>2018-04-20T08:09:56Z</time>
      </trkpt>
      <trkpt lat="45.92631" lon="4.7124">
        <ele>186</ele>
        <time>2018-04-20T08:09:57Z</time>
      </trkpt>
      <trkpt lat="45.92624" lon="4.71235">
        <ele>186</ele>
        <time>2018-04-20T08:10:00Z</time>
      </trkpt>
      <trkpt lat="45.92617" lon="4.7123">
        <ele>186</ele>
        <time>2018-04-20T08:10:01Z</time>
      </trkpt>
      <trkpt lat="45.92611" lon="4.71226">
        <ele>186</ele>
        <time>2018-04-20T08:10:04Z</time>
      </trkpt>
      <trkpt lat="45.92604" lon="4.71222">
        <ele>186</ele>
        <time>2018-04-20T08:10:05Z</time>
      </trkpt>
      <trkpt lat="45.92595" lon="4.7122">
        <ele>186</ele>
        <time>2018-04-20T08:10:09Z</time>
      </trkpt>
      <trkpt lat="45.92593" lon="4.7122">
        <ele>186</ele>
        <time>2018-04-20T08:10:10Z</time>
      </trkpt>
      <trkpt lat="45.92585" lon="4.71218">
        <ele>186</ele>
        <time>2018-04-20T08:10:13Z</time>
      </trkpt>
      <trkpt lat="45.92582" lon="4.71217">
        <ele>185</ele>
        <time>2018-04-20T08:10:14Z</time>
      </trkpt>
      <trkpt lat="45.92576" lon="4.71216">
        <ele>185</ele>
        <time>2018-04-20T08:10:16Z</time>
      </trkpt>
      <trkpt lat="45.92567" lon="4.71213">
        <ele>185</ele>
        <time>2018-04-20T08:10:17Z</time>
      </trkpt>
      <trkpt lat="45.92558" lon="4.7121">
        <ele>185</ele>
        <time>2018-04-20T08:10:21Z</time>
      </trkpt>
      <trkpt lat="45.92556" lon="4.71209">
        <ele>185</ele>
        <time>2018-04-20T08:10:22Z</time>
      </trkpt>
      <trkpt lat="45.92549" lon="4.71206">
        <ele>185</ele>
        <time>2018-04-20T08:10:25Z</time>
      </trkpt>
      <trkpt lat="45.92546" lon="4.71205">
        <ele>185</ele>
        <time>2018-04-20T08:10:26Z</time>
      </trkpt>
      <trkpt lat="45.9254" lon="4.71203">
        <ele>185</ele>
        <time>2018-04-20T08:10:29Z</time>
      </trkpt>
      <trkpt lat="45.92538" lon="4.71202">
        <ele>185</ele>
        <time>2018-04-20T08:10:30Z</time>
      </trkpt>
      <trkpt lat="45.9253" lon="4.71199">
        <ele>185</ele>
        <time>2018-04-20T08:10:33Z</time>
      </trkpt>
      <trkpt lat="45.92521" lon="4.71195">
        <ele>185</ele>
        <time>2018-04-20T08:10:34Z</time>
      </trkpt>
      <trkpt lat="45.92512" lon="4.71192">
        <ele>185</ele>
        <time>2018-04-20T08:10:39Z</time>
      </trkpt>
      <trkpt lat="45.9251" lon="4.71191">
        <ele>185</ele>
        <time>2018-04-20T08:10:40Z</time>
      </trkpt>
      <trkpt lat="45.92503" lon="4.71188">
        <ele>185</ele>
        <time>2018-04-20T08:10:43Z</time>
      </trkpt>
      <trkpt lat="45.92501" lon="4.71186">
        <ele>185</ele>
        <time>2018-04-20T08:10:44Z</time>
      </trkpt>
      <trkpt lat="45.92492" lon="4.71181">
        <ele>185</ele>
        <time>2018-04-20T08:10:47Z</time>
      </trkpt>
      <trkpt lat="45.9249" lon="4.7118">
        <ele>185</ele>
        <time>2018-04-20T08:10:48Z</time>
      </trkpt>
      <trkpt lat="45.92487" lon="4.71178">
        <ele>185</ele>
        <time>2018-04-20T08:10:49Z</time>
      </trkpt>
      <trkpt lat="45.92477" lon="4.71172">
        <ele>184</ele>
        <time>2018-04-20T08:10:50Z</time>
      </trkpt>
      <trkpt lat="45.92474" lon="4.71169">
        <ele>184</ele>
        <time>2018-04-20T08:10:52Z</time>
      </trkpt>
      <trkpt lat="45.92469" lon="4.71166">
        <ele>186</ele>
        <time>2018-04-20T08:10:53Z</time>
      </trkpt>
      <trkpt lat="45.92462" lon="4.71163">
        <ele>186</ele>
        <time>2018-04-20T08:10:56Z</time>
      </trkpt>
      <trkpt lat="45.9246" lon="4.71162">
        <ele>186</ele>
        <time>2018-04-20T08:10:57Z</time>
      </trkpt>
      <trkpt lat="45.92452" lon="4.71158">
        <ele>186</ele>
        <time>2018-04-20T08:11:00Z</time>
      </trkpt>
      <trkpt lat="45.92449" lon="4.71156">
        <ele>186</ele>
        <time>2018-04-20T08:11:01Z</time>
      </trkpt>
      <trkpt lat="45.92443" lon="4.71153">
        <ele>186</ele>
        <time>2018-04-20T08:11:03Z</time>
      </trkpt>
      <trkpt lat="45.9244" lon="4.71151">
        <ele>186</ele>
        <time>2018-04-20T08:11:04Z</time>
      </trkpt>
      <trkpt lat="45.92434" lon="4.71147">
        <ele>186</ele>
        <time>2018-04-20T08:11:06Z</time>
      </trkpt>
      <trkpt lat="45.92431" lon="4.71145">
        <ele>186</ele>
        <time>2018-04-20T08:11:07Z</time>
      </trkpt>
      <trkpt lat="45.92426" lon="4.71141">
        <ele>186</ele>
        <time>2018-04-20T08:11:09Z</time>
      </trkpt>
      <trkpt lat="45.92423" lon="4.71139">
        <ele>186</ele>
        <time>2018-04-20T08:11:10Z</time>
      </trkpt>
      <trkpt lat="45.92418" lon="4.71134">
        <ele>186</ele>
        <time>2018-04-20T08:11:12Z</time>
      </trkpt>
      <trkpt lat="45.92415" lon="4.71131">
        <ele>184</ele>
        <time>2018-04-20T08:11:13Z</time>
      </trkpt>
      <trkpt lat="45.92409" lon="4.71126">
        <ele>184</ele>
        <time>2018-04-20T08:11:15Z</time>
      </trkpt>
      <trkpt lat="45.924" lon="4.7112">
        <ele>184</ele>
        <time>2018-04-20T08:11:16Z</time>
      </trkpt>
      <trkpt lat="45.92393" lon="4.71116">
        <ele>184</ele>
        <time>2018-04-20T08:11:18Z</time>
      </trkpt>
      <trkpt lat="45.92391" lon="4.71115">
        <ele>184</ele>
        <time>2018-04-20T08:11:19Z</time>
      </trkpt>
      <trkpt lat="45.92384" lon="4.71112">
        <ele>184</ele>
        <time>2018-04-20T08:11:22Z</time>
      </trkpt>
      <trkpt lat="45.92381" lon="4.71111">
        <ele>184</ele>
        <time>2018-04-20T08:11:23Z</time>
      </trkpt>
      <trkpt lat="45.92375" lon="4.71108">
        <ele>184</ele>
        <time>2018-04-20T08:11:25Z</time>
      </trkpt>
      <trkpt lat="45.92372" lon="4.71107">
        <ele>184</ele>
        <time>2018-04-20T08:11:26Z</time>
      </trkpt>
      <trkpt lat="45.92366" lon="4.71104">
        <ele>184</ele>
        <time>2018-04-20T08:11:28Z</time>
      </trkpt>
      <trkpt lat="45.92363" lon="4.71103">
        <ele>184</ele>
        <time>2018-04-20T08:11:29Z</time>
      </trkpt>
      <trkpt lat="45.92355" lon="4.711">
        <ele>184</ele>
        <time>2018-04-20T08:11:32Z</time>
      </trkpt>
      <trkpt lat="45.92352" lon="4.71099">
        <ele>184</ele>
        <time>2018-04-20T08:11:33Z</time>
      </trkpt>
      <trkpt lat="45.92344" lon="4.71095">
        <ele>184</ele>
        <time>2018-04-20T08:11:36Z</time>
      </trkpt>
      <trkpt lat="45.92341" lon="4.71093">
        <ele>184</ele>
        <time>2018-04-20T08:11:37Z</time>
      </trkpt>
      <trkpt lat="45.92336" lon="4.7109">
        <ele>184</ele>
        <time>2018-04-20T08:11:39Z</time>
      </trkpt>
      <trkpt lat="45.92333" lon="4.71089">
        <ele>183</ele>
        <time>2018-04-20T08:11:40Z</time>
      </trkpt>
      <trkpt lat="45.92323" lon="4.71085">
        <ele>183</ele>
        <time>2018-04-20T08:11:41Z</time>
      </trkpt>
      <trkpt lat="45.92315" lon="4.71082">
        <ele>184</ele>
        <time>2018-04-20T08:11:43Z</time>
      </trkpt>
      <trkpt lat="45.92311" lon="4.7108">
        <ele>184</ele>
        <time>2018-04-20T08:11:44Z</time>
      </trkpt>
      <trkpt lat="45.92303" lon="4.71075">
        <ele>184</ele>
        <time>2018-04-20T08:11:46Z</time>
      </trkpt>
      <trkpt lat="45.92298" lon="4.71071">
        <ele>183</ele>
        <time>2018-04-20T08:11:47Z</time>
      </trkpt>
      <trkpt lat="45.9229" lon="4.71066">
        <ele>183</ele>
        <time>2018-04-20T08:11:49Z</time>
      </trkpt>
      <trkpt lat="45.92286" lon="4.71063">
        <ele>183</ele>
        <time>2018-04-20T08:11:50Z</time>
      </trkpt>
      <trkpt lat="45.92281" lon="4.7106">
        <ele>183</ele>
        <time>2018-04-20T08:11:51Z</time>
      </trkpt>
      <trkpt lat="45.92277" lon="4.71058">
        <ele>183</ele>
        <time>2018-04-20T08:11:52Z</time>
      </trkpt>
      <trkpt lat="45.92273" lon="4.71055">
        <ele>183</ele>
        <time>2018-04-20T08:11:53Z</time>
      </trkpt>
      <trkpt lat="45.92269" lon="4.71053">
        <ele>183</ele>
        <time>2018-04-20T08:11:54Z</time>
      </trkpt>
      <trkpt lat="45.92265" lon="4.71052">
        <ele>183</ele>
        <time>2018-04-20T08:11:55Z</time>
      </trkpt>
      <trkpt lat="45.9226" lon="4.71049">
        <ele>183</ele>
        <time>2018-04-20T08:11:56Z</time>
      </trkpt>
      <trkpt lat="45.92253" lon="4.71045">
        <ele>183</ele>
        <time>2018-04-20T08:11:59Z</time>
      </trkpt>
      <trkpt lat="45.92251" lon="4.71044">
        <ele>183</ele>
        <time>2018-04-20T08:12:00Z</time>
      </trkpt>
      <trkpt lat="45.92243" lon="4.71039">
        <ele>182</ele>
        <time>2018-04-20T08:12:03Z</time>
      </trkpt>
      <trkpt lat="45.9224" lon="4.71038">
        <ele>182</ele>
        <time>2018-04-20T08:12:04Z</time>
      </trkpt>
      <trkpt lat="45.92234" lon="4.71035">
        <ele>182</ele>
        <time>2018-04-20T08:12:06Z</time>
      </trkpt>
      <trkpt lat="45.92231" lon="4.71033">
        <ele>182</ele>
        <time>2018-04-20T08:12:07Z</time>
      </trkpt>
      <trkpt lat="45.92225" lon="4.71029">
        <ele>182</ele>
        <time>2018-04-20T08:12:09Z</time>
      </trkpt>
      <trkpt lat="45.92222" lon="4.71027">
        <ele>182</ele>
        <time>2018-04-20T08:12:10Z</time>
      </trkpt>
      <trkpt lat="45.92219" lon="4.71025">
        <ele>182</ele>
        <time>2018-04-20T08:12:11Z</time>
      </trkpt>
      <trkpt lat="45.92209" lon="4.71019">
        <ele>182</ele>
        <time>2018-04-20T08:12:12Z</time>
      </trkpt>
      <trkpt lat="45.92201" lon="4.71016">
        <ele>182</ele>
        <time>2018-04-20T08:12:15Z</time>
      </trkpt>
      <trkpt lat="45.92198" lon="4.71015">
        <ele>181</ele>
        <time>2018-04-20T08:12:16Z</time>
      </trkpt>
      <trkpt lat="45.92191" lon="4.71012">
        <ele>181</ele>
        <time>2018-04-20T08:12:19Z</time>
      </trkpt>
      <trkpt lat="45.92188" lon="4.71011">
        <ele>181</ele>
        <time>2018-04-20T08:12:20Z</time>
      </trkpt>
      <trkpt lat="45.92181" lon="4.71011">
        <ele>181</ele>
        <time>2018-04-20T08:12:23Z</time>
      </trkpt>
      <trkpt lat="45.92179" lon="4.71011">
        <ele>181</ele>
        <time>2018-04-20T08:12:24Z</time>
      </trkpt>
      <trkpt lat="45.9217" lon="4.71011">
        <ele>181</ele>
        <time>2018-04-20T08:12:28Z</time>
      </trkpt>
      <trkpt lat="45.92168" lon="4.71011">
        <ele>181</ele>
        <time>2018-04-20T08:12:29Z</time>
      </trkpt>
      <trkpt lat="45.9216" lon="4.71015">
        <ele>181</ele>
        <time>2018-04-20T08:12:32Z</time>
      </trkpt>
      <trkpt lat="45.92157" lon="4.71018">
        <ele>181</ele>
        <time>2018-04-20T08:12:33Z</time>
      </trkpt>
      <trkpt lat="45.92154" lon="4.71027">
        <ele>181</ele>
        <time>2018-04-20T08:12:35Z</time>
      </trkpt>
      <trkpt lat="45.92153" lon="4.71032">
        <ele>181</ele>
        <time>2018-04-20T08:12:36Z</time>
      </trkpt>
      <trkpt lat="45.92151" lon="4.71046">
        <ele>181</ele>
        <time>2018-04-20T08:12:37Z</time>
      </trkpt>
      <trkpt lat="45.9215" lon="4.71057">
        <ele>181</ele>
        <time>2018-04-20T08:12:39Z</time>
      </trkpt>
      <trkpt lat="45.92149" lon="4.71063">
        <ele>181</ele>
        <time>2018-04-20T08:12:40Z</time>
      </trkpt>
      <trkpt lat="45.92148" lon="4.71073">
        <ele>181</ele>
        <time>2018-04-20T08:12:43Z</time>
      </trkpt>
      <trkpt lat="45.92147" lon="4.71083">
        <ele>181</ele>
        <time>2018-04-20T08:12:44Z</time>
      </trkpt>
      <trkpt lat="45.92145" lon="4.71093">
        <ele>179</ele>
        <time>2018-04-20T08:12:46Z</time>
      </trkpt>
      <trkpt lat="45.92145" lon="4.71099">
        <ele>179</ele>
        <time>2018-04-20T08:12:47Z</time>
      </trkpt>
      <trkpt lat="45.92142" lon="4.7111">
        <ele>179</ele>
        <time>2018-04-20T08:12:49Z</time>
      </trkpt>
      <trkpt lat="45.92141" lon="4.71116">
        <ele>179</ele>
        <time>2018-04-20T08:12:50Z</time>
      </trkpt>
      <trkpt lat="45.92138" lon="4.71123">
        <ele>178</ele>
        <time>2018-04-20T08:12:51Z</time>
      </trkpt>
      <trkpt lat="45.92136" lon="4.7113">
        <ele>178</ele>
        <time>2018-04-20T08:12:52Z</time>
      </trkpt>
      <trkpt lat="45.92135" lon="4.71136">
        <ele>178</ele>
        <time>2018-04-20T08:12:53Z</time>
      </trkpt>
      <trkpt lat="45.92133" lon="4.71143">
        <ele>178</ele>
        <time>2018-04-20T08:12:54Z</time>
      </trkpt>
      <trkpt lat="45.92133" lon="4.7115">
        <ele>178</ele>
        <time>2018-04-20T08:12:55Z</time>
      </trkpt>
      <trkpt lat="45.92133" lon="4.7116">
        <ele>178</ele>
        <time>2018-04-20T08:12:56Z</time>
      </trkpt>
      <trkpt lat="45.92133" lon="4.7117">
        <ele>176</ele>
        <time>2018-04-20T08:12:58Z</time>
      </trkpt>
      <trkpt lat="45.92132" lon="4.71178">
        <ele>176</ele>
        <time>2018-04-20T08:12:59Z</time>
      </trkpt>
      <trkpt lat="45.9213" lon="4.71186">
        <ele>176</ele>
        <time>2018-04-20T08:13:00Z</time>
      </trkpt>
      <trkpt lat="45.92132" lon="4.71191">
        <ele>176</ele>
        <time>2018-04-20T08:13:01Z</time>
      </trkpt>
      <trkpt lat="45.92129" lon="4.712">
        <ele>175</ele>
        <time>2018-04-20T08:13:02Z</time>
      </trkpt>
      <trkpt lat="45.92128" lon="4.71207">
        <ele>175</ele>
        <time>2018-04-20T08:13:03Z</time>
      </trkpt>
      <trkpt lat="45.92127" lon="4.71217">
        <ele>175</ele>
        <time>2018-04-20T08:13:04Z</time>
      </trkpt>
      <trkpt lat="45.92126" lon="4.71222">
        <ele>175</ele>
        <time>2018-04-20T08:13:05Z</time>
      </trkpt>
      <trkpt lat="45.92124" lon="4.71233">
        <ele>175</ele>
        <time>2018-04-20T08:13:07Z</time>
      </trkpt>
      <trkpt lat="45.92124" lon="4.71242">
        <ele>175</ele>
        <time>2018-04-20T08:13:08Z</time>
      </trkpt>
      <trkpt lat="45.92123" lon="4.71251">
        <ele>174</ele>
        <time>2018-04-20T08:13:09Z</time>
      </trkpt>
      <trkpt lat="45.92122" lon="4.71256">
        <ele>174</ele>
        <time>2018-04-20T08:13:10Z</time>
      </trkpt>
      <trkpt lat="45.92122" lon="4.71265">
        <ele>174</ele>
        <time>2018-04-20T08:13:11Z</time>
      </trkpt>
      <trkpt lat="45.92121" lon="4.71271">
        <ele>174</ele>
        <time>2018-04-20T08:13:12Z</time>
      </trkpt>
      <trkpt lat="45.92122" lon="4.71276">
        <ele>174</ele>
        <time>2018-04-20T08:13:13Z</time>
      </trkpt>
      <trkpt lat="45.92121" lon="4.71284">
        <ele>174</ele>
        <time>2018-04-20T08:13:14Z</time>
      </trkpt>
      <trkpt lat="45.9212" lon="4.71296">
        <ele>174</ele>
        <time>2018-04-20T08:13:16Z</time>
      </trkpt>
      <trkpt lat="45.92118" lon="4.71302">
        <ele>174</ele>
        <time>2018-04-20T08:13:17Z</time>
      </trkpt>
      <trkpt lat="45.92117" lon="4.7131">
        <ele>174</ele>
        <time>2018-04-20T08:13:18Z</time>
      </trkpt>
      <trkpt lat="45.92116" lon="4.71317">
        <ele>174</ele>
        <time>2018-04-20T08:13:19Z</time>
      </trkpt>
      <trkpt lat="45.92114" lon="4.71329">
        <ele>174</ele>
        <time>2018-04-20T08:13:21Z</time>
      </trkpt>
      <trkpt lat="45.92114" lon="4.71337">
        <ele>174</ele>
        <time>2018-04-20T08:13:22Z</time>
      </trkpt>
      <trkpt lat="45.92114" lon="4.71343">
        <ele>173</ele>
        <time>2018-04-20T08:13:23Z</time>
      </trkpt>
      <trkpt lat="45.92114" lon="4.7135">
        <ele>173</ele>
        <time>2018-04-20T08:13:24Z</time>
      </trkpt>
      <trkpt lat="45.92112" lon="4.71361">
        <ele>173</ele>
        <time>2018-04-20T08:13:26Z</time>
      </trkpt>
      <trkpt lat="45.92112" lon="4.71366">
        <ele>173</ele>
        <time>2018-04-20T08:13:27Z</time>
      </trkpt>
      <trkpt lat="45.9211" lon="4.71378">
        <ele>173</ele>
        <time>2018-04-20T08:13:29Z</time>
      </trkpt>
      <trkpt lat="45.92109" lon="4.71383">
        <ele>173</ele>
        <time>2018-04-20T08:13:30Z</time>
      </trkpt>
      <trkpt lat="45.92108" lon="4.71392">
        <ele>173</ele>
        <time>2018-04-20T08:13:31Z</time>
      </trkpt>
      <trkpt lat="45.92108" lon="4.714">
        <ele>173</ele>
        <time>2018-04-20T08:13:32Z</time>
      </trkpt>
      <trkpt lat="45.92108" lon="4.71407">
        <ele>174</ele>
        <time>2018-04-20T08:13:33Z</time>
      </trkpt>
      <trkpt lat="45.92107" lon="4.71413">
        <ele>174</ele>
        <time>2018-04-20T08:13:34Z</time>
      </trkpt>
      <trkpt lat="45.92106" lon="4.71423">
        <ele>174</ele>
        <time>2018-04-20T08:13:36Z</time>
      </trkpt>
      <trkpt lat="45.92106" lon="4.71426">
        <ele>174</ele>
        <time>2018-04-20T08:13:37Z</time>
      </trkpt>
      <trkpt lat="45.92104" lon="4.71438">
        <ele>174</ele>
        <time>2018-04-20T08:13:39Z</time>
      </trkpt>
      <trkpt lat="45.92103" lon="4.71443">
        <ele>174</ele>
        <time>2018-04-20T08:13:40Z</time>
      </trkpt>
      <trkpt lat="45.92101" lon="4.71454">
        <ele>174</ele>
        <time>2018-04-20T08:13:42Z</time>
      </trkpt>
      <trkpt lat="45.921" lon="4.71459">
        <ele>174</ele>
        <time>2018-04-20T08:13:43Z</time>
      </trkpt>
      <trkpt lat="45.92098" lon="4.7147">
        <ele>174</ele>
        <time>2018-04-20T08:13:45Z</time>
      </trkpt>
      <trkpt lat="45.92097" lon="4.71476">
        <ele>174</ele>
        <time>2018-04-20T08:13:46Z</time>
      </trkpt>
      <trkpt lat="45.92095" lon="4.71488">
        <ele>174</ele>
        <time>2018-04-20T08:13:48Z</time>
      </trkpt>
      <trkpt lat="45.92094" lon="4.71493">
        <ele>174</ele>
        <time>2018-04-20T08:13:49Z</time>
      </trkpt>
      <trkpt lat="45.92092" lon="4.71504">
        <ele>174</ele>
        <time>2018-04-20T08:13:51Z</time>
      </trkpt>
      <trkpt lat="45.92091" lon="4.7151">
        <ele>174</ele>
        <time>2018-04-20T08:13:52Z</time>
      </trkpt>
      <trkpt lat="45.92089" lon="4.71517">
        <ele>174</ele>
        <time>2018-04-20T08:13:53Z</time>
      </trkpt>
      <trkpt lat="45.92088" lon="4.71523">
        <ele>174</ele>
        <time>2018-04-20T08:13:54Z</time>
      </trkpt>
      <trkpt lat="45.92086" lon="4.71535">
        <ele>173</ele>
        <time>2018-04-20T08:13:56Z</time>
      </trkpt>
      <trkpt lat="45.92086" lon="4.71538">
        <ele>173</ele>
        <time>2018-04-20T08:13:57Z</time>
      </trkpt>
      <trkpt lat="45.92085" lon="4.71546">
        <ele>173</ele>
        <time>2018-04-20T08:13:58Z</time>
      </trkpt>
      <trkpt lat="45.92083" lon="4.71552">
        <ele>173</ele>
        <time>2018-04-20T08:13:59Z</time>
      </trkpt>
      <trkpt lat="45.92081" lon="4.71563">
        <ele>173</ele>
        <time>2018-04-20T08:14:01Z</time>
      </trkpt>
      <trkpt lat="45.9208" lon="4.71569">
        <ele>173</ele>
        <time>2018-04-20T08:14:02Z</time>
      </trkpt>
      <trkpt lat="45.92078" lon="4.71579">
        <ele>172</ele>
        <time>2018-04-20T08:14:04Z</time>
      </trkpt>
      <trkpt lat="45.92077" lon="4.71582">
        <ele>172</ele>
        <time>2018-04-20T08:14:05Z</time>
      </trkpt>
      <trkpt lat="45.92076" lon="4.71593">
        <ele>172</ele>
        <time>2018-04-20T08:14:07Z</time>
      </trkpt>
      <trkpt lat="45.92074" lon="4.71601">
        <ele>172</ele>
        <time>2018-04-20T08:14:08Z</time>
      </trkpt>
      <trkpt lat="45.92074" lon="4.71606">
        <ele>172</ele>
        <time>2018-04-20T08:14:09Z</time>
      </trkpt>
      <trkpt lat="45.92074" lon="4.71614">
        <ele>172</ele>
        <time>2018-04-20T08:14:10Z</time>
      </trkpt>
      <trkpt lat="45.92072" lon="4.71625">
        <ele>173</ele>
        <time>2018-04-20T08:14:12Z</time>
      </trkpt>
      <trkpt lat="45.92071" lon="4.71631">
        <ele>173</ele>
        <time>2018-04-20T08:14:13Z</time>
      </trkpt>
      <trkpt lat="45.92069" lon="4.71643">
        <ele>172</ele>
        <time>2018-04-20T08:14:15Z</time>
      </trkpt>
      <trkpt lat="45.92068" lon="4.7165">
        <ele>172</ele>
        <time>2018-04-20T08:14:16Z</time>
      </trkpt>
      <trkpt lat="45.92066" lon="4.71661">
        <ele>172</ele>
        <time>2018-04-20T08:14:18Z</time>
      </trkpt>
      <trkpt lat="45.92065" lon="4.71667">
        <ele>173</ele>
        <time>2018-04-20T08:14:19Z</time>
      </trkpt>
      <trkpt lat="45.92063" lon="4.71679">
        <ele>173</ele>
        <time>2018-04-20T08:14:21Z</time>
      </trkpt>
      <trkpt lat="45.92062" lon="4.71683">
        <ele>173</ele>
        <time>2018-04-20T08:14:22Z</time>
      </trkpt>
      <trkpt lat="45.9206" lon="4.71695">
        <ele>173</ele>
        <time>2018-04-20T08:14:25Z</time>
      </trkpt>
      <trkpt lat="45.92058" lon="4.71705">
        <ele>173</ele>
        <time>2018-04-20T08:14:26Z</time>
      </trkpt>
      <trkpt lat="45.92057" lon="4.71717">
        <ele>173</ele>
        <time>2018-04-20T08:14:28Z</time>
      </trkpt>
      <trkpt lat="45.92056" lon="4.71722">
        <ele>173</ele>
        <time>2018-04-20T08:14:29Z</time>
      </trkpt>
      <trkpt lat="45.92055" lon="4.71735">
        <ele>173</ele>
        <time>2018-04-20T08:14:31Z</time>
      </trkpt>
      <trkpt lat="45.92054" lon="4.71741">
        <ele>173</ele>
        <time>2018-04-20T08:14:32Z</time>
      </trkpt>
      <trkpt lat="45.92052" lon="4.71751">
        <ele>173</ele>
        <time>2018-04-20T08:14:34Z</time>
      </trkpt>
      <trkpt lat="45.92051" lon="4.71754">
        <ele>173</ele>
        <time>2018-04-20T08:14:35Z</time>
      </trkpt>
      <trkpt lat="45.9205" lon="4.71764">
        <ele>173</ele>
        <time>2018-04-20T08:14:38Z</time>
      </trkpt>
      <trkpt lat="45.9205" lon="4.71768">
        <ele>173</ele>
        <time>2018-04-20T08:14:39Z</time>
      </trkpt>
      <trkpt lat="45.92048" lon="4.7178">
        <ele>173</ele>
        <time>2018-04-20T08:14:42Z</time>
      </trkpt>
      <trkpt lat="45.92046" lon="4.71784">
        <ele>173</ele>
        <time>2018-04-20T08:14:43Z</time>
      </trkpt>
      <trkpt lat="45.9204" lon="4.71792">
        <ele>173</ele>
        <time>2018-04-20T08:14:46Z</time>
      </trkpt>
      <trkpt lat="45.92037" lon="4.71793">
        <ele>173</ele>
        <time>2018-04-20T08:14:47Z</time>
      </trkpt>
      <trkpt lat="45.92034" lon="4.71793">
        <ele>173</ele>
        <time>2018-04-20T08:14:48Z</time>
      </trkpt>
      <trkpt lat="45.92023" lon="4.71793">
        <ele>173</ele>
        <time>2018-04-20T08:14:49Z</time>
      </trkpt>
      <trkpt lat="45.92016" lon="4.71791">
        <ele>173</ele>
        <time>2018-04-20T08:14:51Z</time>
      </trkpt>
      <trkpt lat="45.92012" lon="4.7179">
        <ele>173</ele>
        <time>2018-04-20T08:14:52Z</time>
      </trkpt>
      <trkpt lat="45.92004" lon="4.7179">
        <ele>173</ele>
        <time>2018-04-20T08:14:54Z</time>
      </trkpt>
      <trkpt lat="45.92" lon="4.71789">
        <ele>173</ele>
        <time>2018-04-20T08:14:55Z</time>
      </trkpt>
      <trkpt lat="45.91992" lon="4.71788">
        <ele>173</ele>
        <time>2018-04-20T08:14:57Z</time>
      </trkpt>
      <trkpt lat="45.9199" lon="4.71787">
        <ele>173</ele>
        <time>2018-04-20T08:14:58Z</time>
      </trkpt>
      <trkpt lat="45.91985" lon="4.71786">
        <ele>173</ele>
        <time>2018-04-20T08:14:59Z</time>
      </trkpt>
      <trkpt lat="45.91981" lon="4.71786">
        <ele>173</ele>
        <time>2018-04-20T08:15:00Z</time>
      </trkpt>
      <trkpt lat="45.91972" lon="4.71785">
        <ele>173</ele>
        <time>2018-04-20T08:15:03Z</time>
      </trkpt>
      <trkpt lat="45.91966" lon="4.71784">
        <ele>173</ele>
        <time>2018-04-20T08:15:04Z</time>
      </trkpt>
      <trkpt lat="45.91957" lon="4.71781">
        <ele>173</ele>
        <time>2018-04-20T08:15:07Z</time>
      </trkpt>
      <trkpt lat="45.91955" lon="4.71781">
        <ele>173</ele>
        <time>2018-04-20T08:15:08Z</time>
      </trkpt>
      <trkpt lat="45.91949" lon="4.7178">
        <ele>173</ele>
        <time>2018-04-20T08:15:10Z</time>
      </trkpt>
      <trkpt lat="45.91939" lon="4.71779">
        <ele>173</ele>
        <time>2018-04-20T08:15:11Z</time>
      </trkpt>
      <trkpt lat="45.91931" lon="4.71778">
        <ele>173</ele>
        <time>2018-04-20T08:15:13Z</time>
      </trkpt>
      <trkpt lat="45.91927" lon="4.71778">
        <ele>172</ele>
        <time>2018-04-20T08:15:14Z</time>
      </trkpt>
      <trkpt lat="45.9192" lon="4.71779">
        <ele>172</ele>
        <time>2018-04-20T08:15:16Z</time>
      </trkpt>
      <trkpt lat="45.91916" lon="4.7178">
        <ele>172</ele>
        <time>2018-04-20T08:15:17Z</time>
      </trkpt>
      <trkpt lat="45.91911" lon="4.71781">
        <ele>172</ele>
        <time>2018-04-20T08:15:19Z</time>
      </trkpt>
      <trkpt lat="45.91906" lon="4.71782">
        <ele>172</ele>
        <time>2018-04-20T08:15:20Z</time>
      </trkpt>
      <trkpt lat="45.91898" lon="4.71781">
        <ele>172</ele>
        <time>2018-04-20T08:15:22Z</time>
      </trkpt>
      <trkpt lat="45.91896" lon="4.71781">
        <ele>172</ele>
        <time>2018-04-20T08:15:23Z</time>
      </trkpt>
      <trkpt lat="45.91888" lon="4.71781">
        <ele>172</ele>
        <time>2018-04-20T08:15:25Z</time>
      </trkpt>
      <trkpt lat="45.91885" lon="4.71781">
        <ele>172</ele>
        <time>2018-04-20T08:15:26Z</time>
      </trkpt>
      <trkpt lat="45.91878" lon="4.71781">
        <ele>172</ele>
        <time>2018-04-20T08:15:29Z</time>
      </trkpt>
      <trkpt lat="45.91875" lon="4.71781">
        <ele>172</ele>
        <time>2018-04-20T08:15:30Z</time>
      </trkpt>
      <trkpt lat="45.91867" lon="4.71781">
        <ele>172</ele>
        <time>2018-04-20T08:15:31Z</time>
      </trkpt>
      <trkpt lat="45.91863" lon="4.71781">
        <ele>172</ele>
        <time>2018-04-20T08:15:32Z</time>
      </trkpt>
      <trkpt lat="45.91855" lon="4.71781">
        <ele>172</ele>
        <time>2018-04-20T08:15:35Z</time>
      </trkpt>
      <trkpt lat="45.91853" lon="4.71781">
        <ele>172</ele>
        <time>2018-04-20T08:15:36Z</time>
      </trkpt>
      <trkpt lat="45.91848" lon="4.71781">
        <ele>172</ele>
        <time>2018-04-20T08:15:38Z</time>
      </trkpt>
      <trkpt lat="45.91838" lon="4.71782">
        <ele>172</ele>
        <time>2018-04-20T08:15:39Z</time>
      </trkpt>
      <trkpt lat="45.91831" lon="4.71783">
        <ele>172</ele>
        <time>2018-04-20T08:15:41Z</time>
      </trkpt>
      <trkpt lat="45.91829" lon="4.71783">
        <ele>172</ele>
        <time>2018-04-20T08:15:42Z</time>
      </trkpt>
      <trkpt lat="45.91824" lon="4.71784">
        <ele>172</ele>
        <time>2018-04-20T08:15:44Z</time>
      </trkpt>
      <trkpt lat="45.91816" lon="4.71784">
        <ele>172</ele>
        <time>2018-04-20T08:15:45Z</time>
      </trkpt>
      <trkpt lat="45.91808" lon="4.71784">
        <ele>172</ele>
        <time>2018-04-20T08:15:47Z</time>
      </trkpt>
      <trkpt lat="45.91806" lon="4.71784">
        <ele>172</ele>
        <time>2018-04-20T08:15:48Z</time>
      </trkpt>
      <trkpt lat="45.91801" lon="4.71783">
        <ele>172</ele>
        <time>2018-04-20T08:15:49Z</time>
      </trkpt>
      <trkpt lat="45.91797" lon="4.71782">
        <ele>172</ele>
        <time>2018-04-20T08:15:50Z</time>
      </trkpt>
      <trkpt lat="45.91792" lon="4.71781">
        <ele>172</ele>
        <time>2018-04-20T08:15:52Z</time>
      </trkpt>
      <trkpt lat="45.91786" lon="4.71781">
        <ele>173</ele>
        <time>2018-04-20T08:15:53Z</time>
      </trkpt>
      <trkpt lat="45.91778" lon="4.71781">
        <ele>173</ele>
        <time>2018-04-20T08:15:55Z</time>
      </trkpt>
      <trkpt lat="45.91774" lon="4.7178">
        <ele>173</ele>
        <time>2018-04-20T08:15:56Z</time>
      </trkpt>
      <trkpt lat="45.91765" lon="4.7178">
        <ele>173</ele>
        <time>2018-04-20T08:15:58Z</time>
      </trkpt>
      <trkpt lat="45.91763" lon="4.7178">
        <ele>173</ele>
        <time>2018-04-20T08:15:59Z</time>
      </trkpt>
      <trkpt lat="45.91757" lon="4.7178">
        <ele>173</ele>
        <time>2018-04-20T08:16:01Z</time>
      </trkpt>
      <trkpt lat="45.91752" lon="4.7178">
        <ele>173</ele>
        <time>2018-04-20T08:16:02Z</time>
      </trkpt>
      <trkpt lat="45.91744" lon="4.7178">
        <ele>173</ele>
        <time>2018-04-20T08:16:04Z</time>
      </trkpt>
      <trkpt lat="45.9174" lon="4.71779">
        <ele>173</ele>
        <time>2018-04-20T08:16:05Z</time>
      </trkpt>
      <trkpt lat="45.91733" lon="4.71777">
        <ele>173</ele>
        <time>2018-04-20T08:16:07Z</time>
      </trkpt>
      <trkpt lat="45.91731" lon="4.71776">
        <ele>173</ele>
        <time>2018-04-20T08:16:08Z</time>
      </trkpt>
      <trkpt lat="45.91728" lon="4.71776">
        <ele>173</ele>
        <time>2018-04-20T08:16:09Z</time>
      </trkpt>
      <trkpt lat="45.91722" lon="4.71774">
        <ele>173</ele>
        <time>2018-04-20T08:16:10Z</time>
      </trkpt>
      <trkpt lat="45.91714" lon="4.71774">
        <ele>173</ele>
        <time>2018-04-20T08:16:12Z</time>
      </trkpt>
      <trkpt lat="45.91712" lon="4.71774">
        <ele>173</ele>
        <time>2018-04-20T08:16:13Z</time>
      </trkpt>
      <trkpt lat="45.91706" lon="4.71774">
        <ele>173</ele>
        <time>2018-04-20T08:16:14Z</time>
      </trkpt>
      <trkpt lat="45.91702" lon="4.71774">
        <ele>173</ele>
        <time>2018-04-20T08:16:15Z</time>
      </trkpt>
      <trkpt lat="45.91694" lon="4.71774">
        <ele>173</ele>
        <time>2018-04-20T08:16:17Z</time>
      </trkpt>
      <trkpt lat="45.91692" lon="4.71773">
        <ele>173</ele>
        <time>2018-04-20T08:16:18Z</time>
      </trkpt>
      <trkpt lat="45.91687" lon="4.71772">
        <ele>173</ele>
        <time>2018-04-20T08:16:19Z</time>
      </trkpt>
      <trkpt lat="45.91683" lon="4.71771">
        <ele>173</ele>
        <time>2018-04-20T08:16:20Z</time>
      </trkpt>
      <trkpt lat="45.91677" lon="4.7177">
        <ele>173</ele>
        <time>2018-04-20T08:16:22Z</time>
      </trkpt>
      <trkpt lat="45.91672" lon="4.71769">
        <ele>173</ele>
        <time>2018-04-20T08:16:23Z</time>
      </trkpt>
      <trkpt lat="45.91664" lon="4.71767">
        <ele>173</ele>
        <time>2018-04-20T08:16:25Z</time>
      </trkpt>
      <trkpt lat="45.9166" lon="4.71765">
        <ele>173</ele>
        <time>2018-04-20T08:16:26Z</time>
      </trkpt>
      <trkpt lat="45.91654" lon="4.71764">
        <ele>173</ele>
        <time>2018-04-20T08:16:28Z</time>
      </trkpt>
      <trkpt lat="45.9165" lon="4.71763">
        <ele>173</ele>
        <time>2018-04-20T08:16:29Z</time>
      </trkpt>
      <trkpt lat="45.91643" lon="4.71758">
        <ele>174</ele>
        <time>2018-04-20T08:16:32Z</time>
      </trkpt>
      <trkpt lat="45.91641" lon="4.71756">
        <ele>174</ele>
        <time>2018-04-20T08:16:33Z</time>
      </trkpt>
      <trkpt lat="45.91637" lon="4.7175">
        <ele>173</ele>
        <time>2018-04-20T08:16:34Z</time>
      </trkpt>
      <trkpt lat="45.91635" lon="4.71745">
        <ele>173</ele>
        <time>2018-04-20T08:16:35Z</time>
      </trkpt>
      <trkpt lat="45.91631" lon="4.71736">
        <ele>173</ele>
        <time>2018-04-20T08:16:37Z</time>
      </trkpt>
      <trkpt lat="45.91629" lon="4.71732">
        <ele>173</ele>
        <time>2018-04-20T08:16:38Z</time>
      </trkpt>
      <trkpt lat="45.91627" lon="4.71727">
        <ele>173</ele>
        <time>2018-04-20T08:16:40Z</time>
      </trkpt>
      <trkpt lat="45.91621" lon="4.71722">
        <ele>173</ele>
        <time>2018-04-20T08:16:41Z</time>
      </trkpt>
      <trkpt lat="45.91613" lon="4.7172">
        <ele>173</ele>
        <time>2018-04-20T08:16:43Z</time>
      </trkpt>
      <trkpt lat="45.91608" lon="4.7172">
        <ele>173</ele>
        <time>2018-04-20T08:16:44Z</time>
      </trkpt>
      <trkpt lat="45.916" lon="4.71724">
        <ele>173</ele>
        <time>2018-04-20T08:16:47Z</time>
      </trkpt>
      <trkpt lat="45.91594" lon="4.71728">
        <ele>173</ele>
        <time>2018-04-20T08:16:48Z</time>
      </trkpt>
      <trkpt lat="45.91588" lon="4.71734">
        <ele>173</ele>
        <time>2018-04-20T08:16:50Z</time>
      </trkpt>
      <trkpt lat="45.91584" lon="4.71737">
        <ele>173</ele>
        <time>2018-04-20T08:16:51Z</time>
      </trkpt>
      <trkpt lat="45.91578" lon="4.71742">
        <ele>174</ele>
        <time>2018-04-20T08:16:54Z</time>
      </trkpt>
      <trkpt lat="45.91576" lon="4.71745">
        <ele>174</ele>
        <time>2018-04-20T08:16:55Z</time>
      </trkpt>
      <trkpt lat="45.91572" lon="4.71749">
        <ele>174</ele>
        <time>2018-04-20T08:16:57Z</time>
      </trkpt>
      <trkpt lat="45.91565" lon="4.71756">
        <ele>174</ele>
        <time>2018-04-20T08:16:58Z</time>
      </trkpt>
      <trkpt lat="45.91559" lon="4.71764">
        <ele>174</ele>
        <time>2018-04-20T08:17:00Z</time>
      </trkpt>
      <trkpt lat="45.91556" lon="4.71768">
        <ele>174</ele>
        <time>2018-04-20T08:17:01Z</time>
      </trkpt>
      <trkpt lat="45.91553" lon="4.71772">
        <ele>174</ele>
        <time>2018-04-20T08:17:03Z</time>
      </trkpt>
      <trkpt lat="45.91548" lon="4.71777">
        <ele>174</ele>
        <time>2018-04-20T08:17:04Z</time>
      </trkpt>
      <trkpt lat="45.91542" lon="4.71784">
        <ele>174</ele>
        <time>2018-04-20T08:17:06Z</time>
      </trkpt>
      <trkpt lat="45.9154" lon="4.71789">
        <ele>174</ele>
        <time>2018-04-20T08:17:07Z</time>
      </trkpt>
      <trkpt lat="45.91535" lon="4.71798">
        <ele>174</ele>
        <time>2018-04-20T08:17:09Z</time>
      </trkpt>
      <trkpt lat="45.91533" lon="4.71803">
        <ele>174</ele>
        <time>2018-04-20T08:17:10Z</time>
      </trkpt>
      <trkpt lat="45.91529" lon="4.71813">
        <ele>174</ele>
        <time>2018-04-20T08:17:12Z</time>
      </trkpt>
      <trkpt lat="45.91528" lon="4.71818">
        <ele>174</ele>
        <time>2018-04-20T08:17:13Z</time>
      </trkpt>
      <trkpt lat="45.91525" lon="4.71827">
        <ele>174</ele>
        <time>2018-04-20T08:17:16Z</time>
      </trkpt>
      <trkpt lat="45.91524" lon="4.7183">
        <ele>174</ele>
        <time>2018-04-20T08:17:17Z</time>
      </trkpt>
      <trkpt lat="45.91521" lon="4.7184">
        <ele>174</ele>
        <time>2018-04-20T08:17:20Z</time>
      </trkpt>
      <trkpt lat="45.9152" lon="4.71844">
        <ele>174</ele>
        <time>2018-04-20T08:17:21Z</time>
      </trkpt>
      <trkpt lat="45.91516" lon="4.71854">
        <ele>174</ele>
        <time>2018-04-20T08:17:24Z</time>
      </trkpt>
      <trkpt lat="45.91514" lon="4.71857">
        <ele>174</ele>
        <time>2018-04-20T08:17:25Z</time>
      </trkpt>
      <trkpt lat="45.91512" lon="4.7186">
        <ele>174</ele>
        <time>2018-04-20T08:17:26Z</time>
      </trkpt>
      <trkpt lat="45.91506" lon="4.7187">
        <ele>174</ele>
        <time>2018-04-20T08:17:27Z</time>
      </trkpt>
      <trkpt lat="45.915" lon="4.71878">
        <ele>173</ele>
        <time>2018-04-20T08:17:30Z</time>
      </trkpt>
      <trkpt lat="45.91498" lon="4.7188">
        <ele>173</ele>
        <time>2018-04-20T08:17:31Z</time>
      </trkpt>
      <trkpt lat="45.91494" lon="4.71883">
        <ele>173</ele>
        <time>2018-04-20T08:17:33Z</time>
      </trkpt>
      <trkpt lat="45.91487" lon="4.7189">
        <ele>173</ele>
        <time>2018-04-20T08:17:34Z</time>
      </trkpt>
      <trkpt lat="45.9148" lon="4.71896">
        <ele>173</ele>
        <time>2018-04-20T08:17:38Z</time>
      </trkpt>
      <trkpt lat="45.91479" lon="4.71897">
        <ele>173</ele>
        <time>2018-04-20T08:17:39Z</time>
      </trkpt>
      <trkpt lat="45.91471" lon="4.71904">
        <ele>173</ele>
        <time>2018-04-20T08:17:41Z</time>
      </trkpt>
      <trkpt lat="45.91465" lon="4.71907">
        <ele>173</ele>
        <time>2018-04-20T08:17:42Z</time>
      </trkpt>
      <trkpt lat="45.91459" lon="4.71911">
        <ele>173</ele>
        <time>2018-04-20T08:17:45Z</time>
      </trkpt>
      <trkpt lat="45.91452" lon="4.71915">
        <ele>173</ele>
        <time>2018-04-20T08:17:46Z</time>
      </trkpt>
      <trkpt lat="45.91447" lon="4.71921">
        <ele>173</ele>
        <time>2018-04-20T08:17:49Z</time>
      </trkpt>
      <trkpt lat="45.91445" lon="4.71923">
        <ele>173</ele>
        <time>2018-04-20T08:17:50Z</time>
      </trkpt>
      <trkpt lat="45.91437" lon="4.7193">
        <ele>173</ele>
        <time>2018-04-20T08:17:51Z</time>
      </trkpt>
      <trkpt lat="45.91435" lon="4.71932">
        <ele>173</ele>
        <time>2018-04-20T08:17:52Z</time>
      </trkpt>
      <trkpt lat="45.9143" lon="4.71936">
        <ele>173</ele>
        <time>2018-04-20T08:17:53Z</time>
      </trkpt>
      <trkpt lat="45.91426" lon="4.71939">
        <ele>173</ele>
        <time>2018-04-20T08:17:54Z</time>
      </trkpt>
      <trkpt lat="45.91418" lon="4.71946">
        <ele>173</ele>
        <time>2018-04-20T08:17:56Z</time>
      </trkpt>
      <trkpt lat="45.91414" lon="4.71949">
        <ele>173</ele>
        <time>2018-04-20T08:17:57Z</time>
      </trkpt>
      <trkpt lat="45.91408" lon="4.71955">
        <ele>173</ele>
        <time>2018-04-20T08:17:59Z</time>
      </trkpt>
      <trkpt lat="45.91407" lon="4.71957">
        <ele>173</ele>
        <time>2018-04-20T08:18:00Z</time>
      </trkpt>
      <trkpt lat="45.91403" lon="4.7196">
        <ele>174</ele>
        <time>2018-04-20T08:18:02Z</time>
      </trkpt>
      <trkpt lat="45.91396" lon="4.71966">
        <ele>174</ele>
        <time>2018-04-20T08:18:03Z</time>
      </trkpt>
      <trkpt lat="45.91389" lon="4.71967">
        <ele>174</ele>
        <time>2018-04-20T08:18:05Z</time>
      </trkpt>
      <trkpt lat="45.91384" lon="4.71968">
        <ele>174</ele>
        <time>2018-04-20T08:18:06Z</time>
      </trkpt>
      <trkpt lat="45.91376" lon="4.71968">
        <ele>174</ele>
        <time>2018-04-20T08:18:08Z</time>
      </trkpt>
      <trkpt lat="45.91372" lon="4.71968">
        <ele>173</ele>
        <time>2018-04-20T08:18:09Z</time>
      </trkpt>
      <trkpt lat="45.91363" lon="4.71967">
        <ele>173</ele>
        <time>2018-04-20T08:18:11Z</time>
      </trkpt>
      <trkpt lat="45.91359" lon="4.71967">
        <ele>173</ele>
        <time>2018-04-20T08:18:12Z</time>
      </trkpt>
      <trkpt lat="45.91351" lon="4.71966">
        <ele>173</ele>
        <time>2018-04-20T08:18:14Z</time>
      </trkpt>
      <trkpt lat="45.9135" lon="4.71966">
        <ele>173</ele>
        <time>2018-04-20T08:18:15Z</time>
      </trkpt>
      <trkpt lat="45.91342" lon="4.71965">
        <ele>173</ele>
        <time>2018-04-20T08:18:18Z</time>
      </trkpt>
      <trkpt lat="45.91336" lon="4.71964">
        <ele>173</ele>
        <time>2018-04-20T08:18:19Z</time>
      </trkpt>
      <trkpt lat="45.91328" lon="4.71962">
        <ele>174</ele>
        <time>2018-04-20T08:18:21Z</time>
      </trkpt>
      <trkpt lat="45.91324" lon="4.7196">
        <ele>174</ele>
        <time>2018-04-20T08:18:22Z</time>
      </trkpt>
      <trkpt lat="45.91319" lon="4.71959">
        <ele>174</ele>
        <time>2018-04-20T08:18:23Z</time>
      </trkpt>
      <trkpt lat="45.91316" lon="4.71954">
        <ele>174</ele>
        <time>2018-04-20T08:18:24Z</time>
      </trkpt>
      <trkpt lat="45.91309" lon="4.71953">
        <ele>174</ele>
        <time>2018-04-20T08:18:27Z</time>
      </trkpt>
      <trkpt lat="45.91307" lon="4.71952">
        <ele>174</ele>
        <time>2018-04-20T08:18:28Z</time>
      </trkpt>
      <trkpt lat="45.913" lon="4.71948">
        <ele>175</ele>
        <time>2018-04-20T08:18:29Z</time>
      </trkpt>
      <trkpt lat="45.91297" lon="4.71947">
        <ele>175</ele>
        <time>2018-04-20T08:18:30Z</time>
      </trkpt>
      <trkpt lat="45.91292" lon="4.71944">
        <ele>175</ele>
        <time>2018-04-20T08:18:32Z</time>
      </trkpt>
      <trkpt lat="45.91287" lon="4.71944">
        <ele>175</ele>
        <time>2018-04-20T08:18:33Z</time>
      </trkpt>
      <trkpt lat="45.91283" lon="4.71942">
        <ele>175</ele>
        <time>2018-04-20T08:18:35Z</time>
      </trkpt>
      <trkpt lat="45.91277" lon="4.71939">
        <ele>175</ele>
        <time>2018-04-20T08:18:36Z</time>
      </trkpt>
      <trkpt lat="45.9127" lon="4.71936">
        <ele>175</ele>
        <time>2018-04-20T08:18:39Z</time>
      </trkpt>
      <trkpt lat="45.91267" lon="4.71935">
        <ele>175</ele>
        <time>2018-04-20T08:18:40Z</time>
      </trkpt>
      <trkpt lat="45.91259" lon="4.71931">
        <ele>176</ele>
        <time>2018-04-20T08:18:41Z</time>
      </trkpt>
      <trkpt lat="45.91255" lon="4.7193">
        <ele>176</ele>
        <time>2018-04-20T08:18:42Z</time>
      </trkpt>
      <trkpt lat="45.91248" lon="4.71928">
        <ele>176</ele>
        <time>2018-04-20T08:18:45Z</time>
      </trkpt>
      <trkpt lat="45.91246" lon="4.71927">
        <ele>176</ele>
        <time>2018-04-20T08:18:46Z</time>
      </trkpt>
      <trkpt lat="45.91243" lon="4.71926">
        <ele>176</ele>
        <time>2018-04-20T08:18:47Z</time>
      </trkpt>
      <trkpt lat="45.91235" lon="4.71922">
        <ele>176</ele>
        <time>2018-04-20T08:18:48Z</time>
      </trkpt>
      <trkpt lat="45.91226" lon="4.71918">
        <ele>176</ele>
        <time>2018-04-20T08:18:52Z</time>
      </trkpt>
      <trkpt lat="45.91224" lon="4.71918">
        <ele>176</ele>
        <time>2018-04-20T08:18:53Z</time>
      </trkpt>
      <trkpt lat="45.91218" lon="4.71917">
        <ele>176</ele>
        <time>2018-04-20T08:18:55Z</time>
      </trkpt>
      <trkpt lat="45.91209" lon="4.71916">
        <ele>176</ele>
        <time>2018-04-20T08:18:56Z</time>
      </trkpt>
      <trkpt lat="45.91202" lon="4.71911">
        <ele>176</ele>
        <time>2018-04-20T08:18:58Z</time>
      </trkpt>
      <trkpt lat="45.912" lon="4.71911">
        <ele>176</ele>
        <time>2018-04-20T08:18:59Z</time>
      </trkpt>
      <trkpt lat="45.91192" lon="4.71907">
        <ele>176</ele>
        <time>2018-04-20T08:19:01Z</time>
      </trkpt>
      <trkpt lat="45.9119" lon="4.71906">
        <ele>176</ele>
        <time>2018-04-20T08:19:02Z</time>
      </trkpt>
      <trkpt lat="45.91183" lon="4.71903">
        <ele>176</ele>
        <time>2018-04-20T08:19:04Z</time>
      </trkpt>
      <trkpt lat="45.9118" lon="4.71903">
        <ele>176</ele>
        <time>2018-04-20T08:19:05Z</time>
      </trkpt>
      <trkpt lat="45.91172" lon="4.71902">
        <ele>176</ele>
        <time>2018-04-20T08:19:07Z</time>
      </trkpt>
      <trkpt lat="45.9117" lon="4.71902">
        <ele>176</ele>
        <time>2018-04-20T08:19:08Z</time>
      </trkpt>
      <trkpt lat="45.91161" lon="4.71903">
        <ele>176</ele>
        <time>2018-04-20T08:19:10Z</time>
      </trkpt>
      <trkpt lat="45.91159" lon="4.71903">
        <ele>175</ele>
        <time>2018-04-20T08:19:11Z</time>
      </trkpt>
      <trkpt lat="45.91156" lon="4.71903">
        <ele>175</ele>
        <time>2018-04-20T08:19:12Z</time>
      </trkpt>
      <trkpt lat="45.91148" lon="4.71904">
        <ele>175</ele>
        <time>2018-04-20T08:19:13Z</time>
      </trkpt>
      <trkpt lat="45.91142" lon="4.71906">
        <ele>175</ele>
        <time>2018-04-20T08:19:16Z</time>
      </trkpt>
      <trkpt lat="45.91135" lon="4.71909">
        <ele>175</ele>
        <time>2018-04-20T08:19:17Z</time>
      </trkpt>
      <trkpt lat="45.91131" lon="4.71911">
        <ele>175</ele>
        <time>2018-04-20T08:19:19Z</time>
      </trkpt>
      <trkpt lat="45.91125" lon="4.71914">
        <ele>175</ele>
        <time>2018-04-20T08:19:20Z</time>
      </trkpt>
      <trkpt lat="45.91121" lon="4.71918">
        <ele>174</ele>
        <time>2018-04-20T08:19:21Z</time>
      </trkpt>
      <trkpt lat="45.91115" lon="4.71924">
        <ele>174</ele>
        <time>2018-04-20T08:19:22Z</time>
      </trkpt>
      <trkpt lat="45.91112" lon="4.71926">
        <ele>174</ele>
        <time>2018-04-20T08:19:24Z</time>
      </trkpt>
      <trkpt lat="45.91105" lon="4.71928">
        <ele>174</ele>
        <time>2018-04-20T08:19:25Z</time>
      </trkpt>
      <trkpt lat="45.91098" lon="4.71934">
        <ele>174</ele>
        <time>2018-04-20T08:19:27Z</time>
      </trkpt>
      <trkpt lat="45.91096" lon="4.71936">
        <ele>174</ele>
        <time>2018-04-20T08:19:28Z</time>
      </trkpt>
      <trkpt lat="45.91089" lon="4.7194">
        <ele>174</ele>
        <time>2018-04-20T08:19:31Z</time>
      </trkpt>
      <trkpt lat="45.91086" lon="4.71941">
        <ele>174</ele>
        <time>2018-04-20T08:19:32Z</time>
      </trkpt>
      <trkpt lat="45.91084" lon="4.71942">
        <ele>174</ele>
        <time>2018-04-20T08:19:33Z</time>
      </trkpt>
      <trkpt lat="45.91075" lon="4.71945">
        <ele>174</ele>
        <time>2018-04-20T08:19:34Z</time>
      </trkpt>
      <trkpt lat="45.91067" lon="4.71947">
        <ele>174</ele>
        <time>2018-04-20T08:19:36Z</time>
      </trkpt>
      <trkpt lat="45.91063" lon="4.71948">
        <ele>174</ele>
        <time>2018-04-20T08:19:37Z</time>
      </trkpt>
      <trkpt lat="45.91058" lon="4.71948">
        <ele>174</ele>
        <time>2018-04-20T08:19:39Z</time>
      </trkpt>
      <trkpt lat="45.91052" lon="4.71949">
        <ele>174</ele>
        <time>2018-04-20T08:19:40Z</time>
      </trkpt>
      <trkpt lat="45.91047" lon="4.7195">
        <ele>174</ele>
        <time>2018-04-20T08:19:42Z</time>
      </trkpt>
      <trkpt lat="45.91042" lon="4.7195">
        <ele>174</ele>
        <time>2018-04-20T08:19:43Z</time>
      </trkpt>
      <trkpt lat="45.91034" lon="4.71947">
        <ele>174</ele>
        <time>2018-04-20T08:19:45Z</time>
      </trkpt>
      <trkpt lat="45.91032" lon="4.71947">
        <ele>174</ele>
        <time>2018-04-20T08:19:46Z</time>
      </trkpt>
      <trkpt lat="45.9103" lon="4.71946">
        <ele>174</ele>
        <time>2018-04-20T08:19:47Z</time>
      </trkpt>
      <trkpt lat="45.91023" lon="4.71945">
        <ele>174</ele>
        <time>2018-04-20T08:19:48Z</time>
      </trkpt>
      <trkpt lat="45.91015" lon="4.71945">
        <ele>174</ele>
        <time>2018-04-20T08:19:50Z</time>
      </trkpt>
      <trkpt lat="45.91011" lon="4.71945">
        <ele>174</ele>
        <time>2018-04-20T08:19:51Z</time>
      </trkpt>
      <trkpt lat="45.91003" lon="4.71945">
        <ele>174</ele>
        <time>2018-04-20T08:19:53Z</time>
      </trkpt>
      <trkpt lat="45.91001" lon="4.71945">
        <ele>174</ele>
        <time>2018-04-20T08:19:54Z</time>
      </trkpt>
      <trkpt lat="45.90996" lon="4.71946">
        <ele>174</ele>
        <time>2018-04-20T08:19:55Z</time>
      </trkpt>
      <trkpt lat="45.90992" lon="4.71946">
        <ele>174</ele>
        <time>2018-04-20T08:19:56Z</time>
      </trkpt>
      <trkpt lat="45.90985" lon="4.7195">
        <ele>174</ele>
        <time>2018-04-20T08:19:58Z</time>
      </trkpt>
      <trkpt lat="45.90981" lon="4.71951">
        <ele>174</ele>
        <time>2018-04-20T08:19:59Z</time>
      </trkpt>
      <trkpt lat="45.90974" lon="4.71954">
        <ele>174</ele>
        <time>2018-04-20T08:20:01Z</time>
      </trkpt>
      <trkpt lat="45.90972" lon="4.71955">
        <ele>174</ele>
        <time>2018-04-20T08:20:02Z</time>
      </trkpt>
      <trkpt lat="45.90964" lon="4.71959">
        <ele>174</ele>
        <time>2018-04-20T08:20:04Z</time>
      </trkpt>
      <trkpt lat="45.90962" lon="4.7196">
        <ele>174</ele>
        <time>2018-04-20T08:20:05Z</time>
      </trkpt>
      <trkpt lat="45.90955" lon="4.71964">
        <ele>174</ele>
        <time>2018-04-20T08:20:07Z</time>
      </trkpt>
      <trkpt lat="45.90953" lon="4.71965">
        <ele>174</ele>
        <time>2018-04-20T08:20:08Z</time>
      </trkpt>
      <trkpt lat="45.90945" lon="4.7197">
        <ele>174</ele>
        <time>2018-04-20T08:20:11Z</time>
      </trkpt>
      <trkpt lat="45.90937" lon="4.71976">
        <ele>174</ele>
        <time>2018-04-20T08:20:12Z</time>
      </trkpt>
      <trkpt lat="45.90931" lon="4.71979">
        <ele>174</ele>
        <time>2018-04-20T08:20:15Z</time>
      </trkpt>
      <trkpt lat="45.90928" lon="4.7198">
        <ele>174</ele>
        <time>2018-04-20T08:20:16Z</time>
      </trkpt>
      <trkpt lat="45.90925" lon="4.71981">
        <ele>174</ele>
        <time>2018-04-20T08:20:17Z</time>
      </trkpt>
      <trkpt lat="45.90917" lon="4.71985">
        <ele>174</ele>
        <time>2018-04-20T08:20:18Z</time>
      </trkpt>
      <trkpt lat="45.9091" lon="4.71988">
        <ele>174</ele>
        <time>2018-04-20T08:20:20Z</time>
      </trkpt>
      <trkpt lat="45.90906" lon="4.71989">
        <ele>174</ele>
        <time>2018-04-20T08:20:21Z</time>
      </trkpt>
      <trkpt lat="45.90899" lon="4.71993">
        <ele>174</ele>
        <time>2018-04-20T08:20:23Z</time>
      </trkpt>
      <trkpt lat="45.90895" lon="4.71995">
        <ele>174</ele>
        <time>2018-04-20T08:20:24Z</time>
      </trkpt>
      <trkpt lat="45.9089" lon="4.71998">
        <ele>174</ele>
        <time>2018-04-20T08:20:26Z</time>
      </trkpt>
      <trkpt lat="45.90885" lon="4.72001">
        <ele>174</ele>
        <time>2018-04-20T08:20:27Z</time>
      </trkpt>
      <trkpt lat="45.90878" lon="4.72004">
        <ele>174</ele>
        <time>2018-04-20T08:20:29Z</time>
      </trkpt>
      <trkpt lat="45.90874" lon="4.72005">
        <ele>174</ele>
        <time>2018-04-20T08:20:30Z</time>
      </trkpt>
      <trkpt lat="45.90867" lon="4.72009">
        <ele>174</ele>
        <time>2018-04-20T08:20:32Z</time>
      </trkpt>
      <trkpt lat="45.90865" lon="4.7201">
        <ele>174</ele>
        <time>2018-04-20T08:20:33Z</time>
      </trkpt>
      <trkpt lat="45.90858" lon="4.72013">
        <ele>174</ele>
        <time>2018-04-20T08:20:36Z</time>
      </trkpt>
      <trkpt lat="45.90855" lon="4.72014">
        <ele>174</ele>
        <time>2018-04-20T08:20:37Z</time>
      </trkpt>
      <trkpt lat="45.90847" lon="4.72019">
        <ele>174</ele>
        <time>2018-04-20T08:20:38Z</time>
      </trkpt>
      <trkpt lat="45.90843" lon="4.72021">
        <ele>174</ele>
        <time>2018-04-20T08:20:39Z</time>
      </trkpt>
      <trkpt lat="45.90836" lon="4.72025">
        <ele>174</ele>
        <time>2018-04-20T08:20:41Z</time>
      </trkpt>
      <trkpt lat="45.90833" lon="4.72028">
        <ele>175</ele>
        <time>2018-04-20T08:20:42Z</time>
      </trkpt>
      <trkpt lat="45.90826" lon="4.72032">
        <ele>175</ele>
        <time>2018-04-20T08:20:44Z</time>
      </trkpt>
      <trkpt lat="45.90823" lon="4.72034">
        <ele>175</ele>
        <time>2018-04-20T08:20:45Z</time>
      </trkpt>
      <trkpt lat="45.90816" lon="4.72037">
        <ele>175</ele>
        <time>2018-04-20T08:20:47Z</time>
      </trkpt>
      <trkpt lat="45.90814" lon="4.72038">
        <ele>175</ele>
        <time>2018-04-20T08:20:48Z</time>
      </trkpt>
      <trkpt lat="45.90807" lon="4.7204">
        <ele>175</ele>
        <time>2018-04-20T08:20:51Z</time>
      </trkpt>
      <trkpt lat="45.90804" lon="4.72041">
        <ele>175</ele>
        <time>2018-04-20T08:20:52Z</time>
      </trkpt>
      <trkpt lat="45.90801" lon="4.72042">
        <ele>175</ele>
        <time>2018-04-20T08:20:53Z</time>
      </trkpt>
      <trkpt lat="45.90792" lon="4.72045">
        <ele>175</ele>
        <time>2018-04-20T08:20:54Z</time>
      </trkpt>
      <trkpt lat="45.90785" lon="4.72047">
        <ele>175</ele>
        <time>2018-04-20T08:20:56Z</time>
      </trkpt>
      <trkpt lat="45.90783" lon="4.72048">
        <ele>175</ele>
        <time>2018-04-20T08:20:57Z</time>
      </trkpt>
      <trkpt lat="45.90776" lon="4.72051">
        <ele>175</ele>
        <time>2018-04-20T08:21:00Z</time>
      </trkpt>
      <trkpt lat="45.90769" lon="4.72054">
        <ele>175</ele>
        <time>2018-04-20T08:21:01Z</time>
      </trkpt>
      <trkpt lat="45.90764" lon="4.72057">
        <ele>175</ele>
        <time>2018-04-20T08:21:03Z</time>
      </trkpt>
      <trkpt lat="45.90759" lon="4.72061">
        <ele>175</ele>
        <time>2018-04-20T08:21:04Z</time>
      </trkpt>
      <trkpt lat="45.90752" lon="4.72065">
        <ele>174</ele>
        <time>2018-04-20T08:21:06Z</time>
      </trkpt>
      <trkpt lat="45.9075" lon="4.72066">
        <ele>175</ele>
        <time>2018-04-20T08:21:07Z</time>
      </trkpt>
      <trkpt lat="45.90745" lon="4.72068">
        <ele>175</ele>
        <time>2018-04-20T08:21:08Z</time>
      </trkpt>
      <trkpt lat="45.90741" lon="4.7207">
        <ele>175</ele>
        <time>2018-04-20T08:21:09Z</time>
      </trkpt>
      <trkpt lat="45.90736" lon="4.72075">
        <ele>175</ele>
        <time>2018-04-20T08:21:11Z</time>
      </trkpt>
      <trkpt lat="45.90732" lon="4.72079">
        <ele>175</ele>
        <time>2018-04-20T08:21:12Z</time>
      </trkpt>
      <trkpt lat="45.90725" lon="4.72084">
        <ele>174</ele>
        <time>2018-04-20T08:21:14Z</time>
      </trkpt>
      <trkpt lat="45.90722" lon="4.72087">
        <ele>174</ele>
        <time>2018-04-20T08:21:15Z</time>
      </trkpt>
      <trkpt lat="45.90715" lon="4.72092">
        <ele>174</ele>
        <time>2018-04-20T08:21:18Z</time>
      </trkpt>
      <trkpt lat="45.9071" lon="4.72097">
        <ele>174</ele>
        <time>2018-04-20T08:21:19Z</time>
      </trkpt>
      <trkpt lat="45.90703" lon="4.72102">
        <ele>174</ele>
        <time>2018-04-20T08:21:21Z</time>
      </trkpt>
      <trkpt lat="45.907" lon="4.72105">
        <ele>174</ele>
        <time>2018-04-20T08:21:22Z</time>
      </trkpt>
      <trkpt lat="45.90694" lon="4.72109">
        <ele>174</ele>
        <time>2018-04-20T08:21:24Z</time>
      </trkpt>
      <trkpt lat="45.9069" lon="4.72111">
        <ele>174</ele>
        <time>2018-04-20T08:21:25Z</time>
      </trkpt>
      <trkpt lat="45.90683" lon="4.72113">
        <ele>174</ele>
        <time>2018-04-20T08:21:27Z</time>
      </trkpt>
      <trkpt lat="45.90679" lon="4.72115">
        <ele>174</ele>
        <time>2018-04-20T08:21:28Z</time>
      </trkpt>
      <trkpt lat="45.90672" lon="4.72118">
        <ele>174</ele>
        <time>2018-04-20T08:21:31Z</time>
      </trkpt>
      <trkpt lat="45.9067" lon="4.72118">
        <ele>174</ele>
        <time>2018-04-20T08:21:32Z</time>
      </trkpt>
      <trkpt lat="45.90663" lon="4.7212">
        <ele>175</ele>
        <time>2018-04-20T08:21:35Z</time>
      </trkpt>
      <trkpt lat="45.9066" lon="4.72121">
        <ele>175</ele>
        <time>2018-04-20T08:21:36Z</time>
      </trkpt>
      <trkpt lat="45.90654" lon="4.72124">
        <ele>175</ele>
        <time>2018-04-20T08:21:38Z</time>
      </trkpt>
      <trkpt lat="45.9065" lon="4.72126">
        <ele>175</ele>
        <time>2018-04-20T08:21:39Z</time>
      </trkpt>
      <trkpt lat="45.90641" lon="4.72129">
        <ele>175</ele>
        <time>2018-04-20T08:21:40Z</time>
      </trkpt>
      <trkpt lat="45.90634" lon="4.72132">
        <ele>175</ele>
        <time>2018-04-20T08:21:43Z</time>
      </trkpt>
      <trkpt lat="45.90631" lon="4.72133">
        <ele>175</ele>
        <time>2018-04-20T08:21:44Z</time>
      </trkpt>
      <trkpt lat="45.90629" lon="4.72134">
        <ele>175</ele>
        <time>2018-04-20T08:21:45Z</time>
      </trkpt>
      <trkpt lat="45.9062" lon="4.72137">
        <ele>176</ele>
        <time>2018-04-20T08:21:46Z</time>
      </trkpt>
      <trkpt lat="45.90613" lon="4.72141">
        <ele>176</ele>
        <time>2018-04-20T08:21:48Z</time>
      </trkpt>
      <trkpt lat="45.9061" lon="4.72143">
        <ele>176</ele>
        <time>2018-04-20T08:21:49Z</time>
      </trkpt>
      <trkpt lat="45.90603" lon="4.72147">
        <ele>176</ele>
        <time>2018-04-20T08:21:52Z</time>
      </trkpt>
      <trkpt lat="45.90601" lon="4.72149">
        <ele>176</ele>
        <time>2018-04-20T08:21:53Z</time>
      </trkpt>
      <trkpt lat="45.90595" lon="4.72153">
        <ele>176</ele>
        <time>2018-04-20T08:21:56Z</time>
      </trkpt>
      <trkpt lat="45.90592" lon="4.72154">
        <ele>176</ele>
        <time>2018-04-20T08:21:57Z</time>
      </trkpt>
      <trkpt lat="45.90584" lon="4.72157">
        <ele>176</ele>
        <time>2018-04-20T08:22:00Z</time>
      </trkpt>
      <trkpt lat="45.90581" lon="4.72157">
        <ele>177</ele>
        <time>2018-04-20T08:22:01Z</time>
      </trkpt>
      <trkpt lat="45.90572" lon="4.72159">
        <ele>177</ele>
        <time>2018-04-20T08:22:04Z</time>
      </trkpt>
      <trkpt lat="45.90569" lon="4.7216">
        <ele>177</ele>
        <time>2018-04-20T08:22:05Z</time>
      </trkpt>
      <trkpt lat="45.90561" lon="4.72163">
        <ele>177</ele>
        <time>2018-04-20T08:22:08Z</time>
      </trkpt>
      <trkpt lat="45.90559" lon="4.72165">
        <ele>177</ele>
        <time>2018-04-20T08:22:09Z</time>
      </trkpt>
      <trkpt lat="45.90553" lon="4.7217">
        <ele>177</ele>
        <time>2018-04-20T08:22:12Z</time>
      </trkpt>
      <trkpt lat="45.90551" lon="4.72172">
        <ele>177</ele>
        <time>2018-04-20T08:22:13Z</time>
      </trkpt>
      <trkpt lat="45.90545" lon="4.72177">
        <ele>177</ele>
        <time>2018-04-20T08:22:16Z</time>
      </trkpt>
      <trkpt lat="45.90543" lon="4.72178">
        <ele>177</ele>
        <time>2018-04-20T08:22:17Z</time>
      </trkpt>
      <trkpt lat="45.9054" lon="4.72179">
        <ele>177</ele>
        <time>2018-04-20T08:22:18Z</time>
      </trkpt>
      <trkpt lat="45.90532" lon="4.72183">
        <ele>177</ele>
        <time>2018-04-20T08:22:19Z</time>
      </trkpt>
      <trkpt lat="45.90524" lon="4.72185">
        <ele>177</ele>
        <time>2018-04-20T08:22:23Z</time>
      </trkpt>
      <trkpt lat="45.90521" lon="4.72186">
        <ele>177</ele>
        <time>2018-04-20T08:22:24Z</time>
      </trkpt>
      <trkpt lat="45.90513" lon="4.72188">
        <ele>177</ele>
        <time>2018-04-20T08:22:27Z</time>
      </trkpt>
      <trkpt lat="45.90509" lon="4.72189">
        <ele>177</ele>
        <time>2018-04-20T08:22:28Z</time>
      </trkpt>
      <trkpt lat="45.90501" lon="4.72193">
        <ele>177</ele>
        <time>2018-04-20T08:22:31Z</time>
      </trkpt>
      <trkpt lat="45.90499" lon="4.72195">
        <ele>178</ele>
        <time>2018-04-20T08:22:32Z</time>
      </trkpt>
      <trkpt lat="45.90493" lon="4.72199">
        <ele>178</ele>
        <time>2018-04-20T08:22:35Z</time>
      </trkpt>
      <trkpt lat="45.90491" lon="4.72201">
        <ele>178</ele>
        <time>2018-04-20T08:22:36Z</time>
      </trkpt>
      <trkpt lat="45.90483" lon="4.72205">
        <ele>178</ele>
        <time>2018-04-20T08:22:39Z</time>
      </trkpt>
      <trkpt lat="45.9048" lon="4.72206">
        <ele>178</ele>
        <time>2018-04-20T08:22:40Z</time>
      </trkpt>
      <trkpt lat="45.90474" lon="4.7221">
        <ele>179</ele>
        <time>2018-04-20T08:22:42Z</time>
      </trkpt>
      <trkpt lat="45.90472" lon="4.72211">
        <ele>179</ele>
        <time>2018-04-20T08:22:43Z</time>
      </trkpt>
      <trkpt lat="45.90465" lon="4.72213">
        <ele>179</ele>
        <time>2018-04-20T08:22:45Z</time>
      </trkpt>
      <trkpt lat="45.90462" lon="4.72214">
        <ele>179</ele>
        <time>2018-04-20T08:22:46Z</time>
      </trkpt>
      <trkpt lat="45.90455" lon="4.72217">
        <ele>179</ele>
        <time>2018-04-20T08:22:48Z</time>
      </trkpt>
      <trkpt lat="45.90451" lon="4.72219">
        <ele>179</ele>
        <time>2018-04-20T08:22:49Z</time>
      </trkpt>
      <trkpt lat="45.90445" lon="4.72224">
        <ele>179</ele>
        <time>2018-04-20T08:22:51Z</time>
      </trkpt>
      <trkpt lat="45.90442" lon="4.72226">
        <ele>179</ele>
        <time>2018-04-20T08:22:52Z</time>
      </trkpt>
      <trkpt lat="45.90436" lon="4.72231">
        <ele>179</ele>
        <time>2018-04-20T08:22:54Z</time>
      </trkpt>
      <trkpt lat="45.90433" lon="4.72233">
        <ele>179</ele>
        <time>2018-04-20T08:22:55Z</time>
      </trkpt>
      <trkpt lat="45.90431" lon="4.72235">
        <ele>179</ele>
        <time>2018-04-20T08:22:56Z</time>
      </trkpt>
      <trkpt lat="45.90422" lon="4.72241">
        <ele>179</ele>
        <time>2018-04-20T08:22:57Z</time>
      </trkpt>
      <trkpt lat="45.90415" lon="4.72244">
        <ele>179</ele>
        <time>2018-04-20T08:23:00Z</time>
      </trkpt>
      <trkpt lat="45.90413" lon="4.72245">
        <ele>179</ele>
        <time>2018-04-20T08:23:01Z</time>
      </trkpt>
      <trkpt lat="45.90405" lon="4.72248">
        <ele>179</ele>
        <time>2018-04-20T08:23:02Z</time>
      </trkpt>
      <trkpt lat="45.90404" lon="4.72249">
        <ele>179</ele>
        <time>2018-04-20T08:23:03Z</time>
      </trkpt>
      <trkpt lat="45.90399" lon="4.72252">
        <ele>178</ele>
        <time>2018-04-20T08:23:05Z</time>
      </trkpt>
      <trkpt lat="45.90392" lon="4.72254">
        <ele>178</ele>
        <time>2018-04-20T08:23:06Z</time>
      </trkpt>
      <trkpt lat="45.90385" lon="4.72257">
        <ele>178</ele>
        <time>2018-04-20T08:23:08Z</time>
      </trkpt>
      <trkpt lat="45.90381" lon="4.72259">
        <ele>178</ele>
        <time>2018-04-20T08:23:09Z</time>
      </trkpt>
      <trkpt lat="45.90375" lon="4.72261">
        <ele>178</ele>
        <time>2018-04-20T08:23:11Z</time>
      </trkpt>
      <trkpt lat="45.90367" lon="4.72264">
        <ele>178</ele>
        <time>2018-04-20T08:23:12Z</time>
      </trkpt>
      <trkpt lat="45.90359" lon="4.72268">
        <ele>178</ele>
        <time>2018-04-20T08:23:14Z</time>
      </trkpt>
      <trkpt lat="45.90356" lon="4.72268">
        <ele>178</ele>
        <time>2018-04-20T08:23:15Z</time>
      </trkpt>
      <trkpt lat="45.90348" lon="4.72271">
        <ele>178</ele>
        <time>2018-04-20T08:23:19Z</time>
      </trkpt>
      <trkpt lat="45.90345" lon="4.72273">
        <ele>178</ele>
        <time>2018-04-20T08:23:20Z</time>
      </trkpt>
      <trkpt lat="45.90337" lon="4.72277">
        <ele>178</ele>
        <time>2018-04-20T08:23:23Z</time>
      </trkpt>
      <trkpt lat="45.90335" lon="4.72278">
        <ele>178</ele>
        <time>2018-04-20T08:23:24Z</time>
      </trkpt>
      <trkpt lat="45.90329" lon="4.72282">
        <ele>177</ele>
        <time>2018-04-20T08:23:26Z</time>
      </trkpt>
      <trkpt lat="45.9032" lon="4.72288">
        <ele>177</ele>
        <time>2018-04-20T08:23:27Z</time>
      </trkpt>
      <trkpt lat="45.90313" lon="4.72291">
        <ele>177</ele>
        <time>2018-04-20T08:23:29Z</time>
      </trkpt>
      <trkpt lat="45.9031" lon="4.72292">
        <ele>177</ele>
        <time>2018-04-20T08:23:30Z</time>
      </trkpt>
      <trkpt lat="45.90304" lon="4.72294">
        <ele>177</ele>
        <time>2018-04-20T08:23:33Z</time>
      </trkpt>
      <trkpt lat="45.90296" lon="4.72294">
        <ele>177</ele>
        <time>2018-04-20T08:23:34Z</time>
      </trkpt>
      <trkpt lat="45.90287" lon="4.72297">
        <ele>177</ele>
        <time>2018-04-20T08:23:36Z</time>
      </trkpt>
      <trkpt lat="45.90286" lon="4.72297">
        <ele>177</ele>
        <time>2018-04-20T08:23:37Z</time>
      </trkpt>
      <trkpt lat="45.90281" lon="4.72299">
        <ele>177</ele>
        <time>2018-04-20T08:23:38Z</time>
      </trkpt>
      <trkpt lat="45.90277" lon="4.72301">
        <ele>177</ele>
        <time>2018-04-20T08:23:39Z</time>
      </trkpt>
      <trkpt lat="45.90268" lon="4.72304">
        <ele>177</ele>
        <time>2018-04-20T08:23:43Z</time>
      </trkpt>
      <trkpt lat="45.90261" lon="4.72306">
        <ele>177</ele>
        <time>2018-04-20T08:23:44Z</time>
      </trkpt>
      <trkpt lat="45.90253" lon="4.72308">
        <ele>177</ele>
        <time>2018-04-20T08:23:46Z</time>
      </trkpt>
      <trkpt lat="45.90249" lon="4.72309">
        <ele>177</ele>
        <time>2018-04-20T08:23:47Z</time>
      </trkpt>
      <trkpt lat="45.90241" lon="4.72311">
        <ele>177</ele>
        <time>2018-04-20T08:23:49Z</time>
      </trkpt>
      <trkpt lat="45.90237" lon="4.72312">
        <ele>177</ele>
        <time>2018-04-20T08:23:50Z</time>
      </trkpt>
      <trkpt lat="45.90229" lon="4.72314">
        <ele>177</ele>
        <time>2018-04-20T08:23:54Z</time>
      </trkpt>
      <trkpt lat="45.90226" lon="4.72315">
        <ele>177</ele>
        <time>2018-04-20T08:23:55Z</time>
      </trkpt>
      <trkpt lat="45.90218" lon="4.72315">
        <ele>177</ele>
        <time>2018-04-20T08:23:58Z</time>
      </trkpt>
      <trkpt lat="45.90215" lon="4.72315">
        <ele>177</ele>
        <time>2018-04-20T08:23:59Z</time>
      </trkpt>
      <trkpt lat="45.90207" lon="4.72313">
        <ele>177</ele>
        <time>2018-04-20T08:24:02Z</time>
      </trkpt>
      <trkpt lat="45.90205" lon="4.72312">
        <ele>177</ele>
        <time>2018-04-20T08:24:03Z</time>
      </trkpt>
      <trkpt lat="45.90199" lon="4.72304">
        <ele>177</ele>
        <time>2018-04-20T08:25:55Z</time>
      </trkpt>
      <trkpt lat="45.90199" lon="4.72304">
        <ele>177</ele>
        <time>2018-04-20T08:25:56Z</time>
      </trkpt>
      <trkpt lat="45.90201" lon="4.72306">
        <ele>177</ele>
        <time>2018-04-20T08:32:13Z</time>
      </trkpt>
      <trkpt lat="45.90201" lon="4.72305">
        <ele>177</ele>
        <time>2018-04-20T08:32:14Z</time>
      </trkpt>
      <trkpt lat="45.90198" lon="4.72293">
        <ele>177</ele>
        <time>2018-04-20T08:32:21Z</time>
      </trkpt>
      <trkpt lat="45.90198" lon="4.72291">
        <ele>177</ele>
        <time>2018-04-20T08:32:22Z</time>
      </trkpt>
      <trkpt lat="45.90197" lon="4.72279">
        <ele>177</ele>
        <time>2018-04-20T08:32:26Z</time>
      </trkpt>
      <trkpt lat="45.90197" lon="4.72275">
        <ele>177</ele>
        <time>2018-04-20T08:32:27Z</time>
      </trkpt>
      <trkpt lat="45.90196" lon="4.72272">
        <ele>177</ele>
        <time>2018-04-20T08:32:28Z</time>
      </trkpt>
      <trkpt lat="45.90195" lon="4.72259">
        <ele>177</ele>
        <time>2018-04-20T08:32:29Z</time>
      </trkpt>
      <trkpt lat="45.90195" lon="4.72251">
        <ele>177</ele>
        <time>2018-04-20T08:32:31Z</time>
      </trkpt>
      <trkpt lat="45.90194" lon="4.72243">
        <ele>177</ele>
        <time>2018-04-20T08:32:32Z</time>
      </trkpt>
      <trkpt lat="45.90191" lon="4.72234">
        <ele>177</ele>
        <time>2018-04-20T08:32:35Z</time>
      </trkpt>
      <trkpt lat="45.90191" lon="4.7223">
        <ele>177</ele>
        <time>2018-04-20T08:32:36Z</time>
      </trkpt>
      <trkpt lat="45.90189" lon="4.72223">
        <ele>177</ele>
        <time>2018-04-20T08:32:38Z</time>
      </trkpt>
      <trkpt lat="45.90187" lon="4.7221">
        <ele>177</ele>
        <time>2018-04-20T08:32:39Z</time>
      </trkpt>
      <trkpt lat="45.90185" lon="4.72202">
        <ele>177</ele>
        <time>2018-04-20T08:32:41Z</time>
      </trkpt>
      <trkpt lat="45.90184" lon="4.72194">
        <ele>177</ele>
        <time>2018-04-20T08:32:42Z</time>
      </trkpt>
      <trkpt lat="45.90182" lon="4.72183">
        <ele>177</ele>
        <time>2018-04-20T08:32:44Z</time>
      </trkpt>
      <trkpt lat="45.90182" lon="4.72181">
        <ele>177</ele>
        <time>2018-04-20T08:32:45Z</time>
      </trkpt>
      <trkpt lat="45.90181" lon="4.72177">
        <ele>177</ele>
        <time>2018-04-20T08:32:46Z</time>
      </trkpt>
      <trkpt lat="45.90181" lon="4.72168">
        <ele>177</ele>
        <time>2018-04-20T08:32:47Z</time>
      </trkpt>
      <trkpt lat="45.9018" lon="4.72159">
        <ele>178</ele>
        <time>2018-04-20T08:32:49Z</time>
      </trkpt>
      <trkpt lat="45.9018" lon="4.72151">
        <ele>178</ele>
        <time>2018-04-20T08:32:50Z</time>
      </trkpt>
      <trkpt lat="45.9018" lon="4.72139">
        <ele>178</ele>
        <time>2018-04-20T08:32:52Z</time>
      </trkpt>
      <trkpt lat="45.9018" lon="4.72133">
        <ele>178</ele>
        <time>2018-04-20T08:32:53Z</time>
      </trkpt>
      <trkpt lat="45.90179" lon="4.72121">
        <ele>178</ele>
        <time>2018-04-20T08:32:55Z</time>
      </trkpt>
      <trkpt lat="45.90179" lon="4.72114">
        <ele>178</ele>
        <time>2018-04-20T08:32:56Z</time>
      </trkpt>
      <trkpt lat="45.90177" lon="4.72102">
        <ele>178</ele>
        <time>2018-04-20T08:32:58Z</time>
      </trkpt>
      <trkpt lat="45.90177" lon="4.72096">
        <ele>178</ele>
        <time>2018-04-20T08:32:59Z</time>
      </trkpt>
      <trkpt lat="45.90176" lon="4.72083">
        <ele>178</ele>
        <time>2018-04-20T08:33:01Z</time>
      </trkpt>
      <trkpt lat="45.90175" lon="4.72077">
        <ele>178</ele>
        <time>2018-04-20T08:33:02Z</time>
      </trkpt>
      <trkpt lat="45.90175" lon="4.72071">
        <ele>178</ele>
        <time>2018-04-20T08:33:03Z</time>
      </trkpt>
      <trkpt lat="45.90175" lon="4.72064">
        <ele>179</ele>
        <time>2018-04-20T08:33:04Z</time>
      </trkpt>
      <trkpt lat="45.90174" lon="4.72057">
        <ele>179</ele>
        <time>2018-04-20T08:33:05Z</time>
      </trkpt>
      <trkpt lat="45.90174" lon="4.72051">
        <ele>179</ele>
        <time>2018-04-20T08:33:06Z</time>
      </trkpt>
      <trkpt lat="45.90173" lon="4.72039">
        <ele>179</ele>
        <time>2018-04-20T08:33:08Z</time>
      </trkpt>
      <trkpt lat="45.90172" lon="4.72033">
        <ele>179</ele>
        <time>2018-04-20T08:33:09Z</time>
      </trkpt>
      <trkpt lat="45.90172" lon="4.72022">
        <ele>179</ele>
        <time>2018-04-20T08:33:11Z</time>
      </trkpt>
      <trkpt lat="45.90171" lon="4.72015">
        <ele>179</ele>
        <time>2018-04-20T08:33:12Z</time>
      </trkpt>
      <trkpt lat="45.90171" lon="4.72004">
        <ele>179</ele>
        <time>2018-04-20T08:33:14Z</time>
      </trkpt>
      <trkpt lat="45.90171" lon="4.71998">
        <ele>179</ele>
        <time>2018-04-20T08:33:15Z</time>
      </trkpt>
      <trkpt lat="45.90171" lon="4.71985">
        <ele>179</ele>
        <time>2018-04-20T08:33:17Z</time>
      </trkpt>
      <trkpt lat="45.90171" lon="4.71979">
        <ele>179</ele>
        <time>2018-04-20T08:33:18Z</time>
      </trkpt>
      <trkpt lat="45.90173" lon="4.71968">
        <ele>179</ele>
        <time>2018-04-20T08:33:20Z</time>
      </trkpt>
      <trkpt lat="45.90174" lon="4.71963">
        <ele>179</ele>
        <time>2018-04-20T08:33:21Z</time>
      </trkpt>
      <trkpt lat="45.90175" lon="4.71957">
        <ele>179</ele>
        <time>2018-04-20T08:33:23Z</time>
      </trkpt>
      <trkpt lat="45.90177" lon="4.71948">
        <ele>179</ele>
        <time>2018-04-20T08:33:24Z</time>
      </trkpt>
      <trkpt lat="45.9018" lon="4.71936">
        <ele>178</ele>
        <time>2018-04-20T08:33:26Z</time>
      </trkpt>
      <trkpt lat="45.90182" lon="4.7193">
        <ele>178</ele>
        <time>2018-04-20T08:33:27Z</time>
      </trkpt>
      <trkpt lat="45.90185" lon="4.71925">
        <ele>178</ele>
        <time>2018-04-20T08:33:28Z</time>
      </trkpt>
      <trkpt lat="45.90187" lon="4.71919">
        <ele>178</ele>
        <time>2018-04-20T08:33:29Z</time>
      </trkpt>
      <trkpt lat="45.90191" lon="4.71908">
        <ele>179</ele>
        <time>2018-04-20T08:33:31Z</time>
      </trkpt>
      <trkpt lat="45.90193" lon="4.71903">
        <ele>179</ele>
        <time>2018-04-20T08:33:32Z</time>
      </trkpt>
      <trkpt lat="45.90197" lon="4.71895">
        <ele>180</ele>
        <time>2018-04-20T08:33:34Z</time>
      </trkpt>
      <trkpt lat="45.902" lon="4.71889">
        <ele>180</ele>
        <time>2018-04-20T08:33:35Z</time>
      </trkpt>
      <trkpt lat="45.90203" lon="4.71884">
        <ele>180</ele>
        <time>2018-04-20T08:33:36Z</time>
      </trkpt>
      <trkpt lat="45.90206" lon="4.71879">
        <ele>180</ele>
        <time>2018-04-20T08:33:37Z</time>
      </trkpt>
      <trkpt lat="45.90212" lon="4.71869">
        <ele>180</ele>
        <time>2018-04-20T08:33:39Z</time>
      </trkpt>
      <trkpt lat="45.90215" lon="4.71865">
        <ele>181</ele>
        <time>2018-04-20T08:33:40Z</time>
      </trkpt>
      <trkpt lat="45.9022" lon="4.71857">
        <ele>181</ele>
        <time>2018-04-20T08:33:42Z</time>
      </trkpt>
      <trkpt lat="45.90222" lon="4.71852">
        <ele>181</ele>
        <time>2018-04-20T08:33:43Z</time>
      </trkpt>
      <trkpt lat="45.90228" lon="4.71842">
        <ele>181</ele>
        <time>2018-04-20T08:33:45Z</time>
      </trkpt>
      <trkpt lat="45.90231" lon="4.71838">
        <ele>182</ele>
        <time>2018-04-20T08:33:46Z</time>
      </trkpt>
      <trkpt lat="45.90235" lon="4.71829">
        <ele>183</ele>
        <time>2018-04-20T08:33:48Z</time>
      </trkpt>
      <trkpt lat="45.90239" lon="4.71824">
        <ele>183</ele>
        <time>2018-04-20T08:33:49Z</time>
      </trkpt>
      <trkpt lat="45.90241" lon="4.71816">
        <ele>183</ele>
        <time>2018-04-20T08:33:51Z</time>
      </trkpt>
      <trkpt lat="45.90245" lon="4.71808">
        <ele>183</ele>
        <time>2018-04-20T08:33:52Z</time>
      </trkpt>
      <trkpt lat="45.90248" lon="4.71798">
        <ele>184</ele>
        <time>2018-04-20T08:33:55Z</time>
      </trkpt>
      <trkpt lat="45.90248" lon="4.71795">
        <ele>184</ele>
        <time>2018-04-20T08:33:56Z</time>
      </trkpt>
      <trkpt lat="45.90249" lon="4.71785">
        <ele>184</ele>
        <time>2018-04-20T08:33:59Z</time>
      </trkpt>
      <trkpt lat="45.9025" lon="4.71782">
        <ele>184</ele>
        <time>2018-04-20T08:34:00Z</time>
      </trkpt>
      <trkpt lat="45.90251" lon="4.71771">
        <ele>183</ele>
        <time>2018-04-20T08:34:03Z</time>
      </trkpt>
      <trkpt lat="45.90251" lon="4.71767">
        <ele>183</ele>
        <time>2018-04-20T08:34:04Z</time>
      </trkpt>
      <trkpt lat="45.90253" lon="4.71756">
        <ele>184</ele>
        <time>2018-04-20T08:34:07Z</time>
      </trkpt>
      <trkpt lat="45.90253" lon="4.71752">
        <ele>185</ele>
        <time>2018-04-20T08:34:08Z</time>
      </trkpt>
      <trkpt lat="45.90254" lon="4.71742">
        <ele>185</ele>
        <time>2018-04-20T08:34:11Z</time>
      </trkpt>
      <trkpt lat="45.90255" lon="4.71738">
        <ele>186</ele>
        <time>2018-04-20T08:34:12Z</time>
      </trkpt>
      <trkpt lat="45.90257" lon="4.71727">
        <ele>186</ele>
        <time>2018-04-20T08:34:16Z</time>
      </trkpt>
      <trkpt lat="45.90257" lon="4.71724">
        <ele>186</ele>
        <time>2018-04-20T08:34:17Z</time>
      </trkpt>
      <trkpt lat="45.9026" lon="4.71713">
        <ele>187</ele>
        <time>2018-04-20T08:34:21Z</time>
      </trkpt>
      <trkpt lat="45.9026" lon="4.71711">
        <ele>187</ele>
        <time>2018-04-20T08:34:22Z</time>
      </trkpt>
      <trkpt lat="45.90262" lon="4.71699">
        <ele>188</ele>
        <time>2018-04-20T08:34:27Z</time>
      </trkpt>
      <trkpt lat="45.90262" lon="4.71696">
        <ele>188</ele>
        <time>2018-04-20T08:34:28Z</time>
      </trkpt>
      <trkpt lat="45.90265" lon="4.71685">
        <ele>189</ele>
        <time>2018-04-20T08:34:32Z</time>
      </trkpt>
      <trkpt lat="45.90265" lon="4.71682">
        <ele>189</ele>
        <time>2018-04-20T08:34:33Z</time>
      </trkpt>
      <trkpt lat="45.90268" lon="4.71672">
        <ele>189</ele>
        <time>2018-04-20T08:34:37Z</time>
      </trkpt>
      <trkpt lat="45.90269" lon="4.7167">
        <ele>189</ele>
        <time>2018-04-20T08:34:38Z</time>
      </trkpt>
      <trkpt lat="45.90272" lon="4.71659">
        <ele>192</ele>
        <time>2018-04-20T08:34:42Z</time>
      </trkpt>
      <trkpt lat="45.90272" lon="4.71656">
        <ele>192</ele>
        <time>2018-04-20T08:34:43Z</time>
      </trkpt>
      <trkpt lat="45.90272" lon="4.71645">
        <ele>192</ele>
        <time>2018-04-20T08:34:47Z</time>
      </trkpt>
      <trkpt lat="45.90272" lon="4.71642">
        <ele>192</ele>
        <time>2018-04-20T08:34:48Z</time>
      </trkpt>
      <trkpt lat="45.90272" lon="4.7163">
        <ele>193</ele>
        <time>2018-04-20T08:34:52Z</time>
      </trkpt>
      <trkpt lat="45.90272" lon="4.71628">
        <ele>193</ele>
        <time>2018-04-20T08:34:53Z</time>
      </trkpt>
      <trkpt lat="45.90272" lon="4.71617">
        <ele>193</ele>
        <time>2018-04-20T08:34:57Z</time>
      </trkpt>
      <trkpt lat="45.90272" lon="4.71614">
        <ele>193</ele>
        <time>2018-04-20T08:34:58Z</time>
      </trkpt>
      <trkpt lat="45.90273" lon="4.71602">
        <ele>193</ele>
        <time>2018-04-20T08:35:02Z</time>
      </trkpt>
      <trkpt lat="45.90272" lon="4.71599">
        <ele>193</ele>
        <time>2018-04-20T08:35:03Z</time>
      </trkpt>
      <trkpt lat="45.90273" lon="4.71586">
        <ele>194</ele>
        <time>2018-04-20T08:35:07Z</time>
      </trkpt>
      <trkpt lat="45.90273" lon="4.71583">
        <ele>195</ele>
        <time>2018-04-20T08:35:08Z</time>
      </trkpt>
      <trkpt lat="45.90273" lon="4.7157">
        <ele>195</ele>
        <time>2018-04-20T08:35:13Z</time>
      </trkpt>
      <trkpt lat="45.90273" lon="4.71567">
        <ele>195</ele>
        <time>2018-04-20T08:35:14Z</time>
      </trkpt>
      <trkpt lat="45.90273" lon="4.71555">
        <ele>195</ele>
        <time>2018-04-20T08:35:18Z</time>
      </trkpt>
      <trkpt lat="45.90273" lon="4.71552">
        <ele>195</ele>
        <time>2018-04-20T08:35:19Z</time>
      </trkpt>
      <trkpt lat="45.90272" lon="4.71542">
        <ele>196</ele>
        <time>2018-04-20T08:35:33Z</time>
      </trkpt>
      <trkpt lat="45.90272" lon="4.71542">
        <ele>196</ele>
        <time>2018-04-20T08:35:34Z</time>
      </trkpt>
      <trkpt lat="45.90273" lon="4.71543">
        <ele>196</ele>
        <time>2018-04-20T08:37:04Z</time>
      </trkpt>
      <trkpt lat="45.90273" lon="4.71543">
        <ele>196</ele>
        <time>2018-04-20T08:37:05Z</time>
      </trkpt>
      <trkpt lat="45.90264" lon="4.71544">
        <ele>196</ele>
        <time>2018-04-20T08:37:12Z</time>
      </trkpt>
      <trkpt lat="45.90262" lon="4.71545">
        <ele>196</ele>
        <time>2018-04-20T08:37:13Z</time>
      </trkpt>
      <trkpt lat="45.90255" lon="4.71547">
        <ele>196</ele>
        <time>2018-04-20T08:37:16Z</time>
      </trkpt>
      <trkpt lat="45.90252" lon="4.71547">
        <ele>196</ele>
        <time>2018-04-20T08:37:17Z</time>
      </trkpt>
      <trkpt lat="45.90243" lon="4.7155">
        <ele>198</ele>
        <time>2018-04-20T08:37:20Z</time>
      </trkpt>
      <trkpt lat="45.90241" lon="4.7155">
        <ele>198</ele>
        <time>2018-04-20T08:37:21Z</time>
      </trkpt>
      <trkpt lat="45.90232" lon="4.71551">
        <ele>199</ele>
        <time>2018-04-20T08:37:24Z</time>
      </trkpt>
      <trkpt lat="45.9023" lon="4.71552">
        <ele>199</ele>
        <time>2018-04-20T08:37:25Z</time>
      </trkpt>
      <trkpt lat="45.90221" lon="4.71552">
        <ele>199</ele>
        <time>2018-04-20T08:37:28Z</time>
      </trkpt>
      <trkpt lat="45.90218" lon="4.71552">
        <ele>199</ele>
        <time>2018-04-20T08:37:29Z</time>
      </trkpt>
      <trkpt lat="45.90215" lon="4.71551">
        <ele>199</ele>
        <time>2018-04-20T08:37:30Z</time>
      </trkpt>
      <trkpt lat="45.90205" lon="4.71549">
        <ele>199</ele>
        <time>2018-04-20T08:37:31Z</time>
      </trkpt>
      <trkpt lat="45.90197" lon="4.71546">
        <ele>199</ele>
        <time>2018-04-20T08:37:33Z</time>
      </trkpt>
      <trkpt lat="45.90195" lon="4.71546">
        <ele>199</ele>
        <time>2018-04-20T08:37:34Z</time>
      </trkpt>
      <trkpt lat="45.90189" lon="4.71546">
        <ele>200</ele>
        <time>2018-04-20T08:37:38Z</time>
      </trkpt>
      <trkpt lat="45.90186" lon="4.71547">
        <ele>200</ele>
        <time>2018-04-20T08:37:39Z</time>
      </trkpt>
      <trkpt lat="45.90179" lon="4.71546">
        <ele>200</ele>
        <time>2018-04-20T08:37:42Z</time>
      </trkpt>
      <trkpt lat="45.90176" lon="4.71546">
        <ele>200</ele>
        <time>2018-04-20T08:37:43Z</time>
      </trkpt>
      <trkpt lat="45.9017" lon="4.71545">
        <ele>200</ele>
        <time>2018-04-20T08:37:45Z</time>
      </trkpt>
      <trkpt lat="45.9016" lon="4.71545">
        <ele>201</ele>
        <time>2018-04-20T08:37:46Z</time>
      </trkpt>
      <trkpt lat="45.90154" lon="4.71543">
        <ele>201</ele>
        <time>2018-04-20T08:37:49Z</time>
      </trkpt>
      <trkpt lat="45.90151" lon="4.71543">
        <ele>201</ele>
        <time>2018-04-20T08:37:50Z</time>
      </trkpt>
      <trkpt lat="45.90145" lon="4.7154">
        <ele>201</ele>
        <time>2018-04-20T08:37:52Z</time>
      </trkpt>
      <trkpt lat="45.90141" lon="4.71539">
        <ele>201</ele>
        <time>2018-04-20T08:37:53Z</time>
      </trkpt>
      <trkpt lat="45.90132" lon="4.71537">
        <ele>201</ele>
        <time>2018-04-20T08:37:54Z</time>
      </trkpt>
      <trkpt lat="45.90123" lon="4.71535">
        <ele>201</ele>
        <time>2018-04-20T08:37:57Z</time>
      </trkpt>
      <trkpt lat="45.9012" lon="4.71535">
        <ele>201</ele>
        <time>2018-04-20T08:37:58Z</time>
      </trkpt>
      <trkpt lat="45.90113" lon="4.71535">
        <ele>201</ele>
        <time>2018-04-20T08:37:59Z</time>
      </trkpt>
      <trkpt lat="45.90111" lon="4.71535">
        <ele>201</ele>
        <time>2018-04-20T08:38:00Z</time>
      </trkpt>
      <trkpt lat="45.90106" lon="4.71535">
        <ele>200</ele>
        <time>2018-04-20T08:38:01Z</time>
      </trkpt>
      <trkpt lat="45.90099" lon="4.71534">
        <ele>200</ele>
        <time>2018-04-20T08:38:02Z</time>
      </trkpt>
      <trkpt lat="45.90092" lon="4.71534">
        <ele>200</ele>
        <time>2018-04-20T08:38:04Z</time>
      </trkpt>
      <trkpt lat="45.90089" lon="4.71533">
        <ele>200</ele>
        <time>2018-04-20T08:38:05Z</time>
      </trkpt>
      <trkpt lat="45.90084" lon="4.71532">
        <ele>200</ele>
        <time>2018-04-20T08:38:06Z</time>
      </trkpt>
      <trkpt lat="45.9008" lon="4.71534">
        <ele>198</ele>
        <time>2018-04-20T08:38:07Z</time>
      </trkpt>
      <trkpt lat="45.90075" lon="4.71534">
        <ele>198</ele>
        <time>2018-04-20T08:38:08Z</time>
      </trkpt>
      <trkpt lat="45.9007" lon="4.71532">
        <ele>198</ele>
        <time>2018-04-20T08:38:09Z</time>
      </trkpt>
      <trkpt lat="45.90062" lon="4.7153">
        <ele>198</ele>
        <time>2018-04-20T08:38:11Z</time>
      </trkpt>
      <trkpt lat="45.90057" lon="4.7153">
        <ele>198</ele>
        <time>2018-04-20T08:38:12Z</time>
      </trkpt>
      <trkpt lat="45.90051" lon="4.7153">
        <ele>198</ele>
        <time>2018-04-20T08:38:13Z</time>
      </trkpt>
      <trkpt lat="45.90046" lon="4.7153">
        <ele>198</ele>
        <time>2018-04-20T08:38:14Z</time>
      </trkpt>
      <trkpt lat="45.9004" lon="4.7153">
        <ele>197</ele>
        <time>2018-04-20T08:38:15Z</time>
      </trkpt>
      <trkpt lat="45.90033" lon="4.7153">
        <ele>197</ele>
        <time>2018-04-20T08:38:16Z</time>
      </trkpt>
      <trkpt lat="45.90026" lon="4.71527">
        <ele>197</ele>
        <time>2018-04-20T08:38:17Z</time>
      </trkpt>
      <trkpt lat="45.90019" lon="4.71527">
        <ele>197</ele>
        <time>2018-04-20T08:38:18Z</time>
      </trkpt>
      <trkpt lat="45.90012" lon="4.71525">
        <ele>196</ele>
        <time>2018-04-20T08:38:19Z</time>
      </trkpt>
      <trkpt lat="45.90004" lon="4.71526">
        <ele>196</ele>
        <time>2018-04-20T08:38:20Z</time>
      </trkpt>
      <trkpt lat="45.89996" lon="4.71527">
        <ele>194</ele>
        <time>2018-04-20T08:38:21Z</time>
      </trkpt>
      <trkpt lat="45.89987" lon="4.71527">
        <ele>194</ele>
        <time>2018-04-20T08:38:22Z</time>
      </trkpt>
      <trkpt lat="45.89979" lon="4.71527">
        <ele>194</ele>
        <time>2018-04-20T08:38:23Z</time>
      </trkpt>
      <trkpt lat="45.8997" lon="4.71528">
        <ele>194</ele>
        <time>2018-04-20T08:38:24Z</time>
      </trkpt>
      <trkpt lat="45.8996" lon="4.71527">
        <ele>194</ele>
        <time>2018-04-20T08:38:25Z</time>
      </trkpt>
      <trkpt lat="45.89952" lon="4.71528">
        <ele>193</ele>
        <time>2018-04-20T08:38:26Z</time>
      </trkpt>
      <trkpt lat="45.89944" lon="4.71528">
        <ele>193</ele>
        <time>2018-04-20T08:38:27Z</time>
      </trkpt>
      <trkpt lat="45.89935" lon="4.71529">
        <ele>193</ele>
        <time>2018-04-20T08:38:28Z</time>
      </trkpt>
      <trkpt lat="45.89923" lon="4.71529">
        <ele>193</ele>
        <time>2018-04-20T08:38:29Z</time>
      </trkpt>
      <trkpt lat="45.89914" lon="4.71528">
        <ele>193</ele>
        <time>2018-04-20T08:38:30Z</time>
      </trkpt>
      <trkpt lat="45.89908" lon="4.71535">
        <ele>193</ele>
        <time>2018-04-20T08:38:31Z</time>
      </trkpt>
      <trkpt lat="45.89901" lon="4.71537">
        <ele>193</ele>
        <time>2018-04-20T08:38:32Z</time>
      </trkpt>
      <trkpt lat="45.89893" lon="4.71541">
        <ele>193</ele>
        <time>2018-04-20T08:38:33Z</time>
      </trkpt>
      <trkpt lat="45.89886" lon="4.7154">
        <ele>193</ele>
        <time>2018-04-20T08:38:34Z</time>
      </trkpt>
      <trkpt lat="45.89878" lon="4.71544">
        <ele>192</ele>
        <time>2018-04-20T08:38:35Z</time>
      </trkpt>
      <trkpt lat="45.89866" lon="4.71539">
        <ele>193</ele>
        <time>2018-04-20T08:38:36Z</time>
      </trkpt>
      <trkpt lat="45.89857" lon="4.71537">
        <ele>193</ele>
        <time>2018-04-20T08:38:37Z</time>
      </trkpt>
      <trkpt lat="45.89849" lon="4.71537">
        <ele>193</ele>
        <time>2018-04-20T08:38:38Z</time>
      </trkpt>
      <trkpt lat="45.89846" lon="4.71538">
        <ele>193</ele>
        <time>2018-04-20T08:38:39Z</time>
      </trkpt>
      <trkpt lat="45.89838" lon="4.71541">
        <ele>193</ele>
        <time>2018-04-20T08:38:41Z</time>
      </trkpt>
      <trkpt lat="45.89833" lon="4.71539">
        <ele>192</ele>
        <time>2018-04-20T08:38:42Z</time>
      </trkpt>
      <trkpt lat="45.89829" lon="4.7154">
        <ele>192</ele>
        <time>2018-04-20T08:38:43Z</time>
      </trkpt>
      <trkpt lat="45.89824" lon="4.71539">
        <ele>192</ele>
        <time>2018-04-20T08:38:44Z</time>
      </trkpt>
      <trkpt lat="45.89816" lon="4.71538">
        <ele>192</ele>
        <time>2018-04-20T08:38:46Z</time>
      </trkpt>
      <trkpt lat="45.89812" lon="4.71538">
        <ele>192</ele>
        <time>2018-04-20T08:38:47Z</time>
      </trkpt>
      <trkpt lat="45.89805" lon="4.71537">
        <ele>192</ele>
        <time>2018-04-20T08:38:49Z</time>
      </trkpt>
      <trkpt lat="45.89801" lon="4.71536">
        <ele>192</ele>
        <time>2018-04-20T08:38:50Z</time>
      </trkpt>
      <trkpt lat="45.89792" lon="4.71533">
        <ele>192</ele>
        <time>2018-04-20T08:38:52Z</time>
      </trkpt>
      <trkpt lat="45.89788" lon="4.71533">
        <ele>192</ele>
        <time>2018-04-20T08:38:53Z</time>
      </trkpt>
      <trkpt lat="45.89781" lon="4.71532">
        <ele>192</ele>
        <time>2018-04-20T08:38:55Z</time>
      </trkpt>
      <trkpt lat="45.89777" lon="4.71532">
        <ele>192</ele>
        <time>2018-04-20T08:38:56Z</time>
      </trkpt>
      <trkpt lat="45.8977" lon="4.71531">
        <ele>192</ele>
        <time>2018-04-20T08:38:58Z</time>
      </trkpt>
      <trkpt lat="45.89766" lon="4.71531">
        <ele>192</ele>
        <time>2018-04-20T08:38:59Z</time>
      </trkpt>
      <trkpt lat="45.89758" lon="4.71534">
        <ele>192</ele>
        <time>2018-04-20T08:39:01Z</time>
      </trkpt>
      <trkpt lat="45.89756" lon="4.71533">
        <ele>192</ele>
        <time>2018-04-20T08:39:02Z</time>
      </trkpt>
      <trkpt lat="45.89748" lon="4.71531">
        <ele>193</ele>
        <time>2018-04-20T08:39:04Z</time>
      </trkpt>
      <trkpt lat="45.89744" lon="4.7153">
        <ele>193</ele>
        <time>2018-04-20T08:39:05Z</time>
      </trkpt>
      <trkpt lat="45.89737" lon="4.71536">
        <ele>193</ele>
        <time>2018-04-20T08:39:07Z</time>
      </trkpt>
      <trkpt lat="45.89732" lon="4.71541">
        <ele>192</ele>
        <time>2018-04-20T08:39:08Z</time>
      </trkpt>
      <trkpt lat="45.89728" lon="4.71539">
        <ele>192</ele>
        <time>2018-04-20T08:39:09Z</time>
      </trkpt>
      <trkpt lat="45.89723" lon="4.71538">
        <ele>193</ele>
        <time>2018-04-20T08:39:10Z</time>
      </trkpt>
      <trkpt lat="45.89715" lon="4.71538">
        <ele>193</ele>
        <time>2018-04-20T08:39:12Z</time>
      </trkpt>
      <trkpt lat="45.89712" lon="4.71539">
        <ele>193</ele>
        <time>2018-04-20T08:39:13Z</time>
      </trkpt>
      <trkpt lat="45.89708" lon="4.71539">
        <ele>193</ele>
        <time>2018-04-20T08:39:14Z</time>
      </trkpt>
      <trkpt lat="45.89703" lon="4.71539">
        <ele>193</ele>
        <time>2018-04-20T08:39:15Z</time>
      </trkpt>
      <trkpt lat="45.89695" lon="4.71537">
        <ele>193</ele>
        <time>2018-04-20T08:39:17Z</time>
      </trkpt>
      <trkpt lat="45.89689" lon="4.71538">
        <ele>193</ele>
        <time>2018-04-20T08:39:18Z</time>
      </trkpt>
      <trkpt lat="45.89682" lon="4.71539">
        <ele>193</ele>
        <time>2018-04-20T08:39:20Z</time>
      </trkpt>
      <trkpt lat="45.89678" lon="4.71538">
        <ele>193</ele>
        <time>2018-04-20T08:39:21Z</time>
      </trkpt>
      <trkpt lat="45.8967" lon="4.71539">
        <ele>193</ele>
        <time>2018-04-20T08:39:23Z</time>
      </trkpt>
      <trkpt lat="45.89667" lon="4.71539">
        <ele>193</ele>
        <time>2018-04-20T08:39:24Z</time>
      </trkpt>
      <trkpt lat="45.89658" lon="4.7154">
        <ele>193</ele>
        <time>2018-04-20T08:39:26Z</time>
      </trkpt>
      <trkpt lat="45.89654" lon="4.71543">
        <ele>193</ele>
        <time>2018-04-20T08:39:27Z</time>
      </trkpt>
      <trkpt lat="45.89647" lon="4.71547">
        <ele>193</ele>
        <time>2018-04-20T08:39:29Z</time>
      </trkpt>
      <trkpt lat="45.89644" lon="4.7155">
        <ele>193</ele>
        <time>2018-04-20T08:39:30Z</time>
      </trkpt>
      <trkpt lat="45.89638" lon="4.71559">
        <ele>193</ele>
        <time>2018-04-20T08:39:32Z</time>
      </trkpt>
      <trkpt lat="45.89637" lon="4.71561">
        <ele>193</ele>
        <time>2018-04-20T08:39:33Z</time>
      </trkpt>
      <trkpt lat="45.89637" lon="4.71571">
        <ele>193</ele>
        <time>2018-04-20T08:39:36Z</time>
      </trkpt>
      <trkpt lat="45.89637" lon="4.71575">
        <ele>193</ele>
        <time>2018-04-20T08:39:37Z</time>
      </trkpt>
      <trkpt lat="45.89639" lon="4.71586">
        <ele>191</ele>
        <time>2018-04-20T08:39:41Z</time>
      </trkpt>
      <trkpt lat="45.89639" lon="4.71589">
        <ele>191</ele>
        <time>2018-04-20T08:39:42Z</time>
      </trkpt>
      <trkpt lat="45.89641" lon="4.71599">
        <ele>191</ele>
        <time>2018-04-20T08:39:58Z</time>
      </trkpt>
      <trkpt lat="45.89642" lon="4.71602">
        <ele>191</ele>
        <time>2018-04-20T08:39:59Z</time>
      </trkpt>
      <trkpt lat="45.89644" lon="4.71614">
        <ele>190</ele>
        <time>2018-04-20T08:40:03Z</time>
      </trkpt>
      <trkpt lat="45.89644" lon="4.71618">
        <ele>190</ele>
        <time>2018-04-20T08:40:04Z</time>
      </trkpt>
      <trkpt lat="45.89646" lon="4.71632">
        <ele>190</ele>
        <time>2018-04-20T08:40:05Z</time>
      </trkpt>
      <trkpt lat="45.89648" lon="4.71639">
        <ele>189</ele>
        <time>2018-04-20T08:40:06Z</time>
      </trkpt>
      <trkpt lat="45.89648" lon="4.71647">
        <ele>189</ele>
        <time>2018-04-20T08:40:07Z</time>
      </trkpt>
      <trkpt lat="45.89649" lon="4.71655">
        <ele>189</ele>
        <time>2018-04-20T08:40:08Z</time>
      </trkpt>
      <trkpt lat="45.8965" lon="4.71663">
        <ele>188</ele>
        <time>2018-04-20T08:40:09Z</time>
      </trkpt>
      <trkpt lat="45.89651" lon="4.71671">
        <ele>186</ele>
        <time>2018-04-20T08:40:10Z</time>
      </trkpt>
      <trkpt lat="45.89652" lon="4.7168">
        <ele>186</ele>
        <time>2018-04-20T08:40:11Z</time>
      </trkpt>
      <trkpt lat="45.89653" lon="4.7169">
        <ele>186</ele>
        <time>2018-04-20T08:40:12Z</time>
      </trkpt>
      <trkpt lat="45.89655" lon="4.71699">
        <ele>185</ele>
        <time>2018-04-20T08:40:13Z</time>
      </trkpt>
      <trkpt lat="45.89657" lon="4.71706">
        <ele>185</ele>
        <time>2018-04-20T08:40:14Z</time>
      </trkpt>
      <trkpt lat="45.89658" lon="4.71716">
        <ele>185</ele>
        <time>2018-04-20T08:40:15Z</time>
      </trkpt>
      <trkpt lat="45.8966" lon="4.71724">
        <ele>185</ele>
        <time>2018-04-20T08:40:16Z</time>
      </trkpt>
      <trkpt lat="45.8966" lon="4.71733">
        <ele>184</ele>
        <time>2018-04-20T08:40:17Z</time>
      </trkpt>
      <trkpt lat="45.89662" lon="4.71742">
        <ele>184</ele>
        <time>2018-04-20T08:40:18Z</time>
      </trkpt>
      <trkpt lat="45.89663" lon="4.71752">
        <ele>183</ele>
        <time>2018-04-20T08:40:19Z</time>
      </trkpt>
      <trkpt lat="45.89664" lon="4.71762">
        <ele>183</ele>
        <time>2018-04-20T08:40:20Z</time>
      </trkpt>
      <trkpt lat="45.89665" lon="4.71772">
        <ele>182</ele>
        <time>2018-04-20T08:40:21Z</time>
      </trkpt>
      <trkpt lat="45.89666" lon="4.71782">
        <ele>182</ele>
        <time>2018-04-20T08:40:22Z</time>
      </trkpt>
      <trkpt lat="45.89665" lon="4.71793">
        <ele>182</ele>
        <time>2018-04-20T08:40:23Z</time>
      </trkpt>
      <trkpt lat="45.89666" lon="4.71803">
        <ele>182</ele>
        <time>2018-04-20T08:40:24Z</time>
      </trkpt>
      <trkpt lat="45.89666" lon="4.71814">
        <ele>182</ele>
        <time>2018-04-20T08:40:25Z</time>
      </trkpt>
      <trkpt lat="45.89666" lon="4.71825">
        <ele>181</ele>
        <time>2018-04-20T08:40:26Z</time>
      </trkpt>
      <trkpt lat="45.89666" lon="4.71835">
        <ele>181</ele>
        <time>2018-04-20T08:40:27Z</time>
      </trkpt>
      <trkpt lat="45.89666" lon="4.71845">
        <ele>181</ele>
        <time>2018-04-20T08:40:28Z</time>
      </trkpt>
      <trkpt lat="45.89666" lon="4.71854">
        <ele>181</ele>
        <time>2018-04-20T08:40:29Z</time>
      </trkpt>
      <trkpt lat="45.89667" lon="4.71863">
        <ele>181</ele>
        <time>2018-04-20T08:40:30Z</time>
      </trkpt>
      <trkpt lat="45.89669" lon="4.7187">
        <ele>181</ele>
        <time>2018-04-20T08:40:31Z</time>
      </trkpt>
      <trkpt lat="45.89669" lon="4.71879">
        <ele>181</ele>
        <time>2018-04-20T08:40:32Z</time>
      </trkpt>
      <trkpt lat="45.89668" lon="4.71888">
        <ele>181</ele>
        <time>2018-04-20T08:40:33Z</time>
      </trkpt>
      <trkpt lat="45.89666" lon="4.71897">
        <ele>181</ele>
        <time>2018-04-20T08:40:34Z</time>
      </trkpt>
      <trkpt lat="45.89667" lon="4.71904">
        <ele>181</ele>
        <time>2018-04-20T08:40:35Z</time>
      </trkpt>
      <trkpt lat="45.89667" lon="4.71911">
        <ele>181</ele>
        <time>2018-04-20T08:40:36Z</time>
      </trkpt>
      <trkpt lat="45.89667" lon="4.71919">
        <ele>181</ele>
        <time>2018-04-20T08:40:37Z</time>
      </trkpt>
      <trkpt lat="45.89668" lon="4.71929">
        <ele>181</ele>
        <time>2018-04-20T08:40:38Z</time>
      </trkpt>
      <trkpt lat="45.89668" lon="4.71937">
        <ele>181</ele>
        <time>2018-04-20T08:40:39Z</time>
      </trkpt>
      <trkpt lat="45.89668" lon="4.71944">
        <ele>181</ele>
        <time>2018-04-20T08:40:40Z</time>
      </trkpt>
      <trkpt lat="45.89668" lon="4.71952">
        <ele>181</ele>
        <time>2018-04-20T08:40:41Z</time>
      </trkpt>
      <trkpt lat="45.89667" lon="4.7196">
        <ele>181</ele>
        <time>2018-04-20T08:40:42Z</time>
      </trkpt>
      <trkpt lat="45.89667" lon="4.71968">
        <ele>181</ele>
        <time>2018-04-20T08:40:43Z</time>
      </trkpt>
      <trkpt lat="45.89666" lon="4.7198">
        <ele>181</ele>
        <time>2018-04-20T08:40:45Z</time>
      </trkpt>
      <trkpt lat="45.89666" lon="4.71988">
        <ele>181</ele>
        <time>2018-04-20T08:40:46Z</time>
      </trkpt>
      <trkpt lat="45.89668" lon="4.72">
        <ele>181</ele>
        <time>2018-04-20T08:40:48Z</time>
      </trkpt>
      <trkpt lat="45.89669" lon="4.72006">
        <ele>181</ele>
        <time>2018-04-20T08:40:49Z</time>
      </trkpt>
      <trkpt lat="45.8967" lon="4.72018">
        <ele>181</ele>
        <time>2018-04-20T08:40:51Z</time>
      </trkpt>
      <trkpt lat="45.89669" lon="4.72025">
        <ele>181</ele>
        <time>2018-04-20T08:40:52Z</time>
      </trkpt>
      <trkpt lat="45.8967" lon="4.72037">
        <ele>181</ele>
        <time>2018-04-20T08:40:54Z</time>
      </trkpt>
      <trkpt lat="45.89669" lon="4.72042">
        <ele>180</ele>
        <time>2018-04-20T08:40:55Z</time>
      </trkpt>
      <trkpt lat="45.89669" lon="4.72054">
        <ele>180</ele>
        <time>2018-04-20T08:40:57Z</time>
      </trkpt>
      <trkpt lat="45.89669" lon="4.7206">
        <ele>180</ele>
        <time>2018-04-20T08:40:58Z</time>
      </trkpt>
      <trkpt lat="45.89669" lon="4.72066">
        <ele>180</ele>
        <time>2018-04-20T08:40:59Z</time>
      </trkpt>
      <trkpt lat="45.89668" lon="4.72076">
        <ele>180</ele>
        <time>2018-04-20T08:41:00Z</time>
      </trkpt>
      <trkpt lat="45.89668" lon="4.72084">
        <ele>180</ele>
        <time>2018-04-20T08:41:01Z</time>
      </trkpt>
      <trkpt lat="45.89667" lon="4.7209">
        <ele>180</ele>
        <time>2018-04-20T08:41:02Z</time>
      </trkpt>
      <trkpt lat="45.89667" lon="4.72102">
        <ele>180</ele>
        <time>2018-04-20T08:41:04Z</time>
      </trkpt>
      <trkpt lat="45.89666" lon="4.72111">
        <ele>179</ele>
        <time>2018-04-20T08:41:05Z</time>
      </trkpt>
      <trkpt lat="45.89666" lon="4.72117">
        <ele>179</ele>
        <time>2018-04-20T08:41:06Z</time>
      </trkpt>
      <trkpt lat="45.89666" lon="4.72124">
        <ele>179</ele>
        <time>2018-04-20T08:41:07Z</time>
      </trkpt>
      <trkpt lat="45.89665" lon="4.72135">
        <ele>179</ele>
        <time>2018-04-20T08:41:09Z</time>
      </trkpt>
      <trkpt lat="45.89665" lon="4.7214">
        <ele>179</ele>
        <time>2018-04-20T08:41:10Z</time>
      </trkpt>
      <trkpt lat="45.89666" lon="4.72148">
        <ele>179</ele>
        <time>2018-04-20T08:41:11Z</time>
      </trkpt>
      <trkpt lat="45.89666" lon="4.72155">
        <ele>179</ele>
        <time>2018-04-20T08:41:12Z</time>
      </trkpt>
      <trkpt lat="45.89666" lon="4.72163">
        <ele>179</ele>
        <time>2018-04-20T08:41:13Z</time>
      </trkpt>
      <trkpt lat="45.89666" lon="4.7217">
        <ele>179</ele>
        <time>2018-04-20T08:41:14Z</time>
      </trkpt>
      <trkpt lat="45.89664" lon="4.72177">
        <ele>179</ele>
        <time>2018-04-20T08:41:15Z</time>
      </trkpt>
      <trkpt lat="45.89664" lon="4.72184">
        <ele>179</ele>
        <time>2018-04-20T08:41:16Z</time>
      </trkpt>
      <trkpt lat="45.89663" lon="4.72194">
        <ele>179</ele>
        <time>2018-04-20T08:41:18Z</time>
      </trkpt>
      <trkpt lat="45.89663" lon="4.722">
        <ele>179</ele>
        <time>2018-04-20T08:41:19Z</time>
      </trkpt>
      <trkpt lat="45.89663" lon="4.72212">
        <ele>179</ele>
        <time>2018-04-20T08:41:21Z</time>
      </trkpt>
      <trkpt lat="45.89663" lon="4.72218">
        <ele>179</ele>
        <time>2018-04-20T08:41:22Z</time>
      </trkpt>
      <trkpt lat="45.89663" lon="4.72231">
        <ele>179</ele>
        <time>2018-04-20T08:41:24Z</time>
      </trkpt>
      <trkpt lat="45.89662" lon="4.72238">
        <ele>179</ele>
        <time>2018-04-20T08:41:25Z</time>
      </trkpt>
      <trkpt lat="45.89662" lon="4.7225">
        <ele>179</ele>
        <time>2018-04-20T08:41:27Z</time>
      </trkpt>
      <trkpt lat="45.89662" lon="4.72256">
        <ele>179</ele>
        <time>2018-04-20T08:41:28Z</time>
      </trkpt>
      <trkpt lat="45.89661" lon="4.72265">
        <ele>179</ele>
        <time>2018-04-20T08:41:31Z</time>
      </trkpt>
      <trkpt lat="45.8966" lon="4.72276">
        <ele>179</ele>
        <time>2018-04-20T08:41:32Z</time>
      </trkpt>
      <trkpt lat="45.89654" lon="4.72284">
        <ele>179</ele>
        <time>2018-04-20T08:41:35Z</time>
      </trkpt>
      <trkpt lat="45.89648" lon="4.72285">
        <ele>179</ele>
        <time>2018-04-20T08:41:36Z</time>
      </trkpt>
      <trkpt lat="45.89643" lon="4.72285">
        <ele>179</ele>
        <time>2018-04-20T08:41:37Z</time>
      </trkpt>
      <trkpt lat="45.89638" lon="4.72284">
        <ele>179</ele>
        <time>2018-04-20T08:41:38Z</time>
      </trkpt>
      <trkpt lat="45.89633" lon="4.72284">
        <ele>179</ele>
        <time>2018-04-20T08:41:39Z</time>
      </trkpt>
      <trkpt lat="45.89626" lon="4.7228">
        <ele>179</ele>
        <time>2018-04-20T08:41:40Z</time>
      </trkpt>
      <trkpt lat="45.89622" lon="4.72281">
        <ele>179</ele>
        <time>2018-04-20T08:41:41Z</time>
      </trkpt>
      <trkpt lat="45.89617" lon="4.7228">
        <ele>179</ele>
        <time>2018-04-20T08:41:42Z</time>
      </trkpt>
      <trkpt lat="45.89609" lon="4.72279">
        <ele>179</ele>
        <time>2018-04-20T08:41:44Z</time>
      </trkpt>
      <trkpt lat="45.89605" lon="4.72279">
        <ele>179</ele>
        <time>2018-04-20T08:41:45Z</time>
      </trkpt>
      <trkpt lat="45.896" lon="4.72279">
        <ele>179</ele>
        <time>2018-04-20T08:41:46Z</time>
      </trkpt>
      <trkpt lat="45.89596" lon="4.72279">
        <ele>179</ele>
        <time>2018-04-20T08:41:47Z</time>
      </trkpt>
      <trkpt lat="45.89591" lon="4.72278">
        <ele>179</ele>
        <time>2018-04-20T08:41:48Z</time>
      </trkpt>
      <trkpt lat="45.89585" lon="4.72277">
        <ele>179</ele>
        <time>2018-04-20T08:41:49Z</time>
      </trkpt>
      <trkpt lat="45.89577" lon="4.72277">
        <ele>179</ele>
        <time>2018-04-20T08:41:51Z</time>
      </trkpt>
      <trkpt lat="45.89572" lon="4.72276">
        <ele>179</ele>
        <time>2018-04-20T08:41:52Z</time>
      </trkpt>
      <trkpt lat="45.89567" lon="4.72277">
        <ele>179</ele>
        <time>2018-04-20T08:41:53Z</time>
      </trkpt>
      <trkpt lat="45.89563" lon="4.72277">
        <ele>179</ele>
        <time>2018-04-20T08:41:54Z</time>
      </trkpt>
      <trkpt lat="45.89555" lon="4.72276">
        <ele>179</ele>
        <time>2018-04-20T08:41:56Z</time>
      </trkpt>
      <trkpt lat="45.89551" lon="4.72278">
        <ele>179</ele>
        <time>2018-04-20T08:41:57Z</time>
      </trkpt>
      <trkpt lat="45.89543" lon="4.72278">
        <ele>179</ele>
        <time>2018-04-20T08:41:59Z</time>
      </trkpt>
      <trkpt lat="45.89539" lon="4.72277">
        <ele>179</ele>
        <time>2018-04-20T08:42:00Z</time>
      </trkpt>
      <trkpt lat="45.89532" lon="4.72278">
        <ele>179</ele>
        <time>2018-04-20T08:42:02Z</time>
      </trkpt>
      <trkpt lat="45.89528" lon="4.72278">
        <ele>179</ele>
        <time>2018-04-20T08:42:03Z</time>
      </trkpt>
      <trkpt lat="45.8952" lon="4.72278">
        <ele>179</ele>
        <time>2018-04-20T08:42:05Z</time>
      </trkpt>
      <trkpt lat="45.89516" lon="4.72278">
        <ele>179</ele>
        <time>2018-04-20T08:42:06Z</time>
      </trkpt>
      <trkpt lat="45.8951" lon="4.72279">
        <ele>179</ele>
        <time>2018-04-20T08:42:08Z</time>
      </trkpt>
      <trkpt lat="45.89504" lon="4.72279">
        <ele>179</ele>
        <time>2018-04-20T08:42:09Z</time>
      </trkpt>
      <trkpt lat="45.89495" lon="4.72279">
        <ele>179</ele>
        <time>2018-04-20T08:42:11Z</time>
      </trkpt>
      <trkpt lat="45.89491" lon="4.72279">
        <ele>179</ele>
        <time>2018-04-20T08:42:12Z</time>
      </trkpt>
      <trkpt lat="45.89484" lon="4.72282">
        <ele>179</ele>
        <time>2018-04-20T08:42:14Z</time>
      </trkpt>
      <trkpt lat="45.8948" lon="4.72283">
        <ele>179</ele>
        <time>2018-04-20T08:42:15Z</time>
      </trkpt>
      <trkpt lat="45.89475" lon="4.72286">
        <ele>179</ele>
        <time>2018-04-20T08:42:16Z</time>
      </trkpt>
      <trkpt lat="45.8947" lon="4.72288">
        <ele>179</ele>
        <time>2018-04-20T08:42:17Z</time>
      </trkpt>
      <trkpt lat="45.89464" lon="4.72294">
        <ele>179</ele>
        <time>2018-04-20T08:42:19Z</time>
      </trkpt>
      <trkpt lat="45.89461" lon="4.72295">
        <ele>179</ele>
        <time>2018-04-20T08:42:20Z</time>
      </trkpt>
      <trkpt lat="45.89452" lon="4.72294">
        <ele>179</ele>
        <time>2018-04-20T08:42:22Z</time>
      </trkpt>
      <trkpt lat="45.89448" lon="4.72295">
        <ele>179</ele>
        <time>2018-04-20T08:42:23Z</time>
      </trkpt>
      <trkpt lat="45.8944" lon="4.72296">
        <ele>179</ele>
        <time>2018-04-20T08:42:25Z</time>
      </trkpt>
      <trkpt lat="45.89436" lon="4.72296">
        <ele>180</ele>
        <time>2018-04-20T08:42:26Z</time>
      </trkpt>
      <trkpt lat="45.89427" lon="4.72298">
        <ele>180</ele>
        <time>2018-04-20T08:42:28Z</time>
      </trkpt>
      <trkpt lat="45.89423" lon="4.72299">
        <ele>180</ele>
        <time>2018-04-20T08:42:29Z</time>
      </trkpt>
      <trkpt lat="45.89416" lon="4.723">
        <ele>180</ele>
        <time>2018-04-20T08:42:31Z</time>
      </trkpt>
      <trkpt lat="45.89411" lon="4.72301">
        <ele>180</ele>
        <time>2018-04-20T08:42:32Z</time>
      </trkpt>
      <trkpt lat="45.89403" lon="4.72301">
        <ele>180</ele>
        <time>2018-04-20T08:42:34Z</time>
      </trkpt>
      <trkpt lat="45.89399" lon="4.72301">
        <ele>180</ele>
        <time>2018-04-20T08:42:35Z</time>
      </trkpt>
      <trkpt lat="45.89393" lon="4.72302">
        <ele>181</ele>
        <time>2018-04-20T08:42:37Z</time>
      </trkpt>
      <trkpt lat="45.89387" lon="4.72303">
        <ele>181</ele>
        <time>2018-04-20T08:42:38Z</time>
      </trkpt>
      <trkpt lat="45.89382" lon="4.72305">
        <ele>181</ele>
        <time>2018-04-20T08:42:39Z</time>
      </trkpt>
      <trkpt lat="45.89378" lon="4.72307">
        <ele>181</ele>
        <time>2018-04-20T08:42:40Z</time>
      </trkpt>
      <trkpt lat="45.89373" lon="4.72308">
        <ele>181</ele>
        <time>2018-04-20T08:42:41Z</time>
      </trkpt>
      <trkpt lat="45.89369" lon="4.7231">
        <ele>181</ele>
        <time>2018-04-20T08:42:42Z</time>
      </trkpt>
      <trkpt lat="45.89364" lon="4.72312">
        <ele>181</ele>
        <time>2018-04-20T08:42:43Z</time>
      </trkpt>
      <trkpt lat="45.89359" lon="4.72312">
        <ele>181</ele>
        <time>2018-04-20T08:42:44Z</time>
      </trkpt>
      <trkpt lat="45.89351" lon="4.72313">
        <ele>181</ele>
        <time>2018-04-20T08:42:46Z</time>
      </trkpt>
      <trkpt lat="45.89347" lon="4.72314">
        <ele>181</ele>
        <time>2018-04-20T08:42:47Z</time>
      </trkpt>
      <trkpt lat="45.89339" lon="4.72314">
        <ele>181</ele>
        <time>2018-04-20T08:42:49Z</time>
      </trkpt>
      <trkpt lat="45.89335" lon="4.72314">
        <ele>181</ele>
        <time>2018-04-20T08:42:50Z</time>
      </trkpt>
      <trkpt lat="45.89326" lon="4.72315">
        <ele>181</ele>
        <time>2018-04-20T08:42:52Z</time>
      </trkpt>
      <trkpt lat="45.89322" lon="4.72315">
        <ele>181</ele>
        <time>2018-04-20T08:42:53Z</time>
      </trkpt>
      <trkpt lat="45.89313" lon="4.72315">
        <ele>181</ele>
        <time>2018-04-20T08:42:55Z</time>
      </trkpt>
      <trkpt lat="45.89308" lon="4.72316">
        <ele>181</ele>
        <time>2018-04-20T08:42:56Z</time>
      </trkpt>
      <trkpt lat="45.89301" lon="4.72315">
        <ele>181</ele>
        <time>2018-04-20T08:42:58Z</time>
      </trkpt>
      <trkpt lat="45.89297" lon="4.72314">
        <ele>181</ele>
        <time>2018-04-20T08:42:59Z</time>
      </trkpt>
      <trkpt lat="45.89288" lon="4.72311">
        <ele>181</ele>
        <time>2018-04-20T08:43:01Z</time>
      </trkpt>
      <trkpt lat="45.89284" lon="4.7231">
        <ele>181</ele>
        <time>2018-04-20T08:43:02Z</time>
      </trkpt>
      <trkpt lat="45.89279" lon="4.72307">
        <ele>181</ele>
        <time>2018-04-20T08:43:03Z</time>
      </trkpt>
      <trkpt lat="45.89274" lon="4.72305">
        <ele>181</ele>
        <time>2018-04-20T08:43:04Z</time>
      </trkpt>
      <trkpt lat="45.89267" lon="4.72303">
        <ele>181</ele>
        <time>2018-04-20T08:43:06Z</time>
      </trkpt>
      <trkpt lat="45.89263" lon="4.72302">
        <ele>181</ele>
        <time>2018-04-20T08:43:07Z</time>
      </trkpt>
      <trkpt lat="45.89255" lon="4.72298">
        <ele>181</ele>
        <time>2018-04-20T08:43:09Z</time>
      </trkpt>
      <trkpt lat="45.89251" lon="4.72295">
        <ele>181</ele>
        <time>2018-04-20T08:43:10Z</time>
      </trkpt>
      <trkpt lat="45.89244" lon="4.7229">
        <ele>181</ele>
        <time>2018-04-20T08:43:12Z</time>
      </trkpt>
      <trkpt lat="45.8924" lon="4.72288">
        <ele>181</ele>
        <time>2018-04-20T08:43:13Z</time>
      </trkpt>
      <trkpt lat="45.89233" lon="4.72284">
        <ele>181</ele>
        <time>2018-04-20T08:43:15Z</time>
      </trkpt>
      <trkpt lat="45.8923" lon="4.72283">
        <ele>181</ele>
        <time>2018-04-20T08:43:16Z</time>
      </trkpt>
      <trkpt lat="45.89221" lon="4.72279">
        <ele>181</ele>
        <time>2018-04-20T08:43:19Z</time>
      </trkpt>
      <trkpt lat="45.89216" lon="4.72277">
        <ele>181</ele>
        <time>2018-04-20T08:43:20Z</time>
      </trkpt>
      <trkpt lat="45.8921" lon="4.72273">
        <ele>181</ele>
        <time>2018-04-20T08:43:22Z</time>
      </trkpt>
      <trkpt lat="45.89208" lon="4.72272">
        <ele>181</ele>
        <time>2018-04-20T08:43:23Z</time>
      </trkpt>
      <trkpt lat="45.89203" lon="4.72269">
        <ele>181</ele>
        <time>2018-04-20T08:43:24Z</time>
      </trkpt>
      <trkpt lat="45.89199" lon="4.72267">
        <ele>181</ele>
        <time>2018-04-20T08:43:25Z</time>
      </trkpt>
      <trkpt lat="45.89191" lon="4.72263">
        <ele>181</ele>
        <time>2018-04-20T08:43:27Z</time>
      </trkpt>
      <trkpt lat="45.89187" lon="4.72258">
        <ele>180</ele>
        <time>2018-04-20T08:43:28Z</time>
      </trkpt>
      <trkpt lat="45.89179" lon="4.72254">
        <ele>180</ele>
        <time>2018-04-20T08:43:30Z</time>
      </trkpt>
      <trkpt lat="45.89177" lon="4.72254">
        <ele>180</ele>
        <time>2018-04-20T08:43:31Z</time>
      </trkpt>
      <trkpt lat="45.89169" lon="4.7225">
        <ele>180</ele>
        <time>2018-04-20T08:43:33Z</time>
      </trkpt>
      <trkpt lat="45.89163" lon="4.72249">
        <ele>180</ele>
        <time>2018-04-20T08:43:34Z</time>
      </trkpt>
      <trkpt lat="45.89157" lon="4.72244">
        <ele>180</ele>
        <time>2018-04-20T08:43:37Z</time>
      </trkpt>
      <trkpt lat="45.89154" lon="4.72243">
        <ele>180</ele>
        <time>2018-04-20T08:43:38Z</time>
      </trkpt>
      <trkpt lat="45.89148" lon="4.7224">
        <ele>180</ele>
        <time>2018-04-20T08:43:39Z</time>
      </trkpt>
      <trkpt lat="45.89143" lon="4.72239">
        <ele>180</ele>
        <time>2018-04-20T08:43:40Z</time>
      </trkpt>
      <trkpt lat="45.89136" lon="4.72235">
        <ele>180</ele>
        <time>2018-04-20T08:43:43Z</time>
      </trkpt>
      <trkpt lat="45.8913" lon="4.72231">
        <ele>180</ele>
        <time>2018-04-20T08:43:44Z</time>
      </trkpt>
      <trkpt lat="45.89125" lon="4.72227">
        <ele>180</ele>
        <time>2018-04-20T08:43:47Z</time>
      </trkpt>
      <trkpt lat="45.89121" lon="4.7222">
        <ele>180</ele>
        <time>2018-04-20T08:43:48Z</time>
      </trkpt>
      <trkpt lat="45.89118" lon="4.72208">
        <ele>180</ele>
        <time>2018-04-20T08:43:52Z</time>
      </trkpt>
      <trkpt lat="45.89116" lon="4.72208">
        <ele>180</ele>
        <time>2018-04-20T08:43:53Z</time>
      </trkpt>
      <trkpt lat="45.89108" lon="4.72203">
        <ele>180</ele>
        <time>2018-04-20T08:43:56Z</time>
      </trkpt>
      <trkpt lat="45.89106" lon="4.72202">
        <ele>180</ele>
        <time>2018-04-20T08:43:57Z</time>
      </trkpt>
      <trkpt lat="45.891" lon="4.72194">
        <ele>180</ele>
        <time>2018-04-20T08:43:58Z</time>
      </trkpt>
      <trkpt lat="45.89094" lon="4.72192">
        <ele>180</ele>
        <time>2018-04-20T08:43:59Z</time>
      </trkpt>
      <trkpt lat="45.89086" lon="4.72187">
        <ele>180</ele>
        <time>2018-04-20T08:44:03Z</time>
      </trkpt>
      <trkpt lat="45.89084" lon="4.72186">
        <ele>180</ele>
        <time>2018-04-20T08:44:04Z</time>
      </trkpt>
      <trkpt lat="45.89076" lon="4.72181">
        <ele>180</ele>
        <time>2018-04-20T08:44:07Z</time>
      </trkpt>
      <trkpt lat="45.89073" lon="4.72179">
        <ele>180</ele>
        <time>2018-04-20T08:44:08Z</time>
      </trkpt>
      <trkpt lat="45.89067" lon="4.72175">
        <ele>180</ele>
        <time>2018-04-20T08:44:10Z</time>
      </trkpt>
      <trkpt lat="45.89064" lon="4.72173">
        <ele>180</ele>
        <time>2018-04-20T08:44:11Z</time>
      </trkpt>
      <trkpt lat="45.89053" lon="4.72168">
        <ele>180</ele>
        <time>2018-04-20T08:44:12Z</time>
      </trkpt>
      <trkpt lat="45.89037" lon="4.72166">
        <ele>180</ele>
        <time>2018-04-20T08:44:13Z</time>
      </trkpt>
      <trkpt lat="45.89032" lon="4.72162">
        <ele>180</ele>
        <time>2018-04-20T08:44:14Z</time>
      </trkpt>
      <trkpt lat="45.89023" lon="4.72161">
        <ele>180</ele>
        <time>2018-04-20T08:44:15Z</time>
      </trkpt>
      <trkpt lat="45.89016" lon="4.72158">
        <ele>180</ele>
        <time>2018-04-20T08:44:16Z</time>
      </trkpt>
      <trkpt lat="45.89012" lon="4.72157">
        <ele>180</ele>
        <time>2018-04-20T08:44:17Z</time>
      </trkpt>
      <trkpt lat="45.89006" lon="4.72154">
        <ele>180</ele>
        <time>2018-04-20T08:44:18Z</time>
      </trkpt>
      <trkpt lat="45.89" lon="4.72152">
        <ele>180</ele>
        <time>2018-04-20T08:44:19Z</time>
      </trkpt>
      <trkpt lat="45.88994" lon="4.7215">
        <ele>180</ele>
        <time>2018-04-20T08:44:21Z</time>
      </trkpt>
      <trkpt lat="45.88988" lon="4.72147">
        <ele>180</ele>
        <time>2018-04-20T08:44:22Z</time>
      </trkpt>
      <trkpt lat="45.88981" lon="4.72145">
        <ele>180</ele>
        <time>2018-04-20T08:44:24Z</time>
      </trkpt>
      <trkpt lat="45.88977" lon="4.72144">
        <ele>180</ele>
        <time>2018-04-20T08:44:25Z</time>
      </trkpt>
      <trkpt lat="45.8897" lon="4.72142">
        <ele>180</ele>
        <time>2018-04-20T08:44:27Z</time>
      </trkpt>
      <trkpt lat="45.88966" lon="4.72142">
        <ele>180</ele>
        <time>2018-04-20T08:44:28Z</time>
      </trkpt>
      <trkpt lat="45.88962" lon="4.72141">
        <ele>180</ele>
        <time>2018-04-20T08:44:30Z</time>
      </trkpt>
      <trkpt lat="45.88951" lon="4.7214">
        <ele>181</ele>
        <time>2018-04-20T08:44:31Z</time>
      </trkpt>
      <trkpt lat="45.88943" lon="4.72136">
        <ele>181</ele>
        <time>2018-04-20T08:44:33Z</time>
      </trkpt>
      <trkpt lat="45.88938" lon="4.72135">
        <ele>181</ele>
        <time>2018-04-20T08:44:34Z</time>
      </trkpt>
      <trkpt lat="45.88933" lon="4.72133">
        <ele>181</ele>
        <time>2018-04-20T08:44:35Z</time>
      </trkpt>
      <trkpt lat="45.88929" lon="4.72133">
        <ele>181</ele>
        <time>2018-04-20T08:44:36Z</time>
      </trkpt>
      <trkpt lat="45.88923" lon="4.7213">
        <ele>181</ele>
        <time>2018-04-20T08:44:38Z</time>
      </trkpt>
      <trkpt lat="45.88917" lon="4.72128">
        <ele>181</ele>
        <time>2018-04-20T08:44:39Z</time>
      </trkpt>
      <trkpt lat="45.88912" lon="4.72124">
        <ele>181</ele>
        <time>2018-04-20T08:44:41Z</time>
      </trkpt>
      <trkpt lat="45.88907" lon="4.72123">
        <ele>181</ele>
        <time>2018-04-20T08:44:42Z</time>
      </trkpt>
      <trkpt lat="45.889" lon="4.7212">
        <ele>181</ele>
        <time>2018-04-20T08:44:45Z</time>
      </trkpt>
      <trkpt lat="45.88898" lon="4.72119">
        <ele>181</ele>
        <time>2018-04-20T08:44:46Z</time>
      </trkpt>
      <trkpt lat="45.88889" lon="4.72115">
        <ele>181</ele>
        <time>2018-04-20T08:44:48Z</time>
      </trkpt>
      <trkpt lat="45.88885" lon="4.72114">
        <ele>181</ele>
        <time>2018-04-20T08:44:49Z</time>
      </trkpt>
      <trkpt lat="45.88877" lon="4.72111">
        <ele>181</ele>
        <time>2018-04-20T08:44:52Z</time>
      </trkpt>
      <trkpt lat="45.88875" lon="4.7211">
        <ele>181</ele>
        <time>2018-04-20T08:44:53Z</time>
      </trkpt>
      <trkpt lat="45.88868" lon="4.72108">
        <ele>181</ele>
        <time>2018-04-20T08:44:56Z</time>
      </trkpt>
      <trkpt lat="45.8886" lon="4.72105">
        <ele>181</ele>
        <time>2018-04-20T08:44:57Z</time>
      </trkpt>
      <trkpt lat="45.88853" lon="4.72101">
        <ele>181</ele>
        <time>2018-04-20T08:45:00Z</time>
      </trkpt>
      <trkpt lat="45.88851" lon="4.721">
        <ele>181</ele>
        <time>2018-04-20T08:45:01Z</time>
      </trkpt>
      <trkpt lat="45.88843" lon="4.72094">
        <ele>181</ele>
        <time>2018-04-20T08:45:08Z</time>
      </trkpt>
      <trkpt lat="45.88843" lon="4.72094">
        <ele>181</ele>
        <time>2018-04-20T08:45:09Z</time>
      </trkpt>
      <trkpt lat="45.88835" lon="4.72098">
        <ele>181</ele>
        <time>2018-04-20T08:46:22Z</time>
      </trkpt>
      <trkpt lat="45.88833" lon="4.72102">
        <ele>181</ele>
        <time>2018-04-20T08:46:23Z</time>
      </trkpt>
      <trkpt lat="45.88829" lon="4.72115">
        <ele>181</ele>
        <time>2018-04-20T08:46:24Z</time>
      </trkpt>
      <trkpt lat="45.88827" lon="4.72121">
        <ele>181</ele>
        <time>2018-04-20T08:46:25Z</time>
      </trkpt>
      <trkpt lat="45.88826" lon="4.72128">
        <ele>182</ele>
        <time>2018-04-20T08:46:26Z</time>
      </trkpt>
      <trkpt lat="45.88825" lon="4.7214">
        <ele>182</ele>
        <time>2018-04-20T08:46:28Z</time>
      </trkpt>
      <trkpt lat="45.88824" lon="4.72146">
        <ele>182</ele>
        <time>2018-04-20T08:46:29Z</time>
      </trkpt>
      <trkpt lat="45.88822" lon="4.72158">
        <ele>182</ele>
        <time>2018-04-20T08:46:31Z</time>
      </trkpt>
      <trkpt lat="45.88821" lon="4.72165">
        <ele>182</ele>
        <time>2018-04-20T08:46:32Z</time>
      </trkpt>
      <trkpt lat="45.8882" lon="4.72171">
        <ele>182</ele>
        <time>2018-04-20T08:46:33Z</time>
      </trkpt>
      <trkpt lat="45.88817" lon="4.7218">
        <ele>182</ele>
        <time>2018-04-20T08:46:34Z</time>
      </trkpt>
      <trkpt lat="45.88814" lon="4.72189">
        <ele>182</ele>
        <time>2018-04-20T08:46:35Z</time>
      </trkpt>
      <trkpt lat="45.88813" lon="4.72195">
        <ele>182</ele>
        <time>2018-04-20T08:46:36Z</time>
      </trkpt>
      <trkpt lat="45.88813" lon="4.72198">
        <ele>182</ele>
        <time>2018-04-20T08:46:37Z</time>
      </trkpt>
      <trkpt lat="45.88811" lon="4.72208">
        <ele>182</ele>
        <time>2018-04-20T08:46:38Z</time>
      </trkpt>
      <trkpt lat="45.8881" lon="4.72214">
        <ele>182</ele>
        <time>2018-04-20T08:46:39Z</time>
      </trkpt>
      <trkpt lat="45.88808" lon="4.72222">
        <ele>182</ele>
        <time>2018-04-20T08:46:40Z</time>
      </trkpt>
      <trkpt lat="45.88807" lon="4.72229">
        <ele>182</ele>
        <time>2018-04-20T08:46:41Z</time>
      </trkpt>
      <trkpt lat="45.88806" lon="4.72236">
        <ele>182</ele>
        <time>2018-04-20T08:46:42Z</time>
      </trkpt>
      <trkpt lat="45.88804" lon="4.72247">
        <ele>182</ele>
        <time>2018-04-20T08:46:44Z</time>
      </trkpt>
      <trkpt lat="45.88803" lon="4.72253">
        <ele>182</ele>
        <time>2018-04-20T08:46:45Z</time>
      </trkpt>
      <trkpt lat="45.88801" lon="4.72264">
        <ele>182</ele>
        <time>2018-04-20T08:46:47Z</time>
      </trkpt>
      <trkpt lat="45.88802" lon="4.72272">
        <ele>182</ele>
        <time>2018-04-20T08:46:48Z</time>
      </trkpt>
      <trkpt lat="45.888" lon="4.72284">
        <ele>182</ele>
        <time>2018-04-20T08:46:50Z</time>
      </trkpt>
      <trkpt lat="45.888" lon="4.72291">
        <ele>182</ele>
        <time>2018-04-20T08:46:51Z</time>
      </trkpt>
      <trkpt lat="45.88797" lon="4.72299">
        <ele>182</ele>
        <time>2018-04-20T08:46:52Z</time>
      </trkpt>
      <trkpt lat="45.88794" lon="4.72305">
        <ele>182</ele>
        <time>2018-04-20T08:46:53Z</time>
      </trkpt>
      <trkpt lat="45.88791" lon="4.72312">
        <ele>182</ele>
        <time>2018-04-20T08:46:54Z</time>
      </trkpt>
      <trkpt lat="45.88789" lon="4.72319">
        <ele>182</ele>
        <time>2018-04-20T08:46:55Z</time>
      </trkpt>
      <trkpt lat="45.88786" lon="4.72326">
        <ele>182</ele>
        <time>2018-04-20T08:46:56Z</time>
      </trkpt>
      <trkpt lat="45.88783" lon="4.72332">
        <ele>182</ele>
        <time>2018-04-20T08:46:57Z</time>
      </trkpt>
      <trkpt lat="45.8878" lon="4.72337">
        <ele>182</ele>
        <time>2018-04-20T08:46:58Z</time>
      </trkpt>
      <trkpt lat="45.88777" lon="4.72344">
        <ele>182</ele>
        <time>2018-04-20T08:46:59Z</time>
      </trkpt>
      <trkpt lat="45.88775" lon="4.7235">
        <ele>182</ele>
        <time>2018-04-20T08:47:00Z</time>
      </trkpt>
      <trkpt lat="45.88772" lon="4.72355">
        <ele>182</ele>
        <time>2018-04-20T08:47:01Z</time>
      </trkpt>
      <trkpt lat="45.8877" lon="4.72361">
        <ele>182</ele>
        <time>2018-04-20T08:47:02Z</time>
      </trkpt>
      <trkpt lat="45.88768" lon="4.72367">
        <ele>182</ele>
        <time>2018-04-20T08:47:03Z</time>
      </trkpt>
      <trkpt lat="45.88765" lon="4.72372">
        <ele>182</ele>
        <time>2018-04-20T08:47:04Z</time>
      </trkpt>
      <trkpt lat="45.88763" lon="4.72379">
        <ele>182</ele>
        <time>2018-04-20T08:47:05Z</time>
      </trkpt>
      <trkpt lat="45.88759" lon="4.72389">
        <ele>182</ele>
        <time>2018-04-20T08:47:07Z</time>
      </trkpt>
      <trkpt lat="45.88756" lon="4.72393">
        <ele>182</ele>
        <time>2018-04-20T08:47:08Z</time>
      </trkpt>
      <trkpt lat="45.88751" lon="4.72402">
        <ele>182</ele>
        <time>2018-04-20T08:47:10Z</time>
      </trkpt>
      <trkpt lat="45.88748" lon="4.72407">
        <ele>182</ele>
        <time>2018-04-20T08:47:11Z</time>
      </trkpt>
      <trkpt lat="45.88743" lon="4.72416">
        <ele>182</ele>
        <time>2018-04-20T08:47:13Z</time>
      </trkpt>
      <trkpt lat="45.8874" lon="4.72422">
        <ele>182</ele>
        <time>2018-04-20T08:47:14Z</time>
      </trkpt>
      <trkpt lat="45.88737" lon="4.72428">
        <ele>182</ele>
        <time>2018-04-20T08:47:15Z</time>
      </trkpt>
      <trkpt lat="45.88737" lon="4.7244">
        <ele>182</ele>
        <time>2018-04-20T08:47:16Z</time>
      </trkpt>
      <trkpt lat="45.88736" lon="4.72445">
        <ele>182</ele>
        <time>2018-04-20T08:47:17Z</time>
      </trkpt>
      <trkpt lat="45.88731" lon="4.72451">
        <ele>182</ele>
        <time>2018-04-20T08:47:18Z</time>
      </trkpt>
      <trkpt lat="45.88727" lon="4.72462">
        <ele>182</ele>
        <time>2018-04-20T08:47:20Z</time>
      </trkpt>
      <trkpt lat="45.88725" lon="4.72468">
        <ele>182</ele>
        <time>2018-04-20T08:47:21Z</time>
      </trkpt>
      <trkpt lat="45.88724" lon="4.72474">
        <ele>182</ele>
        <time>2018-04-20T08:47:22Z</time>
      </trkpt>
      <trkpt lat="45.88721" lon="4.72479">
        <ele>182</ele>
        <time>2018-04-20T08:47:23Z</time>
      </trkpt>
      <trkpt lat="45.88721" lon="4.72489">
        <ele>182</ele>
        <time>2018-04-20T08:47:24Z</time>
      </trkpt>
      <trkpt lat="45.88723" lon="4.72496">
        <ele>182</ele>
        <time>2018-04-20T08:47:25Z</time>
      </trkpt>
      <trkpt lat="45.88723" lon="4.72503">
        <ele>183</ele>
        <time>2018-04-20T08:47:26Z</time>
      </trkpt>
      <trkpt lat="45.88724" lon="4.7251">
        <ele>183</ele>
        <time>2018-04-20T08:47:27Z</time>
      </trkpt>
      <trkpt lat="45.88726" lon="4.72521">
        <ele>183</ele>
        <time>2018-04-20T08:47:29Z</time>
      </trkpt>
      <trkpt lat="45.88727" lon="4.72527">
        <ele>183</ele>
        <time>2018-04-20T08:47:30Z</time>
      </trkpt>
      <trkpt lat="45.8873" lon="4.72538">
        <ele>183</ele>
        <time>2018-04-20T08:47:32Z</time>
      </trkpt>
      <trkpt lat="45.88731" lon="4.72542">
        <ele>183</ele>
        <time>2018-04-20T08:47:33Z</time>
      </trkpt>
      <trkpt lat="45.88734" lon="4.72554">
        <ele>183</ele>
        <time>2018-04-20T08:47:35Z</time>
      </trkpt>
      <trkpt lat="45.88736" lon="4.72558">
        <ele>183</ele>
        <time>2018-04-20T08:47:36Z</time>
      </trkpt>
      <trkpt lat="45.88737" lon="4.72569">
        <ele>183</ele>
        <time>2018-04-20T08:47:38Z</time>
      </trkpt>
      <trkpt lat="45.88738" lon="4.72577">
        <ele>184</ele>
        <time>2018-04-20T08:47:39Z</time>
      </trkpt>
      <trkpt lat="45.88738" lon="4.72582">
        <ele>184</ele>
        <time>2018-04-20T08:47:40Z</time>
      </trkpt>
      <trkpt lat="45.88739" lon="4.72591">
        <ele>184</ele>
        <time>2018-04-20T08:47:41Z</time>
      </trkpt>
      <trkpt lat="45.8874" lon="4.72599">
        <ele>184</ele>
        <time>2018-04-20T08:47:42Z</time>
      </trkpt>
      <trkpt lat="45.88739" lon="4.72605">
        <ele>183</ele>
        <time>2018-04-20T08:47:43Z</time>
      </trkpt>
      <trkpt lat="45.88741" lon="4.72614">
        <ele>183</ele>
        <time>2018-04-20T08:47:44Z</time>
      </trkpt>
      <trkpt lat="45.88742" lon="4.72623">
        <ele>183</ele>
        <time>2018-04-20T08:47:45Z</time>
      </trkpt>
      <trkpt lat="45.88744" lon="4.7263">
        <ele>183</ele>
        <time>2018-04-20T08:47:46Z</time>
      </trkpt>
      <trkpt lat="45.88744" lon="4.72637">
        <ele>183</ele>
        <time>2018-04-20T08:47:47Z</time>
      </trkpt>
      <trkpt lat="45.88746" lon="4.72644">
        <ele>183</ele>
        <time>2018-04-20T08:47:48Z</time>
      </trkpt>
      <trkpt lat="45.88747" lon="4.72651">
        <ele>183</ele>
        <time>2018-04-20T08:47:49Z</time>
      </trkpt>
      <trkpt lat="45.88748" lon="4.72658">
        <ele>182</ele>
        <time>2018-04-20T08:47:50Z</time>
      </trkpt>
      <trkpt lat="45.88748" lon="4.72664">
        <ele>182</ele>
        <time>2018-04-20T08:47:51Z</time>
      </trkpt>
      <trkpt lat="45.88748" lon="4.7267">
        <ele>182</ele>
        <time>2018-04-20T08:47:52Z</time>
      </trkpt>
      <trkpt lat="45.88747" lon="4.72678">
        <ele>182</ele>
        <time>2018-04-20T08:47:53Z</time>
      </trkpt>
      <trkpt lat="45.88747" lon="4.72685">
        <ele>183</ele>
        <time>2018-04-20T08:47:54Z</time>
      </trkpt>
      <trkpt lat="45.88746" lon="4.72694">
        <ele>183</ele>
        <time>2018-04-20T08:47:55Z</time>
      </trkpt>
      <trkpt lat="45.88748" lon="4.72702">
        <ele>183</ele>
        <time>2018-04-20T08:47:56Z</time>
      </trkpt>
      <trkpt lat="45.8875" lon="4.72709">
        <ele>183</ele>
        <time>2018-04-20T08:47:57Z</time>
      </trkpt>
      <trkpt lat="45.8875" lon="4.72717">
        <ele>183</ele>
        <time>2018-04-20T08:47:58Z</time>
      </trkpt>
      <trkpt lat="45.88751" lon="4.72724">
        <ele>183</ele>
        <time>2018-04-20T08:47:59Z</time>
      </trkpt>
      <trkpt lat="45.88752" lon="4.72731">
        <ele>183</ele>
        <time>2018-04-20T08:48:00Z</time>
      </trkpt>
      <trkpt lat="45.88751" lon="4.72742">
        <ele>183</ele>
        <time>2018-04-20T08:48:01Z</time>
      </trkpt>
      <trkpt lat="45.88755" lon="4.72751">
        <ele>183</ele>
        <time>2018-04-20T08:48:02Z</time>
      </trkpt>
      <trkpt lat="45.88756" lon="4.72756">
        <ele>183</ele>
        <time>2018-04-20T08:48:03Z</time>
      </trkpt>
      <trkpt lat="45.88757" lon="4.72766">
        <ele>183</ele>
        <time>2018-04-20T08:48:04Z</time>
      </trkpt>
      <trkpt lat="45.88757" lon="4.72773">
        <ele>184</ele>
        <time>2018-04-20T08:48:05Z</time>
      </trkpt>
      <trkpt lat="45.88757" lon="4.72782">
        <ele>184</ele>
        <time>2018-04-20T08:48:06Z</time>
      </trkpt>
      <trkpt lat="45.88757" lon="4.72791">
        <ele>184</ele>
        <time>2018-04-20T08:48:07Z</time>
      </trkpt>
      <trkpt lat="45.88756" lon="4.72798">
        <ele>184</ele>
        <time>2018-04-20T08:48:08Z</time>
      </trkpt>
      <trkpt lat="45.88757" lon="4.72804">
        <ele>184</ele>
        <time>2018-04-20T08:48:09Z</time>
      </trkpt>
      <trkpt lat="45.88756" lon="4.72813">
        <ele>185</ele>
        <time>2018-04-20T08:48:10Z</time>
      </trkpt>
      <trkpt lat="45.88757" lon="4.72818">
        <ele>185</ele>
        <time>2018-04-20T08:48:11Z</time>
      </trkpt>
      <trkpt lat="45.88758" lon="4.72824">
        <ele>185</ele>
        <time>2018-04-20T08:48:12Z</time>
      </trkpt>
      <trkpt lat="45.88758" lon="4.72831">
        <ele>185</ele>
        <time>2018-04-20T08:48:13Z</time>
      </trkpt>
      <trkpt lat="45.88756" lon="4.72839">
        <ele>186</ele>
        <time>2018-04-20T08:48:14Z</time>
      </trkpt>
      <trkpt lat="45.88756" lon="4.72846">
        <ele>186</ele>
        <time>2018-04-20T08:48:15Z</time>
      </trkpt>
      <trkpt lat="45.88759" lon="4.72854">
        <ele>185</ele>
        <time>2018-04-20T08:48:16Z</time>
      </trkpt>
      <trkpt lat="45.88758" lon="4.72863">
        <ele>185</ele>
        <time>2018-04-20T08:48:17Z</time>
      </trkpt>
      <trkpt lat="45.88758" lon="4.72869">
        <ele>185</ele>
        <time>2018-04-20T08:48:18Z</time>
      </trkpt>
      <trkpt lat="45.88758" lon="4.72877">
        <ele>185</ele>
        <time>2018-04-20T08:48:19Z</time>
      </trkpt>
      <trkpt lat="45.88762" lon="4.72883">
        <ele>185</ele>
        <time>2018-04-20T08:48:20Z</time>
      </trkpt>
      <trkpt lat="45.88763" lon="4.7289">
        <ele>185</ele>
        <time>2018-04-20T08:48:21Z</time>
      </trkpt>
      <trkpt lat="45.88762" lon="4.72901">
        <ele>186</ele>
        <time>2018-04-20T08:48:24Z</time>
      </trkpt>
      <trkpt lat="45.88763" lon="4.72913">
        <ele>186</ele>
        <time>2018-04-20T08:48:25Z</time>
      </trkpt>
      <trkpt lat="45.88764" lon="4.72921">
        <ele>185</ele>
        <time>2018-04-20T08:48:26Z</time>
      </trkpt>
      <trkpt lat="45.88764" lon="4.72929">
        <ele>185</ele>
        <time>2018-04-20T08:48:27Z</time>
      </trkpt>
      <trkpt lat="45.88763" lon="4.7294">
        <ele>185</ele>
        <time>2018-04-20T08:48:29Z</time>
      </trkpt>
      <trkpt lat="45.88765" lon="4.72949">
        <ele>185</ele>
        <time>2018-04-20T08:48:30Z</time>
      </trkpt>
      <trkpt lat="45.88767" lon="4.72961">
        <ele>185</ele>
        <time>2018-04-20T08:48:32Z</time>
      </trkpt>
      <trkpt lat="45.88768" lon="4.72969">
        <ele>185</ele>
        <time>2018-04-20T08:48:33Z</time>
      </trkpt>
      <trkpt lat="45.8877" lon="4.72978">
        <ele>185</ele>
        <time>2018-04-20T08:48:35Z</time>
      </trkpt>
      <trkpt lat="45.88769" lon="4.72984">
        <ele>185</ele>
        <time>2018-04-20T08:48:36Z</time>
      </trkpt>
      <trkpt lat="45.8877" lon="4.72994">
        <ele>185</ele>
        <time>2018-04-20T08:48:37Z</time>
      </trkpt>
      <trkpt lat="45.88771" lon="4.73002">
        <ele>184</ele>
        <time>2018-04-20T08:48:38Z</time>
      </trkpt>
      <trkpt lat="45.88769" lon="4.7301">
        <ele>184</ele>
        <time>2018-04-20T08:48:40Z</time>
      </trkpt>
      <trkpt lat="45.88768" lon="4.73016">
        <ele>184</ele>
        <time>2018-04-20T08:48:41Z</time>
      </trkpt>
      <trkpt lat="45.88769" lon="4.73025">
        <ele>184</ele>
        <time>2018-04-20T08:48:42Z</time>
      </trkpt>
      <trkpt lat="45.88769" lon="4.73029">
        <ele>184</ele>
        <time>2018-04-20T08:48:43Z</time>
      </trkpt>
      <trkpt lat="45.88772" lon="4.73041">
        <ele>184</ele>
        <time>2018-04-20T08:48:46Z</time>
      </trkpt>
      <trkpt lat="45.88773" lon="4.7305">
        <ele>184</ele>
        <time>2018-04-20T08:48:47Z</time>
      </trkpt>
      <trkpt lat="45.88772" lon="4.73061">
        <ele>184</ele>
        <time>2018-04-20T08:48:50Z</time>
      </trkpt>
      <trkpt lat="45.88772" lon="4.73064">
        <ele>184</ele>
        <time>2018-04-20T08:48:51Z</time>
      </trkpt>
      <trkpt lat="45.88772" lon="4.73067">
        <ele>184</ele>
        <time>2018-04-20T08:48:52Z</time>
      </trkpt>
      <trkpt lat="45.88772" lon="4.73079">
        <ele>184</ele>
        <time>2018-04-20T08:48:53Z</time>
      </trkpt>
      <trkpt lat="45.8877" lon="4.73089">
        <ele>183</ele>
        <time>2018-04-20T08:48:55Z</time>
      </trkpt>
      <trkpt lat="45.88769" lon="4.73095">
        <ele>183</ele>
        <time>2018-04-20T08:48:56Z</time>
      </trkpt>
      <trkpt lat="45.88772" lon="4.73105">
        <ele>183</ele>
        <time>2018-04-20T08:48:57Z</time>
      </trkpt>
      <trkpt lat="45.88775" lon="4.73111">
        <ele>182</ele>
        <time>2018-04-20T08:48:58Z</time>
      </trkpt>
      <trkpt lat="45.88782" lon="4.73116">
        <ele>182</ele>
        <time>2018-04-20T08:49:00Z</time>
      </trkpt>
      <trkpt lat="45.88784" lon="4.73117">
        <ele>182</ele>
        <time>2018-04-20T08:49:01Z</time>
      </trkpt>
      <trkpt lat="45.88792" lon="4.73118">
        <ele>182</ele>
        <time>2018-04-20T08:49:03Z</time>
      </trkpt>
      <trkpt lat="45.88794" lon="4.73117">
        <ele>182</ele>
        <time>2018-04-20T08:49:04Z</time>
      </trkpt>
      <trkpt lat="45.88797" lon="4.73116">
        <ele>182</ele>
        <time>2018-04-20T08:49:06Z</time>
      </trkpt>
      <trkpt lat="45.88798" lon="4.73116">
        <ele>182</ele>
        <time>2018-04-20T08:49:07Z</time>
      </trkpt>
      <trkpt lat="45.88804" lon="4.73113">
        <ele>182</ele>
        <time>2018-04-20T08:49:33Z</time>
      </trkpt>
      <trkpt lat="45.88804" lon="4.73113">
        <ele>182</ele>
        <time>2018-04-20T08:49:34Z</time>
      </trkpt>
      <trkpt lat="45.88812" lon="4.73115">
        <ele>182</ele>
        <time>2018-04-20T08:49:41Z</time>
      </trkpt>
      <trkpt lat="45.88813" lon="4.73116">
        <ele>182</ele>
        <time>2018-04-20T08:49:42Z</time>
      </trkpt>
      <trkpt lat="45.88817" lon="4.73116">
        <ele>182</ele>
        <time>2018-04-20T08:49:44Z</time>
      </trkpt>
      <trkpt lat="45.88831" lon="4.73112">
        <ele>182</ele>
        <time>2018-04-20T08:49:45Z</time>
      </trkpt>
      <trkpt lat="45.88836" lon="4.73113">
        <ele>182</ele>
        <time>2018-04-20T08:49:46Z</time>
      </trkpt>
      <trkpt lat="45.8884" lon="4.73115">
        <ele>182</ele>
        <time>2018-04-20T08:49:47Z</time>
      </trkpt>
      <trkpt lat="45.88848" lon="4.73112">
        <ele>182</ele>
        <time>2018-04-20T08:49:50Z</time>
      </trkpt>
      <trkpt lat="45.88851" lon="4.73111">
        <ele>182</ele>
        <time>2018-04-20T08:49:51Z</time>
      </trkpt>
      <trkpt lat="45.8886" lon="4.7311">
        <ele>182</ele>
        <time>2018-04-20T08:49:52Z</time>
      </trkpt>
      <trkpt lat="45.88866" lon="4.73107">
        <ele>182</ele>
        <time>2018-04-20T08:49:53Z</time>
      </trkpt>
      <trkpt lat="45.8887" lon="4.73106">
        <ele>182</ele>
        <time>2018-04-20T08:49:54Z</time>
      </trkpt>
      <trkpt lat="45.88875" lon="4.73106">
        <ele>182</ele>
        <time>2018-04-20T08:49:55Z</time>
      </trkpt>
      <trkpt lat="45.88881" lon="4.73105">
        <ele>182</ele>
        <time>2018-04-20T08:49:56Z</time>
      </trkpt>
      <trkpt lat="45.88887" lon="4.731">
        <ele>182</ele>
        <time>2018-04-20T08:49:57Z</time>
      </trkpt>
      <trkpt lat="45.88891" lon="4.731">
        <ele>182</ele>
        <time>2018-04-20T08:49:58Z</time>
      </trkpt>
      <trkpt lat="45.88895" lon="4.73101">
        <ele>182</ele>
        <time>2018-04-20T08:49:59Z</time>
      </trkpt>
      <trkpt lat="45.889" lon="4.73098">
        <ele>182</ele>
        <time>2018-04-20T08:50:00Z</time>
      </trkpt>
      <trkpt lat="45.88906" lon="4.73096">
        <ele>182</ele>
        <time>2018-04-20T08:50:01Z</time>
      </trkpt>
      <trkpt lat="45.8891" lon="4.7309">
        <ele>183</ele>
        <time>2018-04-20T08:50:02Z</time>
      </trkpt>
      <trkpt lat="45.88915" lon="4.73086">
        <ele>183</ele>
        <time>2018-04-20T08:50:03Z</time>
      </trkpt>
      <trkpt lat="45.8892" lon="4.73083">
        <ele>183</ele>
        <time>2018-04-20T08:50:04Z</time>
      </trkpt>
      <trkpt lat="45.88925" lon="4.73082">
        <ele>183</ele>
        <time>2018-04-20T08:50:05Z</time>
      </trkpt>
      <trkpt lat="45.8893" lon="4.7308">
        <ele>183</ele>
        <time>2018-04-20T08:50:06Z</time>
      </trkpt>
      <trkpt lat="45.88935" lon="4.7308">
        <ele>183</ele>
        <time>2018-04-20T08:50:07Z</time>
      </trkpt>
      <trkpt lat="45.88941" lon="4.73077">
        <ele>183</ele>
        <time>2018-04-20T08:50:08Z</time>
      </trkpt>
      <trkpt lat="45.88948" lon="4.73077">
        <ele>183</ele>
        <time>2018-04-20T08:50:09Z</time>
      </trkpt>
      <trkpt lat="45.88952" lon="4.73074">
        <ele>183</ele>
        <time>2018-04-20T08:50:10Z</time>
      </trkpt>
      <trkpt lat="45.88957" lon="4.73072">
        <ele>183</ele>
        <time>2018-04-20T08:50:11Z</time>
      </trkpt>
      <trkpt lat="45.88961" lon="4.73071">
        <ele>183</ele>
        <time>2018-04-20T08:50:12Z</time>
      </trkpt>
      <trkpt lat="45.88966" lon="4.73071">
        <ele>183</ele>
        <time>2018-04-20T08:50:13Z</time>
      </trkpt>
      <trkpt lat="45.88971" lon="4.7307">
        <ele>183</ele>
        <time>2018-04-20T08:50:14Z</time>
      </trkpt>
      <trkpt lat="45.88975" lon="4.73071">
        <ele>183</ele>
        <time>2018-04-20T08:50:15Z</time>
      </trkpt>
      <trkpt lat="45.88981" lon="4.73068">
        <ele>183</ele>
        <time>2018-04-20T08:50:16Z</time>
      </trkpt>
      <trkpt lat="45.88986" lon="4.73066">
        <ele>183</ele>
        <time>2018-04-20T08:50:17Z</time>
      </trkpt>
      <trkpt lat="45.88991" lon="4.73064">
        <ele>183</ele>
        <time>2018-04-20T08:50:18Z</time>
      </trkpt>
      <trkpt lat="45.88996" lon="4.73062">
        <ele>183</ele>
        <time>2018-04-20T08:50:19Z</time>
      </trkpt>
      <trkpt lat="45.89001" lon="4.73061">
        <ele>182</ele>
        <time>2018-04-20T08:50:20Z</time>
      </trkpt>
      <trkpt lat="45.89009" lon="4.73059">
        <ele>182</ele>
        <time>2018-04-20T08:50:22Z</time>
      </trkpt>
      <trkpt lat="45.89014" lon="4.73057">
        <ele>182</ele>
        <time>2018-04-20T08:50:23Z</time>
      </trkpt>
      <trkpt lat="45.89022" lon="4.73057">
        <ele>182</ele>
        <time>2018-04-20T08:50:25Z</time>
      </trkpt>
      <trkpt lat="45.89023" lon="4.73057">
        <ele>182</ele>
        <time>2018-04-20T08:50:26Z</time>
      </trkpt>
      <trkpt lat="45.89025" lon="4.73057">
        <ele>182</ele>
        <time>2018-04-20T08:50:27Z</time>
      </trkpt>
      <trkpt lat="45.89034" lon="4.73056">
        <ele>182</ele>
        <time>2018-04-20T08:50:28Z</time>
      </trkpt>
      <trkpt lat="45.89041" lon="4.73054">
        <ele>182</ele>
        <time>2018-04-20T08:50:30Z</time>
      </trkpt>
      <trkpt lat="45.89045" lon="4.73055">
        <ele>182</ele>
        <time>2018-04-20T08:50:31Z</time>
      </trkpt>
      <trkpt lat="45.89052" lon="4.73059">
        <ele>182</ele>
        <time>2018-04-20T08:50:34Z</time>
      </trkpt>
      <trkpt lat="45.89053" lon="4.73061">
        <ele>182</ele>
        <time>2018-04-20T08:50:35Z</time>
      </trkpt>
      <trkpt lat="45.89056" lon="4.73066">
        <ele>182</ele>
        <time>2018-04-20T08:50:37Z</time>
      </trkpt>
      <trkpt lat="45.89056" lon="4.73075">
        <ele>182</ele>
        <time>2018-04-20T08:50:38Z</time>
      </trkpt>
      <trkpt lat="45.89053" lon="4.73082">
        <ele>182</ele>
        <time>2018-04-20T08:50:41Z</time>
      </trkpt>
      <trkpt lat="45.89049" lon="4.7309">
        <ele>182</ele>
        <time>2018-04-20T08:50:42Z</time>
      </trkpt>
      <trkpt lat="45.89049" lon="4.731">
        <ele>182</ele>
        <time>2018-04-20T08:50:45Z</time>
      </trkpt>
      <trkpt lat="45.89049" lon="4.73104">
        <ele>182</ele>
        <time>2018-04-20T08:50:46Z</time>
      </trkpt>
      <trkpt lat="45.8905" lon="4.73113">
        <ele>182</ele>
        <time>2018-04-20T08:50:48Z</time>
      </trkpt>
      <trkpt lat="45.8905" lon="4.73118">
        <ele>182</ele>
        <time>2018-04-20T08:50:49Z</time>
      </trkpt>
      <trkpt lat="45.89051" lon="4.73133">
        <ele>182</ele>
        <time>2018-04-20T08:50:50Z</time>
      </trkpt>
      <trkpt lat="45.89052" lon="4.73144">
        <ele>181</ele>
        <time>2018-04-20T08:50:52Z</time>
      </trkpt>
      <trkpt lat="45.89053" lon="4.73154">
        <ele>181</ele>
        <time>2018-04-20T08:50:53Z</time>
      </trkpt>
      <trkpt lat="45.89053" lon="4.7316">
        <ele>181</ele>
        <time>2018-04-20T08:50:54Z</time>
      </trkpt>
      <trkpt lat="45.89053" lon="4.73167">
        <ele>181</ele>
        <time>2018-04-20T08:50:55Z</time>
      </trkpt>
      <trkpt lat="45.89054" lon="4.73179">
        <ele>180</ele>
        <time>2018-04-20T08:50:57Z</time>
      </trkpt>
      <trkpt lat="45.89054" lon="4.73186">
        <ele>180</ele>
        <time>2018-04-20T08:50:58Z</time>
      </trkpt>
      <trkpt lat="45.89055" lon="4.73193">
        <ele>180</ele>
        <time>2018-04-20T08:50:59Z</time>
      </trkpt>
      <trkpt lat="45.89055" lon="4.73199">
        <ele>180</ele>
        <time>2018-04-20T08:51:00Z</time>
      </trkpt>
      <trkpt lat="45.89056" lon="4.73208">
        <ele>180</ele>
        <time>2018-04-20T08:51:02Z</time>
      </trkpt>
      <trkpt lat="45.89057" lon="4.73212">
        <ele>180</ele>
        <time>2018-04-20T08:51:03Z</time>
      </trkpt>
      <trkpt lat="45.89057" lon="4.73216">
        <ele>180</ele>
        <time>2018-04-20T08:51:04Z</time>
      </trkpt>
      <trkpt lat="45.89058" lon="4.73227">
        <ele>180</ele>
        <time>2018-04-20T08:51:05Z</time>
      </trkpt>
      <trkpt lat="45.89059" lon="4.73235">
        <ele>180</ele>
        <time>2018-04-20T08:51:06Z</time>
      </trkpt>
      <trkpt lat="45.8906" lon="4.73241">
        <ele>180</ele>
        <time>2018-04-20T08:51:07Z</time>
      </trkpt>
      <trkpt lat="45.89063" lon="4.73252">
        <ele>179</ele>
        <time>2018-04-20T08:51:09Z</time>
      </trkpt>
      <trkpt lat="45.89064" lon="4.73259">
        <ele>179</ele>
        <time>2018-04-20T08:51:10Z</time>
      </trkpt>
      <trkpt lat="45.89064" lon="4.73265">
        <ele>179</ele>
        <time>2018-04-20T08:51:11Z</time>
      </trkpt>
      <trkpt lat="45.89066" lon="4.73273">
        <ele>179</ele>
        <time>2018-04-20T08:51:12Z</time>
      </trkpt>
      <trkpt lat="45.89067" lon="4.73279">
        <ele>179</ele>
        <time>2018-04-20T08:51:13Z</time>
      </trkpt>
      <trkpt lat="45.89068" lon="4.73286">
        <ele>179</ele>
        <time>2018-04-20T08:51:14Z</time>
      </trkpt>
      <trkpt lat="45.8907" lon="4.73295">
        <ele>179</ele>
        <time>2018-04-20T08:51:16Z</time>
      </trkpt>
      <trkpt lat="45.89071" lon="4.73299">
        <ele>179</ele>
        <time>2018-04-20T08:51:17Z</time>
      </trkpt>
      <trkpt lat="45.89073" lon="4.73307">
        <ele>179</ele>
        <time>2018-04-20T08:51:18Z</time>
      </trkpt>
      <trkpt lat="45.89075" lon="4.73313">
        <ele>179</ele>
        <time>2018-04-20T08:51:19Z</time>
      </trkpt>
      <trkpt lat="45.89076" lon="4.73319">
        <ele>179</ele>
        <time>2018-04-20T08:51:20Z</time>
      </trkpt>
      <trkpt lat="45.89077" lon="4.73325">
        <ele>179</ele>
        <time>2018-04-20T08:51:21Z</time>
      </trkpt>
      <trkpt lat="45.89078" lon="4.73337">
        <ele>179</ele>
        <time>2018-04-20T08:51:23Z</time>
      </trkpt>
      <trkpt lat="45.89078" lon="4.73343">
        <ele>179</ele>
        <time>2018-04-20T08:51:24Z</time>
      </trkpt>
      <trkpt lat="45.89079" lon="4.73355">
        <ele>180</ele>
        <time>2018-04-20T08:51:26Z</time>
      </trkpt>
      <trkpt lat="45.89079" lon="4.73361">
        <ele>180</ele>
        <time>2018-04-20T08:51:27Z</time>
      </trkpt>
      <trkpt lat="45.89079" lon="4.73369">
        <ele>180</ele>
        <time>2018-04-20T08:51:28Z</time>
      </trkpt>
      <trkpt lat="45.89078" lon="4.73376">
        <ele>180</ele>
        <time>2018-04-20T08:51:29Z</time>
      </trkpt>
      <trkpt lat="45.89081" lon="4.73387">
        <ele>180</ele>
        <time>2018-04-20T08:51:31Z</time>
      </trkpt>
      <trkpt lat="45.89081" lon="4.73392">
        <ele>180</ele>
        <time>2018-04-20T08:51:32Z</time>
      </trkpt>
      <trkpt lat="45.89084" lon="4.73403">
        <ele>180</ele>
        <time>2018-04-20T08:51:34Z</time>
      </trkpt>
      <trkpt lat="45.89084" lon="4.7341">
        <ele>180</ele>
        <time>2018-04-20T08:51:35Z</time>
      </trkpt>
      <trkpt lat="45.89083" lon="4.7342">
        <ele>180</ele>
        <time>2018-04-20T08:51:37Z</time>
      </trkpt>
      <trkpt lat="45.89083" lon="4.73426">
        <ele>180</ele>
        <time>2018-04-20T08:51:38Z</time>
      </trkpt>
      <trkpt lat="45.89083" lon="4.73431">
        <ele>181</ele>
        <time>2018-04-20T08:51:39Z</time>
      </trkpt>
      <trkpt lat="45.89084" lon="4.73481">
        <ele>180</ele>
        <time>2018-04-20T08:51:50Z</time>
      </trkpt>
      <trkpt lat="45.89086" lon="4.73489">
        <ele>181</ele>
        <time>2018-04-20T08:51:52Z</time>
      </trkpt>
      <trkpt lat="45.8909" lon="4.73497">
        <ele>181</ele>
        <time>2018-04-20T08:51:53Z</time>
      </trkpt>
      <trkpt lat="45.89092" lon="4.73509">
        <ele>181</ele>
        <time>2018-04-20T08:51:55Z</time>
      </trkpt>
      <trkpt lat="45.89093" lon="4.73515">
        <ele>181</ele>
        <time>2018-04-20T08:51:56Z</time>
      </trkpt>
      <trkpt lat="45.89094" lon="4.73525">
        <ele>181</ele>
        <time>2018-04-20T08:51:58Z</time>
      </trkpt>
      <trkpt lat="45.89095" lon="4.73531">
        <ele>181</ele>
        <time>2018-04-20T08:51:59Z</time>
      </trkpt>
      <trkpt lat="45.89094" lon="4.73543">
        <ele>181</ele>
        <time>2018-04-20T08:52:02Z</time>
      </trkpt>
      <trkpt lat="45.89094" lon="4.73546">
        <ele>181</ele>
        <time>2018-04-20T08:52:03Z</time>
      </trkpt>
      <trkpt lat="45.89093" lon="4.73556">
        <ele>181</ele>
        <time>2018-04-20T08:52:04Z</time>
      </trkpt>
      <trkpt lat="45.89094" lon="4.73562">
        <ele>181</ele>
        <time>2018-04-20T08:52:05Z</time>
      </trkpt>
      <trkpt lat="45.89095" lon="4.73572">
        <ele>181</ele>
        <time>2018-04-20T08:52:08Z</time>
      </trkpt>
      <trkpt lat="45.89096" lon="4.73576">
        <ele>181</ele>
        <time>2018-04-20T08:52:09Z</time>
      </trkpt>
      <trkpt lat="45.89098" lon="4.73585">
        <ele>181</ele>
        <time>2018-04-20T08:52:12Z</time>
      </trkpt>
      <trkpt lat="45.89098" lon="4.73588">
        <ele>181</ele>
        <time>2018-04-20T08:52:13Z</time>
      </trkpt>
      <trkpt lat="45.89101" lon="4.73599">
        <ele>181</ele>
        <time>2018-04-20T08:52:16Z</time>
      </trkpt>
      <trkpt lat="45.89102" lon="4.73603">
        <ele>181</ele>
        <time>2018-04-20T08:52:17Z</time>
      </trkpt>
      <trkpt lat="45.89106" lon="4.73616">
        <ele>181</ele>
        <time>2018-04-20T08:52:18Z</time>
      </trkpt>
      <trkpt lat="45.89109" lon="4.73626">
        <ele>181</ele>
        <time>2018-04-20T08:52:22Z</time>
      </trkpt>
      <trkpt lat="45.8911" lon="4.73628">
        <ele>182</ele>
        <time>2018-04-20T08:52:23Z</time>
      </trkpt>
      <trkpt lat="45.89111" lon="4.73632">
        <ele>182</ele>
        <time>2018-04-20T08:52:24Z</time>
      </trkpt>
      <trkpt lat="45.89112" lon="4.73645">
        <ele>182</ele>
        <time>2018-04-20T08:52:25Z</time>
      </trkpt>
      <trkpt lat="45.89108" lon="4.73656">
        <ele>182</ele>
        <time>2018-04-20T08:52:28Z</time>
      </trkpt>
      <trkpt lat="45.89106" lon="4.73665">
        <ele>182</ele>
        <time>2018-04-20T08:52:29Z</time>
      </trkpt>
      <trkpt lat="45.89105" lon="4.73674">
        <ele>182</ele>
        <time>2018-04-20T08:52:31Z</time>
      </trkpt>
      <trkpt lat="45.89105" lon="4.73678">
        <ele>182</ele>
        <time>2018-04-20T08:52:32Z</time>
      </trkpt>
      <trkpt lat="45.89106" lon="4.73682">
        <ele>182</ele>
        <time>2018-04-20T08:52:33Z</time>
      </trkpt>
      <trkpt lat="45.89106" lon="4.73695">
        <ele>182</ele>
        <time>2018-04-20T08:52:34Z</time>
      </trkpt>
      <trkpt lat="45.89106" lon="4.73704">
        <ele>182</ele>
        <time>2018-04-20T08:52:37Z</time>
      </trkpt>
      <trkpt lat="45.89105" lon="4.73715">
        <ele>182</ele>
        <time>2018-04-20T08:52:38Z</time>
      </trkpt>
      <trkpt lat="45.89105" lon="4.73724">
        <ele>182</ele>
        <time>2018-04-20T08:52:41Z</time>
      </trkpt>
      <trkpt lat="45.89105" lon="4.73735">
        <ele>181</ele>
        <time>2018-04-20T08:52:42Z</time>
      </trkpt>
      <trkpt lat="45.89106" lon="4.73745">
        <ele>181</ele>
        <time>2018-04-20T08:52:45Z</time>
      </trkpt>
      <trkpt lat="45.89106" lon="4.73756">
        <ele>181</ele>
        <time>2018-04-20T08:52:46Z</time>
      </trkpt>
      <trkpt lat="45.89106" lon="4.73768">
        <ele>181</ele>
        <time>2018-04-20T08:52:48Z</time>
      </trkpt>
      <trkpt lat="45.89106" lon="4.73771">
        <ele>181</ele>
        <time>2018-04-20T08:52:49Z</time>
      </trkpt>
      <trkpt lat="45.89107" lon="4.7378">
        <ele>181</ele>
        <time>2018-04-20T08:52:50Z</time>
      </trkpt>
      <trkpt lat="45.89107" lon="4.73786">
        <ele>181</ele>
        <time>2018-04-20T08:52:51Z</time>
      </trkpt>
      <trkpt lat="45.89107" lon="4.73793">
        <ele>181</ele>
        <time>2018-04-20T08:52:52Z</time>
      </trkpt>
      <trkpt lat="45.89108" lon="4.73799">
        <ele>181</ele>
        <time>2018-04-20T08:52:53Z</time>
      </trkpt>
      <trkpt lat="45.8911" lon="4.7381">
        <ele>181</ele>
        <time>2018-04-20T08:52:55Z</time>
      </trkpt>
      <trkpt lat="45.8911" lon="4.73813">
        <ele>181</ele>
        <time>2018-04-20T08:52:56Z</time>
      </trkpt>
      <trkpt lat="45.89112" lon="4.73823">
        <ele>181</ele>
        <time>2018-04-20T08:52:59Z</time>
      </trkpt>
      <trkpt lat="45.89112" lon="4.73827">
        <ele>181</ele>
        <time>2018-04-20T08:53:00Z</time>
      </trkpt>
      <trkpt lat="45.89112" lon="4.7383">
        <ele>181</ele>
        <time>2018-04-20T08:53:01Z</time>
      </trkpt>
      <trkpt lat="45.89113" lon="4.73843">
        <ele>182</ele>
        <time>2018-04-20T08:53:02Z</time>
      </trkpt>
      <trkpt lat="45.89114" lon="4.73851">
        <ele>182</ele>
        <time>2018-04-20T08:53:04Z</time>
      </trkpt>
      <trkpt lat="45.89115" lon="4.73859">
        <ele>182</ele>
        <time>2018-04-20T08:53:05Z</time>
      </trkpt>
      <trkpt lat="45.89115" lon="4.73865">
        <ele>182</ele>
        <time>2018-04-20T08:53:06Z</time>
      </trkpt>
      <trkpt lat="45.89115" lon="4.73874">
        <ele>182</ele>
        <time>2018-04-20T08:53:07Z</time>
      </trkpt>
      <trkpt lat="45.89114" lon="4.73884">
        <ele>182</ele>
        <time>2018-04-20T08:53:09Z</time>
      </trkpt>
      <trkpt lat="45.89113" lon="4.73893">
        <ele>182</ele>
        <time>2018-04-20T08:53:10Z</time>
      </trkpt>
      <trkpt lat="45.89114" lon="4.73906">
        <ele>182</ele>
        <time>2018-04-20T08:53:12Z</time>
      </trkpt>
      <trkpt lat="45.89114" lon="4.73911">
        <ele>182</ele>
        <time>2018-04-20T08:53:13Z</time>
      </trkpt>
      <trkpt lat="45.89115" lon="4.73924">
        <ele>183</ele>
        <time>2018-04-20T08:53:15Z</time>
      </trkpt>
      <trkpt lat="45.89116" lon="4.7393">
        <ele>183</ele>
        <time>2018-04-20T08:53:16Z</time>
      </trkpt>
      <trkpt lat="45.89118" lon="4.73941">
        <ele>183</ele>
        <time>2018-04-20T08:53:18Z</time>
      </trkpt>
      <trkpt lat="45.89119" lon="4.73948">
        <ele>183</ele>
        <time>2018-04-20T08:53:19Z</time>
      </trkpt>
      <trkpt lat="45.8912" lon="4.73956">
        <ele>183</ele>
        <time>2018-04-20T08:53:20Z</time>
      </trkpt>
      <trkpt lat="45.8912" lon="4.73963">
        <ele>183</ele>
        <time>2018-04-20T08:53:21Z</time>
      </trkpt>
      <trkpt lat="45.89121" lon="4.73973">
        <ele>183</ele>
        <time>2018-04-20T08:53:25Z</time>
      </trkpt>
      <trkpt lat="45.89121" lon="4.73976">
        <ele>183</ele>
        <time>2018-04-20T08:53:26Z</time>
      </trkpt>
      <trkpt lat="45.89115" lon="4.73985">
        <ele>183</ele>
        <time>2018-04-20T08:54:18Z</time>
      </trkpt>
      <trkpt lat="45.89113" lon="4.73985">
        <ele>183</ele>
        <time>2018-04-20T08:54:19Z</time>
      </trkpt>
      <trkpt lat="45.89106" lon="4.73988">
        <ele>183</ele>
        <time>2018-04-20T08:54:23Z</time>
      </trkpt>
      <trkpt lat="45.89104" lon="4.73988">
        <ele>183</ele>
        <time>2018-04-20T08:54:24Z</time>
      </trkpt>
      <trkpt lat="45.89095" lon="4.7399">
        <ele>183</ele>
        <time>2018-04-20T08:54:27Z</time>
      </trkpt>
      <trkpt lat="45.89092" lon="4.7399">
        <ele>183</ele>
        <time>2018-04-20T08:54:28Z</time>
      </trkpt>
      <trkpt lat="45.89084" lon="4.73991">
        <ele>183</ele>
        <time>2018-04-20T08:54:31Z</time>
      </trkpt>
      <trkpt lat="45.89074" lon="4.73992">
        <ele>183</ele>
        <time>2018-04-20T08:54:32Z</time>
      </trkpt>
      <trkpt lat="45.89066" lon="4.73996">
        <ele>184</ele>
        <time>2018-04-20T08:54:34Z</time>
      </trkpt>
      <trkpt lat="45.89062" lon="4.73998">
        <ele>184</ele>
        <time>2018-04-20T08:54:35Z</time>
      </trkpt>
      <trkpt lat="45.89057" lon="4.73999">
        <ele>184</ele>
        <time>2018-04-20T08:54:37Z</time>
      </trkpt>
      <trkpt lat="45.8905" lon="4.74002">
        <ele>184</ele>
        <time>2018-04-20T08:54:38Z</time>
      </trkpt>
      <trkpt lat="45.89042" lon="4.74004">
        <ele>184</ele>
        <time>2018-04-20T08:54:41Z</time>
      </trkpt>
      <trkpt lat="45.8904" lon="4.74005">
        <ele>184</ele>
        <time>2018-04-20T08:54:42Z</time>
      </trkpt>
      <trkpt lat="45.89035" lon="4.74014">
        <ele>184</ele>
        <time>2018-04-20T08:54:45Z</time>
      </trkpt>
      <trkpt lat="45.89034" lon="4.74027">
        <ele>184</ele>
        <time>2018-04-20T08:54:46Z</time>
      </trkpt>
      <trkpt lat="45.89034" lon="4.74034">
        <ele>184</ele>
        <time>2018-04-20T08:54:47Z</time>
      </trkpt>
      <trkpt lat="45.89036" lon="4.74043">
        <ele>184</ele>
        <time>2018-04-20T08:54:48Z</time>
      </trkpt>
      <trkpt lat="45.89037" lon="4.74047">
        <ele>184</ele>
        <time>2018-04-20T08:54:49Z</time>
      </trkpt>
      <trkpt lat="45.89038" lon="4.74057">
        <ele>184</ele>
        <time>2018-04-20T08:54:50Z</time>
      </trkpt>
      <trkpt lat="45.89038" lon="4.74064">
        <ele>184</ele>
        <time>2018-04-20T08:54:51Z</time>
      </trkpt>
      <trkpt lat="45.89039" lon="4.74071">
        <ele>184</ele>
        <time>2018-04-20T08:54:52Z</time>
      </trkpt>
      <trkpt lat="45.89039" lon="4.74078">
        <ele>184</ele>
        <time>2018-04-20T08:54:53Z</time>
      </trkpt>
      <trkpt lat="45.89039" lon="4.74084">
        <ele>185</ele>
        <time>2018-04-20T08:54:54Z</time>
      </trkpt>
      <trkpt lat="45.89038" lon="4.74091">
        <ele>185</ele>
        <time>2018-04-20T08:54:55Z</time>
      </trkpt>
      <trkpt lat="45.89038" lon="4.74097">
        <ele>185</ele>
        <time>2018-04-20T08:54:56Z</time>
      </trkpt>
      <trkpt lat="45.89037" lon="4.74106">
        <ele>185</ele>
        <time>2018-04-20T08:54:57Z</time>
      </trkpt>
      <trkpt lat="45.89039" lon="4.74113">
        <ele>185</ele>
        <time>2018-04-20T08:54:58Z</time>
      </trkpt>
      <trkpt lat="45.8904" lon="4.74122">
        <ele>185</ele>
        <time>2018-04-20T08:55:00Z</time>
      </trkpt>
      <trkpt lat="45.89038" lon="4.7413">
        <ele>185</ele>
        <time>2018-04-20T08:55:01Z</time>
      </trkpt>
      <trkpt lat="45.89036" lon="4.74136">
        <ele>185</ele>
        <time>2018-04-20T08:55:02Z</time>
      </trkpt>
      <trkpt lat="45.89035" lon="4.74142">
        <ele>185</ele>
        <time>2018-04-20T08:55:03Z</time>
      </trkpt>
      <trkpt lat="45.89032" lon="4.74153">
        <ele>185</ele>
        <time>2018-04-20T08:55:05Z</time>
      </trkpt>
      <trkpt lat="45.8903" lon="4.74159">
        <ele>185</ele>
        <time>2018-04-20T08:55:06Z</time>
      </trkpt>
      <trkpt lat="45.89026" lon="4.74166">
        <ele>185</ele>
        <time>2018-04-20T08:55:08Z</time>
      </trkpt>
      <trkpt lat="45.89025" lon="4.74174">
        <ele>185</ele>
        <time>2018-04-20T08:55:09Z</time>
      </trkpt>
      <trkpt lat="45.89019" lon="4.74183">
        <ele>185</ele>
        <time>2018-04-20T08:55:11Z</time>
      </trkpt>
      <trkpt lat="45.89017" lon="4.74189">
        <ele>186</ele>
        <time>2018-04-20T08:55:12Z</time>
      </trkpt>
      <trkpt lat="45.89015" lon="4.74194">
        <ele>186</ele>
        <time>2018-04-20T08:55:13Z</time>
      </trkpt>
      <trkpt lat="45.89013" lon="4.74201">
        <ele>186</ele>
        <time>2018-04-20T08:55:14Z</time>
      </trkpt>
      <trkpt lat="45.89011" lon="4.74206">
        <ele>186</ele>
        <time>2018-04-20T08:55:15Z</time>
      </trkpt>
      <trkpt lat="45.89009" lon="4.74213">
        <ele>186</ele>
        <time>2018-04-20T08:55:16Z</time>
      </trkpt>
      <trkpt lat="45.89009" lon="4.74225">
        <ele>186</ele>
        <time>2018-04-20T08:55:20Z</time>
      </trkpt>
      <trkpt lat="45.89009" lon="4.74227">
        <ele>186</ele>
        <time>2018-04-20T08:55:21Z</time>
      </trkpt>
      <trkpt lat="45.8901" lon="4.74231">
        <ele>186</ele>
        <time>2018-04-20T08:55:23Z</time>
      </trkpt>
      <trkpt lat="45.89015" lon="4.74241">
        <ele>186</ele>
        <time>2018-04-20T08:55:24Z</time>
      </trkpt>
      <trkpt lat="45.89018" lon="4.74251">
        <ele>187</ele>
        <time>2018-04-20T08:55:28Z</time>
      </trkpt>
      <trkpt lat="45.89018" lon="4.74254">
        <ele>187</ele>
        <time>2018-04-20T08:55:29Z</time>
      </trkpt>
      <trkpt lat="45.89019" lon="4.74266">
        <ele>187</ele>
        <time>2018-04-20T08:55:36Z</time>
      </trkpt>
      <trkpt lat="45.89019" lon="4.74267">
        <ele>187</ele>
        <time>2018-04-20T08:55:37Z</time>
      </trkpt>
      <trkpt lat="45.89015" lon="4.74277">
        <ele>187</ele>
        <time>2018-04-20T08:55:42Z</time>
      </trkpt>
      <trkpt lat="45.89013" lon="4.74278">
        <ele>187</ele>
        <time>2018-04-20T08:55:43Z</time>
      </trkpt>
      <trkpt lat="45.89007" lon="4.7428">
        <ele>187</ele>
        <time>2018-04-20T08:55:46Z</time>
      </trkpt>
      <trkpt lat="45.89004" lon="4.74281">
        <ele>187</ele>
        <time>2018-04-20T08:55:47Z</time>
      </trkpt>
      <trkpt lat="45.89001" lon="4.74281">
        <ele>187</ele>
        <time>2018-04-20T08:55:48Z</time>
      </trkpt>
      <trkpt lat="45.88991" lon="4.74283">
        <ele>187</ele>
        <time>2018-04-20T08:55:49Z</time>
      </trkpt>
      <trkpt lat="45.88982" lon="4.74284">
        <ele>187</ele>
        <time>2018-04-20T08:55:51Z</time>
      </trkpt>
      <trkpt lat="45.88981" lon="4.74284">
        <ele>187</ele>
        <time>2018-04-20T08:55:52Z</time>
      </trkpt>
      <trkpt lat="45.88974" lon="4.74283">
        <ele>187</ele>
        <time>2018-04-20T08:55:55Z</time>
      </trkpt>
      <trkpt lat="45.88971" lon="4.74283">
        <ele>187</ele>
        <time>2018-04-20T08:55:56Z</time>
      </trkpt>
      <trkpt lat="45.88964" lon="4.7429">
        <ele>187</ele>
        <time>2018-04-20T08:56:01Z</time>
      </trkpt>
      <trkpt lat="45.88964" lon="4.74292">
        <ele>187</ele>
        <time>2018-04-20T08:56:02Z</time>
      </trkpt>
      <trkpt lat="45.88964" lon="4.74304">
        <ele>187</ele>
        <time>2018-04-20T08:56:09Z</time>
      </trkpt>
      <trkpt lat="45.88965" lon="4.74305">
        <ele>187</ele>
        <time>2018-04-20T08:56:10Z</time>
      </trkpt>
      <trkpt lat="45.88964" lon="4.74315">
        <ele>187</ele>
        <time>2018-04-20T08:56:28Z</time>
      </trkpt>
      <trkpt lat="45.88963" lon="4.74319">
        <ele>187</ele>
        <time>2018-04-20T08:56:29Z</time>
      </trkpt>
      <trkpt lat="45.88959" lon="4.74329">
        <ele>187</ele>
        <time>2018-04-20T08:56:32Z</time>
      </trkpt>
      <trkpt lat="45.88958" lon="4.74333">
        <ele>187</ele>
        <time>2018-04-20T08:56:33Z</time>
      </trkpt>
      <trkpt lat="45.88956" lon="4.74341">
        <ele>188</ele>
        <time>2018-04-20T08:56:35Z</time>
      </trkpt>
      <trkpt lat="45.88954" lon="4.74346">
        <ele>188</ele>
        <time>2018-04-20T08:56:36Z</time>
      </trkpt>
      <trkpt lat="45.88951" lon="4.74354">
        <ele>188</ele>
        <time>2018-04-20T08:56:38Z</time>
      </trkpt>
      <trkpt lat="45.88945" lon="4.74366">
        <ele>188</ele>
        <time>2018-04-20T08:56:39Z</time>
      </trkpt>
      <trkpt lat="45.88943" lon="4.74374">
        <ele>188</ele>
        <time>2018-04-20T08:56:42Z</time>
      </trkpt>
      <trkpt lat="45.88941" lon="4.74387">
        <ele>188</ele>
        <time>2018-04-20T08:56:43Z</time>
      </trkpt>
      <trkpt lat="45.88939" lon="4.74398">
        <ele>188</ele>
        <time>2018-04-20T08:56:46Z</time>
      </trkpt>
      <trkpt lat="45.88938" lon="4.74401">
        <ele>188</ele>
        <time>2018-04-20T08:56:47Z</time>
      </trkpt>
      <trkpt lat="45.88934" lon="4.74409">
        <ele>188</ele>
        <time>2018-04-20T08:56:50Z</time>
      </trkpt>
      <trkpt lat="45.88929" lon="4.74419">
        <ele>188</ele>
        <time>2018-04-20T08:56:51Z</time>
      </trkpt>
      <trkpt lat="45.88925" lon="4.7443">
        <ele>188</ele>
        <time>2018-04-20T08:56:53Z</time>
      </trkpt>
      <trkpt lat="45.88922" lon="4.74436">
        <ele>188</ele>
        <time>2018-04-20T08:56:54Z</time>
      </trkpt>
      <trkpt lat="45.88919" lon="4.74444">
        <ele>188</ele>
        <time>2018-04-20T08:56:56Z</time>
      </trkpt>
      <trkpt lat="45.88917" lon="4.74447">
        <ele>188</ele>
        <time>2018-04-20T08:56:57Z</time>
      </trkpt>
      <trkpt lat="45.88913" lon="4.74455">
        <ele>189</ele>
        <time>2018-04-20T08:56:59Z</time>
      </trkpt>
      <trkpt lat="45.88911" lon="4.74459">
        <ele>189</ele>
        <time>2018-04-20T08:57:00Z</time>
      </trkpt>
      <trkpt lat="45.88907" lon="4.74468">
        <ele>189</ele>
        <time>2018-04-20T08:57:03Z</time>
      </trkpt>
      <trkpt lat="45.88904" lon="4.74473">
        <ele>189</ele>
        <time>2018-04-20T08:57:04Z</time>
      </trkpt>
      <trkpt lat="45.889" lon="4.74482">
        <ele>189</ele>
        <time>2018-04-20T08:57:06Z</time>
      </trkpt>
      <trkpt lat="45.88898" lon="4.74486">
        <ele>189</ele>
        <time>2018-04-20T08:57:07Z</time>
      </trkpt>
      <trkpt lat="45.88894" lon="4.74493">
        <ele>189</ele>
        <time>2018-04-20T08:57:09Z</time>
      </trkpt>
      <trkpt lat="45.88893" lon="4.74497">
        <ele>189</ele>
        <time>2018-04-20T08:57:10Z</time>
      </trkpt>
      <trkpt lat="45.88889" lon="4.74504">
        <ele>191</ele>
        <time>2018-04-20T08:57:12Z</time>
      </trkpt>
      <trkpt lat="45.88887" lon="4.74508">
        <ele>191</ele>
        <time>2018-04-20T08:57:13Z</time>
      </trkpt>
      <trkpt lat="45.88885" lon="4.74512">
        <ele>191</ele>
        <time>2018-04-20T08:57:14Z</time>
      </trkpt>
      <trkpt lat="45.88879" lon="4.74524">
        <ele>191</ele>
        <time>2018-04-20T08:57:15Z</time>
      </trkpt>
      <trkpt lat="45.88875" lon="4.74533">
        <ele>191</ele>
        <time>2018-04-20T08:57:19Z</time>
      </trkpt>
      <trkpt lat="45.88875" lon="4.74535">
        <ele>191</ele>
        <time>2018-04-20T08:57:20Z</time>
      </trkpt>
      <trkpt lat="45.88881" lon="4.74529">
        <ele>191</ele>
        <time>2018-04-20T08:57:35Z</time>
      </trkpt>
      <trkpt lat="45.88882" lon="4.74527">
        <ele>191</ele>
        <time>2018-04-20T08:57:36Z</time>
      </trkpt>
      <trkpt lat="45.88885" lon="4.74521">
        <ele>191</ele>
        <time>2018-04-20T08:57:37Z</time>
      </trkpt>
      <trkpt lat="45.88888" lon="4.74516">
        <ele>191</ele>
        <time>2018-04-20T08:57:38Z</time>
      </trkpt>
      <trkpt lat="45.88891" lon="4.74511">
        <ele>191</ele>
        <time>2018-04-20T08:57:39Z</time>
      </trkpt>
      <trkpt lat="45.88895" lon="4.74506">
        <ele>190</ele>
        <time>2018-04-20T08:57:40Z</time>
      </trkpt>
      <trkpt lat="45.88897" lon="4.74499">
        <ele>189</ele>
        <time>2018-04-20T08:57:41Z</time>
      </trkpt>
      <trkpt lat="45.88899" lon="4.74494">
        <ele>189</ele>
        <time>2018-04-20T08:57:42Z</time>
      </trkpt>
      <trkpt lat="45.88903" lon="4.74484">
        <ele>189</ele>
        <time>2018-04-20T08:57:44Z</time>
      </trkpt>
      <trkpt lat="45.88906" lon="4.74478">
        <ele>189</ele>
        <time>2018-04-20T08:57:45Z</time>
      </trkpt>
      <trkpt lat="45.8891" lon="4.74468">
        <ele>189</ele>
        <time>2018-04-20T08:57:47Z</time>
      </trkpt>
      <trkpt lat="45.88912" lon="4.74463">
        <ele>189</ele>
        <time>2018-04-20T08:57:48Z</time>
      </trkpt>
      <trkpt lat="45.88916" lon="4.74453">
        <ele>189</ele>
        <time>2018-04-20T08:57:50Z</time>
      </trkpt>
      <trkpt lat="45.88917" lon="4.74448">
        <ele>188</ele>
        <time>2018-04-20T08:57:51Z</time>
      </trkpt>
      <trkpt lat="45.88921" lon="4.74438">
        <ele>188</ele>
        <time>2018-04-20T08:57:53Z</time>
      </trkpt>
      <trkpt lat="45.88923" lon="4.74436">
        <ele>188</ele>
        <time>2018-04-20T08:57:54Z</time>
      </trkpt>
      <trkpt lat="45.88927" lon="4.74427">
        <ele>188</ele>
        <time>2018-04-20T08:57:57Z</time>
      </trkpt>
      <trkpt lat="45.88932" lon="4.74421">
        <ele>188</ele>
        <time>2018-04-20T08:57:58Z</time>
      </trkpt>
      <trkpt lat="45.88938" lon="4.74419">
        <ele>188</ele>
        <time>2018-04-20T08:58:00Z</time>
      </trkpt>
      <trkpt lat="45.88943" lon="4.74426">
        <ele>188</ele>
        <time>2018-04-20T08:58:01Z</time>
      </trkpt>
      <trkpt lat="45.88949" lon="4.74433">
        <ele>188</ele>
        <time>2018-04-20T08:58:03Z</time>
      </trkpt>
      <trkpt lat="45.88951" lon="4.74435">
        <ele>188</ele>
        <time>2018-04-20T08:58:04Z</time>
      </trkpt>
      <trkpt lat="45.88957" lon="4.74439">
        <ele>188</ele>
        <time>2018-04-20T08:58:05Z</time>
      </trkpt>
      <trkpt lat="45.88962" lon="4.74442">
        <ele>188</ele>
        <time>2018-04-20T08:58:06Z</time>
      </trkpt>
      <trkpt lat="45.88966" lon="4.74443">
        <ele>188</ele>
        <time>2018-04-20T08:58:07Z</time>
      </trkpt>
      <trkpt lat="45.8897" lon="4.74444">
        <ele>188</ele>
        <time>2018-04-20T08:58:08Z</time>
      </trkpt>
      <trkpt lat="45.88977" lon="4.74451">
        <ele>188</ele>
        <time>2018-04-20T08:58:10Z</time>
      </trkpt>
      <trkpt lat="45.88983" lon="4.74449">
        <ele>188</ele>
        <time>2018-04-20T08:58:11Z</time>
      </trkpt>
      <trkpt lat="45.88989" lon="4.74458">
        <ele>188</ele>
        <time>2018-04-20T08:58:14Z</time>
      </trkpt>
      <trkpt lat="45.88994" lon="4.74464">
        <ele>189</ele>
        <time>2018-04-20T08:58:15Z</time>
      </trkpt>
      <trkpt lat="45.89001" lon="4.74472">
        <ele>188</ele>
        <time>2018-04-20T08:58:19Z</time>
      </trkpt>
      <trkpt lat="45.89002" lon="4.74474">
        <ele>188</ele>
        <time>2018-04-20T08:58:20Z</time>
      </trkpt>
      <trkpt lat="45.89002" lon="4.74487">
        <ele>189</ele>
        <time>2018-04-20T08:58:24Z</time>
      </trkpt>
      <trkpt lat="45.89001" lon="4.7449">
        <ele>189</ele>
        <time>2018-04-20T08:58:25Z</time>
      </trkpt>
      <trkpt lat="45.89003" lon="4.74502">
        <ele>189</ele>
        <time>2018-04-20T08:58:30Z</time>
      </trkpt>
      <trkpt lat="45.89006" lon="4.74503">
        <ele>189</ele>
        <time>2018-04-20T08:58:31Z</time>
      </trkpt>
      <trkpt lat="45.89008" lon="4.74504">
        <ele>189</ele>
        <time>2018-04-20T08:58:32Z</time>
      </trkpt>
      <trkpt lat="45.89018" lon="4.74506">
        <ele>189</ele>
        <time>2018-04-20T08:58:33Z</time>
      </trkpt>
      <trkpt lat="45.8902" lon="4.74516">
        <ele>189</ele>
        <time>2018-04-20T08:58:47Z</time>
      </trkpt>
      <trkpt lat="45.89019" lon="4.74519">
        <ele>189</ele>
        <time>2018-04-20T08:58:48Z</time>
      </trkpt>
      <trkpt lat="45.89018" lon="4.74529">
        <ele>189</ele>
        <time>2018-04-20T08:58:51Z</time>
      </trkpt>
      <trkpt lat="45.89017" lon="4.74533">
        <ele>189</ele>
        <time>2018-04-20T08:58:52Z</time>
      </trkpt>
      <trkpt lat="45.89016" lon="4.74544">
        <ele>189</ele>
        <time>2018-04-20T08:58:55Z</time>
      </trkpt>
      <trkpt lat="45.89016" lon="4.74548">
        <ele>190</ele>
        <time>2018-04-20T08:58:56Z</time>
      </trkpt>
      <trkpt lat="45.89015" lon="4.74558">
        <ele>190</ele>
        <time>2018-04-20T08:58:58Z</time>
      </trkpt>
      <trkpt lat="45.89015" lon="4.74564">
        <ele>190</ele>
        <time>2018-04-20T08:58:59Z</time>
      </trkpt>
      <trkpt lat="45.89015" lon="4.74576">
        <ele>190</ele>
        <time>2018-04-20T08:59:02Z</time>
      </trkpt>
      <trkpt lat="45.89014" lon="4.74579">
        <ele>190</ele>
        <time>2018-04-20T08:59:03Z</time>
      </trkpt>
      <trkpt lat="45.89014" lon="4.7459">
        <ele>191</ele>
        <time>2018-04-20T08:59:06Z</time>
      </trkpt>
      <trkpt lat="45.89013" lon="4.74592">
        <ele>191</ele>
        <time>2018-04-20T08:59:07Z</time>
      </trkpt>
      <trkpt lat="45.8901" lon="4.74604">
        <ele>191</ele>
        <time>2018-04-20T08:59:11Z</time>
      </trkpt>
      <trkpt lat="45.89009" lon="4.74607">
        <ele>191</ele>
        <time>2018-04-20T08:59:12Z</time>
      </trkpt>
      <trkpt lat="45.89006" lon="4.74617">
        <ele>191</ele>
        <time>2018-04-20T08:59:15Z</time>
      </trkpt>
      <trkpt lat="45.89005" lon="4.7462">
        <ele>192</ele>
        <time>2018-04-20T08:59:16Z</time>
      </trkpt>
      <trkpt lat="45.89003" lon="4.74631">
        <ele>192</ele>
        <time>2018-04-20T08:59:19Z</time>
      </trkpt>
      <trkpt lat="45.89002" lon="4.74635">
        <ele>192</ele>
        <time>2018-04-20T08:59:20Z</time>
      </trkpt>
      <trkpt lat="45.89" lon="4.74646">
        <ele>193</ele>
        <time>2018-04-20T08:59:23Z</time>
      </trkpt>
      <trkpt lat="45.88999" lon="4.7465">
        <ele>193</ele>
        <time>2018-04-20T08:59:24Z</time>
      </trkpt>
      <trkpt lat="45.88998" lon="4.74661">
        <ele>194</ele>
        <time>2018-04-20T08:59:27Z</time>
      </trkpt>
      <trkpt lat="45.88997" lon="4.74664">
        <ele>194</ele>
        <time>2018-04-20T08:59:28Z</time>
      </trkpt>
      <trkpt lat="45.88996" lon="4.74674">
        <ele>195</ele>
        <time>2018-04-20T08:59:31Z</time>
      </trkpt>
      <trkpt lat="45.88995" lon="4.74678">
        <ele>195</ele>
        <time>2018-04-20T08:59:32Z</time>
      </trkpt>
      <trkpt lat="45.88993" lon="4.74688">
        <ele>195</ele>
        <time>2018-04-20T08:59:35Z</time>
      </trkpt>
      <trkpt lat="45.88992" lon="4.74691">
        <ele>195</ele>
        <time>2018-04-20T08:59:36Z</time>
      </trkpt>
      <trkpt lat="45.88991" lon="4.74703">
        <ele>196</ele>
        <time>2018-04-20T08:59:40Z</time>
      </trkpt>
      <trkpt lat="45.88991" lon="4.74706">
        <ele>196</ele>
        <time>2018-04-20T08:59:41Z</time>
      </trkpt>
      <trkpt lat="45.88992" lon="4.74717">
        <ele>196</ele>
        <time>2018-04-20T08:59:45Z</time>
      </trkpt>
      <trkpt lat="45.88992" lon="4.7472">
        <ele>196</ele>
        <time>2018-04-20T08:59:46Z</time>
      </trkpt>
      <trkpt lat="45.88994" lon="4.74732">
        <ele>197</ele>
        <time>2018-04-20T08:59:51Z</time>
      </trkpt>
      <trkpt lat="45.88996" lon="4.74733">
        <ele>197</ele>
        <time>2018-04-20T08:59:52Z</time>
      </trkpt>
      <trkpt lat="45.89004" lon="4.74736">
        <ele>196</ele>
        <time>2018-04-20T09:00:01Z</time>
      </trkpt>
      <trkpt lat="45.89005" lon="4.74736">
        <ele>196</ele>
        <time>2018-04-20T09:00:02Z</time>
      </trkpt>
      <trkpt lat="45.89012" lon="4.74732">
        <ele>196</ele>
        <time>2018-04-20T09:02:04Z</time>
      </trkpt>
      <trkpt lat="45.89014" lon="4.74733">
        <ele>196</ele>
        <time>2018-04-20T09:02:05Z</time>
      </trkpt>
      <trkpt lat="45.8902" lon="4.74742">
        <ele>196</ele>
        <time>2018-04-20T09:02:09Z</time>
      </trkpt>
      <trkpt lat="45.8902" lon="4.74746">
        <ele>196</ele>
        <time>2018-04-20T09:02:10Z</time>
      </trkpt>
      <trkpt lat="45.8902" lon="4.74758">
        <ele>198</ele>
        <time>2018-04-20T09:02:13Z</time>
      </trkpt>
      <trkpt lat="45.8902" lon="4.74762">
        <ele>198</ele>
        <time>2018-04-20T09:02:14Z</time>
      </trkpt>
      <trkpt lat="45.89021" lon="4.74771">
        <ele>198</ele>
        <time>2018-04-20T09:02:16Z</time>
      </trkpt>
      <trkpt lat="45.89021" lon="4.74776">
        <ele>198</ele>
        <time>2018-04-20T09:02:17Z</time>
      </trkpt>
      <trkpt lat="45.89022" lon="4.74785">
        <ele>198</ele>
        <time>2018-04-20T09:02:19Z</time>
      </trkpt>
      <trkpt lat="45.89022" lon="4.74789">
        <ele>198</ele>
        <time>2018-04-20T09:02:20Z</time>
      </trkpt>
      <trkpt lat="45.89023" lon="4.74793">
        <ele>198</ele>
        <time>2018-04-20T09:02:21Z</time>
      </trkpt>
      <trkpt lat="45.89023" lon="4.74805">
        <ele>199</ele>
        <time>2018-04-20T09:02:22Z</time>
      </trkpt>
      <trkpt lat="45.89025" lon="4.74817">
        <ele>199</ele>
        <time>2018-04-20T09:02:26Z</time>
      </trkpt>
      <trkpt lat="45.89026" lon="4.7482">
        <ele>199</ele>
        <time>2018-04-20T09:02:27Z</time>
      </trkpt>
      <trkpt lat="45.8903" lon="4.74832">
        <ele>199</ele>
        <time>2018-04-20T09:02:30Z</time>
      </trkpt>
      <trkpt lat="45.89031" lon="4.74836">
        <ele>199</ele>
        <time>2018-04-20T09:02:31Z</time>
      </trkpt>
      <trkpt lat="45.89034" lon="4.74848">
        <ele>199</ele>
        <time>2018-04-20T09:02:34Z</time>
      </trkpt>
      <trkpt lat="45.89034" lon="4.74852">
        <ele>199</ele>
        <time>2018-04-20T09:02:35Z</time>
      </trkpt>
      <trkpt lat="45.89036" lon="4.74861">
        <ele>199</ele>
        <time>2018-04-20T09:02:37Z</time>
      </trkpt>
      <trkpt lat="45.89037" lon="4.74865">
        <ele>199</ele>
        <time>2018-04-20T09:02:38Z</time>
      </trkpt>
      <trkpt lat="45.89038" lon="4.74869">
        <ele>199</ele>
        <time>2018-04-20T09:02:39Z</time>
      </trkpt>
      <trkpt lat="45.8903" lon="4.74882">
        <ele>199</ele>
        <time>2018-04-20T09:02:40Z</time>
      </trkpt>
      <trkpt lat="45.89024" lon="4.7489">
        <ele>199</ele>
        <time>2018-04-20T09:02:46Z</time>
      </trkpt>
      <trkpt lat="45.89023" lon="4.74892">
        <ele>199</ele>
        <time>2018-04-20T09:02:47Z</time>
      </trkpt>
      <trkpt lat="45.8902" lon="4.74904">
        <ele>199</ele>
        <time>2018-04-20T09:02:49Z</time>
      </trkpt>
      <trkpt lat="45.89017" lon="4.74912">
        <ele>199</ele>
        <time>2018-04-20T09:02:50Z</time>
      </trkpt>
      <trkpt lat="45.89016" lon="4.74917">
        <ele>199</ele>
        <time>2018-04-20T09:02:52Z</time>
      </trkpt>
      <trkpt lat="45.89015" lon="4.74926">
        <ele>199</ele>
        <time>2018-04-20T09:02:53Z</time>
      </trkpt>
      <trkpt lat="45.89013" lon="4.74935">
        <ele>199</ele>
        <time>2018-04-20T09:02:55Z</time>
      </trkpt>
      <trkpt lat="45.8901" lon="4.74942">
        <ele>199</ele>
        <time>2018-04-20T09:02:56Z</time>
      </trkpt>
      <trkpt lat="45.89011" lon="4.74947">
        <ele>199</ele>
        <time>2018-04-20T09:02:58Z</time>
      </trkpt>
      <trkpt lat="45.89011" lon="4.74959">
        <ele>199</ele>
        <time>2018-04-20T09:02:59Z</time>
      </trkpt>
      <trkpt lat="45.8901" lon="4.74969">
        <ele>199</ele>
        <time>2018-04-20T09:03:02Z</time>
      </trkpt>
      <trkpt lat="45.8901" lon="4.74973">
        <ele>199</ele>
        <time>2018-04-20T09:03:03Z</time>
      </trkpt>
      <trkpt lat="45.89011" lon="4.74985">
        <ele>199</ele>
        <time>2018-04-20T09:03:06Z</time>
      </trkpt>
      <trkpt lat="45.89011" lon="4.74989">
        <ele>199</ele>
        <time>2018-04-20T09:03:07Z</time>
      </trkpt>
      <trkpt lat="45.89011" lon="4.74994">
        <ele>199</ele>
        <time>2018-04-20T09:03:08Z</time>
      </trkpt>
      <trkpt lat="45.89012" lon="4.75008">
        <ele>199</ele>
        <time>2018-04-20T09:03:09Z</time>
      </trkpt>
      <trkpt lat="45.89012" lon="4.75016">
        <ele>199</ele>
        <time>2018-04-20T09:03:11Z</time>
      </trkpt>
      <trkpt lat="45.89013" lon="4.75024">
        <ele>199</ele>
        <time>2018-04-20T09:03:12Z</time>
      </trkpt>
      <trkpt lat="45.89013" lon="4.75036">
        <ele>199</ele>
        <time>2018-04-20T09:03:15Z</time>
      </trkpt>
      <trkpt lat="45.89014" lon="4.75046">
        <ele>199</ele>
        <time>2018-04-20T09:03:16Z</time>
      </trkpt>
      <trkpt lat="45.89017" lon="4.75057">
        <ele>199</ele>
        <time>2018-04-20T09:03:18Z</time>
      </trkpt>
      <trkpt lat="45.8902" lon="4.75062">
        <ele>199</ele>
        <time>2018-04-20T09:03:19Z</time>
      </trkpt>
      <trkpt lat="45.89024" lon="4.75069">
        <ele>199</ele>
        <time>2018-04-20T09:03:21Z</time>
      </trkpt>
      <trkpt lat="45.89028" lon="4.75074">
        <ele>199</ele>
        <time>2018-04-20T09:03:22Z</time>
      </trkpt>
      <trkpt lat="45.89032" lon="4.75078">
        <ele>199</ele>
        <time>2018-04-20T09:03:23Z</time>
      </trkpt>
      <trkpt lat="45.89039" lon="4.75081">
        <ele>199</ele>
        <time>2018-04-20T09:03:24Z</time>
      </trkpt>
      <trkpt lat="45.89041" lon="4.75086">
        <ele>199</ele>
        <time>2018-04-20T09:03:25Z</time>
      </trkpt>
      <trkpt lat="45.89044" lon="4.75091">
        <ele>199</ele>
        <time>2018-04-20T09:03:26Z</time>
      </trkpt>
      <trkpt lat="45.89048" lon="4.75101">
        <ele>199</ele>
        <time>2018-04-20T09:03:28Z</time>
      </trkpt>
      <trkpt lat="45.8905" lon="4.75106">
        <ele>199</ele>
        <time>2018-04-20T09:03:29Z</time>
      </trkpt>
      <trkpt lat="45.89054" lon="4.75113">
        <ele>199</ele>
        <time>2018-04-20T09:03:32Z</time>
      </trkpt>
      <trkpt lat="45.89057" lon="4.75122">
        <ele>199</ele>
        <time>2018-04-20T09:03:33Z</time>
      </trkpt>
      <trkpt lat="45.8906" lon="4.75133">
        <ele>199</ele>
        <time>2018-04-20T09:03:35Z</time>
      </trkpt>
      <trkpt lat="45.89061" lon="4.75135">
        <ele>199</ele>
        <time>2018-04-20T09:03:36Z</time>
      </trkpt>
      <trkpt lat="45.89063" lon="4.75145">
        <ele>199</ele>
        <time>2018-04-20T09:03:39Z</time>
      </trkpt>
      <trkpt lat="45.89064" lon="4.75149">
        <ele>199</ele>
        <time>2018-04-20T09:03:40Z</time>
      </trkpt>
      <trkpt lat="45.89065" lon="4.75161">
        <ele>199</ele>
        <time>2018-04-20T09:03:41Z</time>
      </trkpt>
      <trkpt lat="45.89065" lon="4.75166">
        <ele>199</ele>
        <time>2018-04-20T09:03:42Z</time>
      </trkpt>
      <trkpt lat="45.89065" lon="4.75178">
        <ele>199</ele>
        <time>2018-04-20T09:03:44Z</time>
      </trkpt>
      <trkpt lat="45.89066" lon="4.75184">
        <ele>199</ele>
        <time>2018-04-20T09:03:45Z</time>
      </trkpt>
      <trkpt lat="45.89065" lon="4.75197">
        <ele>199</ele>
        <time>2018-04-20T09:03:47Z</time>
      </trkpt>
      <trkpt lat="45.89065" lon="4.75203">
        <ele>199</ele>
        <time>2018-04-20T09:03:48Z</time>
      </trkpt>
      <trkpt lat="45.89062" lon="4.75211">
        <ele>199</ele>
        <time>2018-04-20T09:03:50Z</time>
      </trkpt>
      <trkpt lat="45.89061" lon="4.75215">
        <ele>199</ele>
        <time>2018-04-20T09:03:51Z</time>
      </trkpt>
      <trkpt lat="45.89059" lon="4.75224">
        <ele>199</ele>
        <time>2018-04-20T09:03:52Z</time>
      </trkpt>
      <trkpt lat="45.89058" lon="4.7523">
        <ele>199</ele>
        <time>2018-04-20T09:03:53Z</time>
      </trkpt>
      <trkpt lat="45.89056" lon="4.75237">
        <ele>199</ele>
        <time>2018-04-20T09:03:54Z</time>
      </trkpt>
      <trkpt lat="45.89055" lon="4.75243">
        <ele>199</ele>
        <time>2018-04-20T09:03:55Z</time>
      </trkpt>
      <trkpt lat="45.89054" lon="4.75255">
        <ele>199</ele>
        <time>2018-04-20T09:03:57Z</time>
      </trkpt>
      <trkpt lat="45.89054" lon="4.7526">
        <ele>199</ele>
        <time>2018-04-20T09:03:58Z</time>
      </trkpt>
      <trkpt lat="45.89053" lon="4.75272">
        <ele>199</ele>
        <time>2018-04-20T09:04:00Z</time>
      </trkpt>
      <trkpt lat="45.89053" lon="4.75277">
        <ele>199</ele>
        <time>2018-04-20T09:04:01Z</time>
      </trkpt>
      <trkpt lat="45.8905" lon="4.75289">
        <ele>199</ele>
        <time>2018-04-20T09:04:03Z</time>
      </trkpt>
      <trkpt lat="45.8905" lon="4.75295">
        <ele>199</ele>
        <time>2018-04-20T09:04:04Z</time>
      </trkpt>
      <trkpt lat="45.89049" lon="4.75302">
        <ele>199</ele>
        <time>2018-04-20T09:04:05Z</time>
      </trkpt>
      <trkpt lat="45.89045" lon="4.75308">
        <ele>199</ele>
        <time>2018-04-20T09:04:06Z</time>
      </trkpt>
      <trkpt lat="45.89045" lon="4.7532">
        <ele>199</ele>
        <time>2018-04-20T09:04:08Z</time>
      </trkpt>
      <trkpt lat="45.89045" lon="4.75325">
        <ele>199</ele>
        <time>2018-04-20T09:04:09Z</time>
      </trkpt>
      <trkpt lat="45.89044" lon="4.75333">
        <ele>199</ele>
        <time>2018-04-20T09:04:10Z</time>
      </trkpt>
      <trkpt lat="45.89043" lon="4.75339">
        <ele>199</ele>
        <time>2018-04-20T09:04:11Z</time>
      </trkpt>
      <trkpt lat="45.89045" lon="4.75352">
        <ele>199</ele>
        <time>2018-04-20T09:04:13Z</time>
      </trkpt>
      <trkpt lat="45.89044" lon="4.75357">
        <ele>199</ele>
        <time>2018-04-20T09:04:14Z</time>
      </trkpt>
      <trkpt lat="45.89043" lon="4.7537">
        <ele>199</ele>
        <time>2018-04-20T09:04:16Z</time>
      </trkpt>
      <trkpt lat="45.89043" lon="4.75372">
        <ele>199</ele>
        <time>2018-04-20T09:04:17Z</time>
      </trkpt>
      <trkpt lat="45.89043" lon="4.75382">
        <ele>199</ele>
        <time>2018-04-20T09:04:20Z</time>
      </trkpt>
      <trkpt lat="45.89042" lon="4.75386">
        <ele>199</ele>
        <time>2018-04-20T09:04:21Z</time>
      </trkpt>
      <trkpt lat="45.8904" lon="4.75396">
        <ele>199</ele>
        <time>2018-04-20T09:04:24Z</time>
      </trkpt>
      <trkpt lat="45.89038" lon="4.754">
        <ele>199</ele>
        <time>2018-04-20T09:04:25Z</time>
      </trkpt>
      <trkpt lat="45.89036" lon="4.75403">
        <ele>199</ele>
        <time>2018-04-20T09:04:26Z</time>
      </trkpt>
      <trkpt lat="45.89028" lon="4.75409">
        <ele>199</ele>
        <time>2018-04-20T09:04:27Z</time>
      </trkpt>
      <trkpt lat="45.89019" lon="4.75412">
        <ele>199</ele>
        <time>2018-04-20T09:04:29Z</time>
      </trkpt>
      <trkpt lat="45.89017" lon="4.75413">
        <ele>199</ele>
        <time>2018-04-20T09:04:30Z</time>
      </trkpt>
      <trkpt lat="45.89015" lon="4.75414">
        <ele>199</ele>
        <time>2018-04-20T09:04:31Z</time>
      </trkpt>
      <trkpt lat="45.89008" lon="4.75416">
        <ele>199</ele>
        <time>2018-04-20T09:04:32Z</time>
      </trkpt>
      <trkpt lat="45.89001" lon="4.75419">
        <ele>199</ele>
        <time>2018-04-20T09:04:34Z</time>
      </trkpt>
      <trkpt lat="45.88999" lon="4.7542">
        <ele>199</ele>
        <time>2018-04-20T09:04:35Z</time>
      </trkpt>
      <trkpt lat="45.88994" lon="4.75423">
        <ele>199</ele>
        <time>2018-04-20T09:04:37Z</time>
      </trkpt>
      <trkpt lat="45.88987" lon="4.75426">
        <ele>199</ele>
        <time>2018-04-20T09:04:38Z</time>
      </trkpt>
      <trkpt lat="45.88979" lon="4.75428">
        <ele>199</ele>
        <time>2018-04-20T09:04:40Z</time>
      </trkpt>
      <trkpt lat="45.88975" lon="4.75428">
        <ele>199</ele>
        <time>2018-04-20T09:04:41Z</time>
      </trkpt>
      <trkpt lat="45.88967" lon="4.75425">
        <ele>199</ele>
        <time>2018-04-20T09:04:44Z</time>
      </trkpt>
      <trkpt lat="45.88964" lon="4.75424">
        <ele>199</ele>
        <time>2018-04-20T09:04:45Z</time>
      </trkpt>
      <trkpt lat="45.88956" lon="4.75427">
        <ele>199</ele>
        <time>2018-04-20T09:04:49Z</time>
      </trkpt>
      <trkpt lat="45.88955" lon="4.75429">
        <ele>199</ele>
        <time>2018-04-20T09:04:50Z</time>
      </trkpt>
      <trkpt lat="45.88952" lon="4.75441">
        <ele>199</ele>
        <time>2018-04-20T09:05:40Z</time>
      </trkpt>
      <trkpt lat="45.88952" lon="4.75444">
        <ele>199</ele>
        <time>2018-04-20T09:05:41Z</time>
      </trkpt>
      <trkpt lat="45.88952" lon="4.75455">
        <ele>199</ele>
        <time>2018-04-20T09:05:44Z</time>
      </trkpt>
      <trkpt lat="45.88952" lon="4.75466">
        <ele>199</ele>
        <time>2018-04-20T09:05:45Z</time>
      </trkpt>
      <trkpt lat="45.88952" lon="4.75478">
        <ele>199</ele>
        <time>2018-04-20T09:05:47Z</time>
      </trkpt>
      <trkpt lat="45.88952" lon="4.75484">
        <ele>199</ele>
        <time>2018-04-20T09:05:48Z</time>
      </trkpt>
      <trkpt lat="45.88953" lon="4.75493">
        <ele>198</ele>
        <time>2018-04-20T09:05:49Z</time>
      </trkpt>
      <trkpt lat="45.88953" lon="4.755">
        <ele>198</ele>
        <time>2018-04-20T09:05:50Z</time>
      </trkpt>
      <trkpt lat="45.88953" lon="4.75506">
        <ele>198</ele>
        <time>2018-04-20T09:05:51Z</time>
      </trkpt>
      <trkpt lat="45.88953" lon="4.75513">
        <ele>198</ele>
        <time>2018-04-20T09:05:52Z</time>
      </trkpt>
      <trkpt lat="45.88954" lon="4.75521">
        <ele>198</ele>
        <time>2018-04-20T09:05:53Z</time>
      </trkpt>
      <trkpt lat="45.88956" lon="4.75528">
        <ele>198</ele>
        <time>2018-04-20T09:05:54Z</time>
      </trkpt>
      <trkpt lat="45.88956" lon="4.75541">
        <ele>198</ele>
        <time>2018-04-20T09:05:56Z</time>
      </trkpt>
      <trkpt lat="45.88957" lon="4.75547">
        <ele>198</ele>
        <time>2018-04-20T09:05:57Z</time>
      </trkpt>
      <trkpt lat="45.88958" lon="4.75559">
        <ele>198</ele>
        <time>2018-04-20T09:05:59Z</time>
      </trkpt>
      <trkpt lat="45.88959" lon="4.75566">
        <ele>198</ele>
        <time>2018-04-20T09:06:00Z</time>
      </trkpt>
      <trkpt lat="45.8896" lon="4.75578">
        <ele>198</ele>
        <time>2018-04-20T09:06:02Z</time>
      </trkpt>
      <trkpt lat="45.88961" lon="4.75585">
        <ele>198</ele>
        <time>2018-04-20T09:06:03Z</time>
      </trkpt>
      <trkpt lat="45.88962" lon="4.75591">
        <ele>198</ele>
        <time>2018-04-20T09:06:04Z</time>
      </trkpt>
      <trkpt lat="45.88963" lon="4.75598">
        <ele>198</ele>
        <time>2018-04-20T09:06:05Z</time>
      </trkpt>
      <trkpt lat="45.88964" lon="4.75606">
        <ele>198</ele>
        <time>2018-04-20T09:06:06Z</time>
      </trkpt>
      <trkpt lat="45.88965" lon="4.75613">
        <ele>198</ele>
        <time>2018-04-20T09:06:07Z</time>
      </trkpt>
      <trkpt lat="45.88966" lon="4.75619">
        <ele>198</ele>
        <time>2018-04-20T09:06:08Z</time>
      </trkpt>
      <trkpt lat="45.88968" lon="4.75626">
        <ele>198</ele>
        <time>2018-04-20T09:06:09Z</time>
      </trkpt>
      <trkpt lat="45.8897" lon="4.75634">
        <ele>198</ele>
        <time>2018-04-20T09:06:10Z</time>
      </trkpt>
      <trkpt lat="45.88972" lon="4.75641">
        <ele>198</ele>
        <time>2018-04-20T09:06:11Z</time>
      </trkpt>
      <trkpt lat="45.88974" lon="4.75647">
        <ele>198</ele>
        <time>2018-04-20T09:06:12Z</time>
      </trkpt>
      <trkpt lat="45.88977" lon="4.75653">
        <ele>198</ele>
        <time>2018-04-20T09:06:13Z</time>
      </trkpt>
      <trkpt lat="45.88979" lon="4.75664">
        <ele>198</ele>
        <time>2018-04-20T09:06:15Z</time>
      </trkpt>
      <trkpt lat="45.8898" lon="4.75669">
        <ele>198</ele>
        <time>2018-04-20T09:06:16Z</time>
      </trkpt>
      <trkpt lat="45.88982" lon="4.75679">
        <ele>198</ele>
        <time>2018-04-20T09:06:18Z</time>
      </trkpt>
      <trkpt lat="45.88984" lon="4.75687">
        <ele>198</ele>
        <time>2018-04-20T09:06:19Z</time>
      </trkpt>
      <trkpt lat="45.88985" lon="4.75698">
        <ele>199</ele>
        <time>2018-04-20T09:06:21Z</time>
      </trkpt>
      <trkpt lat="45.88986" lon="4.75704">
        <ele>199</ele>
        <time>2018-04-20T09:06:22Z</time>
      </trkpt>
      <trkpt lat="45.88986" lon="4.75711">
        <ele>199</ele>
        <time>2018-04-20T09:06:23Z</time>
      </trkpt>
      <trkpt lat="45.88987" lon="4.75718">
        <ele>198</ele>
        <time>2018-04-20T09:06:24Z</time>
      </trkpt>
      <trkpt lat="45.88989" lon="4.75728">
        <ele>198</ele>
        <time>2018-04-20T09:06:26Z</time>
      </trkpt>
      <trkpt lat="45.88991" lon="4.75733">
        <ele>198</ele>
        <time>2018-04-20T09:06:27Z</time>
      </trkpt>
      <trkpt lat="45.88994" lon="4.75744">
        <ele>198</ele>
        <time>2018-04-20T09:06:29Z</time>
      </trkpt>
      <trkpt lat="45.88995" lon="4.7575">
        <ele>198</ele>
        <time>2018-04-20T09:06:30Z</time>
      </trkpt>
      <trkpt lat="45.88998" lon="4.75756">
        <ele>198</ele>
        <time>2018-04-20T09:06:31Z</time>
      </trkpt>
      <trkpt lat="45.89" lon="4.75762">
        <ele>198</ele>
        <time>2018-04-20T09:06:32Z</time>
      </trkpt>
      <trkpt lat="45.89004" lon="4.75772">
        <ele>199</ele>
        <time>2018-04-20T09:06:34Z</time>
      </trkpt>
      <trkpt lat="45.89006" lon="4.75778">
        <ele>199</ele>
        <time>2018-04-20T09:06:35Z</time>
      </trkpt>
      <trkpt lat="45.89005" lon="4.75785">
        <ele>199</ele>
        <time>2018-04-20T09:06:36Z</time>
      </trkpt>
      <trkpt lat="45.89008" lon="4.75792">
        <ele>199</ele>
        <time>2018-04-20T09:06:37Z</time>
      </trkpt>
      <trkpt lat="45.8901" lon="4.75798">
        <ele>199</ele>
        <time>2018-04-20T09:06:38Z</time>
      </trkpt>
      <trkpt lat="45.89012" lon="4.75805">
        <ele>199</ele>
        <time>2018-04-20T09:06:39Z</time>
      </trkpt>
      <trkpt lat="45.89015" lon="4.75816">
        <ele>199</ele>
        <time>2018-04-20T09:06:41Z</time>
      </trkpt>
      <trkpt lat="45.89017" lon="4.75822">
        <ele>199</ele>
        <time>2018-04-20T09:06:42Z</time>
      </trkpt>
      <trkpt lat="45.89017" lon="4.75834">
        <ele>200</ele>
        <time>2018-04-20T09:06:44Z</time>
      </trkpt>
      <trkpt lat="45.89017" lon="4.75841">
        <ele>200</ele>
        <time>2018-04-20T09:06:45Z</time>
      </trkpt>
      <trkpt lat="45.89016" lon="4.75848">
        <ele>200</ele>
        <time>2018-04-20T09:06:46Z</time>
      </trkpt>
      <trkpt lat="45.89016" lon="4.75854">
        <ele>200</ele>
        <time>2018-04-20T09:06:47Z</time>
      </trkpt>
      <trkpt lat="45.89015" lon="4.75862">
        <ele>200</ele>
        <time>2018-04-20T09:06:49Z</time>
      </trkpt>
      <trkpt lat="45.89012" lon="4.75871">
        <ele>200</ele>
        <time>2018-04-20T09:06:50Z</time>
      </trkpt>
      <trkpt lat="45.89008" lon="4.7588">
        <ele>200</ele>
        <time>2018-04-20T09:06:52Z</time>
      </trkpt>
      <trkpt lat="45.89005" lon="4.75887">
        <ele>200</ele>
        <time>2018-04-20T09:06:53Z</time>
      </trkpt>
      <trkpt lat="45.89002" lon="4.75892">
        <ele>200</ele>
        <time>2018-04-20T09:06:54Z</time>
      </trkpt>
      <trkpt lat="45.89" lon="4.75898">
        <ele>200</ele>
        <time>2018-04-20T09:06:55Z</time>
      </trkpt>
      <trkpt lat="45.88998" lon="4.75905">
        <ele>199</ele>
        <time>2018-04-20T09:06:56Z</time>
      </trkpt>
      <trkpt lat="45.88995" lon="4.75911">
        <ele>200</ele>
        <time>2018-04-20T09:06:57Z</time>
      </trkpt>
      <trkpt lat="45.88993" lon="4.75917">
        <ele>200</ele>
        <time>2018-04-20T09:06:58Z</time>
      </trkpt>
      <trkpt lat="45.8899" lon="4.75922">
        <ele>200</ele>
        <time>2018-04-20T09:06:59Z</time>
      </trkpt>
      <trkpt lat="45.88987" lon="4.75932">
        <ele>199</ele>
        <time>2018-04-20T09:07:01Z</time>
      </trkpt>
      <trkpt lat="45.88985" lon="4.75937">
        <ele>199</ele>
        <time>2018-04-20T09:07:02Z</time>
      </trkpt>
      <trkpt lat="45.88983" lon="4.75941">
        <ele>199</ele>
        <time>2018-04-20T09:07:04Z</time>
      </trkpt>
      <trkpt lat="45.88984" lon="4.7595">
        <ele>199</ele>
        <time>2018-04-20T09:07:05Z</time>
      </trkpt>
      <trkpt lat="45.88985" lon="4.75959">
        <ele>199</ele>
        <time>2018-04-20T09:07:07Z</time>
      </trkpt>
      <trkpt lat="45.88987" lon="4.75965">
        <ele>199</ele>
        <time>2018-04-20T09:07:08Z</time>
      </trkpt>
      <trkpt lat="45.88991" lon="4.75976">
        <ele>199</ele>
        <time>2018-04-20T09:07:10Z</time>
      </trkpt>
      <trkpt lat="45.88996" lon="4.75983">
        <ele>200</ele>
        <time>2018-04-20T09:07:11Z</time>
      </trkpt>
      <trkpt lat="45.88999" lon="4.75993">
        <ele>200</ele>
        <time>2018-04-20T09:07:13Z</time>
      </trkpt>
      <trkpt lat="45.89002" lon="4.75998">
        <ele>200</ele>
        <time>2018-04-20T09:07:14Z</time>
      </trkpt>
      <trkpt lat="45.89006" lon="4.76006">
        <ele>200</ele>
        <time>2018-04-20T09:07:16Z</time>
      </trkpt>
      <trkpt lat="45.89009" lon="4.76014">
        <ele>200</ele>
        <time>2018-04-20T09:07:17Z</time>
      </trkpt>
      <trkpt lat="45.89014" lon="4.76024">
        <ele>199</ele>
        <time>2018-04-20T09:07:19Z</time>
      </trkpt>
      <trkpt lat="45.89018" lon="4.7603">
        <ele>199</ele>
        <time>2018-04-20T09:07:20Z</time>
      </trkpt>
      <trkpt lat="45.89022" lon="4.76035">
        <ele>199</ele>
        <time>2018-04-20T09:07:21Z</time>
      </trkpt>
      <trkpt lat="45.89024" lon="4.76041">
        <ele>199</ele>
        <time>2018-04-20T09:07:22Z</time>
      </trkpt>
      <trkpt lat="45.89028" lon="4.76051">
        <ele>199</ele>
        <time>2018-04-20T09:07:24Z</time>
      </trkpt>
      <trkpt lat="45.89029" lon="4.76053">
        <ele>199</ele>
        <time>2018-04-20T09:07:25Z</time>
      </trkpt>
      <trkpt lat="45.89034" lon="4.76062">
        <ele>199</ele>
        <time>2018-04-20T09:07:26Z</time>
      </trkpt>
      <trkpt lat="45.89037" lon="4.76068">
        <ele>199</ele>
        <time>2018-04-20T09:07:27Z</time>
      </trkpt>
      <trkpt lat="45.8904" lon="4.76075">
        <ele>199</ele>
        <time>2018-04-20T09:07:28Z</time>
      </trkpt>
      <trkpt lat="45.89042" lon="4.7608">
        <ele>199</ele>
        <time>2018-04-20T09:07:29Z</time>
      </trkpt>
      <trkpt lat="45.89046" lon="4.76085">
        <ele>198</ele>
        <time>2018-04-20T09:07:30Z</time>
      </trkpt>
      <trkpt lat="45.89048" lon="4.76092">
        <ele>197</ele>
        <time>2018-04-20T09:07:31Z</time>
      </trkpt>
      <trkpt lat="45.89054" lon="4.76101">
        <ele>197</ele>
        <time>2018-04-20T09:07:33Z</time>
      </trkpt>
      <trkpt lat="45.89056" lon="4.76106">
        <ele>197</ele>
        <time>2018-04-20T09:07:34Z</time>
      </trkpt>
      <trkpt lat="45.89059" lon="4.76113">
        <ele>197</ele>
        <time>2018-04-20T09:07:37Z</time>
      </trkpt>
      <trkpt lat="45.89059" lon="4.76121">
        <ele>197</ele>
        <time>2018-04-20T09:07:38Z</time>
      </trkpt>
      <trkpt lat="45.8906" lon="4.7613">
        <ele>197</ele>
        <time>2018-04-20T09:07:40Z</time>
      </trkpt>
      <trkpt lat="45.89063" lon="4.76138">
        <ele>197</ele>
        <time>2018-04-20T09:07:41Z</time>
      </trkpt>
      <trkpt lat="45.89066" lon="4.76144">
        <ele>197</ele>
        <time>2018-04-20T09:07:42Z</time>
      </trkpt>
      <trkpt lat="45.8907" lon="4.76149">
        <ele>196</ele>
        <time>2018-04-20T09:07:43Z</time>
      </trkpt>
      <trkpt lat="45.89076" lon="4.76157">
        <ele>196</ele>
        <time>2018-04-20T09:07:45Z</time>
      </trkpt>
      <trkpt lat="45.89078" lon="4.7616">
        <ele>196</ele>
        <time>2018-04-20T09:07:46Z</time>
      </trkpt>
      <trkpt lat="45.89083" lon="4.76169">
        <ele>195</ele>
        <time>2018-04-20T09:07:47Z</time>
      </trkpt>
      <trkpt lat="45.89084" lon="4.76171">
        <ele>195</ele>
        <time>2018-04-20T09:07:48Z</time>
      </trkpt>
      <trkpt lat="45.89086" lon="4.76173">
        <ele>195</ele>
        <time>2018-04-20T09:07:49Z</time>
      </trkpt>
      <trkpt lat="45.89092" lon="4.76182">
        <ele>196</ele>
        <time>2018-04-20T09:07:50Z</time>
      </trkpt>
      <trkpt lat="45.89097" lon="4.76191">
        <ele>196</ele>
        <time>2018-04-20T09:07:52Z</time>
      </trkpt>
      <trkpt lat="45.891" lon="4.76195">
        <ele>196</ele>
        <time>2018-04-20T09:07:53Z</time>
      </trkpt>
      <trkpt lat="45.89106" lon="4.76205">
        <ele>196</ele>
        <time>2018-04-20T09:07:55Z</time>
      </trkpt>
      <trkpt lat="45.89107" lon="4.76207">
        <ele>196</ele>
        <time>2018-04-20T09:07:56Z</time>
      </trkpt>
      <trkpt lat="45.89108" lon="4.76212">
        <ele>196</ele>
        <time>2018-04-20T09:07:58Z</time>
      </trkpt>
      <trkpt lat="45.89111" lon="4.76222">
        <ele>196</ele>
        <time>2018-04-20T09:07:59Z</time>
      </trkpt>
      <trkpt lat="45.89116" lon="4.7623">
        <ele>196</ele>
        <time>2018-04-20T09:08:00Z</time>
      </trkpt>
      <trkpt lat="45.89119" lon="4.76236">
        <ele>196</ele>
        <time>2018-04-20T09:08:01Z</time>
      </trkpt>
      <trkpt lat="45.89123" lon="4.76244">
        <ele>196</ele>
        <time>2018-04-20T09:08:03Z</time>
      </trkpt>
      <trkpt lat="45.89125" lon="4.76251">
        <ele>197</ele>
        <time>2018-04-20T09:08:04Z</time>
      </trkpt>
      <trkpt lat="45.89127" lon="4.76256">
        <ele>197</ele>
        <time>2018-04-20T09:08:05Z</time>
      </trkpt>
      <trkpt lat="45.8913" lon="4.76262">
        <ele>197</ele>
        <time>2018-04-20T09:08:06Z</time>
      </trkpt>
      <trkpt lat="45.89133" lon="4.76267">
        <ele>197</ele>
        <time>2018-04-20T09:08:07Z</time>
      </trkpt>
      <trkpt lat="45.89136" lon="4.76273">
        <ele>196</ele>
        <time>2018-04-20T09:08:08Z</time>
      </trkpt>
      <trkpt lat="45.89139" lon="4.76278">
        <ele>196</ele>
        <time>2018-04-20T09:08:09Z</time>
      </trkpt>
      <trkpt lat="45.89143" lon="4.76285">
        <ele>196</ele>
        <time>2018-04-20T09:08:10Z</time>
      </trkpt>
      <trkpt lat="45.89146" lon="4.76295">
        <ele>196</ele>
        <time>2018-04-20T09:08:12Z</time>
      </trkpt>
      <trkpt lat="45.89148" lon="4.763">
        <ele>196</ele>
        <time>2018-04-20T09:08:13Z</time>
      </trkpt>
      <trkpt lat="45.89152" lon="4.76306">
        <ele>196</ele>
        <time>2018-04-20T09:08:15Z</time>
      </trkpt>
      <trkpt lat="45.89154" lon="4.7631">
        <ele>196</ele>
        <time>2018-04-20T09:08:16Z</time>
      </trkpt>
      <trkpt lat="45.89159" lon="4.7632">
        <ele>196</ele>
        <time>2018-04-20T09:08:18Z</time>
      </trkpt>
      <trkpt lat="45.89162" lon="4.76325">
        <ele>195</ele>
        <time>2018-04-20T09:08:19Z</time>
      </trkpt>
      <trkpt lat="45.89165" lon="4.76331">
        <ele>195</ele>
        <time>2018-04-20T09:08:20Z</time>
      </trkpt>
      <trkpt lat="45.89167" lon="4.76337">
        <ele>195</ele>
        <time>2018-04-20T09:08:21Z</time>
      </trkpt>
      <trkpt lat="45.89169" lon="4.76347">
        <ele>195</ele>
        <time>2018-04-20T09:08:23Z</time>
      </trkpt>
      <trkpt lat="45.89171" lon="4.76349">
        <ele>195</ele>
        <time>2018-04-20T09:08:24Z</time>
      </trkpt>
      <trkpt lat="45.89174" lon="4.7636">
        <ele>194</ele>
        <time>2018-04-20T09:08:26Z</time>
      </trkpt>
      <trkpt lat="45.89178" lon="4.76366">
        <ele>194</ele>
        <time>2018-04-20T09:08:27Z</time>
      </trkpt>
      <trkpt lat="45.89182" lon="4.76372">
        <ele>194</ele>
        <time>2018-04-20T09:08:28Z</time>
      </trkpt>
      <trkpt lat="45.89185" lon="4.76377">
        <ele>194</ele>
        <time>2018-04-20T09:08:29Z</time>
      </trkpt>
      <trkpt lat="45.8919" lon="4.76387">
        <ele>194</ele>
        <time>2018-04-20T09:08:31Z</time>
      </trkpt>
      <trkpt lat="45.89192" lon="4.76389">
        <ele>194</ele>
        <time>2018-04-20T09:08:32Z</time>
      </trkpt>
      <trkpt lat="45.89197" lon="4.76398">
        <ele>194</ele>
        <time>2018-04-20T09:08:35Z</time>
      </trkpt>
      <trkpt lat="45.89204" lon="4.76408">
        <ele>194</ele>
        <time>2018-04-20T09:08:36Z</time>
      </trkpt>
      <trkpt lat="45.89209" lon="4.76419">
        <ele>194</ele>
        <time>2018-04-20T09:08:39Z</time>
      </trkpt>
      <trkpt lat="45.8921" lon="4.76422">
        <ele>194</ele>
        <time>2018-04-20T09:08:40Z</time>
      </trkpt>
      <trkpt lat="45.89212" lon="4.76425">
        <ele>194</ele>
        <time>2018-04-20T09:08:41Z</time>
      </trkpt>
      <trkpt lat="45.89216" lon="4.76435">
        <ele>194</ele>
        <time>2018-04-20T09:08:42Z</time>
      </trkpt>
      <trkpt lat="45.89219" lon="4.7644">
        <ele>194</ele>
        <time>2018-04-20T09:08:43Z</time>
      </trkpt>
      <trkpt lat="45.89223" lon="4.76446">
        <ele>194</ele>
        <time>2018-04-20T09:08:44Z</time>
      </trkpt>
      <trkpt lat="45.89228" lon="4.76455">
        <ele>194</ele>
        <time>2018-04-20T09:08:47Z</time>
      </trkpt>
      <trkpt lat="45.89229" lon="4.76457">
        <ele>194</ele>
        <time>2018-04-20T09:08:48Z</time>
      </trkpt>
      <trkpt lat="45.89235" lon="4.76464">
        <ele>193</ele>
        <time>2018-04-20T09:08:52Z</time>
      </trkpt>
      <trkpt lat="45.89237" lon="4.76466">
        <ele>193</ele>
        <time>2018-04-20T09:08:53Z</time>
      </trkpt>
      <trkpt lat="45.89243" lon="4.76472">
        <ele>193</ele>
        <time>2018-04-20T09:08:55Z</time>
      </trkpt>
      <trkpt lat="45.89245" lon="4.76475">
        <ele>193</ele>
        <time>2018-04-20T09:08:56Z</time>
      </trkpt>
      <trkpt lat="45.89251" lon="4.7648">
        <ele>193</ele>
        <time>2018-04-20T09:08:58Z</time>
      </trkpt>
      <trkpt lat="45.89254" lon="4.76482">
        <ele>193</ele>
        <time>2018-04-20T09:08:59Z</time>
      </trkpt>
      <trkpt lat="45.8926" lon="4.76485">
        <ele>193</ele>
        <time>2018-04-20T09:09:01Z</time>
      </trkpt>
      <trkpt lat="45.8927" lon="4.7649">
        <ele>193</ele>
        <time>2018-04-20T09:09:02Z</time>
      </trkpt>
      <trkpt lat="45.89278" lon="4.76493">
        <ele>193</ele>
        <time>2018-04-20T09:09:04Z</time>
      </trkpt>
      <trkpt lat="45.8928" lon="4.76494">
        <ele>193</ele>
        <time>2018-04-20T09:09:05Z</time>
      </trkpt>
      <trkpt lat="45.89288" lon="4.76497">
        <ele>193</ele>
        <time>2018-04-20T09:09:08Z</time>
      </trkpt>
      <trkpt lat="45.89291" lon="4.76498">
        <ele>193</ele>
        <time>2018-04-20T09:09:09Z</time>
      </trkpt>
      <trkpt lat="45.89294" lon="4.76499">
        <ele>194</ele>
        <time>2018-04-20T09:09:10Z</time>
      </trkpt>
      <trkpt lat="45.89304" lon="4.76502">
        <ele>194</ele>
        <time>2018-04-20T09:09:11Z</time>
      </trkpt>
      <trkpt lat="45.89308" lon="4.76503">
        <ele>194</ele>
        <time>2018-04-20T09:09:12Z</time>
      </trkpt>
      <trkpt lat="45.89313" lon="4.76504">
        <ele>194</ele>
        <time>2018-04-20T09:09:13Z</time>
      </trkpt>
      <trkpt lat="45.89318" lon="4.76506">
        <ele>194</ele>
        <time>2018-04-20T09:09:14Z</time>
      </trkpt>
      <trkpt lat="45.89322" lon="4.76508">
        <ele>194</ele>
        <time>2018-04-20T09:09:15Z</time>
      </trkpt>
      <trkpt lat="45.8933" lon="4.76511">
        <ele>194</ele>
        <time>2018-04-20T09:09:19Z</time>
      </trkpt>
      <trkpt lat="45.89333" lon="4.76512">
        <ele>194</ele>
        <time>2018-04-20T09:09:20Z</time>
      </trkpt>
      <trkpt lat="45.89342" lon="4.76515">
        <ele>194</ele>
        <time>2018-04-20T09:09:21Z</time>
      </trkpt>
      <trkpt lat="45.8935" lon="4.7652">
        <ele>194</ele>
        <time>2018-04-20T09:09:24Z</time>
      </trkpt>
      <trkpt lat="45.89352" lon="4.76522">
        <ele>194</ele>
        <time>2018-04-20T09:09:25Z</time>
      </trkpt>
      <trkpt lat="45.89359" lon="4.76526">
        <ele>194</ele>
        <time>2018-04-20T09:09:28Z</time>
      </trkpt>
      <trkpt lat="45.89361" lon="4.76527">
        <ele>194</ele>
        <time>2018-04-20T09:09:29Z</time>
      </trkpt>
      <trkpt lat="45.89368" lon="4.76527">
        <ele>194</ele>
        <time>2018-04-20T09:09:32Z</time>
      </trkpt>
      <trkpt lat="45.8937" lon="4.76527">
        <ele>194</ele>
        <time>2018-04-20T09:09:33Z</time>
      </trkpt>
      <trkpt lat="45.89379" lon="4.76529">
        <ele>194</ele>
        <time>2018-04-20T09:09:37Z</time>
      </trkpt>
      <trkpt lat="45.89381" lon="4.76531">
        <ele>194</ele>
        <time>2018-04-20T09:09:38Z</time>
      </trkpt>
      <trkpt lat="45.89388" lon="4.76534">
        <ele>194</ele>
        <time>2018-04-20T09:09:41Z</time>
      </trkpt>
      <trkpt lat="45.89391" lon="4.76535">
        <ele>194</ele>
        <time>2018-04-20T09:09:42Z</time>
      </trkpt>
      <trkpt lat="45.89398" lon="4.76537">
        <ele>194</ele>
        <time>2018-04-20T09:09:45Z</time>
      </trkpt>
      <trkpt lat="45.89401" lon="4.76538">
        <ele>194</ele>
        <time>2018-04-20T09:09:46Z</time>
      </trkpt>
      <trkpt lat="45.89409" lon="4.7654">
        <ele>194</ele>
        <time>2018-04-20T09:09:49Z</time>
      </trkpt>
      <trkpt lat="45.89411" lon="4.76542">
        <ele>194</ele>
        <time>2018-04-20T09:09:50Z</time>
      </trkpt>
      <trkpt lat="45.89418" lon="4.76547">
        <ele>194</ele>
        <time>2018-04-20T09:09:53Z</time>
      </trkpt>
      <trkpt lat="45.89419" lon="4.76549">
        <ele>194</ele>
        <time>2018-04-20T09:09:54Z</time>
      </trkpt>
      <trkpt lat="45.89426" lon="4.76556">
        <ele>194</ele>
        <time>2018-04-20T09:09:58Z</time>
      </trkpt>
      <trkpt lat="45.89428" lon="4.76558">
        <ele>194</ele>
        <time>2018-04-20T09:09:59Z</time>
      </trkpt>
      <trkpt lat="45.89436" lon="4.7656">
        <ele>194</ele>
        <time>2018-04-20T09:10:03Z</time>
      </trkpt>
      <trkpt lat="45.89438" lon="4.7656">
        <ele>194</ele>
        <time>2018-04-20T09:10:04Z</time>
      </trkpt>
      <trkpt lat="45.89446" lon="4.76559">
        <ele>194</ele>
        <time>2018-04-20T09:10:08Z</time>
      </trkpt>
      <trkpt lat="45.89448" lon="4.76559">
        <ele>194</ele>
        <time>2018-04-20T09:10:09Z</time>
      </trkpt>
      <trkpt lat="45.89453" lon="4.76558">
        <ele>194</ele>
        <time>2018-04-20T09:10:11Z</time>
      </trkpt>
      <trkpt lat="45.89462" lon="4.76554">
        <ele>194</ele>
        <time>2018-04-20T09:10:12Z</time>
      </trkpt>
      <trkpt lat="45.89469" lon="4.7655">
        <ele>194</ele>
        <time>2018-04-20T09:10:16Z</time>
      </trkpt>
      <trkpt lat="45.89471" lon="4.76549">
        <ele>194</ele>
        <time>2018-04-20T09:10:17Z</time>
      </trkpt>
      <trkpt lat="45.8948" lon="4.76545">
        <ele>194</ele>
        <time>2018-04-20T09:10:21Z</time>
      </trkpt>
      <trkpt lat="45.89482" lon="4.76545">
        <ele>194</ele>
        <time>2018-04-20T09:10:22Z</time>
      </trkpt>
      <trkpt lat="45.89487" lon="4.76545">
        <ele>194</ele>
        <time>2018-04-20T09:10:24Z</time>
      </trkpt>
      <trkpt lat="45.89496" lon="4.76544">
        <ele>194</ele>
        <time>2018-04-20T09:10:25Z</time>
      </trkpt>
      <trkpt lat="45.89503" lon="4.76543">
        <ele>194</ele>
        <time>2018-04-20T09:10:29Z</time>
      </trkpt>
      <trkpt lat="45.89505" lon="4.76542">
        <ele>194</ele>
        <time>2018-04-20T09:10:30Z</time>
      </trkpt>
      <trkpt lat="45.89513" lon="4.7654">
        <ele>194</ele>
        <time>2018-04-20T09:10:33Z</time>
      </trkpt>
      <trkpt lat="45.89516" lon="4.76539">
        <ele>194</ele>
        <time>2018-04-20T09:10:34Z</time>
      </trkpt>
      <trkpt lat="45.89522" lon="4.76538">
        <ele>194</ele>
        <time>2018-04-20T09:10:36Z</time>
      </trkpt>
      <trkpt lat="45.89526" lon="4.76537">
        <ele>194</ele>
        <time>2018-04-20T09:10:37Z</time>
      </trkpt>
      <trkpt lat="45.89533" lon="4.76536">
        <ele>194</ele>
        <time>2018-04-20T09:10:39Z</time>
      </trkpt>
      <trkpt lat="45.89536" lon="4.76536">
        <ele>194</ele>
        <time>2018-04-20T09:10:40Z</time>
      </trkpt>
      <trkpt lat="45.89544" lon="4.76533">
        <ele>194</ele>
        <time>2018-04-20T09:10:43Z</time>
      </trkpt>
      <trkpt lat="45.89547" lon="4.76532">
        <ele>194</ele>
        <time>2018-04-20T09:10:44Z</time>
      </trkpt>
      <trkpt lat="45.89557" lon="4.76529">
        <ele>194</ele>
        <time>2018-04-20T09:10:45Z</time>
      </trkpt>
      <trkpt lat="45.89565" lon="4.7653">
        <ele>194</ele>
        <time>2018-04-20T09:10:49Z</time>
      </trkpt>
      <trkpt lat="45.89567" lon="4.76531">
        <ele>194</ele>
        <time>2018-04-20T09:10:50Z</time>
      </trkpt>
      <trkpt lat="45.89575" lon="4.76534">
        <ele>194</ele>
        <time>2018-04-20T09:10:53Z</time>
      </trkpt>
      <trkpt lat="45.89578" lon="4.76534">
        <ele>194</ele>
        <time>2018-04-20T09:10:54Z</time>
      </trkpt>
      <trkpt lat="45.89585" lon="4.76532">
        <ele>194</ele>
        <time>2018-04-20T09:10:57Z</time>
      </trkpt>
      <trkpt lat="45.89588" lon="4.7653">
        <ele>194</ele>
        <time>2018-04-20T09:10:58Z</time>
      </trkpt>
      <trkpt lat="45.89593" lon="4.76521">
        <ele>194</ele>
        <time>2018-04-20T09:12:47Z</time>
      </trkpt>
      <trkpt lat="45.89594" lon="4.76518">
        <ele>194</ele>
        <time>2018-04-20T09:12:48Z</time>
      </trkpt>
      <trkpt lat="45.89599" lon="4.7651">
        <ele>194</ele>
        <time>2018-04-20T09:12:51Z</time>
      </trkpt>
      <trkpt lat="45.89603" lon="4.76498">
        <ele>194</ele>
        <time>2018-04-20T09:12:52Z</time>
      </trkpt>
      <trkpt lat="45.89608" lon="4.76487">
        <ele>194</ele>
        <time>2018-04-20T09:12:56Z</time>
      </trkpt>
      <trkpt lat="45.89609" lon="4.76484">
        <ele>194</ele>
        <time>2018-04-20T09:12:57Z</time>
      </trkpt>
      <trkpt lat="45.89611" lon="4.76477">
        <ele>194</ele>
        <time>2018-04-20T09:12:59Z</time>
      </trkpt>
      <trkpt lat="45.89613" lon="4.76472">
        <ele>194</ele>
        <time>2018-04-20T09:13:00Z</time>
      </trkpt>
      <trkpt lat="45.89617" lon="4.76461">
        <ele>194</ele>
        <time>2018-04-20T09:13:01Z</time>
      </trkpt>
      <trkpt lat="45.89618" lon="4.76459">
        <ele>194</ele>
        <time>2018-04-20T09:13:02Z</time>
      </trkpt>
      <trkpt lat="45.89622" lon="4.76448">
        <ele>195</ele>
        <time>2018-04-20T09:13:05Z</time>
      </trkpt>
      <trkpt lat="45.89623" lon="4.76445">
        <ele>195</ele>
        <time>2018-04-20T09:13:06Z</time>
      </trkpt>
      <trkpt lat="45.89626" lon="4.76434">
        <ele>195</ele>
        <time>2018-04-20T09:13:10Z</time>
      </trkpt>
      <trkpt lat="45.89627" lon="4.7643">
        <ele>195</ele>
        <time>2018-04-20T09:13:11Z</time>
      </trkpt>
      <trkpt lat="45.89631" lon="4.76421">
        <ele>195</ele>
        <time>2018-04-20T09:13:14Z</time>
      </trkpt>
      <trkpt lat="45.89632" lon="4.76417">
        <ele>195</ele>
        <time>2018-04-20T09:13:15Z</time>
      </trkpt>
      <trkpt lat="45.89636" lon="4.76405">
        <ele>195</ele>
        <time>2018-04-20T09:13:16Z</time>
      </trkpt>
      <trkpt lat="45.89638" lon="4.764">
        <ele>195</ele>
        <time>2018-04-20T09:13:18Z</time>
      </trkpt>
      <trkpt lat="45.89641" lon="4.76392">
        <ele>195</ele>
        <time>2018-04-20T09:13:19Z</time>
      </trkpt>
      <trkpt lat="45.89644" lon="4.76384">
        <ele>195</ele>
        <time>2018-04-20T09:13:22Z</time>
      </trkpt>
      <trkpt lat="45.89645" lon="4.76381">
        <ele>195</ele>
        <time>2018-04-20T09:13:23Z</time>
      </trkpt>
      <trkpt lat="45.89649" lon="4.76372">
        <ele>195</ele>
        <time>2018-04-20T09:13:24Z</time>
      </trkpt>
      <trkpt lat="45.8965" lon="4.76369">
        <ele>195</ele>
        <time>2018-04-20T09:13:25Z</time>
      </trkpt>
      <trkpt lat="45.89653" lon="4.76363">
        <ele>195</ele>
        <time>2018-04-20T09:13:26Z</time>
      </trkpt>
      <trkpt lat="45.89654" lon="4.76358">
        <ele>195</ele>
        <time>2018-04-20T09:13:27Z</time>
      </trkpt>
      <trkpt lat="45.89657" lon="4.76348">
        <ele>195</ele>
        <time>2018-04-20T09:13:29Z</time>
      </trkpt>
      <trkpt lat="45.89659" lon="4.76343">
        <ele>195</ele>
        <time>2018-04-20T09:13:30Z</time>
      </trkpt>
      <trkpt lat="45.89663" lon="4.76333">
        <ele>195</ele>
        <time>2018-04-20T09:13:32Z</time>
      </trkpt>
      <trkpt lat="45.89665" lon="4.76327">
        <ele>195</ele>
        <time>2018-04-20T09:13:33Z</time>
      </trkpt>
      <trkpt lat="45.89669" lon="4.76316">
        <ele>195</ele>
        <time>2018-04-20T09:13:35Z</time>
      </trkpt>
      <trkpt lat="45.8967" lon="4.76314">
        <ele>195</ele>
        <time>2018-04-20T09:13:36Z</time>
      </trkpt>
      <trkpt lat="45.89672" lon="4.76305">
        <ele>195</ele>
        <time>2018-04-20T09:13:37Z</time>
      </trkpt>
      <trkpt lat="45.89673" lon="4.76301">
        <ele>195</ele>
        <time>2018-04-20T09:13:38Z</time>
      </trkpt>
      <trkpt lat="45.89676" lon="4.7629">
        <ele>195</ele>
        <time>2018-04-20T09:13:41Z</time>
      </trkpt>
      <trkpt lat="45.89677" lon="4.76287">
        <ele>195</ele>
        <time>2018-04-20T09:13:42Z</time>
      </trkpt>
      <trkpt lat="45.89679" lon="4.7628">
        <ele>195</ele>
        <time>2018-04-20T09:13:44Z</time>
      </trkpt>
      <trkpt lat="45.89682" lon="4.76267">
        <ele>195</ele>
        <time>2018-04-20T09:13:45Z</time>
      </trkpt>
      <trkpt lat="45.89685" lon="4.76256">
        <ele>195</ele>
        <time>2018-04-20T09:13:47Z</time>
      </trkpt>
      <trkpt lat="45.89687" lon="4.76252">
        <ele>195</ele>
        <time>2018-04-20T09:13:48Z</time>
      </trkpt>
      <trkpt lat="45.89691" lon="4.76241">
        <ele>195</ele>
        <time>2018-04-20T09:13:50Z</time>
      </trkpt>
      <trkpt lat="45.89692" lon="4.76236">
        <ele>195</ele>
        <time>2018-04-20T09:13:51Z</time>
      </trkpt>
      <trkpt lat="45.89694" lon="4.7623">
        <ele>195</ele>
        <time>2018-04-20T09:13:52Z</time>
      </trkpt>
      <trkpt lat="45.89696" lon="4.76224">
        <ele>195</ele>
        <time>2018-04-20T09:13:53Z</time>
      </trkpt>
      <trkpt lat="45.89698" lon="4.76217">
        <ele>195</ele>
        <time>2018-04-20T09:13:54Z</time>
      </trkpt>
      <trkpt lat="45.897" lon="4.76211">
        <ele>195</ele>
        <time>2018-04-20T09:13:55Z</time>
      </trkpt>
      <trkpt lat="45.89702" lon="4.76205">
        <ele>195</ele>
        <time>2018-04-20T09:13:56Z</time>
      </trkpt>
      <trkpt lat="45.89705" lon="4.76199">
        <ele>195</ele>
        <time>2018-04-20T09:13:57Z</time>
      </trkpt>
      <trkpt lat="45.89706" lon="4.76193">
        <ele>195</ele>
        <time>2018-04-20T09:13:58Z</time>
      </trkpt>
      <trkpt lat="45.89707" lon="4.76186">
        <ele>195</ele>
        <time>2018-04-20T09:13:59Z</time>
      </trkpt>
      <trkpt lat="45.89711" lon="4.76176">
        <ele>195</ele>
        <time>2018-04-20T09:14:02Z</time>
      </trkpt>
      <trkpt lat="45.89712" lon="4.76173">
        <ele>195</ele>
        <time>2018-04-20T09:14:03Z</time>
      </trkpt>
      <trkpt lat="45.89715" lon="4.76162">
        <ele>195</ele>
        <time>2018-04-20T09:14:06Z</time>
      </trkpt>
      <trkpt lat="45.89717" lon="4.76159">
        <ele>195</ele>
        <time>2018-04-20T09:14:07Z</time>
      </trkpt>
      <trkpt lat="45.89721" lon="4.76147">
        <ele>195</ele>
        <time>2018-04-20T09:14:08Z</time>
      </trkpt>
      <trkpt lat="45.89725" lon="4.76136">
        <ele>195</ele>
        <time>2018-04-20T09:14:11Z</time>
      </trkpt>
      <trkpt lat="45.89728" lon="4.76128">
        <ele>195</ele>
        <time>2018-04-20T09:14:12Z</time>
      </trkpt>
      <trkpt lat="45.89732" lon="4.7612">
        <ele>195</ele>
        <time>2018-04-20T09:14:14Z</time>
      </trkpt>
      <trkpt lat="45.89735" lon="4.76115">
        <ele>195</ele>
        <time>2018-04-20T09:14:15Z</time>
      </trkpt>
      <trkpt lat="45.89739" lon="4.76105">
        <ele>195</ele>
        <time>2018-04-20T09:14:17Z</time>
      </trkpt>
      <trkpt lat="45.8974" lon="4.76099">
        <ele>195</ele>
        <time>2018-04-20T09:14:18Z</time>
      </trkpt>
      <trkpt lat="45.89744" lon="4.76089">
        <ele>195</ele>
        <time>2018-04-20T09:14:20Z</time>
      </trkpt>
      <trkpt lat="45.89747" lon="4.76085">
        <ele>195</ele>
        <time>2018-04-20T09:14:21Z</time>
      </trkpt>
      <trkpt lat="45.89752" lon="4.76076">
        <ele>195</ele>
        <time>2018-04-20T09:14:23Z</time>
      </trkpt>
      <trkpt lat="45.89754" lon="4.7607">
        <ele>195</ele>
        <time>2018-04-20T09:14:24Z</time>
      </trkpt>
      <trkpt lat="45.89756" lon="4.76063">
        <ele>195</ele>
        <time>2018-04-20T09:14:25Z</time>
      </trkpt>
      <trkpt lat="45.89759" lon="4.76057">
        <ele>195</ele>
        <time>2018-04-20T09:14:26Z</time>
      </trkpt>
      <trkpt lat="45.89761" lon="4.76046">
        <ele>195</ele>
        <time>2018-04-20T09:14:28Z</time>
      </trkpt>
      <trkpt lat="45.89763" lon="4.7604">
        <ele>195</ele>
        <time>2018-04-20T09:14:29Z</time>
      </trkpt>
      <trkpt lat="45.89766" lon="4.76034">
        <ele>195</ele>
        <time>2018-04-20T09:14:31Z</time>
      </trkpt>
      <trkpt lat="45.89771" lon="4.76026">
        <ele>195</ele>
        <time>2018-04-20T09:14:32Z</time>
      </trkpt>
      <trkpt lat="45.89773" lon="4.7602">
        <ele>195</ele>
        <time>2018-04-20T09:14:33Z</time>
      </trkpt>
      <trkpt lat="45.89776" lon="4.76015">
        <ele>195</ele>
        <time>2018-04-20T09:14:34Z</time>
      </trkpt>
      <trkpt lat="45.89782" lon="4.76005">
        <ele>195</ele>
        <time>2018-04-20T09:14:36Z</time>
      </trkpt>
      <trkpt lat="45.89784" lon="4.76001">
        <ele>195</ele>
        <time>2018-04-20T09:14:37Z</time>
      </trkpt>
      <trkpt lat="45.89786" lon="4.75994">
        <ele>195</ele>
        <time>2018-04-20T09:14:38Z</time>
      </trkpt>
      <trkpt lat="45.89788" lon="4.75987">
        <ele>195</ele>
        <time>2018-04-20T09:14:39Z</time>
      </trkpt>
      <trkpt lat="45.8979" lon="4.75981">
        <ele>195</ele>
        <time>2018-04-20T09:14:40Z</time>
      </trkpt>
      <trkpt lat="45.89791" lon="4.75975">
        <ele>195</ele>
        <time>2018-04-20T09:14:41Z</time>
      </trkpt>
      <trkpt lat="45.89793" lon="4.75968">
        <ele>195</ele>
        <time>2018-04-20T09:14:42Z</time>
      </trkpt>
      <trkpt lat="45.89795" lon="4.75961">
        <ele>195</ele>
        <time>2018-04-20T09:14:43Z</time>
      </trkpt>
      <trkpt lat="45.89799" lon="4.7595">
        <ele>195</ele>
        <time>2018-04-20T09:14:45Z</time>
      </trkpt>
      <trkpt lat="45.898" lon="4.75944">
        <ele>195</ele>
        <time>2018-04-20T09:14:46Z</time>
      </trkpt>
      <trkpt lat="45.89803" lon="4.75933">
        <ele>195</ele>
        <time>2018-04-20T09:14:48Z</time>
      </trkpt>
      <trkpt lat="45.89805" lon="4.75928">
        <ele>195</ele>
        <time>2018-04-20T09:14:49Z</time>
      </trkpt>
      <trkpt lat="45.89807" lon="4.75918">
        <ele>195</ele>
        <time>2018-04-20T09:14:52Z</time>
      </trkpt>
      <trkpt lat="45.89808" lon="4.75915">
        <ele>194</ele>
        <time>2018-04-20T09:14:53Z</time>
      </trkpt>
      <trkpt lat="45.8981" lon="4.75908">
        <ele>194</ele>
        <time>2018-04-20T09:14:55Z</time>
      </trkpt>
      <trkpt lat="45.89813" lon="4.75897">
        <ele>194</ele>
        <time>2018-04-20T09:14:56Z</time>
      </trkpt>
      <trkpt lat="45.89817" lon="4.7589">
        <ele>194</ele>
        <time>2018-04-20T09:14:58Z</time>
      </trkpt>
      <trkpt lat="45.89821" lon="4.75881">
        <ele>194</ele>
        <time>2018-04-20T09:14:59Z</time>
      </trkpt>
      <trkpt lat="45.89823" lon="4.75874">
        <ele>194</ele>
        <time>2018-04-20T09:15:00Z</time>
      </trkpt>
      <trkpt lat="45.89827" lon="4.75868">
        <ele>194</ele>
        <time>2018-04-20T09:15:01Z</time>
      </trkpt>
      <trkpt lat="45.89831" lon="4.75857">
        <ele>193</ele>
        <time>2018-04-20T09:15:03Z</time>
      </trkpt>
      <trkpt lat="45.89834" lon="4.75852">
        <ele>193</ele>
        <time>2018-04-20T09:15:04Z</time>
      </trkpt>
      <trkpt lat="45.89838" lon="4.75847">
        <ele>192</ele>
        <time>2018-04-20T09:15:05Z</time>
      </trkpt>
      <trkpt lat="45.89842" lon="4.7584">
        <ele>192</ele>
        <time>2018-04-20T09:15:06Z</time>
      </trkpt>
      <trkpt lat="45.89845" lon="4.75834">
        <ele>192</ele>
        <time>2018-04-20T09:15:07Z</time>
      </trkpt>
      <trkpt lat="45.89849" lon="4.7583">
        <ele>192</ele>
        <time>2018-04-20T09:15:08Z</time>
      </trkpt>
      <trkpt lat="45.89853" lon="4.75825">
        <ele>192</ele>
        <time>2018-04-20T09:15:09Z</time>
      </trkpt>
      <trkpt lat="45.89856" lon="4.75819">
        <ele>192</ele>
        <time>2018-04-20T09:15:10Z</time>
      </trkpt>
      <trkpt lat="45.89864" lon="4.75813">
        <ele>192</ele>
        <time>2018-04-20T09:15:12Z</time>
      </trkpt>
      <trkpt lat="45.89868" lon="4.7581">
        <ele>192</ele>
        <time>2018-04-20T09:15:13Z</time>
      </trkpt>
      <trkpt lat="45.89872" lon="4.75806">
        <ele>192</ele>
        <time>2018-04-20T09:15:14Z</time>
      </trkpt>
      <trkpt lat="45.89876" lon="4.75805">
        <ele>192</ele>
        <time>2018-04-20T09:15:15Z</time>
      </trkpt>
      <trkpt lat="45.89881" lon="4.75801">
        <ele>192</ele>
        <time>2018-04-20T09:15:16Z</time>
      </trkpt>
      <trkpt lat="45.89886" lon="4.75799">
        <ele>192</ele>
        <time>2018-04-20T09:15:17Z</time>
      </trkpt>
      <trkpt lat="45.8989" lon="4.75795">
        <ele>192</ele>
        <time>2018-04-20T09:15:18Z</time>
      </trkpt>
      <trkpt lat="45.89893" lon="4.7579">
        <ele>192</ele>
        <time>2018-04-20T09:15:19Z</time>
      </trkpt>
      <trkpt lat="45.89899" lon="4.75786">
        <ele>192</ele>
        <time>2018-04-20T09:15:20Z</time>
      </trkpt>
      <trkpt lat="45.89903" lon="4.75785">
        <ele>192</ele>
        <time>2018-04-20T09:15:21Z</time>
      </trkpt>
      <trkpt lat="45.89905" lon="4.75785">
        <ele>192</ele>
        <time>2018-04-20T09:15:22Z</time>
      </trkpt>
      <trkpt lat="45.89913" lon="4.75781">
        <ele>192</ele>
        <time>2018-04-20T09:15:23Z</time>
      </trkpt>
      <trkpt lat="45.89917" lon="4.75779">
        <ele>192</ele>
        <time>2018-04-20T09:15:24Z</time>
      </trkpt>
      <trkpt lat="45.89922" lon="4.75777">
        <ele>192</ele>
        <time>2018-04-20T09:15:25Z</time>
      </trkpt>
      <trkpt lat="45.89927" lon="4.75775">
        <ele>192</ele>
        <time>2018-04-20T09:15:26Z</time>
      </trkpt>
      <trkpt lat="45.89931" lon="4.75773">
        <ele>192</ele>
        <time>2018-04-20T09:15:27Z</time>
      </trkpt>
      <trkpt lat="45.89935" lon="4.75768">
        <ele>192</ele>
        <time>2018-04-20T09:15:28Z</time>
      </trkpt>
      <trkpt lat="45.8994" lon="4.75768">
        <ele>192</ele>
        <time>2018-04-20T09:15:29Z</time>
      </trkpt>
      <trkpt lat="45.89944" lon="4.75764">
        <ele>192</ele>
        <time>2018-04-20T09:15:30Z</time>
      </trkpt>
      <trkpt lat="45.8995" lon="4.7576">
        <ele>192</ele>
        <time>2018-04-20T09:15:31Z</time>
      </trkpt>
      <trkpt lat="45.89955" lon="4.75759">
        <ele>192</ele>
        <time>2018-04-20T09:15:32Z</time>
      </trkpt>
      <trkpt lat="45.89961" lon="4.75757">
        <ele>192</ele>
        <time>2018-04-20T09:15:33Z</time>
      </trkpt>
      <trkpt lat="45.89966" lon="4.75756">
        <ele>192</ele>
        <time>2018-04-20T09:15:34Z</time>
      </trkpt>
      <trkpt lat="45.8997" lon="4.75752">
        <ele>192</ele>
        <time>2018-04-20T09:15:35Z</time>
      </trkpt>
      <trkpt lat="45.89977" lon="4.75749">
        <ele>192</ele>
        <time>2018-04-20T09:15:36Z</time>
      </trkpt>
      <trkpt lat="45.89982" lon="4.75748">
        <ele>192</ele>
        <time>2018-04-20T09:15:37Z</time>
      </trkpt>
      <trkpt lat="45.89987" lon="4.75745">
        <ele>193</ele>
        <time>2018-04-20T09:15:38Z</time>
      </trkpt>
      <trkpt lat="45.89993" lon="4.75743">
        <ele>193</ele>
        <time>2018-04-20T09:15:39Z</time>
      </trkpt>
      <trkpt lat="45.89997" lon="4.7574">
        <ele>193</ele>
        <time>2018-04-20T09:15:40Z</time>
      </trkpt>
      <trkpt lat="45.90002" lon="4.75738">
        <ele>193</ele>
        <time>2018-04-20T09:15:41Z</time>
      </trkpt>
      <trkpt lat="45.90007" lon="4.75737">
        <ele>193</ele>
        <time>2018-04-20T09:15:42Z</time>
      </trkpt>
      <trkpt lat="45.90012" lon="4.75738">
        <ele>193</ele>
        <time>2018-04-20T09:15:43Z</time>
      </trkpt>
      <trkpt lat="45.90017" lon="4.75741">
        <ele>193</ele>
        <time>2018-04-20T09:15:44Z</time>
      </trkpt>
      <trkpt lat="45.90022" lon="4.75739">
        <ele>193</ele>
        <time>2018-04-20T09:15:45Z</time>
      </trkpt>
      <trkpt lat="45.90027" lon="4.7574">
        <ele>193</ele>
        <time>2018-04-20T09:15:46Z</time>
      </trkpt>
      <trkpt lat="45.90032" lon="4.75742">
        <ele>193</ele>
        <time>2018-04-20T09:15:47Z</time>
      </trkpt>
      <trkpt lat="45.90037" lon="4.75745">
        <ele>193</ele>
        <time>2018-04-20T09:15:48Z</time>
      </trkpt>
      <trkpt lat="45.90042" lon="4.75748">
        <ele>192</ele>
        <time>2018-04-20T09:15:49Z</time>
      </trkpt>
      <trkpt lat="45.90051" lon="4.75752">
        <ele>192</ele>
        <time>2018-04-20T09:15:51Z</time>
      </trkpt>
      <trkpt lat="45.90055" lon="4.75754">
        <ele>192</ele>
        <time>2018-04-20T09:15:52Z</time>
      </trkpt>
      <trkpt lat="45.9006" lon="4.75757">
        <ele>192</ele>
        <time>2018-04-20T09:15:53Z</time>
      </trkpt>
      <trkpt lat="45.90064" lon="4.7576">
        <ele>192</ele>
        <time>2018-04-20T09:15:54Z</time>
      </trkpt>
      <trkpt lat="45.90069" lon="4.75763">
        <ele>192</ele>
        <time>2018-04-20T09:15:55Z</time>
      </trkpt>
      <trkpt lat="45.90076" lon="4.75766">
        <ele>192</ele>
        <time>2018-04-20T09:15:56Z</time>
      </trkpt>
      <trkpt lat="45.90082" lon="4.7577">
        <ele>192</ele>
        <time>2018-04-20T09:15:58Z</time>
      </trkpt>
      <trkpt lat="45.9009" lon="4.75772">
        <ele>191</ele>
        <time>2018-04-20T09:15:59Z</time>
      </trkpt>
      <trkpt lat="45.90095" lon="4.75774">
        <ele>191</ele>
        <time>2018-04-20T09:16:00Z</time>
      </trkpt>
      <trkpt lat="45.901" lon="4.75777">
        <ele>191</ele>
        <time>2018-04-20T09:16:01Z</time>
      </trkpt>
      <trkpt lat="45.90103" lon="4.75778">
        <ele>191</ele>
        <time>2018-04-20T09:16:02Z</time>
      </trkpt>
      <trkpt lat="45.90109" lon="4.75781">
        <ele>191</ele>
        <time>2018-04-20T09:16:03Z</time>
      </trkpt>
      <trkpt lat="45.90116" lon="4.75785">
        <ele>191</ele>
        <time>2018-04-20T09:16:05Z</time>
      </trkpt>
      <trkpt lat="45.90121" lon="4.75789">
        <ele>191</ele>
        <time>2018-04-20T09:16:06Z</time>
      </trkpt>
      <trkpt lat="45.90129" lon="4.75792">
        <ele>191</ele>
        <time>2018-04-20T09:16:08Z</time>
      </trkpt>
      <trkpt lat="45.90133" lon="4.75794">
        <ele>191</ele>
        <time>2018-04-20T09:16:09Z</time>
      </trkpt>
      <trkpt lat="45.90137" lon="4.75799">
        <ele>191</ele>
        <time>2018-04-20T09:16:10Z</time>
      </trkpt>
      <trkpt lat="45.90142" lon="4.758">
        <ele>191</ele>
        <time>2018-04-20T09:16:11Z</time>
      </trkpt>
      <trkpt lat="45.90147" lon="4.75803">
        <ele>191</ele>
        <time>2018-04-20T09:16:12Z</time>
      </trkpt>
      <trkpt lat="45.90152" lon="4.75803">
        <ele>191</ele>
        <time>2018-04-20T09:16:13Z</time>
      </trkpt>
      <trkpt lat="45.90158" lon="4.75805">
        <ele>191</ele>
        <time>2018-04-20T09:16:14Z</time>
      </trkpt>
      <trkpt lat="45.90164" lon="4.75806">
        <ele>191</ele>
        <time>2018-04-20T09:16:15Z</time>
      </trkpt>
      <trkpt lat="45.90169" lon="4.75805">
        <ele>190</ele>
        <time>2018-04-20T09:16:16Z</time>
      </trkpt>
      <trkpt lat="45.90174" lon="4.75803">
        <ele>190</ele>
        <time>2018-04-20T09:16:17Z</time>
      </trkpt>
      <trkpt lat="45.90179" lon="4.75803">
        <ele>190</ele>
        <time>2018-04-20T09:16:18Z</time>
      </trkpt>
      <trkpt lat="45.90185" lon="4.75801">
        <ele>190</ele>
        <time>2018-04-20T09:16:19Z</time>
      </trkpt>
      <trkpt lat="45.90189" lon="4.758">
        <ele>190</ele>
        <time>2018-04-20T09:16:20Z</time>
      </trkpt>
      <trkpt lat="45.90194" lon="4.75801">
        <ele>190</ele>
        <time>2018-04-20T09:16:21Z</time>
      </trkpt>
      <trkpt lat="45.90199" lon="4.75801">
        <ele>190</ele>
        <time>2018-04-20T09:16:22Z</time>
      </trkpt>
      <trkpt lat="45.90203" lon="4.75802">
        <ele>190</ele>
        <time>2018-04-20T09:16:23Z</time>
      </trkpt>
      <trkpt lat="45.90211" lon="4.75802">
        <ele>190</ele>
        <time>2018-04-20T09:16:25Z</time>
      </trkpt>
      <trkpt lat="45.90216" lon="4.75804">
        <ele>190</ele>
        <time>2018-04-20T09:16:26Z</time>
      </trkpt>
      <trkpt lat="45.9022" lon="4.75804">
        <ele>190</ele>
        <time>2018-04-20T09:16:27Z</time>
      </trkpt>
      <trkpt lat="45.90226" lon="4.75807">
        <ele>190</ele>
        <time>2018-04-20T09:16:28Z</time>
      </trkpt>
      <trkpt lat="45.90231" lon="4.75809">
        <ele>190</ele>
        <time>2018-04-20T09:16:29Z</time>
      </trkpt>
      <trkpt lat="45.90236" lon="4.75812">
        <ele>190</ele>
        <time>2018-04-20T09:16:30Z</time>
      </trkpt>
      <trkpt lat="45.90242" lon="4.75813">
        <ele>190</ele>
        <time>2018-04-20T09:16:31Z</time>
      </trkpt>
      <trkpt lat="45.90248" lon="4.75813">
        <ele>190</ele>
        <time>2018-04-20T09:16:32Z</time>
      </trkpt>
      <trkpt lat="45.90253" lon="4.75816">
        <ele>190</ele>
        <time>2018-04-20T09:16:33Z</time>
      </trkpt>
      <trkpt lat="45.90259" lon="4.75819">
        <ele>190</ele>
        <time>2018-04-20T09:16:34Z</time>
      </trkpt>
      <trkpt lat="45.90265" lon="4.75821">
        <ele>190</ele>
        <time>2018-04-20T09:16:35Z</time>
      </trkpt>
      <trkpt lat="45.9027" lon="4.75822">
        <ele>190</ele>
        <time>2018-04-20T09:16:36Z</time>
      </trkpt>
      <trkpt lat="45.90276" lon="4.75823">
        <ele>189</ele>
        <time>2018-04-20T09:16:37Z</time>
      </trkpt>
      <trkpt lat="45.9028" lon="4.75824">
        <ele>189</ele>
        <time>2018-04-20T09:16:38Z</time>
      </trkpt>
      <trkpt lat="45.90289" lon="4.75825">
        <ele>189</ele>
        <time>2018-04-20T09:16:40Z</time>
      </trkpt>
      <trkpt lat="45.90293" lon="4.75827">
        <ele>189</ele>
        <time>2018-04-20T09:16:41Z</time>
      </trkpt>
      <trkpt lat="45.90298" lon="4.75828">
        <ele>189</ele>
        <time>2018-04-20T09:16:42Z</time>
      </trkpt>
      <trkpt lat="45.90302" lon="4.7583">
        <ele>189</ele>
        <time>2018-04-20T09:16:43Z</time>
      </trkpt>
      <trkpt lat="45.90308" lon="4.75829">
        <ele>189</ele>
        <time>2018-04-20T09:16:44Z</time>
      </trkpt>
      <trkpt lat="45.90313" lon="4.75838">
        <ele>189</ele>
        <time>2018-04-20T09:16:45Z</time>
      </trkpt>
      <trkpt lat="45.90317" lon="4.75846">
        <ele>189</ele>
        <time>2018-04-20T09:16:46Z</time>
      </trkpt>
      <trkpt lat="45.90321" lon="4.75855">
        <ele>189</ele>
        <time>2018-04-20T09:16:47Z</time>
      </trkpt>
      <trkpt lat="45.90326" lon="4.75863">
        <ele>189</ele>
        <time>2018-04-20T09:16:48Z</time>
      </trkpt>
      <trkpt lat="45.9033" lon="4.7587">
        <ele>189</ele>
        <time>2018-04-20T09:16:49Z</time>
      </trkpt>
      <trkpt lat="45.90332" lon="4.75877">
        <ele>189</ele>
        <time>2018-04-20T09:16:50Z</time>
      </trkpt>
      <trkpt lat="45.90334" lon="4.75883">
        <ele>188</ele>
        <time>2018-04-20T09:16:51Z</time>
      </trkpt>
      <trkpt lat="45.90339" lon="4.75889">
        <ele>188</ele>
        <time>2018-04-20T09:16:52Z</time>
      </trkpt>
      <trkpt lat="45.90341" lon="4.75896">
        <ele>188</ele>
        <time>2018-04-20T09:16:53Z</time>
      </trkpt>
      <trkpt lat="45.90344" lon="4.75902">
        <ele>188</ele>
        <time>2018-04-20T09:16:54Z</time>
      </trkpt>
      <trkpt lat="45.90346" lon="4.75907">
        <ele>188</ele>
        <time>2018-04-20T09:16:55Z</time>
      </trkpt>
      <trkpt lat="45.90349" lon="4.75915">
        <ele>188</ele>
        <time>2018-04-20T09:16:56Z</time>
      </trkpt>
      <trkpt lat="45.90351" lon="4.75922">
        <ele>187</ele>
        <time>2018-04-20T09:16:57Z</time>
      </trkpt>
      <trkpt lat="45.90353" lon="4.75928">
        <ele>187</ele>
        <time>2018-04-20T09:16:58Z</time>
      </trkpt>
      <trkpt lat="45.90356" lon="4.75934">
        <ele>187</ele>
        <time>2018-04-20T09:16:59Z</time>
      </trkpt>
      <trkpt lat="45.90358" lon="4.75939">
        <ele>187</ele>
        <time>2018-04-20T09:17:00Z</time>
      </trkpt>
      <trkpt lat="45.90363" lon="4.75943">
        <ele>187</ele>
        <time>2018-04-20T09:17:01Z</time>
      </trkpt>
      <trkpt lat="45.90368" lon="4.75945">
        <ele>187</ele>
        <time>2018-04-20T09:17:02Z</time>
      </trkpt>
      <trkpt lat="45.90372" lon="4.75947">
        <ele>187</ele>
        <time>2018-04-20T09:17:03Z</time>
      </trkpt>
      <trkpt lat="45.90377" lon="4.75947">
        <ele>187</ele>
        <time>2018-04-20T09:17:04Z</time>
      </trkpt>
      <trkpt lat="45.90384" lon="4.75946">
        <ele>187</ele>
        <time>2018-04-20T09:17:05Z</time>
      </trkpt>
      <trkpt lat="45.90392" lon="4.75944">
        <ele>187</ele>
        <time>2018-04-20T09:17:07Z</time>
      </trkpt>
      <trkpt lat="45.90397" lon="4.75944">
        <ele>187</ele>
        <time>2018-04-20T09:17:08Z</time>
      </trkpt>
      <trkpt lat="45.90403" lon="4.75944">
        <ele>187</ele>
        <time>2018-04-20T09:17:09Z</time>
      </trkpt>
      <trkpt lat="45.90409" lon="4.75942">
        <ele>187</ele>
        <time>2018-04-20T09:17:10Z</time>
      </trkpt>
      <trkpt lat="45.90413" lon="4.75942">
        <ele>187</ele>
        <time>2018-04-20T09:17:11Z</time>
      </trkpt>
      <trkpt lat="45.90418" lon="4.75942">
        <ele>187</ele>
        <time>2018-04-20T09:17:12Z</time>
      </trkpt>
      <trkpt lat="45.90423" lon="4.75941">
        <ele>187</ele>
        <time>2018-04-20T09:17:13Z</time>
      </trkpt>
      <trkpt lat="45.90427" lon="4.7594">
        <ele>187</ele>
        <time>2018-04-20T09:17:14Z</time>
      </trkpt>
      <trkpt lat="45.90433" lon="4.75939">
        <ele>187</ele>
        <time>2018-04-20T09:17:15Z</time>
      </trkpt>
      <trkpt lat="45.90438" lon="4.75938">
        <ele>187</ele>
        <time>2018-04-20T09:17:16Z</time>
      </trkpt>
      <trkpt lat="45.90444" lon="4.75937">
        <ele>187</ele>
        <time>2018-04-20T09:17:17Z</time>
      </trkpt>
      <trkpt lat="45.90449" lon="4.75932">
        <ele>187</ele>
        <time>2018-04-20T09:17:18Z</time>
      </trkpt>
      <trkpt lat="45.90453" lon="4.75931">
        <ele>187</ele>
        <time>2018-04-20T09:17:19Z</time>
      </trkpt>
      <trkpt lat="45.90459" lon="4.7593">
        <ele>187</ele>
        <time>2018-04-20T09:17:20Z</time>
      </trkpt>
      <trkpt lat="45.90464" lon="4.75928">
        <ele>187</ele>
        <time>2018-04-20T09:17:21Z</time>
      </trkpt>
      <trkpt lat="45.90468" lon="4.75929">
        <ele>187</ele>
        <time>2018-04-20T09:17:22Z</time>
      </trkpt>
      <trkpt lat="45.90477" lon="4.75927">
        <ele>187</ele>
        <time>2018-04-20T09:17:24Z</time>
      </trkpt>
      <trkpt lat="45.90481" lon="4.75927">
        <ele>187</ele>
        <time>2018-04-20T09:17:25Z</time>
      </trkpt>
      <trkpt lat="45.9049" lon="4.75926">
        <ele>187</ele>
        <time>2018-04-20T09:17:27Z</time>
      </trkpt>
      <trkpt lat="45.90495" lon="4.75925">
        <ele>187</ele>
        <time>2018-04-20T09:17:28Z</time>
      </trkpt>
      <trkpt lat="45.905" lon="4.75926">
        <ele>187</ele>
        <time>2018-04-20T09:17:29Z</time>
      </trkpt>
      <trkpt lat="45.90504" lon="4.75923">
        <ele>187</ele>
        <time>2018-04-20T09:17:30Z</time>
      </trkpt>
      <trkpt lat="45.90508" lon="4.75924">
        <ele>187</ele>
        <time>2018-04-20T09:17:31Z</time>
      </trkpt>
      <trkpt lat="45.90513" lon="4.75925">
        <ele>187</ele>
        <time>2018-04-20T09:17:32Z</time>
      </trkpt>
      <trkpt lat="45.90518" lon="4.75925">
        <ele>187</ele>
        <time>2018-04-20T09:17:33Z</time>
      </trkpt>
      <trkpt lat="45.90524" lon="4.75924">
        <ele>186</ele>
        <time>2018-04-20T09:17:34Z</time>
      </trkpt>
      <trkpt lat="45.9053" lon="4.75926">
        <ele>186</ele>
        <time>2018-04-20T09:17:35Z</time>
      </trkpt>
      <trkpt lat="45.90534" lon="4.75924">
        <ele>186</ele>
        <time>2018-04-20T09:17:36Z</time>
      </trkpt>
      <trkpt lat="45.90537" lon="4.75927">
        <ele>186</ele>
        <time>2018-04-20T09:17:37Z</time>
      </trkpt>
      <trkpt lat="45.90541" lon="4.75935">
        <ele>186</ele>
        <time>2018-04-20T09:17:38Z</time>
      </trkpt>
      <trkpt lat="45.90545" lon="4.75938">
        <ele>186</ele>
        <time>2018-04-20T09:17:39Z</time>
      </trkpt>
      <trkpt lat="45.90549" lon="4.75942">
        <ele>186</ele>
        <time>2018-04-20T09:17:40Z</time>
      </trkpt>
      <trkpt lat="45.90554" lon="4.75949">
        <ele>186</ele>
        <time>2018-04-20T09:17:42Z</time>
      </trkpt>
      <trkpt lat="45.90556" lon="4.75952">
        <ele>186</ele>
        <time>2018-04-20T09:17:43Z</time>
      </trkpt>
      <trkpt lat="45.90563" lon="4.75958">
        <ele>186</ele>
        <time>2018-04-20T09:17:48Z</time>
      </trkpt>
      <trkpt lat="45.90563" lon="4.75959">
        <ele>186</ele>
        <time>2018-04-20T09:17:49Z</time>
      </trkpt>
      <trkpt lat="45.90564" lon="4.75959">
        <ele>186</ele>
        <time>2018-04-20T09:17:50Z</time>
      </trkpt>
      <trkpt lat="45.90565" lon="4.75962">
        <ele>186</ele>
        <time>2018-04-20T09:18:35Z</time>
      </trkpt>
      <trkpt lat="45.90565" lon="4.75962">
        <ele>186</ele>
        <time>2018-04-20T09:18:36Z</time>
      </trkpt>
      <trkpt lat="45.90571" lon="4.75968">
        <ele>186</ele>
        <time>2018-04-20T09:18:41Z</time>
      </trkpt>
      <trkpt lat="45.90573" lon="4.7597">
        <ele>186</ele>
        <time>2018-04-20T09:18:42Z</time>
      </trkpt>
      <trkpt lat="45.9058" lon="4.75978">
        <ele>186</ele>
        <time>2018-04-20T09:18:45Z</time>
      </trkpt>
      <trkpt lat="45.90582" lon="4.75981">
        <ele>186</ele>
        <time>2018-04-20T09:18:46Z</time>
      </trkpt>
      <trkpt lat="45.90585" lon="4.75983">
        <ele>186</ele>
        <time>2018-04-20T09:18:47Z</time>
      </trkpt>
      <trkpt lat="45.90599" lon="4.75984">
        <ele>186</ele>
        <time>2018-04-20T09:18:48Z</time>
      </trkpt>
      <trkpt lat="45.90606" lon="4.75978">
        <ele>186</ele>
        <time>2018-04-20T09:18:50Z</time>
      </trkpt>
      <trkpt lat="45.90608" lon="4.75976">
        <ele>186</ele>
        <time>2018-04-20T09:18:51Z</time>
      </trkpt>
      <trkpt lat="45.90612" lon="4.75971">
        <ele>186</ele>
        <time>2018-04-20T09:18:52Z</time>
      </trkpt>
      <trkpt lat="45.90615" lon="4.75967">
        <ele>186</ele>
        <time>2018-04-20T09:18:53Z</time>
      </trkpt>
      <trkpt lat="45.9062" lon="4.75958">
        <ele>186</ele>
        <time>2018-04-20T09:18:55Z</time>
      </trkpt>
      <trkpt lat="45.90622" lon="4.75953">
        <ele>186</ele>
        <time>2018-04-20T09:18:56Z</time>
      </trkpt>
      <trkpt lat="45.90625" lon="4.75948">
        <ele>186</ele>
        <time>2018-04-20T09:18:57Z</time>
      </trkpt>
      <trkpt lat="45.90627" lon="4.75942">
        <ele>186</ele>
        <time>2018-04-20T09:18:58Z</time>
      </trkpt>
      <trkpt lat="45.9063" lon="4.75937">
        <ele>186</ele>
        <time>2018-04-20T09:18:59Z</time>
      </trkpt>
      <trkpt lat="45.90634" lon="4.75932">
        <ele>186</ele>
        <time>2018-04-20T09:19:00Z</time>
      </trkpt>
      <trkpt lat="45.9064" lon="4.75923">
        <ele>186</ele>
        <time>2018-04-20T09:19:02Z</time>
      </trkpt>
      <trkpt lat="45.90644" lon="4.75918">
        <ele>187</ele>
        <time>2018-04-20T09:19:03Z</time>
      </trkpt>
      <trkpt lat="45.90647" lon="4.75907">
        <ele>187</ele>
        <time>2018-04-20T09:19:05Z</time>
      </trkpt>
      <trkpt lat="45.90648" lon="4.75905">
        <ele>187</ele>
        <time>2018-04-20T09:19:06Z</time>
      </trkpt>
      <trkpt lat="45.90654" lon="4.75898">
        <ele>187</ele>
        <time>2018-04-20T09:19:07Z</time>
      </trkpt>
      <trkpt lat="45.90658" lon="4.75894">
        <ele>187</ele>
        <time>2018-04-20T09:19:08Z</time>
      </trkpt>
      <trkpt lat="45.90666" lon="4.75888">
        <ele>187</ele>
        <time>2018-04-20T09:19:10Z</time>
      </trkpt>
      <trkpt lat="45.90669" lon="4.75886">
        <ele>187</ele>
        <time>2018-04-20T09:19:11Z</time>
      </trkpt>
      <trkpt lat="45.90673" lon="4.75882">
        <ele>187</ele>
        <time>2018-04-20T09:19:12Z</time>
      </trkpt>
      <trkpt lat="45.90678" lon="4.75879">
        <ele>187</ele>
        <time>2018-04-20T09:19:13Z</time>
      </trkpt>
      <trkpt lat="45.90683" lon="4.75874">
        <ele>187</ele>
        <time>2018-04-20T09:19:14Z</time>
      </trkpt>
      <trkpt lat="45.90687" lon="4.75874">
        <ele>187</ele>
        <time>2018-04-20T09:19:15Z</time>
      </trkpt>
      <trkpt lat="45.90694" lon="4.75869">
        <ele>187</ele>
        <time>2018-04-20T09:19:17Z</time>
      </trkpt>
      <trkpt lat="45.90698" lon="4.75865">
        <ele>187</ele>
        <time>2018-04-20T09:19:18Z</time>
      </trkpt>
      <trkpt lat="45.90706" lon="4.75863">
        <ele>187</ele>
        <time>2018-04-20T09:19:20Z</time>
      </trkpt>
      <trkpt lat="45.90712" lon="4.75864">
        <ele>187</ele>
        <time>2018-04-20T09:19:21Z</time>
      </trkpt>
      <trkpt lat="45.9072" lon="4.75864">
        <ele>186</ele>
        <time>2018-04-20T09:19:23Z</time>
      </trkpt>
      <trkpt lat="45.90724" lon="4.75861">
        <ele>186</ele>
        <time>2018-04-20T09:19:24Z</time>
      </trkpt>
      <trkpt lat="45.90731" lon="4.75859">
        <ele>186</ele>
        <time>2018-04-20T09:19:26Z</time>
      </trkpt>
      <trkpt lat="45.90735" lon="4.75856">
        <ele>186</ele>
        <time>2018-04-20T09:19:27Z</time>
      </trkpt>
      <trkpt lat="45.90741" lon="4.75862">
        <ele>186</ele>
        <time>2018-04-20T09:19:28Z</time>
      </trkpt>
      <trkpt lat="45.90744" lon="4.75864">
        <ele>186</ele>
        <time>2018-04-20T09:19:29Z</time>
      </trkpt>
      <trkpt lat="45.90748" lon="4.75865">
        <ele>186</ele>
        <time>2018-04-20T09:19:30Z</time>
      </trkpt>
      <trkpt lat="45.90755" lon="4.75865">
        <ele>185</ele>
        <time>2018-04-20T09:19:31Z</time>
      </trkpt>
      <trkpt lat="45.9076" lon="4.75865">
        <ele>185</ele>
        <time>2018-04-20T09:19:32Z</time>
      </trkpt>
      <trkpt lat="45.90766" lon="4.75865">
        <ele>185</ele>
        <time>2018-04-20T09:19:33Z</time>
      </trkpt>
      <trkpt lat="45.90767" lon="4.75865">
        <ele>185</ele>
        <time>2018-04-20T09:19:34Z</time>
      </trkpt>
      <trkpt lat="45.90778" lon="4.75867">
        <ele>185</ele>
        <time>2018-04-20T09:19:35Z</time>
      </trkpt>
      <trkpt lat="45.90784" lon="4.75865">
        <ele>185</ele>
        <time>2018-04-20T09:19:36Z</time>
      </trkpt>
      <trkpt lat="45.90789" lon="4.75867">
        <ele>185</ele>
        <time>2018-04-20T09:19:37Z</time>
      </trkpt>
      <trkpt lat="45.90795" lon="4.75867">
        <ele>185</ele>
        <time>2018-04-20T09:19:38Z</time>
      </trkpt>
      <trkpt lat="45.90801" lon="4.75867">
        <ele>185</ele>
        <time>2018-04-20T09:19:39Z</time>
      </trkpt>
      <trkpt lat="45.90807" lon="4.75866">
        <ele>185</ele>
        <time>2018-04-20T09:19:40Z</time>
      </trkpt>
      <trkpt lat="45.90812" lon="4.75868">
        <ele>185</ele>
        <time>2018-04-20T09:19:41Z</time>
      </trkpt>
      <trkpt lat="45.90819" lon="4.75868">
        <ele>185</ele>
        <time>2018-04-20T09:19:43Z</time>
      </trkpt>
      <trkpt lat="45.90825" lon="4.75868">
        <ele>185</ele>
        <time>2018-04-20T09:19:44Z</time>
      </trkpt>
      <trkpt lat="45.9083" lon="4.75869">
        <ele>185</ele>
        <time>2018-04-20T09:19:46Z</time>
      </trkpt>
      <trkpt lat="45.9084" lon="4.75871">
        <ele>184</ele>
        <time>2018-04-20T09:19:47Z</time>
      </trkpt>
      <trkpt lat="45.90849" lon="4.75872">
        <ele>184</ele>
        <time>2018-04-20T09:19:50Z</time>
      </trkpt>
      <trkpt lat="45.90853" lon="4.75872">
        <ele>184</ele>
        <time>2018-04-20T09:19:51Z</time>
      </trkpt>
      <trkpt lat="45.9086" lon="4.75872">
        <ele>184</ele>
        <time>2018-04-20T09:19:53Z</time>
      </trkpt>
      <trkpt lat="45.90862" lon="4.75873">
        <ele>184</ele>
        <time>2018-04-20T09:19:54Z</time>
      </trkpt>
      <trkpt lat="45.90871" lon="4.75877">
        <ele>184</ele>
        <time>2018-04-20T09:19:57Z</time>
      </trkpt>
      <trkpt lat="45.90873" lon="4.75878">
        <ele>184</ele>
        <time>2018-04-20T09:19:58Z</time>
      </trkpt>
      <trkpt lat="45.90881" lon="4.75881">
        <ele>184</ele>
        <time>2018-04-20T09:20:04Z</time>
      </trkpt>
      <trkpt lat="45.90882" lon="4.75881">
        <ele>184</ele>
        <time>2018-04-20T09:20:05Z</time>
      </trkpt>
      <trkpt lat="45.90885" lon="4.7587">
        <ele>184</ele>
        <time>2018-04-20T09:22:40Z</time>
      </trkpt>
      <trkpt lat="45.90885" lon="4.75869">
        <ele>184</ele>
        <time>2018-04-20T09:22:41Z</time>
      </trkpt>
      <trkpt lat="45.90885" lon="4.75859">
        <ele>184</ele>
        <time>2018-04-20T09:22:45Z</time>
      </trkpt>
      <trkpt lat="45.90885" lon="4.75855">
        <ele>184</ele>
        <time>2018-04-20T09:22:46Z</time>
      </trkpt>
      <trkpt lat="45.90886" lon="4.75844">
        <ele>184</ele>
        <time>2018-04-20T09:22:49Z</time>
      </trkpt>
      <trkpt lat="45.90886" lon="4.75839">
        <ele>184</ele>
        <time>2018-04-20T09:22:50Z</time>
      </trkpt>
      <trkpt lat="45.90887" lon="4.75826">
        <ele>184</ele>
        <time>2018-04-20T09:22:53Z</time>
      </trkpt>
      <trkpt lat="45.90887" lon="4.75822">
        <ele>184</ele>
        <time>2018-04-20T09:22:54Z</time>
      </trkpt>
      <trkpt lat="45.90886" lon="4.75813">
        <ele>184</ele>
        <time>2018-04-20T09:22:56Z</time>
      </trkpt>
      <trkpt lat="45.90887" lon="4.75808">
        <ele>184</ele>
        <time>2018-04-20T09:22:57Z</time>
      </trkpt>
      <trkpt lat="45.90888" lon="4.75799">
        <ele>185</ele>
        <time>2018-04-20T09:22:59Z</time>
      </trkpt>
      <trkpt lat="45.90888" lon="4.75795">
        <ele>185</ele>
        <time>2018-04-20T09:23:00Z</time>
      </trkpt>
      <trkpt lat="45.90889" lon="4.75781">
        <ele>185</ele>
        <time>2018-04-20T09:23:01Z</time>
      </trkpt>
      <trkpt lat="45.90889" lon="4.75769">
        <ele>185</ele>
        <time>2018-04-20T09:23:05Z</time>
      </trkpt>
      <trkpt lat="45.90889" lon="4.75766">
        <ele>185</ele>
        <time>2018-04-20T09:23:06Z</time>
      </trkpt>
      <trkpt lat="45.90889" lon="4.75753">
        <ele>185</ele>
        <time>2018-04-20T09:23:07Z</time>
      </trkpt>
      <trkpt lat="45.90889" lon="4.75747">
        <ele>185</ele>
        <time>2018-04-20T09:23:08Z</time>
      </trkpt>
      <trkpt lat="45.90891" lon="4.75737">
        <ele>185</ele>
        <time>2018-04-20T09:23:10Z</time>
      </trkpt>
      <trkpt lat="45.90891" lon="4.75734">
        <ele>185</ele>
        <time>2018-04-20T09:23:11Z</time>
      </trkpt>
      <trkpt lat="45.90893" lon="4.75725">
        <ele>185</ele>
        <time>2018-04-20T09:23:14Z</time>
      </trkpt>
      <trkpt lat="45.90894" lon="4.75722">
        <ele>185</ele>
        <time>2018-04-20T09:23:15Z</time>
      </trkpt>
      <trkpt lat="45.90896" lon="4.75711">
        <ele>184</ele>
        <time>2018-04-20T09:23:18Z</time>
      </trkpt>
      <trkpt lat="45.90897" lon="4.75706">
        <ele>184</ele>
        <time>2018-04-20T09:23:19Z</time>
      </trkpt>
      <trkpt lat="45.90897" lon="4.75702">
        <ele>184</ele>
        <time>2018-04-20T09:23:20Z</time>
      </trkpt>
      <trkpt lat="45.90898" lon="4.75688">
        <ele>184</ele>
        <time>2018-04-20T09:23:21Z</time>
      </trkpt>
      <trkpt lat="45.90899" lon="4.75676">
        <ele>184</ele>
        <time>2018-04-20T09:23:23Z</time>
      </trkpt>
      <trkpt lat="45.90899" lon="4.75674">
        <ele>184</ele>
        <time>2018-04-20T09:23:24Z</time>
      </trkpt>
      <trkpt lat="45.90899" lon="4.75664">
        <ele>184</ele>
        <time>2018-04-20T09:23:27Z</time>
      </trkpt>
      <trkpt lat="45.90899" lon="4.7566">
        <ele>184</ele>
        <time>2018-04-20T09:23:28Z</time>
      </trkpt>
      <trkpt lat="45.90897" lon="4.7565">
        <ele>184</ele>
        <time>2018-04-20T09:23:31Z</time>
      </trkpt>
      <trkpt lat="45.90897" lon="4.75645">
        <ele>185</ele>
        <time>2018-04-20T09:23:32Z</time>
      </trkpt>
      <trkpt lat="45.90896" lon="4.75637">
        <ele>185</ele>
        <time>2018-04-20T09:23:34Z</time>
      </trkpt>
      <trkpt lat="45.90896" lon="4.75632">
        <ele>185</ele>
        <time>2018-04-20T09:23:35Z</time>
      </trkpt>
      <trkpt lat="45.90896" lon="4.75623">
        <ele>185</ele>
        <time>2018-04-20T09:23:37Z</time>
      </trkpt>
      <trkpt lat="45.90896" lon="4.75618">
        <ele>185</ele>
        <time>2018-04-20T09:23:38Z</time>
      </trkpt>
      <trkpt lat="45.90897" lon="4.75608">
        <ele>185</ele>
        <time>2018-04-20T09:23:40Z</time>
      </trkpt>
      <trkpt lat="45.90897" lon="4.75603">
        <ele>185</ele>
        <time>2018-04-20T09:23:41Z</time>
      </trkpt>
      <trkpt lat="45.90898" lon="4.75594">
        <ele>185</ele>
        <time>2018-04-20T09:23:43Z</time>
      </trkpt>
      <trkpt lat="45.90898" lon="4.7559">
        <ele>185</ele>
        <time>2018-04-20T09:23:44Z</time>
      </trkpt>
      <trkpt lat="45.90899" lon="4.75581">
        <ele>186</ele>
        <time>2018-04-20T09:23:46Z</time>
      </trkpt>
      <trkpt lat="45.90899" lon="4.75576">
        <ele>186</ele>
        <time>2018-04-20T09:23:47Z</time>
      </trkpt>
      <trkpt lat="45.909" lon="4.75567">
        <ele>186</ele>
        <time>2018-04-20T09:23:49Z</time>
      </trkpt>
      <trkpt lat="45.909" lon="4.75563">
        <ele>186</ele>
        <time>2018-04-20T09:23:50Z</time>
      </trkpt>
      <trkpt lat="45.90901" lon="4.75558">
        <ele>186</ele>
        <time>2018-04-20T09:23:51Z</time>
      </trkpt>
      <trkpt lat="45.90903" lon="4.75544">
        <ele>186</ele>
        <time>2018-04-20T09:23:52Z</time>
      </trkpt>
      <trkpt lat="45.90903" lon="4.75534">
        <ele>186</ele>
        <time>2018-04-20T09:23:54Z</time>
      </trkpt>
      <trkpt lat="45.90904" lon="4.75531">
        <ele>186</ele>
        <time>2018-04-20T09:23:55Z</time>
      </trkpt>
      <trkpt lat="45.90905" lon="4.7552">
        <ele>186</ele>
        <time>2018-04-20T09:23:58Z</time>
      </trkpt>
      <trkpt lat="45.90907" lon="4.75508">
        <ele>186</ele>
        <time>2018-04-20T09:23:59Z</time>
      </trkpt>
      <trkpt lat="45.90909" lon="4.75498">
        <ele>186</ele>
        <time>2018-04-20T09:24:02Z</time>
      </trkpt>
      <trkpt lat="45.9091" lon="4.75495">
        <ele>186</ele>
        <time>2018-04-20T09:24:03Z</time>
      </trkpt>
      <trkpt lat="45.90913" lon="4.75484">
        <ele>186</ele>
        <time>2018-04-20T09:24:06Z</time>
      </trkpt>
      <trkpt lat="45.90915" lon="4.75473">
        <ele>186</ele>
        <time>2018-04-20T09:24:07Z</time>
      </trkpt>
      <trkpt lat="45.90916" lon="4.75461">
        <ele>186</ele>
        <time>2018-04-20T09:24:09Z</time>
      </trkpt>
      <trkpt lat="45.90916" lon="4.75455">
        <ele>186</ele>
        <time>2018-04-20T09:24:10Z</time>
      </trkpt>
      <trkpt lat="45.90916" lon="4.75443">
        <ele>186</ele>
        <time>2018-04-20T09:24:12Z</time>
      </trkpt>
      <trkpt lat="45.90916" lon="4.75436">
        <ele>185</ele>
        <time>2018-04-20T09:24:13Z</time>
      </trkpt>
      <trkpt lat="45.90917" lon="4.75426">
        <ele>185</ele>
        <time>2018-04-20T09:24:16Z</time>
      </trkpt>
      <trkpt lat="45.90917" lon="4.75415">
        <ele>185</ele>
        <time>2018-04-20T09:24:17Z</time>
      </trkpt>
      <trkpt lat="45.90918" lon="4.75403">
        <ele>185</ele>
        <time>2018-04-20T09:24:19Z</time>
      </trkpt>
      <trkpt lat="45.90918" lon="4.75397">
        <ele>185</ele>
        <time>2018-04-20T09:24:20Z</time>
      </trkpt>
      <trkpt lat="45.90919" lon="4.75385">
        <ele>185</ele>
        <time>2018-04-20T09:24:22Z</time>
      </trkpt>
      <trkpt lat="45.9092" lon="4.75379">
        <ele>185</ele>
        <time>2018-04-20T09:24:23Z</time>
      </trkpt>
      <trkpt lat="45.90921" lon="4.75368">
        <ele>185</ele>
        <time>2018-04-20T09:24:25Z</time>
      </trkpt>
      <trkpt lat="45.90922" lon="4.75363">
        <ele>185</ele>
        <time>2018-04-20T09:24:26Z</time>
      </trkpt>
      <trkpt lat="45.90923" lon="4.75351">
        <ele>185</ele>
        <time>2018-04-20T09:24:29Z</time>
      </trkpt>
      <trkpt lat="45.90924" lon="4.75348">
        <ele>186</ele>
        <time>2018-04-20T09:24:30Z</time>
      </trkpt>
      <trkpt lat="45.90925" lon="4.7534">
        <ele>186</ele>
        <time>2018-04-20T09:24:32Z</time>
      </trkpt>
      <trkpt lat="45.90927" lon="4.75329">
        <ele>186</ele>
        <time>2018-04-20T09:24:33Z</time>
      </trkpt>
      <trkpt lat="45.90929" lon="4.75319">
        <ele>185</ele>
        <time>2018-04-20T09:24:35Z</time>
      </trkpt>
      <trkpt lat="45.9093" lon="4.75316">
        <ele>185</ele>
        <time>2018-04-20T09:24:36Z</time>
      </trkpt>
      <trkpt lat="45.9093" lon="4.75313">
        <ele>185</ele>
        <time>2018-04-20T09:24:37Z</time>
      </trkpt>
      <trkpt lat="45.90933" lon="4.75303">
        <ele>185</ele>
        <time>2018-04-20T09:24:38Z</time>
      </trkpt>
      <trkpt lat="45.90934" lon="4.75292">
        <ele>185</ele>
        <time>2018-04-20T09:24:40Z</time>
      </trkpt>
      <trkpt lat="45.90933" lon="4.75286">
        <ele>185</ele>
        <time>2018-04-20T09:24:41Z</time>
      </trkpt>
      <trkpt lat="45.90933" lon="4.75274">
        <ele>185</ele>
        <time>2018-04-20T09:24:43Z</time>
      </trkpt>
      <trkpt lat="45.90933" lon="4.75269">
        <ele>185</ele>
        <time>2018-04-20T09:24:44Z</time>
      </trkpt>
      <trkpt lat="45.90933" lon="4.75258">
        <ele>185</ele>
        <time>2018-04-20T09:24:47Z</time>
      </trkpt>
      <trkpt lat="45.90934" lon="4.75255">
        <ele>185</ele>
        <time>2018-04-20T09:24:48Z</time>
      </trkpt>
      <trkpt lat="45.90935" lon="4.75243">
        <ele>184</ele>
        <time>2018-04-20T09:24:50Z</time>
      </trkpt>
      <trkpt lat="45.90936" lon="4.7524">
        <ele>184</ele>
        <time>2018-04-20T09:24:51Z</time>
      </trkpt>
      <trkpt lat="45.90937" lon="4.75233">
        <ele>184</ele>
        <time>2018-04-20T09:24:53Z</time>
      </trkpt>
      <trkpt lat="45.90939" lon="4.75222">
        <ele>184</ele>
        <time>2018-04-20T09:24:54Z</time>
      </trkpt>
      <trkpt lat="45.90942" lon="4.75211">
        <ele>184</ele>
        <time>2018-04-20T09:24:56Z</time>
      </trkpt>
      <trkpt lat="45.90943" lon="4.75205">
        <ele>184</ele>
        <time>2018-04-20T09:24:57Z</time>
      </trkpt>
      <trkpt lat="45.90943" lon="4.75193">
        <ele>183</ele>
        <time>2018-04-20T09:24:59Z</time>
      </trkpt>
      <trkpt lat="45.90943" lon="4.75187">
        <ele>183</ele>
        <time>2018-04-20T09:25:00Z</time>
      </trkpt>
      <trkpt lat="45.90944" lon="4.75176">
        <ele>183</ele>
        <time>2018-04-20T09:25:02Z</time>
      </trkpt>
      <trkpt lat="45.90945" lon="4.75174">
        <ele>183</ele>
        <time>2018-04-20T09:25:03Z</time>
      </trkpt>
      <trkpt lat="45.90947" lon="4.75164">
        <ele>182</ele>
        <time>2018-04-20T09:25:05Z</time>
      </trkpt>
      <trkpt lat="45.90947" lon="4.75161">
        <ele>182</ele>
        <time>2018-04-20T09:25:06Z</time>
      </trkpt>
      <trkpt lat="45.90948" lon="4.75158">
        <ele>182</ele>
        <time>2018-04-20T09:25:07Z</time>
      </trkpt>
      <trkpt lat="45.90949" lon="4.75148">
        <ele>182</ele>
        <time>2018-04-20T09:25:08Z</time>
      </trkpt>
      <trkpt lat="45.9095" lon="4.75136">
        <ele>181</ele>
        <time>2018-04-20T09:25:10Z</time>
      </trkpt>
      <trkpt lat="45.90951" lon="4.75131">
        <ele>181</ele>
        <time>2018-04-20T09:25:11Z</time>
      </trkpt>
      <trkpt lat="45.90952" lon="4.75119">
        <ele>181</ele>
        <time>2018-04-20T09:25:13Z</time>
      </trkpt>
      <trkpt lat="45.90952" lon="4.75113">
        <ele>181</ele>
        <time>2018-04-20T09:25:14Z</time>
      </trkpt>
      <trkpt lat="45.90952" lon="4.75101">
        <ele>181</ele>
        <time>2018-04-20T09:25:16Z</time>
      </trkpt>
      <trkpt lat="45.90952" lon="4.75096">
        <ele>181</ele>
        <time>2018-04-20T09:25:17Z</time>
      </trkpt>
      <trkpt lat="45.90954" lon="4.75086">
        <ele>181</ele>
        <time>2018-04-20T09:25:19Z</time>
      </trkpt>
      <trkpt lat="45.90955" lon="4.75081">
        <ele>179</ele>
        <time>2018-04-20T09:25:20Z</time>
      </trkpt>
      <trkpt lat="45.90956" lon="4.7507">
        <ele>179</ele>
        <time>2018-04-20T09:25:22Z</time>
      </trkpt>
      <trkpt lat="45.90957" lon="4.75065">
        <ele>179</ele>
        <time>2018-04-20T09:25:23Z</time>
      </trkpt>
      <trkpt lat="45.90959" lon="4.75054">
        <ele>179</ele>
        <time>2018-04-20T09:25:26Z</time>
      </trkpt>
      <trkpt lat="45.90959" lon="4.75051">
        <ele>179</ele>
        <time>2018-04-20T09:25:27Z</time>
      </trkpt>
      <trkpt lat="45.90963" lon="4.7504">
        <ele>179</ele>
        <time>2018-04-20T09:25:30Z</time>
      </trkpt>
      <trkpt lat="45.90965" lon="4.75037">
        <ele>179</ele>
        <time>2018-04-20T09:25:31Z</time>
      </trkpt>
      <trkpt lat="45.90972" lon="4.75035">
        <ele>179</ele>
        <time>2018-04-20T09:25:34Z</time>
      </trkpt>
      <trkpt lat="45.9098" lon="4.75037">
        <ele>178</ele>
        <time>2018-04-20T09:25:35Z</time>
      </trkpt>
      <trkpt lat="45.90988" lon="4.75041">
        <ele>179</ele>
        <time>2018-04-20T09:25:37Z</time>
      </trkpt>
      <trkpt lat="45.90992" lon="4.75043">
        <ele>179</ele>
        <time>2018-04-20T09:25:38Z</time>
      </trkpt>
      <trkpt lat="45.91" lon="4.75046">
        <ele>178</ele>
        <time>2018-04-20T09:25:41Z</time>
      </trkpt>
      <trkpt lat="45.91002" lon="4.75047">
        <ele>178</ele>
        <time>2018-04-20T09:25:42Z</time>
      </trkpt>
      <trkpt lat="45.91005" lon="4.75048">
        <ele>178</ele>
        <time>2018-04-20T09:25:43Z</time>
      </trkpt>
      <trkpt lat="45.91013" lon="4.75051">
        <ele>178</ele>
        <time>2018-04-20T09:25:44Z</time>
      </trkpt>
      <trkpt lat="45.91022" lon="4.75054">
        <ele>179</ele>
        <time>2018-04-20T09:25:46Z</time>
      </trkpt>
      <trkpt lat="45.91025" lon="4.75056">
        <ele>179</ele>
        <time>2018-04-20T09:25:47Z</time>
      </trkpt>
      <trkpt lat="45.91033" lon="4.75058">
        <ele>179</ele>
        <time>2018-04-20T09:25:49Z</time>
      </trkpt>
      <trkpt lat="45.91037" lon="4.75058">
        <ele>179</ele>
        <time>2018-04-20T09:25:50Z</time>
      </trkpt>
      <trkpt lat="45.91044" lon="4.7506">
        <ele>179</ele>
        <time>2018-04-20T09:25:52Z</time>
      </trkpt>
      <trkpt lat="45.91048" lon="4.75061">
        <ele>179</ele>
        <time>2018-04-20T09:25:53Z</time>
      </trkpt>
      <trkpt lat="45.91056" lon="4.75064">
        <ele>179</ele>
        <time>2018-04-20T09:25:55Z</time>
      </trkpt>
      <trkpt lat="45.9106" lon="4.75066">
        <ele>179</ele>
        <time>2018-04-20T09:25:56Z</time>
      </trkpt>
      <trkpt lat="45.91068" lon="4.7507">
        <ele>179</ele>
        <time>2018-04-20T09:25:58Z</time>
      </trkpt>
      <trkpt lat="45.91072" lon="4.75072">
        <ele>179</ele>
        <time>2018-04-20T09:25:59Z</time>
      </trkpt>
      <trkpt lat="45.91077" lon="4.75074">
        <ele>179</ele>
        <time>2018-04-20T09:26:00Z</time>
      </trkpt>
      <trkpt lat="45.91084" lon="4.75075">
        <ele>180</ele>
        <time>2018-04-20T09:26:01Z</time>
      </trkpt>
      <trkpt lat="45.91092" lon="4.75079">
        <ele>179</ele>
        <time>2018-04-20T09:26:03Z</time>
      </trkpt>
      <trkpt lat="45.91096" lon="4.7508">
        <ele>179</ele>
        <time>2018-04-20T09:26:04Z</time>
      </trkpt>
      <trkpt lat="45.91104" lon="4.75084">
        <ele>180</ele>
        <time>2018-04-20T09:26:06Z</time>
      </trkpt>
      <trkpt lat="45.91107" lon="4.75086">
        <ele>180</ele>
        <time>2018-04-20T09:26:07Z</time>
      </trkpt>
      <trkpt lat="45.91111" lon="4.75088">
        <ele>179</ele>
        <time>2018-04-20T09:26:08Z</time>
      </trkpt>
      <trkpt lat="45.91118" lon="4.75089">
        <ele>179</ele>
        <time>2018-04-20T09:26:09Z</time>
      </trkpt>
      <trkpt lat="45.91122" lon="4.75091">
        <ele>179</ele>
        <time>2018-04-20T09:26:10Z</time>
      </trkpt>
      <trkpt lat="45.91127" lon="4.75092">
        <ele>179</ele>
        <time>2018-04-20T09:26:11Z</time>
      </trkpt>
      <trkpt lat="45.91133" lon="4.75094">
        <ele>179</ele>
        <time>2018-04-20T09:26:13Z</time>
      </trkpt>
      <trkpt lat="45.91135" lon="4.75096">
        <ele>179</ele>
        <time>2018-04-20T09:26:14Z</time>
      </trkpt>
      <trkpt lat="45.91142" lon="4.751">
        <ele>179</ele>
        <time>2018-04-20T09:26:15Z</time>
      </trkpt>
      <trkpt lat="45.91146" lon="4.75101">
        <ele>179</ele>
        <time>2018-04-20T09:26:16Z</time>
      </trkpt>
      <trkpt lat="45.91153" lon="4.75101">
        <ele>179</ele>
        <time>2018-04-20T09:26:18Z</time>
      </trkpt>
      <trkpt lat="45.91158" lon="4.75102">
        <ele>179</ele>
        <time>2018-04-20T09:26:19Z</time>
      </trkpt>
      <trkpt lat="45.91163" lon="4.75103">
        <ele>179</ele>
        <time>2018-04-20T09:26:20Z</time>
      </trkpt>
      <trkpt lat="45.91168" lon="4.75105">
        <ele>178</ele>
        <time>2018-04-20T09:26:21Z</time>
      </trkpt>
      <trkpt lat="45.91173" lon="4.75106">
        <ele>178</ele>
        <time>2018-04-20T09:26:22Z</time>
      </trkpt>
      <trkpt lat="45.91178" lon="4.75108">
        <ele>178</ele>
        <time>2018-04-20T09:26:23Z</time>
      </trkpt>
      <trkpt lat="45.91183" lon="4.7511">
        <ele>178</ele>
        <time>2018-04-20T09:26:24Z</time>
      </trkpt>
      <trkpt lat="45.91188" lon="4.7511">
        <ele>178</ele>
        <time>2018-04-20T09:26:25Z</time>
      </trkpt>
      <trkpt lat="45.91196" lon="4.75112">
        <ele>178</ele>
        <time>2018-04-20T09:26:27Z</time>
      </trkpt>
      <trkpt lat="45.91199" lon="4.75113">
        <ele>178</ele>
        <time>2018-04-20T09:26:28Z</time>
      </trkpt>
      <trkpt lat="45.91208" lon="4.75115">
        <ele>178</ele>
        <time>2018-04-20T09:26:30Z</time>
      </trkpt>
      <trkpt lat="45.91212" lon="4.75116">
        <ele>177</ele>
        <time>2018-04-20T09:26:31Z</time>
      </trkpt>
      <trkpt lat="45.91217" lon="4.75118">
        <ele>177</ele>
        <time>2018-04-20T09:26:32Z</time>
      </trkpt>
      <trkpt lat="45.91222" lon="4.75121">
        <ele>177</ele>
        <time>2018-04-20T09:26:33Z</time>
      </trkpt>
      <trkpt lat="45.91227" lon="4.75124">
        <ele>177</ele>
        <time>2018-04-20T09:26:34Z</time>
      </trkpt>
      <trkpt lat="45.91234" lon="4.75123">
        <ele>177</ele>
        <time>2018-04-20T09:26:35Z</time>
      </trkpt>
      <trkpt lat="45.91243" lon="4.75125">
        <ele>177</ele>
        <time>2018-04-20T09:26:37Z</time>
      </trkpt>
      <trkpt lat="45.91247" lon="4.75128">
        <ele>177</ele>
        <time>2018-04-20T09:26:38Z</time>
      </trkpt>
      <trkpt lat="45.91254" lon="4.75132">
        <ele>177</ele>
        <time>2018-04-20T09:26:40Z</time>
      </trkpt>
      <trkpt lat="45.91259" lon="4.75134">
        <ele>177</ele>
        <time>2018-04-20T09:26:41Z</time>
      </trkpt>
      <trkpt lat="45.91266" lon="4.75141">
        <ele>177</ele>
        <time>2018-04-20T09:26:43Z</time>
      </trkpt>
      <trkpt lat="45.91271" lon="4.75144">
        <ele>177</ele>
        <time>2018-04-20T09:26:44Z</time>
      </trkpt>
      <trkpt lat="45.91278" lon="4.75149">
        <ele>177</ele>
        <time>2018-04-20T09:26:46Z</time>
      </trkpt>
      <trkpt lat="45.91285" lon="4.75149">
        <ele>177</ele>
        <time>2018-04-20T09:26:47Z</time>
      </trkpt>
      <trkpt lat="45.91292" lon="4.75151">
        <ele>177</ele>
        <time>2018-04-20T09:26:49Z</time>
      </trkpt>
      <trkpt lat="45.91296" lon="4.75152">
        <ele>177</ele>
        <time>2018-04-20T09:26:50Z</time>
      </trkpt>
      <trkpt lat="45.91305" lon="4.75156">
        <ele>177</ele>
        <time>2018-04-20T09:26:56Z</time>
      </trkpt>
      <trkpt lat="45.91305" lon="4.75156">
        <ele>177</ele>
        <time>2018-04-20T09:26:57Z</time>
      </trkpt>
      <trkpt lat="45.9131" lon="4.75146">
        <ele>177</ele>
        <time>2018-04-20T09:27:22Z</time>
      </trkpt>
      <trkpt lat="45.9131" lon="4.75143">
        <ele>177</ele>
        <time>2018-04-20T09:27:23Z</time>
      </trkpt>
      <trkpt lat="45.91308" lon="4.7513">
        <ele>177</ele>
        <time>2018-04-20T09:27:26Z</time>
      </trkpt>
      <trkpt lat="45.91306" lon="4.75117">
        <ele>177</ele>
        <time>2018-04-20T09:27:27Z</time>
      </trkpt>
      <trkpt lat="45.91305" lon="4.75108">
        <ele>177</ele>
        <time>2018-04-20T09:27:29Z</time>
      </trkpt>
      <trkpt lat="45.91304" lon="4.75103">
        <ele>177</ele>
        <time>2018-04-20T09:27:30Z</time>
      </trkpt>
      <trkpt lat="45.91303" lon="4.75092">
        <ele>177</ele>
        <time>2018-04-20T09:27:32Z</time>
      </trkpt>
      <trkpt lat="45.91302" lon="4.75086">
        <ele>177</ele>
        <time>2018-04-20T09:27:33Z</time>
      </trkpt>
      <trkpt lat="45.91299" lon="4.75079">
        <ele>177</ele>
        <time>2018-04-20T09:27:34Z</time>
      </trkpt>
      <trkpt lat="45.91299" lon="4.75073">
        <ele>177</ele>
        <time>2018-04-20T09:27:35Z</time>
      </trkpt>
      <trkpt lat="45.91298" lon="4.75066">
        <ele>177</ele>
        <time>2018-04-20T09:27:36Z</time>
      </trkpt>
      <trkpt lat="45.91299" lon="4.75059">
        <ele>177</ele>
        <time>2018-04-20T09:27:37Z</time>
      </trkpt>
      <trkpt lat="45.91297" lon="4.75052">
        <ele>177</ele>
        <time>2018-04-20T09:27:38Z</time>
      </trkpt>
      <trkpt lat="45.91297" lon="4.75045">
        <ele>177</ele>
        <time>2018-04-20T09:27:39Z</time>
      </trkpt>
      <trkpt lat="45.91297" lon="4.75033">
        <ele>177</ele>
        <time>2018-04-20T09:27:41Z</time>
      </trkpt>
      <trkpt lat="45.91297" lon="4.75027">
        <ele>177</ele>
        <time>2018-04-20T09:27:42Z</time>
      </trkpt>
      <trkpt lat="45.91297" lon="4.75014">
        <ele>177</ele>
        <time>2018-04-20T09:27:44Z</time>
      </trkpt>
      <trkpt lat="45.91298" lon="4.7501">
        <ele>177</ele>
        <time>2018-04-20T09:27:45Z</time>
      </trkpt>
      <trkpt lat="45.91298" lon="4.74998">
        <ele>177</ele>
        <time>2018-04-20T09:27:47Z</time>
      </trkpt>
      <trkpt lat="45.91299" lon="4.74992">
        <ele>177</ele>
        <time>2018-04-20T09:27:48Z</time>
      </trkpt>
      <trkpt lat="45.91299" lon="4.74985">
        <ele>177</ele>
        <time>2018-04-20T09:27:49Z</time>
      </trkpt>
      <trkpt lat="45.913" lon="4.74976">
        <ele>177</ele>
        <time>2018-04-20T09:27:50Z</time>
      </trkpt>
      <trkpt lat="45.91303" lon="4.74971">
        <ele>177</ele>
        <time>2018-04-20T09:27:51Z</time>
      </trkpt>
      <trkpt lat="45.91305" lon="4.74965">
        <ele>177</ele>
        <time>2018-04-20T09:27:52Z</time>
      </trkpt>
      <trkpt lat="45.91305" lon="4.74955">
        <ele>177</ele>
        <time>2018-04-20T09:27:54Z</time>
      </trkpt>
      <trkpt lat="45.91305" lon="4.74951">
        <ele>177</ele>
        <time>2018-04-20T09:27:55Z</time>
      </trkpt>
      <trkpt lat="45.91307" lon="4.74941">
        <ele>177</ele>
        <time>2018-04-20T09:27:56Z</time>
      </trkpt>
      <trkpt lat="45.91308" lon="4.74938">
        <ele>177</ele>
        <time>2018-04-20T09:27:57Z</time>
      </trkpt>
      <trkpt lat="45.91309" lon="4.74926">
        <ele>177</ele>
        <time>2018-04-20T09:27:59Z</time>
      </trkpt>
      <trkpt lat="45.91312" lon="4.74916">
        <ele>176</ele>
        <time>2018-04-20T09:28:00Z</time>
      </trkpt>
      <trkpt lat="45.91312" lon="4.74911">
        <ele>176</ele>
        <time>2018-04-20T09:28:01Z</time>
      </trkpt>
      <trkpt lat="45.91313" lon="4.74903">
        <ele>176</ele>
        <time>2018-04-20T09:28:02Z</time>
      </trkpt>
      <trkpt lat="45.91313" lon="4.74895">
        <ele>176</ele>
        <time>2018-04-20T09:28:03Z</time>
      </trkpt>
      <trkpt lat="45.91316" lon="4.7489">
        <ele>176</ele>
        <time>2018-04-20T09:28:04Z</time>
      </trkpt>
      <trkpt lat="45.91318" lon="4.74881">
        <ele>176</ele>
        <time>2018-04-20T09:28:06Z</time>
      </trkpt>
      <trkpt lat="45.91318" lon="4.74873">
        <ele>176</ele>
        <time>2018-04-20T09:28:07Z</time>
      </trkpt>
      <trkpt lat="45.91319" lon="4.74861">
        <ele>176</ele>
        <time>2018-04-20T09:28:09Z</time>
      </trkpt>
      <trkpt lat="45.9132" lon="4.74856">
        <ele>176</ele>
        <time>2018-04-20T09:28:10Z</time>
      </trkpt>
      <trkpt lat="45.91321" lon="4.7485">
        <ele>176</ele>
        <time>2018-04-20T09:28:11Z</time>
      </trkpt>
      <trkpt lat="45.91319" lon="4.74842">
        <ele>176</ele>
        <time>2018-04-20T09:28:12Z</time>
      </trkpt>
      <trkpt lat="45.91319" lon="4.7483">
        <ele>175</ele>
        <time>2018-04-20T09:28:14Z</time>
      </trkpt>
      <trkpt lat="45.9132" lon="4.74822">
        <ele>175</ele>
        <time>2018-04-20T09:28:15Z</time>
      </trkpt>
      <trkpt lat="45.91321" lon="4.7481">
        <ele>175</ele>
        <time>2018-04-20T09:28:17Z</time>
      </trkpt>
      <trkpt lat="45.91321" lon="4.74803">
        <ele>175</ele>
        <time>2018-04-20T09:28:18Z</time>
      </trkpt>
      <trkpt lat="45.91322" lon="4.74792">
        <ele>174</ele>
        <time>2018-04-20T09:28:20Z</time>
      </trkpt>
      <trkpt lat="45.91322" lon="4.74786">
        <ele>174</ele>
        <time>2018-04-20T09:28:21Z</time>
      </trkpt>
      <trkpt lat="45.91324" lon="4.74776">
        <ele>174</ele>
        <time>2018-04-20T09:28:23Z</time>
      </trkpt>
      <trkpt lat="45.91324" lon="4.74773">
        <ele>174</ele>
        <time>2018-04-20T09:28:24Z</time>
      </trkpt>
      <trkpt lat="45.91325" lon="4.74765">
        <ele>174</ele>
        <time>2018-04-20T09:28:25Z</time>
      </trkpt>
      <trkpt lat="45.91326" lon="4.7476">
        <ele>174</ele>
        <time>2018-04-20T09:28:26Z</time>
      </trkpt>
      <trkpt lat="45.91329" lon="4.74749">
        <ele>173</ele>
        <time>2018-04-20T09:28:28Z</time>
      </trkpt>
      <trkpt lat="45.9133" lon="4.74744">
        <ele>173</ele>
        <time>2018-04-20T09:28:29Z</time>
      </trkpt>
      <trkpt lat="45.91333" lon="4.74733">
        <ele>173</ele>
        <time>2018-04-20T09:28:31Z</time>
      </trkpt>
      <trkpt lat="45.91334" lon="4.74726">
        <ele>173</ele>
        <time>2018-04-20T09:28:32Z</time>
      </trkpt>
      <trkpt lat="45.91332" lon="4.74716">
        <ele>173</ele>
        <time>2018-04-20T09:28:33Z</time>
      </trkpt>
      <trkpt lat="45.91332" lon="4.7471">
        <ele>173</ele>
        <time>2018-04-20T09:28:34Z</time>
      </trkpt>
      <trkpt lat="45.91332" lon="4.74703">
        <ele>173</ele>
        <time>2018-04-20T09:28:35Z</time>
      </trkpt>
      <trkpt lat="45.9133" lon="4.74695">
        <ele>173</ele>
        <time>2018-04-20T09:28:36Z</time>
      </trkpt>
      <trkpt lat="45.91328" lon="4.74687">
        <ele>173</ele>
        <time>2018-04-20T09:28:37Z</time>
      </trkpt>
      <trkpt lat="45.91326" lon="4.74681">
        <ele>173</ele>
        <time>2018-04-20T09:28:38Z</time>
      </trkpt>
      <trkpt lat="45.91324" lon="4.74675">
        <ele>173</ele>
        <time>2018-04-20T09:28:39Z</time>
      </trkpt>
      <trkpt lat="45.91323" lon="4.7467">
        <ele>173</ele>
        <time>2018-04-20T09:28:40Z</time>
      </trkpt>
      <trkpt lat="45.91319" lon="4.74659">
        <ele>173</ele>
        <time>2018-04-20T09:28:42Z</time>
      </trkpt>
      <trkpt lat="45.91317" lon="4.74654">
        <ele>173</ele>
        <time>2018-04-20T09:28:43Z</time>
      </trkpt>
      <trkpt lat="45.91313" lon="4.74647">
        <ele>173</ele>
        <time>2018-04-20T09:28:44Z</time>
      </trkpt>
      <trkpt lat="45.9131" lon="4.74641">
        <ele>173</ele>
        <time>2018-04-20T09:28:45Z</time>
      </trkpt>
      <trkpt lat="45.91307" lon="4.74636">
        <ele>173</ele>
        <time>2018-04-20T09:28:46Z</time>
      </trkpt>
      <trkpt lat="45.91304" lon="4.7463">
        <ele>173</ele>
        <time>2018-04-20T09:28:47Z</time>
      </trkpt>
      <trkpt lat="45.91302" lon="4.74622">
        <ele>173</ele>
        <time>2018-04-20T09:28:48Z</time>
      </trkpt>
      <trkpt lat="45.91299" lon="4.74617">
        <ele>173</ele>
        <time>2018-04-20T09:28:49Z</time>
      </trkpt>
      <trkpt lat="45.91297" lon="4.7461">
        <ele>173</ele>
        <time>2018-04-20T09:28:50Z</time>
      </trkpt>
      <trkpt lat="45.91293" lon="4.74604">
        <ele>173</ele>
        <time>2018-04-20T09:28:51Z</time>
      </trkpt>
      <trkpt lat="45.91291" lon="4.74598">
        <ele>173</ele>
        <time>2018-04-20T09:28:52Z</time>
      </trkpt>
      <trkpt lat="45.91287" lon="4.74594">
        <ele>173</ele>
        <time>2018-04-20T09:28:53Z</time>
      </trkpt>
      <trkpt lat="45.91285" lon="4.74587">
        <ele>173</ele>
        <time>2018-04-20T09:28:54Z</time>
      </trkpt>
      <trkpt lat="45.91282" lon="4.7458">
        <ele>173</ele>
        <time>2018-04-20T09:28:55Z</time>
      </trkpt>
      <trkpt lat="45.91278" lon="4.74573">
        <ele>173</ele>
        <time>2018-04-20T09:28:56Z</time>
      </trkpt>
      <trkpt lat="45.91276" lon="4.74566">
        <ele>173</ele>
        <time>2018-04-20T09:28:57Z</time>
      </trkpt>
      <trkpt lat="45.91274" lon="4.7456">
        <ele>173</ele>
        <time>2018-04-20T09:28:58Z</time>
      </trkpt>
      <trkpt lat="45.91272" lon="4.74553">
        <ele>173</ele>
        <time>2018-04-20T09:28:59Z</time>
      </trkpt>
      <trkpt lat="45.9127" lon="4.74547">
        <ele>173</ele>
        <time>2018-04-20T09:29:00Z</time>
      </trkpt>
      <trkpt lat="45.91267" lon="4.7454">
        <ele>173</ele>
        <time>2018-04-20T09:29:01Z</time>
      </trkpt>
      <trkpt lat="45.91264" lon="4.74532">
        <ele>173</ele>
        <time>2018-04-20T09:29:02Z</time>
      </trkpt>
      <trkpt lat="45.91263" lon="4.74527">
        <ele>173</ele>
        <time>2018-04-20T09:29:03Z</time>
      </trkpt>
      <trkpt lat="45.91261" lon="4.74521">
        <ele>174</ele>
        <time>2018-04-20T09:29:04Z</time>
      </trkpt>
      <trkpt lat="45.91259" lon="4.74515">
        <ele>174</ele>
        <time>2018-04-20T09:29:05Z</time>
      </trkpt>
      <trkpt lat="45.91257" lon="4.7451">
        <ele>174</ele>
        <time>2018-04-20T09:29:06Z</time>
      </trkpt>
      <trkpt lat="45.91254" lon="4.74503">
        <ele>174</ele>
        <time>2018-04-20T09:29:07Z</time>
      </trkpt>
      <trkpt lat="45.91252" lon="4.74496">
        <ele>174</ele>
        <time>2018-04-20T09:29:08Z</time>
      </trkpt>
      <trkpt lat="45.9125" lon="4.74489">
        <ele>174</ele>
        <time>2018-04-20T09:29:09Z</time>
      </trkpt>
      <trkpt lat="45.91249" lon="4.74483">
        <ele>174</ele>
        <time>2018-04-20T09:29:10Z</time>
      </trkpt>
      <trkpt lat="45.91248" lon="4.74476">
        <ele>174</ele>
        <time>2018-04-20T09:29:11Z</time>
      </trkpt>
      <trkpt lat="45.91244" lon="4.74467">
        <ele>174</ele>
        <time>2018-04-20T09:29:12Z</time>
      </trkpt>
      <trkpt lat="45.91242" lon="4.74459">
        <ele>174</ele>
        <time>2018-04-20T09:29:13Z</time>
      </trkpt>
      <trkpt lat="45.91241" lon="4.74452">
        <ele>174</ele>
        <time>2018-04-20T09:29:14Z</time>
      </trkpt>
      <trkpt lat="45.9124" lon="4.74446">
        <ele>174</ele>
        <time>2018-04-20T09:29:15Z</time>
      </trkpt>
      <trkpt lat="45.91239" lon="4.74439">
        <ele>174</ele>
        <time>2018-04-20T09:29:16Z</time>
      </trkpt>
      <trkpt lat="45.91238" lon="4.74432">
        <ele>174</ele>
        <time>2018-04-20T09:29:17Z</time>
      </trkpt>
      <trkpt lat="45.91236" lon="4.74425">
        <ele>174</ele>
        <time>2018-04-20T09:29:18Z</time>
      </trkpt>
      <trkpt lat="45.91235" lon="4.74417">
        <ele>174</ele>
        <time>2018-04-20T09:29:19Z</time>
      </trkpt>
      <trkpt lat="45.91233" lon="4.7441">
        <ele>174</ele>
        <time>2018-04-20T09:29:20Z</time>
      </trkpt>
      <trkpt lat="45.9123" lon="4.74404">
        <ele>174</ele>
        <time>2018-04-20T09:29:21Z</time>
      </trkpt>
      <trkpt lat="45.91229" lon="4.74396">
        <ele>174</ele>
        <time>2018-04-20T09:29:22Z</time>
      </trkpt>
      <trkpt lat="45.91227" lon="4.74389">
        <ele>174</ele>
        <time>2018-04-20T09:29:23Z</time>
      </trkpt>
      <trkpt lat="45.91225" lon="4.74381">
        <ele>174</ele>
        <time>2018-04-20T09:29:24Z</time>
      </trkpt>
      <trkpt lat="45.91223" lon="4.74375">
        <ele>174</ele>
        <time>2018-04-20T09:29:25Z</time>
      </trkpt>
      <trkpt lat="45.91221" lon="4.74369">
        <ele>174</ele>
        <time>2018-04-20T09:29:26Z</time>
      </trkpt>
      <trkpt lat="45.91219" lon="4.74361">
        <ele>174</ele>
        <time>2018-04-20T09:29:27Z</time>
      </trkpt>
      <trkpt lat="45.91217" lon="4.74354">
        <ele>175</ele>
        <time>2018-04-20T09:29:28Z</time>
      </trkpt>
      <trkpt lat="45.91215" lon="4.74347">
        <ele>175</ele>
        <time>2018-04-20T09:29:29Z</time>
      </trkpt>
      <trkpt lat="45.91215" lon="4.7434">
        <ele>175</ele>
        <time>2018-04-20T09:29:30Z</time>
      </trkpt>
      <trkpt lat="45.91212" lon="4.74333">
        <ele>175</ele>
        <time>2018-04-20T09:29:31Z</time>
      </trkpt>
      <trkpt lat="45.9121" lon="4.74325">
        <ele>175</ele>
        <time>2018-04-20T09:29:32Z</time>
      </trkpt>
      <trkpt lat="45.91209" lon="4.74318">
        <ele>175</ele>
        <time>2018-04-20T09:29:33Z</time>
      </trkpt>
      <trkpt lat="45.91206" lon="4.74313">
        <ele>175</ele>
        <time>2018-04-20T09:29:34Z</time>
      </trkpt>
      <trkpt lat="45.91204" lon="4.74307">
        <ele>175</ele>
        <time>2018-04-20T09:29:35Z</time>
      </trkpt>
      <trkpt lat="45.91202" lon="4.74295">
        <ele>175</ele>
        <time>2018-04-20T09:29:37Z</time>
      </trkpt>
      <trkpt lat="45.91202" lon="4.7429">
        <ele>175</ele>
        <time>2018-04-20T09:29:38Z</time>
      </trkpt>
      <trkpt lat="45.91197" lon="4.7428">
        <ele>175</ele>
        <time>2018-04-20T09:29:40Z</time>
      </trkpt>
      <trkpt lat="45.91196" lon="4.74273">
        <ele>175</ele>
        <time>2018-04-20T09:29:41Z</time>
      </trkpt>
      <trkpt lat="45.91193" lon="4.74262">
        <ele>175</ele>
        <time>2018-04-20T09:29:43Z</time>
      </trkpt>
      <trkpt lat="45.91192" lon="4.74257">
        <ele>175</ele>
        <time>2018-04-20T09:29:44Z</time>
      </trkpt>
      <trkpt lat="45.91191" lon="4.74245">
        <ele>175</ele>
        <time>2018-04-20T09:29:46Z</time>
      </trkpt>
      <trkpt lat="45.91191" lon="4.7424">
        <ele>175</ele>
        <time>2018-04-20T09:29:47Z</time>
      </trkpt>
      <trkpt lat="45.91189" lon="4.74229">
        <ele>175</ele>
        <time>2018-04-20T09:29:49Z</time>
      </trkpt>
      <trkpt lat="45.91189" lon="4.74224">
        <ele>175</ele>
        <time>2018-04-20T09:29:50Z</time>
      </trkpt>
      <trkpt lat="45.91188" lon="4.74216">
        <ele>175</ele>
        <time>2018-04-20T09:29:52Z</time>
      </trkpt>
      <trkpt lat="45.91188" lon="4.74208">
        <ele>175</ele>
        <time>2018-04-20T09:29:53Z</time>
      </trkpt>
      <trkpt lat="45.91188" lon="4.74196">
        <ele>175</ele>
        <time>2018-04-20T09:29:56Z</time>
      </trkpt>
      <trkpt lat="45.91188" lon="4.74193">
        <ele>175</ele>
        <time>2018-04-20T09:29:57Z</time>
      </trkpt>
      <trkpt lat="45.91189" lon="4.74184">
        <ele>174</ele>
        <time>2018-04-20T09:29:59Z</time>
      </trkpt>
      <trkpt lat="45.9119" lon="4.7418">
        <ele>174</ele>
        <time>2018-04-20T09:30:00Z</time>
      </trkpt>
      <trkpt lat="45.91192" lon="4.74168">
        <ele>174</ele>
        <time>2018-04-20T09:30:01Z</time>
      </trkpt>
      <trkpt lat="45.91193" lon="4.74163">
        <ele>174</ele>
        <time>2018-04-20T09:30:02Z</time>
      </trkpt>
      <trkpt lat="45.91195" lon="4.74153">
        <ele>174</ele>
        <time>2018-04-20T09:30:05Z</time>
      </trkpt>
      <trkpt lat="45.91195" lon="4.7415">
        <ele>174</ele>
        <time>2018-04-20T09:30:06Z</time>
      </trkpt>
      <trkpt lat="45.91197" lon="4.74138">
        <ele>174</ele>
        <time>2018-04-20T09:30:09Z</time>
      </trkpt>
      <trkpt lat="45.91198" lon="4.74133">
        <ele>174</ele>
        <time>2018-04-20T09:30:10Z</time>
      </trkpt>
      <trkpt lat="45.912" lon="4.74124">
        <ele>174</ele>
        <time>2018-04-20T09:30:12Z</time>
      </trkpt>
      <trkpt lat="45.91201" lon="4.74119">
        <ele>174</ele>
        <time>2018-04-20T09:30:13Z</time>
      </trkpt>
      <trkpt lat="45.91203" lon="4.74109">
        <ele>173</ele>
        <time>2018-04-20T09:30:15Z</time>
      </trkpt>
      <trkpt lat="45.91204" lon="4.74103">
        <ele>173</ele>
        <time>2018-04-20T09:30:16Z</time>
      </trkpt>
      <trkpt lat="45.91205" lon="4.74099">
        <ele>173</ele>
        <time>2018-04-20T09:30:17Z</time>
      </trkpt>
      <trkpt lat="45.91207" lon="4.74086">
        <ele>173</ele>
        <time>2018-04-20T09:30:18Z</time>
      </trkpt>
      <trkpt lat="45.91208" lon="4.74076">
        <ele>173</ele>
        <time>2018-04-20T09:30:20Z</time>
      </trkpt>
      <trkpt lat="45.91209" lon="4.74071">
        <ele>173</ele>
        <time>2018-04-20T09:30:21Z</time>
      </trkpt>
      <trkpt lat="45.91211" lon="4.7406">
        <ele>173</ele>
        <time>2018-04-20T09:30:23Z</time>
      </trkpt>
      <trkpt lat="45.91213" lon="4.74054">
        <ele>173</ele>
        <time>2018-04-20T09:30:24Z</time>
      </trkpt>
      <trkpt lat="45.91215" lon="4.74044">
        <ele>173</ele>
        <time>2018-04-20T09:30:26Z</time>
      </trkpt>
      <trkpt lat="45.91215" lon="4.74041">
        <ele>173</ele>
        <time>2018-04-20T09:30:27Z</time>
      </trkpt>
      <trkpt lat="45.91218" lon="4.74029">
        <ele>173</ele>
        <time>2018-04-20T09:30:29Z</time>
      </trkpt>
      <trkpt lat="45.91219" lon="4.74024">
        <ele>173</ele>
        <time>2018-04-20T09:30:30Z</time>
      </trkpt>
      <trkpt lat="45.91221" lon="4.74014">
        <ele>173</ele>
        <time>2018-04-20T09:30:32Z</time>
      </trkpt>
      <trkpt lat="45.91222" lon="4.74009">
        <ele>173</ele>
        <time>2018-04-20T09:30:33Z</time>
      </trkpt>
      <trkpt lat="45.91224" lon="4.73999">
        <ele>173</ele>
        <time>2018-04-20T09:30:35Z</time>
      </trkpt>
      <trkpt lat="45.91225" lon="4.73993">
        <ele>173</ele>
        <time>2018-04-20T09:30:36Z</time>
      </trkpt>
      <trkpt lat="45.91227" lon="4.73983">
        <ele>173</ele>
        <time>2018-04-20T09:30:38Z</time>
      </trkpt>
      <trkpt lat="45.91228" lon="4.73977">
        <ele>173</ele>
        <time>2018-04-20T09:30:39Z</time>
      </trkpt>
      <trkpt lat="45.91229" lon="4.73965">
        <ele>173</ele>
        <time>2018-04-20T09:30:41Z</time>
      </trkpt>
      <trkpt lat="45.91229" lon="4.73959">
        <ele>173</ele>
        <time>2018-04-20T09:30:42Z</time>
      </trkpt>
      <trkpt lat="45.91229" lon="4.73952">
        <ele>173</ele>
        <time>2018-04-20T09:30:43Z</time>
      </trkpt>
      <trkpt lat="45.91229" lon="4.73945">
        <ele>173</ele>
        <time>2018-04-20T09:30:44Z</time>
      </trkpt>
      <trkpt lat="45.91229" lon="4.73933">
        <ele>173</ele>
        <time>2018-04-20T09:30:46Z</time>
      </trkpt>
      <trkpt lat="45.91228" lon="4.73925">
        <ele>173</ele>
        <time>2018-04-20T09:30:47Z</time>
      </trkpt>
      <trkpt lat="45.91227" lon="4.73918">
        <ele>173</ele>
        <time>2018-04-20T09:30:48Z</time>
      </trkpt>
      <trkpt lat="45.91226" lon="4.73911">
        <ele>174</ele>
        <time>2018-04-20T09:30:49Z</time>
      </trkpt>
      <trkpt lat="45.91224" lon="4.73903">
        <ele>174</ele>
        <time>2018-04-20T09:30:50Z</time>
      </trkpt>
      <trkpt lat="45.91222" lon="4.73895">
        <ele>174</ele>
        <time>2018-04-20T09:30:51Z</time>
      </trkpt>
      <trkpt lat="45.91221" lon="4.73888">
        <ele>174</ele>
        <time>2018-04-20T09:30:52Z</time>
      </trkpt>
      <trkpt lat="45.9122" lon="4.73881">
        <ele>174</ele>
        <time>2018-04-20T09:30:53Z</time>
      </trkpt>
      <trkpt lat="45.91218" lon="4.73873">
        <ele>174</ele>
        <time>2018-04-20T09:30:54Z</time>
      </trkpt>
      <trkpt lat="45.91216" lon="4.73865">
        <ele>174</ele>
        <time>2018-04-20T09:30:55Z</time>
      </trkpt>
      <trkpt lat="45.91213" lon="4.73859">
        <ele>174</ele>
        <time>2018-04-20T09:30:56Z</time>
      </trkpt>
      <trkpt lat="45.9121" lon="4.7385">
        <ele>174</ele>
        <time>2018-04-20T09:30:57Z</time>
      </trkpt>
      <trkpt lat="45.91207" lon="4.73843">
        <ele>174</ele>
        <time>2018-04-20T09:30:58Z</time>
      </trkpt>
      <trkpt lat="45.91204" lon="4.73835">
        <ele>174</ele>
        <time>2018-04-20T09:30:59Z</time>
      </trkpt>
      <trkpt lat="45.912" lon="4.73827">
        <ele>175</ele>
        <time>2018-04-20T09:31:00Z</time>
      </trkpt>
      <trkpt lat="45.91198" lon="4.73819">
        <ele>175</ele>
        <time>2018-04-20T09:31:01Z</time>
      </trkpt>
      <trkpt lat="45.91193" lon="4.7381">
        <ele>175</ele>
        <time>2018-04-20T09:31:02Z</time>
      </trkpt>
      <trkpt lat="45.91189" lon="4.73803">
        <ele>175</ele>
        <time>2018-04-20T09:31:03Z</time>
      </trkpt>
      <trkpt lat="45.91186" lon="4.73796">
        <ele>175</ele>
        <time>2018-04-20T09:31:04Z</time>
      </trkpt>
      <trkpt lat="45.91182" lon="4.73787">
        <ele>175</ele>
        <time>2018-04-20T09:31:05Z</time>
      </trkpt>
      <trkpt lat="45.91178" lon="4.73778">
        <ele>175</ele>
        <time>2018-04-20T09:31:06Z</time>
      </trkpt>
      <trkpt lat="45.91174" lon="4.7377">
        <ele>175</ele>
        <time>2018-04-20T09:31:07Z</time>
      </trkpt>
      <trkpt lat="45.91169" lon="4.73765">
        <ele>175</ele>
        <time>2018-04-20T09:31:08Z</time>
      </trkpt>
      <trkpt lat="45.91167" lon="4.73758">
        <ele>175</ele>
        <time>2018-04-20T09:31:09Z</time>
      </trkpt>
      <trkpt lat="45.91166" lon="4.7375">
        <ele>175</ele>
        <time>2018-04-20T09:31:10Z</time>
      </trkpt>
      <trkpt lat="45.91163" lon="4.73744">
        <ele>175</ele>
        <time>2018-04-20T09:31:11Z</time>
      </trkpt>
      <trkpt lat="45.91167" lon="4.73739">
        <ele>175</ele>
        <time>2018-04-20T09:31:12Z</time>
      </trkpt>
      <trkpt lat="45.91169" lon="4.73732">
        <ele>175</ele>
        <time>2018-04-20T09:31:13Z</time>
      </trkpt>
      <trkpt lat="45.91178" lon="4.73735">
        <ele>175</ele>
        <time>2018-04-20T09:31:17Z</time>
      </trkpt>
      <trkpt lat="45.9118" lon="4.73736">
        <ele>175</ele>
        <time>2018-04-20T09:31:18Z</time>
      </trkpt>
      <trkpt lat="45.91188" lon="4.73741">
        <ele>175</ele>
        <time>2018-04-20T09:31:23Z</time>
      </trkpt>
      <trkpt lat="45.91189" lon="4.73742">
        <ele>175</ele>
        <time>2018-04-20T09:31:24Z</time>
      </trkpt>
      <trkpt lat="45.91195" lon="4.73745">
        <ele>175</ele>
        <time>2018-04-20T09:32:34Z</time>
      </trkpt>
      <trkpt lat="45.91197" lon="4.73745">
        <ele>175</ele>
        <time>2018-04-20T09:32:35Z</time>
      </trkpt>
      <trkpt lat="45.91205" lon="4.73746">
        <ele>175</ele>
        <time>2018-04-20T09:32:38Z</time>
      </trkpt>
      <trkpt lat="45.91207" lon="4.73746">
        <ele>175</ele>
        <time>2018-04-20T09:32:39Z</time>
      </trkpt>
      <trkpt lat="45.91216" lon="4.73746">
        <ele>175</ele>
        <time>2018-04-20T09:32:42Z</time>
      </trkpt>
      <trkpt lat="45.91219" lon="4.73746">
        <ele>175</ele>
        <time>2018-04-20T09:32:43Z</time>
      </trkpt>
      <trkpt lat="45.91229" lon="4.73747">
        <ele>175</ele>
        <time>2018-04-20T09:32:44Z</time>
      </trkpt>
      <trkpt lat="45.91237" lon="4.73746">
        <ele>175</ele>
        <time>2018-04-20T09:32:47Z</time>
      </trkpt>
      <trkpt lat="45.9124" lon="4.73746">
        <ele>175</ele>
        <time>2018-04-20T09:32:48Z</time>
      </trkpt>
      <trkpt lat="45.91242" lon="4.73746">
        <ele>175</ele>
        <time>2018-04-20T09:32:49Z</time>
      </trkpt>
      <trkpt lat="45.9125" lon="4.73746">
        <ele>175</ele>
        <time>2018-04-20T09:32:50Z</time>
      </trkpt>
      <trkpt lat="45.91256" lon="4.73747">
        <ele>175</ele>
        <time>2018-04-20T09:32:52Z</time>
      </trkpt>
      <trkpt lat="45.91261" lon="4.73746">
        <ele>175</ele>
        <time>2018-04-20T09:32:53Z</time>
      </trkpt>
      <trkpt lat="45.91268" lon="4.73746">
        <ele>174</ele>
        <time>2018-04-20T09:32:55Z</time>
      </trkpt>
      <trkpt lat="45.91272" lon="4.73746">
        <ele>174</ele>
        <time>2018-04-20T09:32:56Z</time>
      </trkpt>
      <trkpt lat="45.9128" lon="4.73745">
        <ele>174</ele>
        <time>2018-04-20T09:32:58Z</time>
      </trkpt>
      <trkpt lat="45.91285" lon="4.73745">
        <ele>174</ele>
        <time>2018-04-20T09:32:59Z</time>
      </trkpt>
      <trkpt lat="45.91289" lon="4.73742">
        <ele>174</ele>
        <time>2018-04-20T09:33:00Z</time>
      </trkpt>
      <trkpt lat="45.91293" lon="4.7374">
        <ele>174</ele>
        <time>2018-04-20T09:33:01Z</time>
      </trkpt>
      <trkpt lat="45.91302" lon="4.7374">
        <ele>174</ele>
        <time>2018-04-20T09:33:03Z</time>
      </trkpt>
      <trkpt lat="45.91306" lon="4.7374">
        <ele>174</ele>
        <time>2018-04-20T09:33:04Z</time>
      </trkpt>
      <trkpt lat="45.91313" lon="4.7374">
        <ele>174</ele>
        <time>2018-04-20T09:33:06Z</time>
      </trkpt>
      <trkpt lat="45.91318" lon="4.7374">
        <ele>174</ele>
        <time>2018-04-20T09:33:07Z</time>
      </trkpt>
      <trkpt lat="45.91326" lon="4.73739">
        <ele>173</ele>
        <time>2018-04-20T09:33:09Z</time>
      </trkpt>
      <trkpt lat="45.91331" lon="4.73738">
        <ele>173</ele>
        <time>2018-04-20T09:33:10Z</time>
      </trkpt>
      <trkpt lat="45.91339" lon="4.73737">
        <ele>173</ele>
        <time>2018-04-20T09:33:12Z</time>
      </trkpt>
      <trkpt lat="45.91342" lon="4.73737">
        <ele>173</ele>
        <time>2018-04-20T09:33:13Z</time>
      </trkpt>
      <trkpt lat="45.91349" lon="4.73735">
        <ele>173</ele>
        <time>2018-04-20T09:33:15Z</time>
      </trkpt>
      <trkpt lat="45.91351" lon="4.73734">
        <ele>173</ele>
        <time>2018-04-20T09:33:16Z</time>
      </trkpt>
      <trkpt lat="45.91354" lon="4.73734">
        <ele>173</ele>
        <time>2018-04-20T09:33:17Z</time>
      </trkpt>
      <trkpt lat="45.91361" lon="4.73734">
        <ele>173</ele>
        <time>2018-04-20T09:33:18Z</time>
      </trkpt>
      <trkpt lat="45.91365" lon="4.73735">
        <ele>173</ele>
        <time>2018-04-20T09:33:19Z</time>
      </trkpt>
      <trkpt lat="45.9137" lon="4.73738">
        <ele>173</ele>
        <time>2018-04-20T09:33:20Z</time>
      </trkpt>
      <trkpt lat="45.91376" lon="4.73737">
        <ele>173</ele>
        <time>2018-04-20T09:33:21Z</time>
      </trkpt>
      <trkpt lat="45.91381" lon="4.73739">
        <ele>173</ele>
        <time>2018-04-20T09:33:22Z</time>
      </trkpt>
      <trkpt lat="45.91389" lon="4.73739">
        <ele>173</ele>
        <time>2018-04-20T09:33:24Z</time>
      </trkpt>
      <trkpt lat="45.91393" lon="4.73739">
        <ele>173</ele>
        <time>2018-04-20T09:33:25Z</time>
      </trkpt>
      <trkpt lat="45.91398" lon="4.73738">
        <ele>173</ele>
        <time>2018-04-20T09:33:26Z</time>
      </trkpt>
      <trkpt lat="45.91403" lon="4.73738">
        <ele>173</ele>
        <time>2018-04-20T09:33:27Z</time>
      </trkpt>
      <trkpt lat="45.91412" lon="4.7374">
        <ele>172</ele>
        <time>2018-04-20T09:33:29Z</time>
      </trkpt>
      <trkpt lat="45.91416" lon="4.73739">
        <ele>172</ele>
        <time>2018-04-20T09:33:30Z</time>
      </trkpt>
      <trkpt lat="45.91421" lon="4.73738">
        <ele>173</ele>
        <time>2018-04-20T09:33:31Z</time>
      </trkpt>
      <trkpt lat="45.91425" lon="4.73736">
        <ele>173</ele>
        <time>2018-04-20T09:33:32Z</time>
      </trkpt>
      <trkpt lat="45.91431" lon="4.73733">
        <ele>173</ele>
        <time>2018-04-20T09:33:33Z</time>
      </trkpt>
      <trkpt lat="45.91435" lon="4.73733">
        <ele>173</ele>
        <time>2018-04-20T09:33:34Z</time>
      </trkpt>
      <trkpt lat="45.9144" lon="4.73732">
        <ele>173</ele>
        <time>2018-04-20T09:33:35Z</time>
      </trkpt>
      <trkpt lat="45.91445" lon="4.73731">
        <ele>173</ele>
        <time>2018-04-20T09:33:36Z</time>
      </trkpt>
      <trkpt lat="45.91451" lon="4.73736">
        <ele>173</ele>
        <time>2018-04-20T09:33:38Z</time>
      </trkpt>
      <trkpt lat="45.91453" lon="4.73737">
        <ele>173</ele>
        <time>2018-04-20T09:33:39Z</time>
      </trkpt>
      <trkpt lat="45.91461" lon="4.73734">
        <ele>174</ele>
        <time>2018-04-20T09:33:42Z</time>
      </trkpt>
      <trkpt lat="45.91463" lon="4.73731">
        <ele>174</ele>
        <time>2018-04-20T09:33:43Z</time>
      </trkpt>
      <trkpt lat="45.91469" lon="4.73722">
        <ele>174</ele>
        <time>2018-04-20T09:33:47Z</time>
      </trkpt>
      <trkpt lat="45.9147" lon="4.73718">
        <ele>174</ele>
        <time>2018-04-20T09:33:48Z</time>
      </trkpt>
      <trkpt lat="45.91471" lon="4.73707">
        <ele>174</ele>
        <time>2018-04-20T09:33:49Z</time>
      </trkpt>
      <trkpt lat="45.9147" lon="4.73703">
        <ele>174</ele>
        <time>2018-04-20T09:33:50Z</time>
      </trkpt>
      <trkpt lat="45.91467" lon="4.73692">
        <ele>174</ele>
        <time>2018-04-20T09:33:52Z</time>
      </trkpt>
      <trkpt lat="45.91465" lon="4.73687">
        <ele>174</ele>
        <time>2018-04-20T09:33:53Z</time>
      </trkpt>
      <trkpt lat="45.9146" lon="4.73678">
        <ele>174</ele>
        <time>2018-04-20T09:33:55Z</time>
      </trkpt>
      <trkpt lat="45.91458" lon="4.73674">
        <ele>174</ele>
        <time>2018-04-20T09:33:56Z</time>
      </trkpt>
      <trkpt lat="45.91453" lon="4.73665">
        <ele>174</ele>
        <time>2018-04-20T09:33:58Z</time>
      </trkpt>
      <trkpt lat="45.9145" lon="4.7366">
        <ele>174</ele>
        <time>2018-04-20T09:33:59Z</time>
      </trkpt>
      <trkpt lat="45.91445" lon="4.73651">
        <ele>174</ele>
        <time>2018-04-20T09:34:01Z</time>
      </trkpt>
      <trkpt lat="45.91444" lon="4.73649">
        <ele>174</ele>
        <time>2018-04-20T09:34:02Z</time>
      </trkpt>
      <trkpt lat="45.91439" lon="4.7364">
        <ele>174</ele>
        <time>2018-04-20T09:34:06Z</time>
      </trkpt>
      <trkpt lat="45.91434" lon="4.73628">
        <ele>174</ele>
        <time>2018-04-20T09:34:07Z</time>
      </trkpt>
      <trkpt lat="45.91433" lon="4.73616">
        <ele>175</ele>
        <time>2018-04-20T09:34:09Z</time>
      </trkpt>
      <trkpt lat="45.91433" lon="4.73613">
        <ele>175</ele>
        <time>2018-04-20T09:34:10Z</time>
      </trkpt>
      <trkpt lat="45.91433" lon="4.73606">
        <ele>175</ele>
        <time>2018-04-20T09:34:11Z</time>
      </trkpt>
      <trkpt lat="45.91434" lon="4.73599">
        <ele>175</ele>
        <time>2018-04-20T09:34:12Z</time>
      </trkpt>
      <trkpt lat="45.91432" lon="4.73588">
        <ele>175</ele>
        <time>2018-04-20T09:34:14Z</time>
      </trkpt>
      <trkpt lat="45.91432" lon="4.73585">
        <ele>175</ele>
        <time>2018-04-20T09:34:15Z</time>
      </trkpt>
      <trkpt lat="45.91431" lon="4.73577">
        <ele>175</ele>
        <time>2018-04-20T09:34:16Z</time>
      </trkpt>
      <trkpt lat="45.9143" lon="4.73571">
        <ele>175</ele>
        <time>2018-04-20T09:34:17Z</time>
      </trkpt>
      <trkpt lat="45.9143" lon="4.73565">
        <ele>175</ele>
        <time>2018-04-20T09:34:19Z</time>
      </trkpt>
      <trkpt lat="45.91436" lon="4.73555">
        <ele>174</ele>
        <time>2018-04-20T09:34:20Z</time>
      </trkpt>
      <trkpt lat="45.91433" lon="4.73548">
        <ele>174</ele>
        <time>2018-04-20T09:34:21Z</time>
      </trkpt>
      <trkpt lat="45.91432" lon="4.73543">
        <ele>174</ele>
        <time>2018-04-20T09:34:22Z</time>
      </trkpt>
      <trkpt lat="45.91433" lon="4.73532">
        <ele>174</ele>
        <time>2018-04-20T09:34:24Z</time>
      </trkpt>
      <trkpt lat="45.91433" lon="4.73526">
        <ele>174</ele>
        <time>2018-04-20T09:34:25Z</time>
      </trkpt>
      <trkpt lat="45.91432" lon="4.73514">
        <ele>174</ele>
        <time>2018-04-20T09:34:27Z</time>
      </trkpt>
      <trkpt lat="45.9143" lon="4.73508">
        <ele>174</ele>
        <time>2018-04-20T09:34:28Z</time>
      </trkpt>
      <trkpt lat="45.91429" lon="4.73496">
        <ele>174</ele>
        <time>2018-04-20T09:34:31Z</time>
      </trkpt>
      <trkpt lat="45.91429" lon="4.73492">
        <ele>174</ele>
        <time>2018-04-20T09:34:32Z</time>
      </trkpt>
      <trkpt lat="45.91429" lon="4.73481">
        <ele>174</ele>
        <time>2018-04-20T09:34:35Z</time>
      </trkpt>
      <trkpt lat="45.91429" lon="4.73478">
        <ele>174</ele>
        <time>2018-04-20T09:34:36Z</time>
      </trkpt>
      <trkpt lat="45.91427" lon="4.73466">
        <ele>174</ele>
        <time>2018-04-20T09:34:39Z</time>
      </trkpt>
      <trkpt lat="45.91427" lon="4.73463">
        <ele>174</ele>
        <time>2018-04-20T09:34:40Z</time>
      </trkpt>
      <trkpt lat="45.91427" lon="4.73455">
        <ele>174</ele>
        <time>2018-04-20T09:34:42Z</time>
      </trkpt>
      <trkpt lat="45.91427" lon="4.73442">
        <ele>174</ele>
        <time>2018-04-20T09:34:43Z</time>
      </trkpt>
      <trkpt lat="45.91426" lon="4.73431">
        <ele>174</ele>
        <time>2018-04-20T09:34:46Z</time>
      </trkpt>
      <trkpt lat="45.91426" lon="4.73428">
        <ele>174</ele>
        <time>2018-04-20T09:34:47Z</time>
      </trkpt>
      <trkpt lat="45.91425" lon="4.73417">
        <ele>174</ele>
        <time>2018-04-20T09:34:50Z</time>
      </trkpt>
      <trkpt lat="45.91425" lon="4.73412">
        <ele>174</ele>
        <time>2018-04-20T09:34:51Z</time>
      </trkpt>
      <trkpt lat="45.91426" lon="4.73404">
        <ele>174</ele>
        <time>2018-04-20T09:34:53Z</time>
      </trkpt>
      <trkpt lat="45.91429" lon="4.73391">
        <ele>174</ele>
        <time>2018-04-20T09:34:54Z</time>
      </trkpt>
      <trkpt lat="45.91435" lon="4.73386">
        <ele>174</ele>
        <time>2018-04-20T09:34:58Z</time>
      </trkpt>
      <trkpt lat="45.91437" lon="4.73385">
        <ele>174</ele>
        <time>2018-04-20T09:34:59Z</time>
      </trkpt>
      <trkpt lat="45.91442" lon="4.73384">
        <ele>174</ele>
        <time>2018-04-20T09:35:01Z</time>
      </trkpt>
      <trkpt lat="45.9145" lon="4.73382">
        <ele>174</ele>
        <time>2018-04-20T09:35:02Z</time>
      </trkpt>
      <trkpt lat="45.91459" lon="4.7338">
        <ele>174</ele>
        <time>2018-04-20T09:35:06Z</time>
      </trkpt>
      <trkpt lat="45.91462" lon="4.73379">
        <ele>174</ele>
        <time>2018-04-20T09:35:07Z</time>
      </trkpt>
      <trkpt lat="45.9147" lon="4.73378">
        <ele>174</ele>
        <time>2018-04-20T09:35:10Z</time>
      </trkpt>
      <trkpt lat="45.91472" lon="4.73377">
        <ele>174</ele>
        <time>2018-04-20T09:35:11Z</time>
      </trkpt>
      <trkpt lat="45.91475" lon="4.73376">
        <ele>174</ele>
        <time>2018-04-20T09:35:12Z</time>
      </trkpt>
      <trkpt lat="45.91485" lon="4.73374">
        <ele>174</ele>
        <time>2018-04-20T09:35:13Z</time>
      </trkpt>
      <trkpt lat="45.91493" lon="4.73373">
        <ele>174</ele>
        <time>2018-04-20T09:35:16Z</time>
      </trkpt>
      <trkpt lat="45.91496" lon="4.73372">
        <ele>174</ele>
        <time>2018-04-20T09:35:17Z</time>
      </trkpt>
      <trkpt lat="45.91503" lon="4.7337">
        <ele>174</ele>
        <time>2018-04-20T09:35:18Z</time>
      </trkpt>
      <trkpt lat="45.91505" lon="4.7337">
        <ele>174</ele>
        <time>2018-04-20T09:35:19Z</time>
      </trkpt>
      <trkpt lat="45.91514" lon="4.73372">
        <ele>174</ele>
        <time>2018-04-20T09:35:23Z</time>
      </trkpt>
      <trkpt lat="45.91515" lon="4.73373">
        <ele>174</ele>
        <time>2018-04-20T09:35:24Z</time>
      </trkpt>
      <trkpt lat="45.9152" lon="4.73381">
        <ele>174</ele>
        <time>2018-04-20T09:35:27Z</time>
      </trkpt>
      <trkpt lat="45.91521" lon="4.73383">
        <ele>174</ele>
        <time>2018-04-20T09:35:28Z</time>
      </trkpt>
      <trkpt lat="45.91527" lon="4.7339">
        <ele>174</ele>
        <time>2018-04-20T09:35:31Z</time>
      </trkpt>
      <trkpt lat="45.9153" lon="4.73391">
        <ele>174</ele>
        <time>2018-04-20T09:35:32Z</time>
      </trkpt>
      <trkpt lat="45.91536" lon="4.73392">
        <ele>174</ele>
        <time>2018-04-20T09:35:34Z</time>
      </trkpt>
      <trkpt lat="45.9154" lon="4.73391">
        <ele>174</ele>
        <time>2018-04-20T09:35:35Z</time>
      </trkpt>
      <trkpt lat="45.91547" lon="4.7339">
        <ele>174</ele>
        <time>2018-04-20T09:35:37Z</time>
      </trkpt>
      <trkpt lat="45.9155" lon="4.73389">
        <ele>174</ele>
        <time>2018-04-20T09:35:38Z</time>
      </trkpt>
      <trkpt lat="45.91558" lon="4.73387">
        <ele>174</ele>
        <time>2018-04-20T09:35:41Z</time>
      </trkpt>
      <trkpt lat="45.9156" lon="4.73386">
        <ele>174</ele>
        <time>2018-04-20T09:35:42Z</time>
      </trkpt>
      <trkpt lat="45.91562" lon="4.73386">
        <ele>174</ele>
        <time>2018-04-20T09:35:43Z</time>
      </trkpt>
      <trkpt lat="45.9157" lon="4.73385">
        <ele>174</ele>
        <time>2018-04-20T09:35:44Z</time>
      </trkpt>
      <trkpt lat="45.91578" lon="4.73383">
        <ele>174</ele>
        <time>2018-04-20T09:35:47Z</time>
      </trkpt>
      <trkpt lat="45.9158" lon="4.73383">
        <ele>174</ele>
        <time>2018-04-20T09:35:48Z</time>
      </trkpt>
      <trkpt lat="45.91588" lon="4.73382">
        <ele>173</ele>
        <time>2018-04-20T09:35:51Z</time>
      </trkpt>
      <trkpt lat="45.91591" lon="4.73381">
        <ele>173</ele>
        <time>2018-04-20T09:35:52Z</time>
      </trkpt>
      <trkpt lat="45.916" lon="4.7338">
        <ele>173</ele>
        <time>2018-04-20T09:35:55Z</time>
      </trkpt>
      <trkpt lat="45.91603" lon="4.7338">
        <ele>173</ele>
        <time>2018-04-20T09:35:56Z</time>
      </trkpt>
      <trkpt lat="45.91609" lon="4.73379">
        <ele>173</ele>
        <time>2018-04-20T09:35:58Z</time>
      </trkpt>
      <trkpt lat="45.91612" lon="4.73378">
        <ele>173</ele>
        <time>2018-04-20T09:35:59Z</time>
      </trkpt>
      <trkpt lat="45.91618" lon="4.73377">
        <ele>173</ele>
        <time>2018-04-20T09:36:01Z</time>
      </trkpt>
      <trkpt lat="45.91626" lon="4.73375">
        <ele>173</ele>
        <time>2018-04-20T09:36:02Z</time>
      </trkpt>
      <trkpt lat="45.91633" lon="4.73374">
        <ele>173</ele>
        <time>2018-04-20T09:36:06Z</time>
      </trkpt>
      <trkpt lat="45.91635" lon="4.73374">
        <ele>173</ele>
        <time>2018-04-20T09:36:07Z</time>
      </trkpt>
      <trkpt lat="45.91643" lon="4.73377">
        <ele>173</ele>
        <time>2018-04-20T09:36:12Z</time>
      </trkpt>
      <trkpt lat="45.91644" lon="4.73378">
        <ele>173</ele>
        <time>2018-04-20T09:36:13Z</time>
      </trkpt>
      <trkpt lat="45.91649" lon="4.73388">
        <ele>173</ele>
        <time>2018-04-20T09:36:24Z</time>
      </trkpt>
      <trkpt lat="45.9165" lon="4.73389">
        <ele>173</ele>
        <time>2018-04-20T09:36:25Z</time>
      </trkpt>
      <trkpt lat="45.91658" lon="4.73392">
        <ele>173</ele>
        <time>2018-04-20T09:36:37Z</time>
      </trkpt>
      <trkpt lat="45.91659" lon="4.73393">
        <ele>173</ele>
        <time>2018-04-20T09:36:38Z</time>
      </trkpt>
      <trkpt lat="45.91664" lon="4.73402">
        <ele>173</ele>
        <time>2018-04-20T09:36:42Z</time>
      </trkpt>
      <trkpt lat="45.91665" lon="4.73404">
        <ele>173</ele>
        <time>2018-04-20T09:36:43Z</time>
      </trkpt>
      <trkpt lat="45.9167" lon="4.73411">
        <ele>173</ele>
        <time>2018-04-20T09:36:46Z</time>
      </trkpt>
      <trkpt lat="45.91671" lon="4.73414">
        <ele>173</ele>
        <time>2018-04-20T09:36:47Z</time>
      </trkpt>
      <trkpt lat="45.91678" lon="4.73421">
        <ele>173</ele>
        <time>2018-04-20T09:36:51Z</time>
      </trkpt>
      <trkpt lat="45.91679" lon="4.73423">
        <ele>173</ele>
        <time>2018-04-20T09:36:52Z</time>
      </trkpt>
      <trkpt lat="45.91681" lon="4.73435">
        <ele>173</ele>
        <time>2018-04-20T09:36:56Z</time>
      </trkpt>
      <trkpt lat="45.91681" lon="4.73438">
        <ele>173</ele>
        <time>2018-04-20T09:36:57Z</time>
      </trkpt>
      <trkpt lat="45.91681" lon="4.73448">
        <ele>173</ele>
        <time>2018-04-20T09:37:01Z</time>
      </trkpt>
      <trkpt lat="45.91682" lon="4.73451">
        <ele>173</ele>
        <time>2018-04-20T09:37:02Z</time>
      </trkpt>
      <trkpt lat="45.91686" lon="4.73461">
        <ele>173</ele>
        <time>2018-04-20T09:37:06Z</time>
      </trkpt>
      <trkpt lat="45.91687" lon="4.73462">
        <ele>173</ele>
        <time>2018-04-20T09:37:07Z</time>
      </trkpt>
      <trkpt lat="45.91695" lon="4.73467">
        <ele>173</ele>
        <time>2018-04-20T09:41:14Z</time>
      </trkpt>
      <trkpt lat="45.91695" lon="4.73467">
        <ele>173</ele>
        <time>2018-04-20T09:41:15Z</time>
      </trkpt>
      <trkpt lat="45.91703" lon="4.73461">
        <ele>173</ele>
        <time>2018-04-20T09:41:21Z</time>
      </trkpt>
      <trkpt lat="45.91705" lon="4.7346">
        <ele>173</ele>
        <time>2018-04-20T09:41:22Z</time>
      </trkpt>
      <trkpt lat="45.91712" lon="4.73456">
        <ele>174</ele>
        <time>2018-04-20T09:41:26Z</time>
      </trkpt>
      <trkpt lat="45.91714" lon="4.73454">
        <ele>174</ele>
        <time>2018-04-20T09:41:27Z</time>
      </trkpt>
      <trkpt lat="45.91721" lon="4.73449">
        <ele>174</ele>
        <time>2018-04-20T09:41:28Z</time>
      </trkpt>
      <trkpt lat="45.91722" lon="4.73448">
        <ele>174</ele>
        <time>2018-04-20T09:41:29Z</time>
      </trkpt>
      <trkpt lat="45.9173" lon="4.73445">
        <ele>174</ele>
        <time>2018-04-20T09:41:33Z</time>
      </trkpt>
      <trkpt lat="45.91732" lon="4.73444">
        <ele>174</ele>
        <time>2018-04-20T09:41:34Z</time>
      </trkpt>
      <trkpt lat="45.91739" lon="4.73442">
        <ele>174</ele>
        <time>2018-04-20T09:41:37Z</time>
      </trkpt>
      <trkpt lat="45.91741" lon="4.73442">
        <ele>174</ele>
        <time>2018-04-20T09:41:38Z</time>
      </trkpt>
      <trkpt lat="45.9175" lon="4.73442">
        <ele>174</ele>
        <time>2018-04-20T09:41:42Z</time>
      </trkpt>
      <trkpt lat="45.91753" lon="4.73442">
        <ele>174</ele>
        <time>2018-04-20T09:41:43Z</time>
      </trkpt>
      <trkpt lat="45.9176" lon="4.7344">
        <ele>174</ele>
        <time>2018-04-20T09:41:46Z</time>
      </trkpt>
      <trkpt lat="45.91763" lon="4.73439">
        <ele>174</ele>
        <time>2018-04-20T09:41:47Z</time>
      </trkpt>
      <trkpt lat="45.91769" lon="4.73436">
        <ele>174</ele>
        <time>2018-04-20T09:41:50Z</time>
      </trkpt>
      <trkpt lat="45.91771" lon="4.73434">
        <ele>174</ele>
        <time>2018-04-20T09:41:51Z</time>
      </trkpt>
      <trkpt lat="45.91778" lon="4.73428">
        <ele>174</ele>
        <time>2018-04-20T09:41:55Z</time>
      </trkpt>
      <trkpt lat="45.9178" lon="4.73427">
        <ele>174</ele>
        <time>2018-04-20T09:41:56Z</time>
      </trkpt>
      <trkpt lat="45.91788" lon="4.73423">
        <ele>174</ele>
        <time>2018-04-20T09:42:00Z</time>
      </trkpt>
      <trkpt lat="45.9179" lon="4.73422">
        <ele>174</ele>
        <time>2018-04-20T09:42:01Z</time>
      </trkpt>
      <trkpt lat="45.91795" lon="4.73413">
        <ele>173</ele>
        <time>2018-04-20T09:42:06Z</time>
      </trkpt>
      <trkpt lat="45.91795" lon="4.73411">
        <ele>173</ele>
        <time>2018-04-20T09:42:07Z</time>
      </trkpt>
      <trkpt lat="45.91795" lon="4.73399">
        <ele>173</ele>
        <time>2018-04-20T09:42:11Z</time>
      </trkpt>
      <trkpt lat="45.91795" lon="4.73396">
        <ele>173</ele>
        <time>2018-04-20T09:42:12Z</time>
      </trkpt>
      <trkpt lat="45.91794" lon="4.73385">
        <ele>173</ele>
        <time>2018-04-20T09:42:15Z</time>
      </trkpt>
      <trkpt lat="45.91794" lon="4.73381">
        <ele>173</ele>
        <time>2018-04-20T09:42:16Z</time>
      </trkpt>
      <trkpt lat="45.91793" lon="4.73369">
        <ele>172</ele>
        <time>2018-04-20T09:42:20Z</time>
      </trkpt>
      <trkpt lat="45.91793" lon="4.73366">
        <ele>172</ele>
        <time>2018-04-20T09:42:21Z</time>
      </trkpt>
      <trkpt lat="45.91792" lon="4.73353">
        <ele>172</ele>
        <time>2018-04-20T09:42:26Z</time>
      </trkpt>
      <trkpt lat="45.91792" lon="4.73352">
        <ele>172</ele>
        <time>2018-04-20T09:42:27Z</time>
      </trkpt>
      <trkpt lat="45.918" lon="4.73347">
        <ele>172</ele>
        <time>2018-04-20T09:42:45Z</time>
      </trkpt>
      <trkpt lat="45.91801" lon="4.73346">
        <ele>172</ele>
        <time>2018-04-20T09:42:46Z</time>
      </trkpt>
      <trkpt lat="45.91809" lon="4.73341">
        <ele>172</ele>
        <time>2018-04-20T09:42:50Z</time>
      </trkpt>
      <trkpt lat="45.91812" lon="4.7334">
        <ele>172</ele>
        <time>2018-04-20T09:42:51Z</time>
      </trkpt>
      <trkpt lat="45.91819" lon="4.73336">
        <ele>172</ele>
        <time>2018-04-20T09:42:54Z</time>
      </trkpt>
      <trkpt lat="45.91822" lon="4.73335">
        <ele>172</ele>
        <time>2018-04-20T09:42:55Z</time>
      </trkpt>
      <trkpt lat="45.91829" lon="4.73331">
        <ele>172</ele>
        <time>2018-04-20T09:42:58Z</time>
      </trkpt>
      <trkpt lat="45.91832" lon="4.7333">
        <ele>172</ele>
        <time>2018-04-20T09:42:59Z</time>
      </trkpt>
      <trkpt lat="45.91841" lon="4.73328">
        <ele>172</ele>
        <time>2018-04-20T09:43:03Z</time>
      </trkpt>
      <trkpt lat="45.91843" lon="4.73328">
        <ele>172</ele>
        <time>2018-04-20T09:43:04Z</time>
      </trkpt>
      <trkpt lat="45.9185" lon="4.73325">
        <ele>171</ele>
        <time>2018-04-20T09:43:07Z</time>
      </trkpt>
      <trkpt lat="45.91852" lon="4.73324">
        <ele>171</ele>
        <time>2018-04-20T09:43:08Z</time>
      </trkpt>
      <trkpt lat="45.91861" lon="4.73321">
        <ele>171</ele>
        <time>2018-04-20T09:43:11Z</time>
      </trkpt>
      <trkpt lat="45.91864" lon="4.73321">
        <ele>171</ele>
        <time>2018-04-20T09:43:12Z</time>
      </trkpt>
      <trkpt lat="45.91871" lon="4.73318">
        <ele>171</ele>
        <time>2018-04-20T09:43:15Z</time>
      </trkpt>
      <trkpt lat="45.91874" lon="4.73318">
        <ele>171</ele>
        <time>2018-04-20T09:43:16Z</time>
      </trkpt>
      <trkpt lat="45.91882" lon="4.73316">
        <ele>171</ele>
        <time>2018-04-20T09:43:19Z</time>
      </trkpt>
      <trkpt lat="45.91884" lon="4.73315">
        <ele>171</ele>
        <time>2018-04-20T09:43:20Z</time>
      </trkpt>
      <trkpt lat="45.91892" lon="4.73313">
        <ele>171</ele>
        <time>2018-04-20T09:43:23Z</time>
      </trkpt>
      <trkpt lat="45.91894" lon="4.73312">
        <ele>171</ele>
        <time>2018-04-20T09:43:24Z</time>
      </trkpt>
      <trkpt lat="45.91901" lon="4.73311">
        <ele>171</ele>
        <time>2018-04-20T09:43:27Z</time>
      </trkpt>
      <trkpt lat="45.91903" lon="4.7331">
        <ele>171</ele>
        <time>2018-04-20T09:43:28Z</time>
      </trkpt>
      <trkpt lat="45.91912" lon="4.73308">
        <ele>171</ele>
        <time>2018-04-20T09:43:31Z</time>
      </trkpt>
      <trkpt lat="45.91915" lon="4.73307">
        <ele>171</ele>
        <time>2018-04-20T09:43:32Z</time>
      </trkpt>
      <trkpt lat="45.91921" lon="4.73305">
        <ele>171</ele>
        <time>2018-04-20T09:43:34Z</time>
      </trkpt>
      <trkpt lat="45.91924" lon="4.73304">
        <ele>171</ele>
        <time>2018-04-20T09:43:35Z</time>
      </trkpt>
      <trkpt lat="45.91928" lon="4.73303">
        <ele>171</ele>
        <time>2018-04-20T09:43:36Z</time>
      </trkpt>
      <trkpt lat="45.91937" lon="4.733">
        <ele>171</ele>
        <time>2018-04-20T09:43:37Z</time>
      </trkpt>
      <trkpt lat="45.91945" lon="4.73298">
        <ele>171</ele>
        <time>2018-04-20T09:43:40Z</time>
      </trkpt>
      <trkpt lat="45.91947" lon="4.73297">
        <ele>171</ele>
        <time>2018-04-20T09:43:41Z</time>
      </trkpt>
      <trkpt lat="45.91954" lon="4.73295">
        <ele>171</ele>
        <time>2018-04-20T09:43:44Z</time>
      </trkpt>
      <trkpt lat="45.91956" lon="4.73294">
        <ele>171</ele>
        <time>2018-04-20T09:43:45Z</time>
      </trkpt>
      <trkpt lat="45.91962" lon="4.73292">
        <ele>171</ele>
        <time>2018-04-20T09:43:47Z</time>
      </trkpt>
      <trkpt lat="45.91971" lon="4.73288">
        <ele>171</ele>
        <time>2018-04-20T09:43:48Z</time>
      </trkpt>
      <trkpt lat="45.91978" lon="4.73286">
        <ele>171</ele>
        <time>2018-04-20T09:43:51Z</time>
      </trkpt>
      <trkpt lat="45.91981" lon="4.73285">
        <ele>171</ele>
        <time>2018-04-20T09:43:52Z</time>
      </trkpt>
      <trkpt lat="45.91989" lon="4.73284">
        <ele>171</ele>
        <time>2018-04-20T09:43:55Z</time>
      </trkpt>
      <trkpt lat="45.91991" lon="4.73283">
        <ele>171</ele>
        <time>2018-04-20T09:43:56Z</time>
      </trkpt>
      <trkpt lat="45.91994" lon="4.73282">
        <ele>171</ele>
        <time>2018-04-20T09:43:57Z</time>
      </trkpt>
      <trkpt lat="45.92003" lon="4.73278">
        <ele>171</ele>
        <time>2018-04-20T09:43:58Z</time>
      </trkpt>
      <trkpt lat="45.9201" lon="4.73275">
        <ele>171</ele>
        <time>2018-04-20T09:44:00Z</time>
      </trkpt>
      <trkpt lat="45.92014" lon="4.73273">
        <ele>171</ele>
        <time>2018-04-20T09:44:01Z</time>
      </trkpt>
      <trkpt lat="45.92021" lon="4.7327">
        <ele>171</ele>
        <time>2018-04-20T09:44:03Z</time>
      </trkpt>
      <trkpt lat="45.92025" lon="4.73269">
        <ele>171</ele>
        <time>2018-04-20T09:44:04Z</time>
      </trkpt>
      <trkpt lat="45.92032" lon="4.73265">
        <ele>171</ele>
        <time>2018-04-20T09:44:07Z</time>
      </trkpt>
      <trkpt lat="45.92034" lon="4.73264">
        <ele>171</ele>
        <time>2018-04-20T09:44:08Z</time>
      </trkpt>
      <trkpt lat="45.92036" lon="4.73262">
        <ele>171</ele>
        <time>2018-04-20T09:44:09Z</time>
      </trkpt>
      <trkpt lat="45.92044" lon="4.73257">
        <ele>171</ele>
        <time>2018-04-20T09:44:10Z</time>
      </trkpt>
      <trkpt lat="45.92051" lon="4.73253">
        <ele>171</ele>
        <time>2018-04-20T09:44:12Z</time>
      </trkpt>
      <trkpt lat="45.92053" lon="4.73252">
        <ele>171</ele>
        <time>2018-04-20T09:44:13Z</time>
      </trkpt>
      <trkpt lat="45.92059" lon="4.73249">
        <ele>171</ele>
        <time>2018-04-20T09:44:16Z</time>
      </trkpt>
      <trkpt lat="45.92067" lon="4.73246">
        <ele>171</ele>
        <time>2018-04-20T09:44:17Z</time>
      </trkpt>
      <trkpt lat="45.92075" lon="4.73244">
        <ele>171</ele>
        <time>2018-04-20T09:44:19Z</time>
      </trkpt>
      <trkpt lat="45.92079" lon="4.73244">
        <ele>171</ele>
        <time>2018-04-20T09:44:20Z</time>
      </trkpt>
      <trkpt lat="45.92085" lon="4.73242">
        <ele>171</ele>
        <time>2018-04-20T09:44:23Z</time>
      </trkpt>
      <trkpt lat="45.92088" lon="4.73241">
        <ele>171</ele>
        <time>2018-04-20T09:44:24Z</time>
      </trkpt>
      <trkpt lat="45.92095" lon="4.73237">
        <ele>171</ele>
        <time>2018-04-20T09:44:25Z</time>
      </trkpt>
      <trkpt lat="45.92099" lon="4.73235">
        <ele>171</ele>
        <time>2018-04-20T09:44:26Z</time>
      </trkpt>
      <trkpt lat="45.92104" lon="4.73233">
        <ele>171</ele>
        <time>2018-04-20T09:44:28Z</time>
      </trkpt>
      <trkpt lat="45.92111" lon="4.73229">
        <ele>171</ele>
        <time>2018-04-20T09:44:29Z</time>
      </trkpt>
      <trkpt lat="45.92119" lon="4.73225">
        <ele>171</ele>
        <time>2018-04-20T09:44:31Z</time>
      </trkpt>
      <trkpt lat="45.92123" lon="4.73224">
        <ele>171</ele>
        <time>2018-04-20T09:44:32Z</time>
      </trkpt>
      <trkpt lat="45.92131" lon="4.73221">
        <ele>171</ele>
        <time>2018-04-20T09:44:34Z</time>
      </trkpt>
      <trkpt lat="45.92132" lon="4.73221">
        <ele>171</ele>
        <time>2018-04-20T09:44:35Z</time>
      </trkpt>
      <trkpt lat="45.92138" lon="4.73219">
        <ele>171</ele>
        <time>2018-04-20T09:44:36Z</time>
      </trkpt>
      <trkpt lat="45.92141" lon="4.73217">
        <ele>171</ele>
        <time>2018-04-20T09:44:37Z</time>
      </trkpt>
      <trkpt lat="45.92149" lon="4.73214">
        <ele>171</ele>
        <time>2018-04-20T09:44:39Z</time>
      </trkpt>
      <trkpt lat="45.92153" lon="4.73213">
        <ele>171</ele>
        <time>2018-04-20T09:44:40Z</time>
      </trkpt>
      <trkpt lat="45.92161" lon="4.7321">
        <ele>171</ele>
        <time>2018-04-20T09:44:42Z</time>
      </trkpt>
      <trkpt lat="45.92165" lon="4.73209">
        <ele>171</ele>
        <time>2018-04-20T09:44:43Z</time>
      </trkpt>
      <trkpt lat="45.92172" lon="4.73207">
        <ele>171</ele>
        <time>2018-04-20T09:44:45Z</time>
      </trkpt>
      <trkpt lat="45.92174" lon="4.73207">
        <ele>171</ele>
        <time>2018-04-20T09:44:46Z</time>
      </trkpt>
      <trkpt lat="45.92181" lon="4.73205">
        <ele>171</ele>
        <time>2018-04-20T09:44:49Z</time>
      </trkpt>
      <trkpt lat="45.92183" lon="4.73204">
        <ele>171</ele>
        <time>2018-04-20T09:44:50Z</time>
      </trkpt>
      <trkpt lat="45.92192" lon="4.73201">
        <ele>171</ele>
        <time>2018-04-20T09:44:51Z</time>
      </trkpt>
      <trkpt lat="45.92196" lon="4.732">
        <ele>171</ele>
        <time>2018-04-20T09:44:52Z</time>
      </trkpt>
      <trkpt lat="45.92203" lon="4.73197">
        <ele>171</ele>
        <time>2018-04-20T09:44:55Z</time>
      </trkpt>
      <trkpt lat="45.92206" lon="4.73196">
        <ele>171</ele>
        <time>2018-04-20T09:44:56Z</time>
      </trkpt>
      <trkpt lat="45.92213" lon="4.73193">
        <ele>171</ele>
        <time>2018-04-20T09:44:57Z</time>
      </trkpt>
      <trkpt lat="45.92216" lon="4.73191">
        <ele>171</ele>
        <time>2018-04-20T09:44:58Z</time>
      </trkpt>
      <trkpt lat="45.92224" lon="4.73188">
        <ele>171</ele>
        <time>2018-04-20T09:45:00Z</time>
      </trkpt>
      <trkpt lat="45.92225" lon="4.73187">
        <ele>171</ele>
        <time>2018-04-20T09:45:01Z</time>
      </trkpt>
      <trkpt lat="45.92234" lon="4.73186">
        <ele>171</ele>
        <time>2018-04-20T09:45:05Z</time>
      </trkpt>
      <trkpt lat="45.92236" lon="4.73185">
        <ele>171</ele>
        <time>2018-04-20T09:45:06Z</time>
      </trkpt>
      <trkpt lat="45.92242" lon="4.73183">
        <ele>171</ele>
        <time>2018-04-20T09:45:08Z</time>
      </trkpt>
      <trkpt lat="45.92245" lon="4.73182">
        <ele>171</ele>
        <time>2018-04-20T09:45:09Z</time>
      </trkpt>
      <trkpt lat="45.92255" lon="4.73178">
        <ele>171</ele>
        <time>2018-04-20T09:45:10Z</time>
      </trkpt>
      <trkpt lat="45.92263" lon="4.73174">
        <ele>171</ele>
        <time>2018-04-20T09:45:12Z</time>
      </trkpt>
      <trkpt lat="45.92266" lon="4.73173">
        <ele>171</ele>
        <time>2018-04-20T09:45:13Z</time>
      </trkpt>
      <trkpt lat="45.92275" lon="4.73169">
        <ele>171</ele>
        <time>2018-04-20T09:45:17Z</time>
      </trkpt>
      <trkpt lat="45.92283" lon="4.73166">
        <ele>171</ele>
        <time>2018-04-20T09:45:18Z</time>
      </trkpt>
      <trkpt lat="45.9229" lon="4.73163">
        <ele>171</ele>
        <time>2018-04-20T09:45:20Z</time>
      </trkpt>
      <trkpt lat="45.92292" lon="4.73162">
        <ele>171</ele>
        <time>2018-04-20T09:45:21Z</time>
      </trkpt>
      <trkpt lat="45.92299" lon="4.73159">
        <ele>171</ele>
        <time>2018-04-20T09:45:24Z</time>
      </trkpt>
      <trkpt lat="45.92302" lon="4.73158">
        <ele>171</ele>
        <time>2018-04-20T09:45:25Z</time>
      </trkpt>
      <trkpt lat="45.92309" lon="4.73156">
        <ele>171</ele>
        <time>2018-04-20T09:45:28Z</time>
      </trkpt>
      <trkpt lat="45.92311" lon="4.73155">
        <ele>172</ele>
        <time>2018-04-20T09:45:29Z</time>
      </trkpt>
      <trkpt lat="45.9232" lon="4.73151">
        <ele>172</ele>
        <time>2018-04-20T09:45:33Z</time>
      </trkpt>
      <trkpt lat="45.92322" lon="4.7315">
        <ele>172</ele>
        <time>2018-04-20T09:45:34Z</time>
      </trkpt>
      <trkpt lat="45.92329" lon="4.73148">
        <ele>172</ele>
        <time>2018-04-20T09:45:38Z</time>
      </trkpt>
      <trkpt lat="45.92331" lon="4.73147">
        <ele>172</ele>
        <time>2018-04-20T09:45:39Z</time>
      </trkpt>
      <trkpt lat="45.9234" lon="4.73149">
        <ele>171</ele>
        <time>2018-04-20T09:46:19Z</time>
      </trkpt>
      <trkpt lat="45.92341" lon="4.73148">
        <ele>171</ele>
        <time>2018-04-20T09:46:20Z</time>
      </trkpt>
      <trkpt lat="45.92344" lon="4.73147">
        <ele>171</ele>
        <time>2018-04-20T09:46:21Z</time>
      </trkpt>
      <trkpt lat="45.92352" lon="4.73143">
        <ele>171</ele>
        <time>2018-04-20T09:46:22Z</time>
      </trkpt>
      <trkpt lat="45.9236" lon="4.7314">
        <ele>171</ele>
        <time>2018-04-20T09:46:24Z</time>
      </trkpt>
      <trkpt lat="45.92364" lon="4.73138">
        <ele>171</ele>
        <time>2018-04-20T09:46:25Z</time>
      </trkpt>
      <trkpt lat="45.92371" lon="4.73135">
        <ele>171</ele>
        <time>2018-04-20T09:46:27Z</time>
      </trkpt>
      <trkpt lat="45.92375" lon="4.73133">
        <ele>171</ele>
        <time>2018-04-20T09:46:28Z</time>
      </trkpt>
      <trkpt lat="45.92383" lon="4.73129">
        <ele>171</ele>
        <time>2018-04-20T09:46:30Z</time>
      </trkpt>
      <trkpt lat="45.92387" lon="4.73128">
        <ele>171</ele>
        <time>2018-04-20T09:46:31Z</time>
      </trkpt>
      <trkpt lat="45.92395" lon="4.73125">
        <ele>171</ele>
        <time>2018-04-20T09:46:33Z</time>
      </trkpt>
      <trkpt lat="45.92398" lon="4.73123">
        <ele>171</ele>
        <time>2018-04-20T09:46:34Z</time>
      </trkpt>
      <trkpt lat="45.92402" lon="4.73122">
        <ele>171</ele>
        <time>2018-04-20T09:46:36Z</time>
      </trkpt>
      <trkpt lat="45.92409" lon="4.73122">
        <ele>171</ele>
        <time>2018-04-20T09:46:37Z</time>
      </trkpt>
      <trkpt lat="45.92413" lon="4.73132">
        <ele>171</ele>
        <time>2018-04-20T09:46:39Z</time>
      </trkpt>
      <trkpt lat="45.92408" lon="4.73142">
        <ele>171</ele>
        <time>2018-04-20T09:46:40Z</time>
      </trkpt>
      <trkpt lat="45.92407" lon="4.73149">
        <ele>171</ele>
        <time>2018-04-20T09:46:41Z</time>
      </trkpt>
      <trkpt lat="45.92406" lon="4.73155">
        <ele>170</ele>
        <time>2018-04-20T09:46:42Z</time>
      </trkpt>
      <trkpt lat="45.92408" lon="4.73165">
        <ele>170</ele>
        <time>2018-04-20T09:46:44Z</time>
      </trkpt>
      <trkpt lat="45.92408" lon="4.73172">
        <ele>170</ele>
        <time>2018-04-20T09:46:45Z</time>
      </trkpt>
      <trkpt lat="45.92411" lon="4.7318">
        <ele>171</ele>
        <time>2018-04-20T09:46:46Z</time>
      </trkpt>
      <trkpt lat="45.92411" lon="4.73187">
        <ele>171</ele>
        <time>2018-04-20T09:46:47Z</time>
      </trkpt>
      <trkpt lat="45.92411" lon="4.73194">
        <ele>171</ele>
        <time>2018-04-20T09:46:48Z</time>
      </trkpt>
      <trkpt lat="45.92411" lon="4.732">
        <ele>171</ele>
        <time>2018-04-20T09:46:49Z</time>
      </trkpt>
      <trkpt lat="45.9241" lon="4.73208">
        <ele>171</ele>
        <time>2018-04-20T09:46:50Z</time>
      </trkpt>
      <trkpt lat="45.9241" lon="4.73216">
        <ele>171</ele>
        <time>2018-04-20T09:46:51Z</time>
      </trkpt>
      <trkpt lat="45.92411" lon="4.73228">
        <ele>171</ele>
        <time>2018-04-20T09:46:53Z</time>
      </trkpt>
      <trkpt lat="45.92411" lon="4.73238">
        <ele>171</ele>
        <time>2018-04-20T09:46:54Z</time>
      </trkpt>
      <trkpt lat="45.92412" lon="4.7325">
        <ele>171</ele>
        <time>2018-04-20T09:46:56Z</time>
      </trkpt>
      <trkpt lat="45.92412" lon="4.73256">
        <ele>171</ele>
        <time>2018-04-20T09:46:57Z</time>
      </trkpt>
      <trkpt lat="45.92412" lon="4.73263">
        <ele>171</ele>
        <time>2018-04-20T09:46:58Z</time>
      </trkpt>
      <trkpt lat="45.92414" lon="4.73269">
        <ele>171</ele>
        <time>2018-04-20T09:46:59Z</time>
      </trkpt>
      <trkpt lat="45.92414" lon="4.7328">
        <ele>171</ele>
        <time>2018-04-20T09:47:01Z</time>
      </trkpt>
      <trkpt lat="45.92415" lon="4.73286">
        <ele>171</ele>
        <time>2018-04-20T09:47:02Z</time>
      </trkpt>
      <trkpt lat="45.92416" lon="4.73296">
        <ele>171</ele>
        <time>2018-04-20T09:47:04Z</time>
      </trkpt>
      <trkpt lat="45.92417" lon="4.73302">
        <ele>171</ele>
        <time>2018-04-20T09:47:05Z</time>
      </trkpt>
      <trkpt lat="45.92419" lon="4.73314">
        <ele>171</ele>
        <time>2018-04-20T09:47:07Z</time>
      </trkpt>
      <trkpt lat="45.9242" lon="4.7332">
        <ele>171</ele>
        <time>2018-04-20T09:47:08Z</time>
      </trkpt>
      <trkpt lat="45.92421" lon="4.73326">
        <ele>171</ele>
        <time>2018-04-20T09:47:09Z</time>
      </trkpt>
      <trkpt lat="45.92421" lon="4.73333">
        <ele>171</ele>
        <time>2018-04-20T09:47:10Z</time>
      </trkpt>
      <trkpt lat="45.92422" lon="4.73339">
        <ele>171</ele>
        <time>2018-04-20T09:47:11Z</time>
      </trkpt>
      <trkpt lat="45.92422" lon="4.73346">
        <ele>171</ele>
        <time>2018-04-20T09:47:12Z</time>
      </trkpt>
      <trkpt lat="45.92423" lon="4.73354">
        <ele>171</ele>
        <time>2018-04-20T09:47:13Z</time>
      </trkpt>
      <trkpt lat="45.92424" lon="4.73361">
        <ele>172</ele>
        <time>2018-04-20T09:47:14Z</time>
      </trkpt>
      <trkpt lat="45.92425" lon="4.73367">
        <ele>172</ele>
        <time>2018-04-20T09:47:15Z</time>
      </trkpt>
      <trkpt lat="45.92426" lon="4.73374">
        <ele>172</ele>
        <time>2018-04-20T09:47:16Z</time>
      </trkpt>
      <trkpt lat="45.92428" lon="4.73381">
        <ele>172</ele>
        <time>2018-04-20T09:47:17Z</time>
      </trkpt>
      <trkpt lat="45.92429" lon="4.73387">
        <ele>172</ele>
        <time>2018-04-20T09:47:18Z</time>
      </trkpt>
      <trkpt lat="45.92431" lon="4.73394">
        <ele>172</ele>
        <time>2018-04-20T09:47:19Z</time>
      </trkpt>
      <trkpt lat="45.92432" lon="4.73399">
        <ele>172</ele>
        <time>2018-04-20T09:47:20Z</time>
      </trkpt>
      <trkpt lat="45.92436" lon="4.73409">
        <ele>172</ele>
        <time>2018-04-20T09:47:22Z</time>
      </trkpt>
      <trkpt lat="45.92437" lon="4.73411">
        <ele>172</ele>
        <time>2018-04-20T09:47:23Z</time>
      </trkpt>
      <trkpt lat="45.92444" lon="4.73418">
        <ele>173</ele>
        <time>2018-04-20T09:47:25Z</time>
      </trkpt>
      <trkpt lat="45.92448" lon="4.7342">
        <ele>173</ele>
        <time>2018-04-20T09:47:26Z</time>
      </trkpt>
      <trkpt lat="45.92453" lon="4.73423">
        <ele>173</ele>
        <time>2018-04-20T09:47:28Z</time>
      </trkpt>
      <trkpt lat="45.92458" lon="4.73427">
        <ele>173</ele>
        <time>2018-04-20T09:47:29Z</time>
      </trkpt>
      <trkpt lat="45.92464" lon="4.73436">
        <ele>173</ele>
        <time>2018-04-20T09:47:31Z</time>
      </trkpt>
      <trkpt lat="45.92467" lon="4.73441">
        <ele>173</ele>
        <time>2018-04-20T09:47:32Z</time>
      </trkpt>
      <trkpt lat="45.9247" lon="4.73451">
        <ele>173</ele>
        <time>2018-04-20T09:47:34Z</time>
      </trkpt>
      <trkpt lat="45.9247" lon="4.73457">
        <ele>173</ele>
        <time>2018-04-20T09:47:35Z</time>
      </trkpt>
      <trkpt lat="45.92468" lon="4.73469">
        <ele>173</ele>
        <time>2018-04-20T09:47:37Z</time>
      </trkpt>
      <trkpt lat="45.92469" lon="4.73474">
        <ele>173</ele>
        <time>2018-04-20T09:47:38Z</time>
      </trkpt>
      <trkpt lat="45.9247" lon="4.73484">
        <ele>173</ele>
        <time>2018-04-20T09:47:40Z</time>
      </trkpt>
      <trkpt lat="45.9247" lon="4.7349">
        <ele>173</ele>
        <time>2018-04-20T09:47:41Z</time>
      </trkpt>
      <trkpt lat="45.92471" lon="4.73501">
        <ele>174</ele>
        <time>2018-04-20T09:47:43Z</time>
      </trkpt>
      <trkpt lat="45.9247" lon="4.73507">
        <ele>174</ele>
        <time>2018-04-20T09:47:44Z</time>
      </trkpt>
      <trkpt lat="45.9247" lon="4.73519">
        <ele>174</ele>
        <time>2018-04-20T09:47:46Z</time>
      </trkpt>
      <trkpt lat="45.9247" lon="4.73524">
        <ele>174</ele>
        <time>2018-04-20T09:47:47Z</time>
      </trkpt>
      <trkpt lat="45.92469" lon="4.73537">
        <ele>174</ele>
        <time>2018-04-20T09:47:51Z</time>
      </trkpt>
      <trkpt lat="45.92468" lon="4.7354">
        <ele>174</ele>
        <time>2018-04-20T09:47:52Z</time>
      </trkpt>
      <trkpt lat="45.92468" lon="4.73544">
        <ele>173</ele>
        <time>2018-04-20T09:47:53Z</time>
      </trkpt>
      <trkpt lat="45.92467" lon="4.73557">
        <ele>173</ele>
        <time>2018-04-20T09:47:54Z</time>
      </trkpt>
      <trkpt lat="45.92467" lon="4.73569">
        <ele>173</ele>
        <time>2018-04-20T09:47:56Z</time>
      </trkpt>
      <trkpt lat="45.92467" lon="4.73576">
        <ele>173</ele>
        <time>2018-04-20T09:47:57Z</time>
      </trkpt>
      <trkpt lat="45.92468" lon="4.73588">
        <ele>174</ele>
        <time>2018-04-20T09:47:59Z</time>
      </trkpt>
      <trkpt lat="45.92468" lon="4.73597">
        <ele>174</ele>
        <time>2018-04-20T09:48:00Z</time>
      </trkpt>
      <trkpt lat="45.92468" lon="4.73604">
        <ele>174</ele>
        <time>2018-04-20T09:48:01Z</time>
      </trkpt>
      <trkpt lat="45.92468" lon="4.73611">
        <ele>174</ele>
        <time>2018-04-20T09:48:02Z</time>
      </trkpt>
      <trkpt lat="45.92468" lon="4.73618">
        <ele>174</ele>
        <time>2018-04-20T09:48:03Z</time>
      </trkpt>
      <trkpt lat="45.92468" lon="4.73624">
        <ele>174</ele>
        <time>2018-04-20T09:48:04Z</time>
      </trkpt>
      <trkpt lat="45.92469" lon="4.73636">
        <ele>174</ele>
        <time>2018-04-20T09:48:06Z</time>
      </trkpt>
      <trkpt lat="45.9247" lon="4.73641">
        <ele>174</ele>
        <time>2018-04-20T09:48:07Z</time>
      </trkpt>
      <trkpt lat="45.92468" lon="4.73653">
        <ele>174</ele>
        <time>2018-04-20T09:48:09Z</time>
      </trkpt>
      <trkpt lat="45.92468" lon="4.73659">
        <ele>174</ele>
        <time>2018-04-20T09:48:10Z</time>
      </trkpt>
      <trkpt lat="45.92467" lon="4.73668">
        <ele>174</ele>
        <time>2018-04-20T09:48:13Z</time>
      </trkpt>
      <trkpt lat="45.92466" lon="4.73672">
        <ele>174</ele>
        <time>2018-04-20T09:48:14Z</time>
      </trkpt>
      <trkpt lat="45.92466" lon="4.73682">
        <ele>174</ele>
        <time>2018-04-20T09:48:16Z</time>
      </trkpt>
      <trkpt lat="45.92466" lon="4.73686">
        <ele>174</ele>
        <time>2018-04-20T09:48:17Z</time>
      </trkpt>
      <trkpt lat="45.92465" lon="4.73699">
        <ele>174</ele>
        <time>2018-04-20T09:48:20Z</time>
      </trkpt>
      <trkpt lat="45.92465" lon="4.73702">
        <ele>174</ele>
        <time>2018-04-20T09:48:21Z</time>
      </trkpt>
      <trkpt lat="45.92461" lon="4.73709">
        <ele>174</ele>
        <time>2018-04-20T09:48:50.488Z</time>
      </trkpt>
    </trkseg>
  </trk>
</gpx>